<?xml version="1.0" encoding="UTF-8" standalone="no" ?>
<gpx xmlns="http://www.topografix.com/GPX/1/1" xmlns:xsi="http://www.w3.org/2001/XMLSchema-instance" xsi:schemaLocation="http://www.topografix.com/GPX/1/1 http://www.topografix.com/GPX/1/1/gpx.xsd" version="1.1" creator="VisuGPX - https://www.visugpx.com">
  <metadata>
    <name>Davrinche20101</name>
    <desc><![CDATA[la partie 1 des repérages]]></desc>
  </metadata>
  <trk>
    <name><![CDATA[--Nébouzat-- OR-5370363:ser-fr04-b]]></name>
    <trkseg>
      <trkpt lat="45.70318" lon="2.91401">
        <ele>940</ele>
        <time>2015-10-17T14:43:41Z</time>
      </trkpt>
      <trkpt lat="45.70343" lon="2.91439">
        <ele>942</ele>
        <time>2015-10-17T14:45:41Z</time>
      </trkpt>
      <trkpt lat="45.70333" lon="2.91497">
        <ele>947</ele>
        <time>2015-10-17T14:47:41Z</time>
      </trkpt>
      <trkpt lat="45.70343" lon="2.9156">
        <ele>951</ele>
        <time>2015-10-17T14:49:41Z</time>
      </trkpt>
      <trkpt lat="45.70364" lon="2.91626">
        <ele>957</ele>
        <time>2015-10-17T14:51:41Z</time>
      </trkpt>
      <trkpt lat="45.70406" lon="2.9162">
        <ele>959</ele>
        <time>2015-10-17T14:53:41Z</time>
      </trkpt>
      <trkpt lat="45.70438" lon="2.91605">
        <ele>960</ele>
        <time>2015-10-17T14:55:41Z</time>
      </trkpt>
      <trkpt lat="45.70441" lon="2.91618">
        <ele>963</ele>
        <time>2015-10-17T14:57:41Z</time>
      </trkpt>
      <trkpt lat="45.70418" lon="2.91635">
        <ele>962</ele>
        <time>2015-10-17T14:59:41Z</time>
      </trkpt>
      <trkpt lat="45.70406" lon="2.91656">
        <ele>964</ele>
        <time>2015-10-17T15:01:41Z</time>
      </trkpt>
      <trkpt lat="45.70394" lon="2.91688">
        <ele>967</ele>
        <time>2015-10-17T15:03:41Z</time>
      </trkpt>
      <trkpt lat="45.70382" lon="2.91714">
        <ele>969</ele>
        <time>2015-10-17T15:05:41Z</time>
      </trkpt>
      <trkpt lat="45.7037" lon="2.91736">
        <ele>969</ele>
        <time>2015-10-17T15:07:41Z</time>
      </trkpt>
      <trkpt lat="45.70366" lon="2.91774">
        <ele>972</ele>
        <time>2015-10-17T15:09:41Z</time>
      </trkpt>
      <trkpt lat="45.70372" lon="2.918">
        <ele>975</ele>
        <time>2015-10-17T15:11:41Z</time>
      </trkpt>
      <trkpt lat="45.70403" lon="2.9174">
        <ele>976</ele>
        <time>2015-10-17T15:13:41Z</time>
      </trkpt>
      <trkpt lat="45.70423" lon="2.91804">
        <ele>985</ele>
        <time>2015-10-17T15:15:41Z</time>
      </trkpt>
      <trkpt lat="45.70436" lon="2.91858">
        <ele>989</ele>
        <time>2015-10-17T15:17:41Z</time>
      </trkpt>
      <trkpt lat="45.70451" lon="2.91892">
        <ele>991</ele>
        <time>2015-10-17T15:19:41Z</time>
      </trkpt>
      <trkpt lat="45.70463" lon="2.91965">
        <ele>997</ele>
        <time>2015-10-17T15:21:41Z</time>
      </trkpt>
      <trkpt lat="45.70486" lon="2.92027">
        <ele>1003</ele>
        <time>2015-10-17T15:23:41Z</time>
      </trkpt>
      <trkpt lat="45.70495" lon="2.92103">
        <ele>1008</ele>
        <time>2015-10-17T15:25:41Z</time>
      </trkpt>
      <trkpt lat="45.70492" lon="2.92178">
        <ele>1010</ele>
        <time>2015-10-17T15:27:41Z</time>
      </trkpt>
      <trkpt lat="45.70492" lon="2.92229">
        <ele>1012</ele>
        <time>2015-10-17T15:29:41Z</time>
      </trkpt>
      <trkpt lat="45.70493" lon="2.92298">
        <ele>1015</ele>
        <time>2015-10-17T15:31:41Z</time>
      </trkpt>
      <trkpt lat="45.70499" lon="2.92349">
        <ele>1017</ele>
        <time>2015-10-17T15:33:41Z</time>
      </trkpt>
      <trkpt lat="45.70498" lon="2.92388">
        <ele>1018</ele>
        <time>2015-10-17T15:35:41Z</time>
      </trkpt>
      <trkpt lat="45.70508" lon="2.92461">
        <ele>1022</ele>
        <time>2015-10-17T15:37:41Z</time>
      </trkpt>
      <trkpt lat="45.70487" lon="2.92525">
        <ele>1027</ele>
        <time>2015-10-17T15:39:41Z</time>
      </trkpt>
      <trkpt lat="45.70492" lon="2.9259">
        <ele>1030</ele>
        <time>2015-10-17T15:41:41Z</time>
      </trkpt>
      <trkpt lat="45.70486" lon="2.92635">
        <ele>1031</ele>
        <time>2015-10-17T15:43:41Z</time>
      </trkpt>
      <trkpt lat="45.70493" lon="2.92712">
        <ele>1034</ele>
        <time>2015-10-17T15:45:41Z</time>
      </trkpt>
      <trkpt lat="45.70505" lon="2.92798">
        <ele>1037</ele>
        <time>2015-10-17T15:47:41Z</time>
      </trkpt>
      <trkpt lat="45.70517" lon="2.92877">
        <ele>1038</ele>
        <time>2015-10-17T15:49:41Z</time>
      </trkpt>
      <trkpt lat="45.70535" lon="2.92933">
        <ele>1039</ele>
        <time>2015-10-17T15:51:41Z</time>
      </trkpt>
      <trkpt lat="45.7054" lon="2.92991">
        <ele>1040</ele>
        <time>2015-10-17T15:53:41Z</time>
      </trkpt>
      <trkpt lat="45.70532" lon="2.93012">
        <ele>1040</ele>
        <time>2015-10-17T15:55:41Z</time>
      </trkpt>
      <trkpt lat="45.70534" lon="2.93094">
        <ele>1042</ele>
        <time>2015-10-17T15:57:41Z</time>
      </trkpt>
      <trkpt lat="45.70538" lon="2.93141">
        <ele>1044</ele>
        <time>2015-10-17T15:59:41Z</time>
      </trkpt>
      <trkpt lat="45.70541" lon="2.93199">
        <ele>1046</ele>
        <time>2015-10-17T16:01:41Z</time>
      </trkpt>
      <trkpt lat="45.70546" lon="2.9324">
        <ele>1046</ele>
        <time>2015-10-17T16:03:41Z</time>
      </trkpt>
      <trkpt lat="45.70558" lon="2.93317">
        <ele>1047</ele>
        <time>2015-10-17T16:05:41Z</time>
      </trkpt>
      <trkpt lat="45.70594" lon="2.9342">
        <ele>1053</ele>
        <time>2015-10-17T16:07:41Z</time>
      </trkpt>
      <trkpt lat="45.70612" lon="2.93484">
        <ele>1057</ele>
        <time>2015-10-17T16:09:41Z</time>
      </trkpt>
      <trkpt lat="45.70634" lon="2.93575">
        <ele>1054</ele>
        <time>2015-10-17T16:11:41Z</time>
      </trkpt>
      <trkpt lat="45.70651" lon="2.93662">
        <ele>1052</ele>
        <time>2015-10-17T16:13:41Z</time>
      </trkpt>
      <trkpt lat="45.7067" lon="2.93727">
        <ele>1051</ele>
        <time>2015-10-17T16:15:41Z</time>
      </trkpt>
      <trkpt lat="45.70697" lon="2.93821">
        <ele>1051</ele>
        <time>2015-10-17T16:17:41Z</time>
      </trkpt>
      <trkpt lat="45.70703" lon="2.93851">
        <ele>1050</ele>
        <time>2015-10-17T16:19:41Z</time>
      </trkpt>
      <trkpt lat="45.70751" lon="2.93926">
        <ele>1046</ele>
        <time>2015-10-17T16:21:41Z</time>
      </trkpt>
      <trkpt lat="45.70811" lon="2.93999">
        <ele>1047</ele>
        <time>2015-10-17T16:23:41Z</time>
      </trkpt>
      <trkpt lat="45.70853" lon="2.94055">
        <ele>1047</ele>
        <time>2015-10-17T16:25:41Z</time>
      </trkpt>
      <trkpt lat="45.70905" lon="2.94102">
        <ele>1044</ele>
        <time>2015-10-17T16:27:41Z</time>
      </trkpt>
      <trkpt lat="45.70923" lon="2.94132">
        <ele>1044</ele>
        <time>2015-10-17T16:29:41Z</time>
      </trkpt>
      <trkpt lat="45.70938" lon="2.94175">
        <ele>1045</ele>
        <time>2015-10-17T16:31:41Z</time>
      </trkpt>
      <trkpt lat="45.70992" lon="2.94231">
        <ele>1042</ele>
        <time>2015-10-17T16:33:41Z</time>
      </trkpt>
      <trkpt lat="45.71045" lon="2.943">
        <ele>1045</ele>
        <time>2015-10-17T16:35:41Z</time>
      </trkpt>
      <trkpt lat="45.7103" lon="2.94351">
        <ele>1046</ele>
        <time>2015-10-17T16:37:41Z</time>
      </trkpt>
      <trkpt lat="45.71004" lon="2.94364">
        <ele>1046</ele>
        <time>2015-10-17T16:39:41Z</time>
      </trkpt>
      <trkpt lat="45.71003" lon="2.94411">
        <ele>1048</ele>
        <time>2015-10-17T16:41:41Z</time>
      </trkpt>
      <trkpt lat="45.71" lon="2.94446">
        <ele>1048</ele>
        <time>2015-10-17T16:43:41Z</time>
      </trkpt>
      <trkpt lat="45.70979" lon="2.94484">
        <ele>1049</ele>
        <time>2015-10-17T16:45:41Z</time>
      </trkpt>
      <trkpt lat="45.70962" lon="2.94525">
        <ele>1050</ele>
        <time>2015-10-17T16:47:41Z</time>
      </trkpt>
      <trkpt lat="45.70943" lon="2.94547">
        <ele>1050</ele>
        <time>2015-10-17T16:49:41Z</time>
      </trkpt>
      <trkpt lat="45.70919" lon="2.94577">
        <ele>1050</ele>
        <time>2015-10-17T16:51:41Z</time>
      </trkpt>
      <trkpt lat="45.70898" lon="2.946">
        <ele>1050</ele>
        <time>2015-10-17T16:53:41Z</time>
      </trkpt>
      <trkpt lat="45.70881" lon="2.94643">
        <ele>1050</ele>
        <time>2015-10-17T16:55:41Z</time>
      </trkpt>
      <trkpt lat="45.7085" lon="2.94692">
        <ele>1050</ele>
        <time>2015-10-17T16:57:41Z</time>
      </trkpt>
      <trkpt lat="45.70817" lon="2.94735">
        <ele>1050</ele>
        <time>2015-10-17T16:59:41Z</time>
      </trkpt>
      <trkpt lat="45.70811" lon="2.94748">
        <ele>1049</ele>
        <time>2015-10-17T17:01:41Z</time>
      </trkpt>
      <trkpt lat="45.70777" lon="2.94789">
        <ele>1048</ele>
        <time>2015-10-17T17:03:41Z</time>
      </trkpt>
      <trkpt lat="45.70735" lon="2.94849">
        <ele>1047</ele>
        <time>2015-10-17T17:05:41Z</time>
      </trkpt>
      <trkpt lat="45.70718" lon="2.94892">
        <ele>1047</ele>
        <time>2015-10-17T17:07:41Z</time>
      </trkpt>
      <trkpt lat="45.70706" lon="2.94933">
        <ele>1046</ele>
        <time>2015-10-17T17:09:41Z</time>
      </trkpt>
      <trkpt lat="45.70694" lon="2.94967">
        <ele>1044</ele>
        <time>2015-10-17T17:11:41Z</time>
      </trkpt>
      <trkpt lat="45.70675" lon="2.94997">
        <ele>1042</ele>
        <time>2015-10-17T17:13:41Z</time>
      </trkpt>
      <trkpt lat="45.7067" lon="2.95053">
        <ele>1041</ele>
        <time>2015-10-17T17:15:41Z</time>
      </trkpt>
      <trkpt lat="45.70669" lon="2.95124">
        <ele>1041</ele>
        <time>2015-10-17T17:17:41Z</time>
      </trkpt>
      <trkpt lat="45.70663" lon="2.95188">
        <ele>1041</ele>
        <time>2015-10-17T17:19:41Z</time>
      </trkpt>
      <trkpt lat="45.70634" lon="2.95244">
        <ele>1039</ele>
        <time>2015-10-17T17:21:41Z</time>
      </trkpt>
      <trkpt lat="45.70601" lon="2.95287">
        <ele>1032</ele>
        <time>2015-10-17T17:23:41Z</time>
      </trkpt>
      <trkpt lat="45.70651" lon="2.95315">
        <ele>1041</ele>
        <time>2015-10-17T17:25:41Z</time>
      </trkpt>
      <trkpt lat="45.70682" lon="2.9531">
        <ele>1048</ele>
        <time>2015-10-17T17:27:41Z</time>
      </trkpt>
      <trkpt lat="45.70711" lon="2.9533">
        <ele>1057</ele>
        <time>2015-10-17T17:29:41Z</time>
      </trkpt>
      <trkpt lat="45.70753" lon="2.9533">
        <ele>1069</ele>
        <time>2015-10-17T17:31:41Z</time>
      </trkpt>
      <trkpt lat="45.70796" lon="2.95325">
        <ele>1080</ele>
        <time>2015-10-17T17:33:41Z</time>
      </trkpt>
      <trkpt lat="45.70827" lon="2.95334">
        <ele>1088</ele>
        <time>2015-10-17T17:35:41Z</time>
      </trkpt>
      <trkpt lat="45.70889" lon="2.95343">
        <ele>1103</ele>
        <time>2015-10-17T17:37:41Z</time>
      </trkpt>
      <trkpt lat="45.70904" lon="2.9534">
        <ele>1109</ele>
        <time>2015-10-17T17:39:41Z</time>
      </trkpt>
      <trkpt lat="45.70931" lon="2.95321">
        <ele>1115</ele>
        <time>2015-10-17T17:41:41Z</time>
      </trkpt>
      <trkpt lat="45.71012" lon="2.95334">
        <ele>1131</ele>
        <time>2015-10-17T17:43:41Z</time>
      </trkpt>
      <trkpt lat="45.71046" lon="2.95362">
        <ele>1127</ele>
        <time>2015-10-17T17:45:41Z</time>
      </trkpt>
      <trkpt lat="45.71093" lon="2.95379">
        <ele>1128</ele>
        <time>2015-10-17T17:47:41Z</time>
      </trkpt>
      <trkpt lat="45.71127" lon="2.95426">
        <ele>1134</ele>
        <time>2015-10-17T17:49:41Z</time>
      </trkpt>
      <trkpt lat="45.71147" lon="2.95467">
        <ele>1141</ele>
        <time>2015-10-17T17:51:41Z</time>
      </trkpt>
      <trkpt lat="45.71162" lon="2.95497">
        <ele>1150</ele>
        <time>2015-10-17T17:53:41Z</time>
      </trkpt>
      <trkpt lat="45.71175" lon="2.95559">
        <ele>1158</ele>
        <time>2015-10-17T17:55:41Z</time>
      </trkpt>
      <trkpt lat="45.71171" lon="2.95583">
        <ele>1161</ele>
        <time>2015-10-17T17:57:41Z</time>
      </trkpt>
      <trkpt lat="45.71172" lon="2.95617">
        <ele>1162</ele>
        <time>2015-10-17T17:59:41Z</time>
      </trkpt>
      <trkpt lat="45.71168" lon="2.95662">
        <ele>1163</ele>
        <time>2015-10-17T18:01:41Z</time>
      </trkpt>
      <trkpt lat="45.71154" lon="2.95682">
        <ele>1160</ele>
        <time>2015-10-17T18:03:41Z</time>
      </trkpt>
      <trkpt lat="45.71142" lon="2.95705">
        <ele>1158</ele>
        <time>2015-10-17T18:05:41Z</time>
      </trkpt>
      <trkpt lat="45.71132" lon="2.95759">
        <ele>1161</ele>
        <time>2015-10-17T18:07:41Z</time>
      </trkpt>
      <trkpt lat="45.71124" lon="2.9578">
        <ele>1160</ele>
        <time>2015-10-17T18:09:41Z</time>
      </trkpt>
      <trkpt lat="45.71099" lon="2.95817">
        <ele>1164</ele>
        <time>2015-10-17T18:11:41Z</time>
      </trkpt>
      <trkpt lat="45.71093" lon="2.95855">
        <ele>1162</ele>
        <time>2015-10-17T18:13:41Z</time>
      </trkpt>
      <trkpt lat="45.71076" lon="2.95881">
        <ele>1158</ele>
        <time>2015-10-17T18:15:41Z</time>
      </trkpt>
      <trkpt lat="45.71057" lon="2.95898">
        <ele>1156</ele>
        <time>2015-10-17T18:17:41Z</time>
      </trkpt>
      <trkpt lat="45.71031" lon="2.95935">
        <ele>1148</ele>
        <time>2015-10-17T18:19:41Z</time>
      </trkpt>
      <trkpt lat="45.70994" lon="2.95954">
        <ele>1145</ele>
        <time>2015-10-17T18:21:41Z</time>
      </trkpt>
      <trkpt lat="45.70958" lon="2.95973">
        <ele>1134</ele>
        <time>2015-10-17T18:23:41Z</time>
      </trkpt>
      <trkpt lat="45.70941" lon="2.95982">
        <ele>1129</ele>
        <time>2015-10-17T18:25:41Z</time>
      </trkpt>
      <trkpt lat="45.70907" lon="2.95971">
        <ele>1126</ele>
        <time>2015-10-17T18:27:41Z</time>
      </trkpt>
      <trkpt lat="45.70878" lon="2.95961">
        <ele>1120</ele>
        <time>2015-10-17T18:29:41Z</time>
      </trkpt>
      <trkpt lat="45.70848" lon="2.9595">
        <ele>1113</ele>
        <time>2015-10-17T18:31:41Z</time>
      </trkpt>
      <trkpt lat="45.70814" lon="2.95941">
        <ele>1106</ele>
        <time>2015-10-17T18:33:41Z</time>
      </trkpt>
      <trkpt lat="45.70784" lon="2.95931">
        <ele>1102</ele>
        <time>2015-10-17T18:35:41Z</time>
      </trkpt>
      <trkpt lat="45.70784" lon="2.95952">
        <ele>1101</ele>
        <time>2015-10-17T18:37:41Z</time>
      </trkpt>
      <trkpt lat="45.70732" lon="2.95941">
        <ele>1099</ele>
        <time>2015-10-17T18:39:41Z</time>
      </trkpt>
      <trkpt lat="45.70739" lon="2.9598">
        <ele>1101</ele>
        <time>2015-10-17T18:41:41Z</time>
      </trkpt>
      <trkpt lat="45.70753" lon="2.96038">
        <ele>1102</ele>
        <time>2015-10-17T18:43:41Z</time>
      </trkpt>
      <trkpt lat="45.70711" lon="2.96034">
        <ele>1110</ele>
        <time>2015-10-17T18:45:41Z</time>
      </trkpt>
      <trkpt lat="45.7069" lon="2.96061">
        <ele>1116</ele>
        <time>2015-10-17T18:47:41Z</time>
      </trkpt>
      <trkpt lat="45.70663" lon="2.96092">
        <ele>1121</ele>
        <time>2015-10-17T18:49:41Z</time>
      </trkpt>
      <trkpt lat="45.70672" lon="2.96137">
        <ele>1126</ele>
        <time>2015-10-17T18:51:41Z</time>
      </trkpt>
      <trkpt lat="45.70666" lon="2.96188">
        <ele>1132</ele>
        <time>2015-10-17T18:53:41Z</time>
      </trkpt>
      <trkpt lat="45.70651" lon="2.96225">
        <ele>1132</ele>
        <time>2015-10-17T18:55:41Z</time>
      </trkpt>
      <trkpt lat="45.70622" lon="2.9627">
        <ele>1135</ele>
        <time>2015-10-17T18:57:41Z</time>
      </trkpt>
      <trkpt lat="45.70589" lon="2.963">
        <ele>1140</ele>
        <time>2015-10-17T18:59:41Z</time>
      </trkpt>
      <trkpt lat="45.70555" lon="2.96317">
        <ele>1142</ele>
        <time>2015-10-17T19:01:41Z</time>
      </trkpt>
      <trkpt lat="45.70529" lon="2.96325">
        <ele>1143</ele>
        <time>2015-10-17T19:03:41Z</time>
      </trkpt>
      <trkpt lat="45.7049" lon="2.96332">
        <ele>1142</ele>
        <time>2015-10-17T19:05:41Z</time>
      </trkpt>
      <trkpt lat="45.7046" lon="2.96319">
        <ele>1130</ele>
        <time>2015-10-17T19:07:41Z</time>
      </trkpt>
      <trkpt lat="45.70421" lon="2.96285">
        <ele>1116</ele>
        <time>2015-10-17T19:09:41Z</time>
      </trkpt>
      <trkpt lat="45.70396" lon="2.96265">
        <ele>1105</ele>
        <time>2015-10-17T19:11:41Z</time>
      </trkpt>
      <trkpt lat="45.70387" lon="2.96237">
        <ele>1097</ele>
        <time>2015-10-17T19:13:41Z</time>
      </trkpt>
      <trkpt lat="45.7036" lon="2.96225">
        <ele>1086</ele>
        <time>2015-10-17T19:15:41Z</time>
      </trkpt>
      <trkpt lat="45.70363" lon="2.96158">
        <ele>1069</ele>
        <time>2015-10-17T19:17:41Z</time>
      </trkpt>
      <trkpt lat="45.70336" lon="2.96154">
        <ele>1065</ele>
        <time>2015-10-17T19:19:41Z</time>
      </trkpt>
      <trkpt lat="45.70306" lon="2.96152">
        <ele>1053</ele>
        <time>2015-10-17T19:21:41Z</time>
      </trkpt>
      <trkpt lat="45.70275" lon="2.96164">
        <ele>1043</ele>
        <time>2015-10-17T19:23:41Z</time>
      </trkpt>
      <trkpt lat="45.70254" lon="2.96203">
        <ele>1037</ele>
        <time>2015-10-17T19:25:41Z</time>
      </trkpt>
      <trkpt lat="45.70228" lon="2.9625">
        <ele>1029</ele>
        <time>2015-10-17T19:27:41Z</time>
      </trkpt>
      <trkpt lat="45.7021" lon="2.96308">
        <ele>1020</ele>
        <time>2015-10-17T19:29:41Z</time>
      </trkpt>
      <trkpt lat="45.70189" lon="2.96353">
        <ele>1012</ele>
        <time>2015-10-17T19:31:41Z</time>
      </trkpt>
      <trkpt lat="45.70171" lon="2.96366">
        <ele>1007</ele>
        <time>2015-10-17T19:33:41Z</time>
      </trkpt>
      <trkpt lat="45.70147" lon="2.96362">
        <ele>1005</ele>
        <time>2015-10-17T19:35:41Z</time>
      </trkpt>
      <trkpt lat="45.70116" lon="2.96355">
        <ele>1005</ele>
        <time>2015-10-17T19:37:41Z</time>
      </trkpt>
      <trkpt lat="45.70074" lon="2.9633">
        <ele>1005</ele>
        <time>2015-10-17T19:39:41Z</time>
      </trkpt>
      <trkpt lat="45.70101" lon="2.96252">
        <ele>1003</ele>
        <time>2015-10-17T19:41:41Z</time>
      </trkpt>
      <trkpt lat="45.70129" lon="2.96177">
        <ele>1002</ele>
        <time>2015-10-17T19:43:41Z</time>
      </trkpt>
      <trkpt lat="45.70156" lon="2.96115">
        <ele>999</ele>
        <time>2015-10-17T19:45:41Z</time>
      </trkpt>
      <trkpt lat="45.70191" lon="2.96055">
        <ele>1000</ele>
        <time>2015-10-17T19:47:41Z</time>
      </trkpt>
      <trkpt lat="45.70234" lon="2.95984">
        <ele>998</ele>
        <time>2015-10-17T19:49:41Z</time>
      </trkpt>
      <trkpt lat="45.7029" lon="2.95911">
        <ele>995</ele>
        <time>2015-10-17T19:51:41Z</time>
      </trkpt>
      <trkpt lat="45.70308" lon="2.95883">
        <ele>996</ele>
        <time>2015-10-17T19:53:41Z</time>
      </trkpt>
      <trkpt lat="45.70342" lon="2.95828">
        <ele>998</ele>
        <time>2015-10-17T19:55:41Z</time>
      </trkpt>
      <trkpt lat="45.70351" lon="2.95789">
        <ele>999</ele>
        <time>2015-10-17T19:57:41Z</time>
      </trkpt>
      <trkpt lat="45.70373" lon="2.9575">
        <ele>1000</ele>
        <time>2015-10-17T19:59:41Z</time>
      </trkpt>
      <trkpt lat="45.70379" lon="2.95701">
        <ele>998</ele>
        <time>2015-10-17T20:01:41Z</time>
      </trkpt>
      <trkpt lat="45.70402" lon="2.95658">
        <ele>997</ele>
        <time>2015-10-17T20:03:41Z</time>
      </trkpt>
      <trkpt lat="45.7042" lon="2.95619">
        <ele>998</ele>
        <time>2015-10-17T20:05:41Z</time>
      </trkpt>
      <trkpt lat="45.70457" lon="2.95581">
        <ele>1000</ele>
        <time>2015-10-17T20:07:41Z</time>
      </trkpt>
      <trkpt lat="45.70466" lon="2.9551">
        <ele>1006</ele>
        <time>2015-10-17T20:09:41Z</time>
      </trkpt>
      <trkpt lat="45.70471" lon="2.95471">
        <ele>1009</ele>
        <time>2015-10-17T20:11:41Z</time>
      </trkpt>
      <trkpt lat="45.70501" lon="2.95401">
        <ele>1014</ele>
        <time>2015-10-17T20:13:41Z</time>
      </trkpt>
      <trkpt lat="45.70561" lon="2.95347">
        <ele>1024</ele>
        <time>2015-10-17T20:15:41Z</time>
      </trkpt>
      <trkpt lat="45.70594" lon="2.95313">
        <ele>1030</ele>
        <time>2015-10-17T20:17:41Z</time>
      </trkpt>
      <trkpt lat="45.70622" lon="2.95265">
        <ele>1037</ele>
        <time>2015-10-17T20:19:41Z</time>
      </trkpt>
      <trkpt lat="45.70648" lon="2.95222">
        <ele>1040</ele>
        <time>2015-10-17T20:21:41Z</time>
      </trkpt>
      <trkpt lat="45.70666" lon="2.95158">
        <ele>1041</ele>
        <time>2015-10-17T20:23:41Z</time>
      </trkpt>
      <trkpt lat="45.70688" lon="2.95177">
        <ele>1044</ele>
        <time>2015-10-17T20:25:41Z</time>
      </trkpt>
      <trkpt lat="45.70702" lon="2.95203">
        <ele>1048</ele>
        <time>2015-10-17T20:27:41Z</time>
      </trkpt>
      <trkpt lat="45.70721" lon="2.95237">
        <ele>1055</ele>
        <time>2015-10-17T20:29:41Z</time>
      </trkpt>
      <trkpt lat="45.70763" lon="2.9522">
        <ele>1062</ele>
        <time>2015-10-17T20:31:41Z</time>
      </trkpt>
      <trkpt lat="45.70811" lon="2.95175">
        <ele>1063</ele>
        <time>2015-10-17T20:33:41Z</time>
      </trkpt>
      <trkpt lat="45.70857" lon="2.9513">
        <ele>1064</ele>
        <time>2015-10-17T20:35:41Z</time>
      </trkpt>
      <trkpt lat="45.70893" lon="2.95104">
        <ele>1066</ele>
        <time>2015-10-17T20:37:41Z</time>
      </trkpt>
      <trkpt lat="45.70964" lon="2.95066">
        <ele>1068</ele>
        <time>2015-10-17T20:39:41Z</time>
      </trkpt>
      <trkpt lat="45.71015" lon="2.95066">
        <ele>1071</ele>
        <time>2015-10-17T20:41:41Z</time>
      </trkpt>
      <trkpt lat="45.71061" lon="2.95072">
        <ele>1073</ele>
        <time>2015-10-17T20:43:41Z</time>
      </trkpt>
      <trkpt lat="45.7113" lon="2.95085">
        <ele>1074</ele>
        <time>2015-10-17T20:45:41Z</time>
      </trkpt>
      <trkpt lat="45.71195" lon="2.95079">
        <ele>1072</ele>
        <time>2015-10-17T20:47:41Z</time>
      </trkpt>
      <trkpt lat="45.71261" lon="2.95062">
        <ele>1067</ele>
        <time>2015-10-17T20:49:41Z</time>
      </trkpt>
      <trkpt lat="45.71307" lon="2.95047">
        <ele>1064</ele>
        <time>2015-10-17T20:51:41Z</time>
      </trkpt>
      <trkpt lat="45.71323" lon="2.95012">
        <ele>1062</ele>
        <time>2015-10-17T20:53:41Z</time>
      </trkpt>
      <trkpt lat="45.71332" lon="2.94956">
        <ele>1059</ele>
        <time>2015-10-17T20:55:41Z</time>
      </trkpt>
      <trkpt lat="45.71329" lon="2.94911">
        <ele>1057</ele>
        <time>2015-10-17T20:57:41Z</time>
      </trkpt>
      <trkpt lat="45.71337" lon="2.94858">
        <ele>1055</ele>
        <time>2015-10-17T20:59:41Z</time>
      </trkpt>
      <trkpt lat="45.71335" lon="2.9481">
        <ele>1054</ele>
        <time>2015-10-17T21:01:41Z</time>
      </trkpt>
      <trkpt lat="45.71332" lon="2.94723">
        <ele>1056</ele>
        <time>2015-10-17T21:03:41Z</time>
      </trkpt>
      <trkpt lat="45.71298" lon="2.94697">
        <ele>1055</ele>
        <time>2015-10-17T21:05:41Z</time>
      </trkpt>
      <trkpt lat="45.7127" lon="2.94677">
        <ele>1054</ele>
        <time>2015-10-17T21:07:41Z</time>
      </trkpt>
      <trkpt lat="45.71237" lon="2.94654">
        <ele>1054</ele>
        <time>2015-10-17T21:09:41Z</time>
      </trkpt>
      <trkpt lat="45.7121" lon="2.94626">
        <ele>1055</ele>
        <time>2015-10-17T21:11:41Z</time>
      </trkpt>
      <trkpt lat="45.71195" lon="2.946">
        <ele>1055</ele>
        <time>2015-10-17T21:13:41Z</time>
      </trkpt>
      <trkpt lat="45.71178" lon="2.94555">
        <ele>1053</ele>
        <time>2015-10-17T21:15:41Z</time>
      </trkpt>
      <trkpt lat="45.71151" lon="2.94521">
        <ele>1051</ele>
        <time>2015-10-17T21:17:41Z</time>
      </trkpt>
      <trkpt lat="45.71123" lon="2.94489">
        <ele>1050</ele>
        <time>2015-10-17T21:19:41Z</time>
      </trkpt>
      <trkpt lat="45.71105" lon="2.94452">
        <ele>1049</ele>
        <time>2015-10-17T21:21:41Z</time>
      </trkpt>
      <trkpt lat="45.71091" lon="2.94411">
        <ele>1049</ele>
        <time>2015-10-17T21:23:41Z</time>
      </trkpt>
      <trkpt lat="45.71066" lon="2.94326">
        <ele>1046</ele>
        <time>2015-10-17T21:25:41Z</time>
      </trkpt>
      <trkpt lat="45.71055" lon="2.94311">
        <ele>1045</ele>
        <time>2015-10-17T21:27:41Z</time>
      </trkpt>
      <trkpt lat="45.71084" lon="2.94253">
        <ele>1044</ele>
        <time>2015-10-17T21:29:41Z</time>
      </trkpt>
      <trkpt lat="45.71111" lon="2.94205">
        <ele>1042</ele>
        <time>2015-10-17T21:31:41Z</time>
      </trkpt>
      <trkpt lat="45.71141" lon="2.94135">
        <ele>1043</ele>
        <time>2015-10-17T21:33:41Z</time>
      </trkpt>
      <trkpt lat="45.71177" lon="2.9407">
        <ele>1046</ele>
        <time>2015-10-17T21:35:41Z</time>
      </trkpt>
      <trkpt lat="45.7121" lon="2.9401">
        <ele>1048</ele>
        <time>2015-10-17T21:37:41Z</time>
      </trkpt>
      <trkpt lat="45.71205" lon="2.93952">
        <ele>1047</ele>
        <time>2015-10-17T21:39:41Z</time>
      </trkpt>
      <trkpt lat="45.71207" lon="2.93873">
        <ele>1050</ele>
        <time>2015-10-17T21:41:41Z</time>
      </trkpt>
      <trkpt lat="45.71192" lon="2.93813">
        <ele>1056</ele>
        <time>2015-10-17T21:43:41Z</time>
      </trkpt>
      <trkpt lat="45.71228" lon="2.93776">
        <ele>1055</ele>
        <time>2015-10-17T21:45:41Z</time>
      </trkpt>
      <trkpt lat="45.71259" lon="2.93742">
        <ele>1054</ele>
        <time>2015-10-17T21:47:41Z</time>
      </trkpt>
      <trkpt lat="45.71284" lon="2.9371">
        <ele>1053</ele>
        <time>2015-10-17T21:49:41Z</time>
      </trkpt>
      <trkpt lat="45.7131" lon="2.93675">
        <ele>1050</ele>
        <time>2015-10-17T21:51:41Z</time>
      </trkpt>
      <trkpt lat="45.71334" lon="2.93609">
        <ele>1047</ele>
        <time>2015-10-17T21:53:41Z</time>
      </trkpt>
      <trkpt lat="45.71352" lon="2.93555">
        <ele>1046</ele>
        <time>2015-10-17T21:55:41Z</time>
      </trkpt>
      <trkpt lat="45.71371" lon="2.93517">
        <ele>1043</ele>
        <time>2015-10-17T21:57:41Z</time>
      </trkpt>
      <trkpt lat="45.71391" lon="2.93461">
        <ele>1040</ele>
        <time>2015-10-17T21:59:41Z</time>
      </trkpt>
      <trkpt lat="45.71392" lon="2.93399">
        <ele>1039</ele>
        <time>2015-10-17T22:01:41Z</time>
      </trkpt>
      <trkpt lat="45.71392" lon="2.93369">
        <ele>1037</ele>
        <time>2015-10-17T22:03:41Z</time>
      </trkpt>
      <trkpt lat="45.71392" lon="2.93323">
        <ele>1035</ele>
        <time>2015-10-17T22:05:41Z</time>
      </trkpt>
      <trkpt lat="45.71394" lon="2.93268">
        <ele>1030</ele>
        <time>2015-10-17T22:07:41Z</time>
      </trkpt>
      <trkpt lat="45.71394" lon="2.93238">
        <ele>1027</ele>
        <time>2015-10-17T22:09:41Z</time>
      </trkpt>
      <trkpt lat="45.71383" lon="2.93199">
        <ele>1027</ele>
        <time>2015-10-17T22:11:41Z</time>
      </trkpt>
      <trkpt lat="45.71379" lon="2.93143">
        <ele>1023</ele>
        <time>2015-10-17T22:13:41Z</time>
      </trkpt>
      <trkpt lat="45.71374" lon="2.93077">
        <ele>1019</ele>
        <time>2015-10-17T22:15:41Z</time>
      </trkpt>
      <trkpt lat="45.71365" lon="2.93032">
        <ele>1018</ele>
        <time>2015-10-17T22:17:41Z</time>
      </trkpt>
      <trkpt lat="45.71353" lon="2.92987">
        <ele>1016</ele>
        <time>2015-10-17T22:19:41Z</time>
      </trkpt>
      <trkpt lat="45.7134" lon="2.92944">
        <ele>1013</ele>
        <time>2015-10-17T22:21:41Z</time>
      </trkpt>
      <trkpt lat="45.71328" lon="2.92896">
        <ele>1010</ele>
        <time>2015-10-17T22:23:41Z</time>
      </trkpt>
      <trkpt lat="45.7131" lon="2.92843">
        <ele>1008</ele>
        <time>2015-10-17T22:25:41Z</time>
      </trkpt>
      <trkpt lat="45.71287" lon="2.92796">
        <ele>1006</ele>
        <time>2015-10-17T22:27:41Z</time>
      </trkpt>
      <trkpt lat="45.71279" lon="2.92772">
        <ele>1004</ele>
        <time>2015-10-17T22:29:41Z</time>
      </trkpt>
      <trkpt lat="45.71249" lon="2.92772">
        <ele>1005</ele>
        <time>2015-10-17T22:31:41Z</time>
      </trkpt>
      <trkpt lat="45.71223" lon="2.92757">
        <ele>1006</ele>
        <time>2015-10-17T22:33:41Z</time>
      </trkpt>
      <trkpt lat="45.71183" lon="2.92738">
        <ele>1008</ele>
        <time>2015-10-17T22:35:41Z</time>
      </trkpt>
      <trkpt lat="45.7115" lon="2.92723">
        <ele>1009</ele>
        <time>2015-10-17T22:37:41Z</time>
      </trkpt>
      <trkpt lat="45.71123" lon="2.92712">
        <ele>1011</ele>
        <time>2015-10-17T22:39:41Z</time>
      </trkpt>
      <trkpt lat="45.71111" lon="2.92705">
        <ele>1011</ele>
        <time>2015-10-17T22:41:41Z</time>
      </trkpt>
      <trkpt lat="45.71114" lon="2.92663">
        <ele>1006</ele>
        <time>2015-10-17T22:43:41Z</time>
      </trkpt>
      <trkpt lat="45.71129" lon="2.92594">
        <ele>999</ele>
        <time>2015-10-17T22:45:41Z</time>
      </trkpt>
      <trkpt lat="45.71138" lon="2.92523">
        <ele>996</ele>
        <time>2015-10-17T22:47:41Z</time>
      </trkpt>
      <trkpt lat="45.71115" lon="2.92446">
        <ele>994</ele>
        <time>2015-10-17T22:49:41Z</time>
      </trkpt>
      <trkpt lat="45.71088" lon="2.92401">
        <ele>993</ele>
        <time>2015-10-17T22:51:41Z</time>
      </trkpt>
      <trkpt lat="45.71081" lon="2.9236">
        <ele>992</ele>
        <time>2015-10-17T22:53:41Z</time>
      </trkpt>
      <trkpt lat="45.71088" lon="2.923">
        <ele>992</ele>
        <time>2015-10-17T22:55:41Z</time>
      </trkpt>
      <trkpt lat="45.71081" lon="2.92167">
        <ele>991</ele>
        <time>2015-10-17T22:57:41Z</time>
      </trkpt>
      <trkpt lat="45.71058" lon="2.92081">
        <ele>995</ele>
        <time>2015-10-17T22:59:41Z</time>
      </trkpt>
      <trkpt lat="45.71042" lon="2.9204">
        <ele>996</ele>
        <time>2015-10-17T23:01:41Z</time>
      </trkpt>
      <trkpt lat="45.71006" lon="2.91948">
        <ele>996</ele>
        <time>2015-10-17T23:03:41Z</time>
      </trkpt>
      <trkpt lat="45.70973" lon="2.91894">
        <ele>995</ele>
        <time>2015-10-17T23:05:41Z</time>
      </trkpt>
      <trkpt lat="45.70958" lon="2.91856">
        <ele>994</ele>
        <time>2015-10-17T23:07:41Z</time>
      </trkpt>
      <trkpt lat="45.70953" lon="2.91802">
        <ele>992</ele>
        <time>2015-10-17T23:09:41Z</time>
      </trkpt>
      <trkpt lat="45.70946" lon="2.91721">
        <ele>988</ele>
        <time>2015-10-17T23:11:41Z</time>
      </trkpt>
      <trkpt lat="45.70938" lon="2.91671">
        <ele>986</ele>
        <time>2015-10-17T23:13:41Z</time>
      </trkpt>
      <trkpt lat="45.70932" lon="2.91615">
        <ele>984</ele>
        <time>2015-10-17T23:15:41Z</time>
      </trkpt>
      <trkpt lat="45.70922" lon="2.91521">
        <ele>977</ele>
        <time>2015-10-17T23:17:41Z</time>
      </trkpt>
      <trkpt lat="45.70934" lon="2.91478">
        <ele>972</ele>
        <time>2015-10-17T23:19:41Z</time>
      </trkpt>
      <trkpt lat="45.70902" lon="2.91476">
        <ele>973</ele>
        <time>2015-10-17T23:21:41Z</time>
      </trkpt>
      <trkpt lat="45.70866" lon="2.91478">
        <ele>972</ele>
        <time>2015-10-17T23:23:41Z</time>
      </trkpt>
      <trkpt lat="45.70836" lon="2.91474">
        <ele>970</ele>
        <time>2015-10-17T23:25:41Z</time>
      </trkpt>
      <trkpt lat="45.7081" lon="2.91446">
        <ele>965</ele>
        <time>2015-10-17T23:27:41Z</time>
      </trkpt>
      <trkpt lat="45.70778" lon="2.91416">
        <ele>957</ele>
        <time>2015-10-17T23:29:41Z</time>
      </trkpt>
      <trkpt lat="45.70747" lon="2.91412">
        <ele>954</ele>
        <time>2015-10-17T23:31:41Z</time>
      </trkpt>
      <trkpt lat="45.707" lon="2.91394">
        <ele>950</ele>
        <time>2015-10-17T23:33:41Z</time>
      </trkpt>
      <trkpt lat="45.7067" lon="2.9136">
        <ele>945</ele>
        <time>2015-10-17T23:35:41Z</time>
      </trkpt>
      <trkpt lat="45.70627" lon="2.91367">
        <ele>944</ele>
        <time>2015-10-17T23:37:41Z</time>
      </trkpt>
      <trkpt lat="45.706" lon="2.91354">
        <ele>941</ele>
        <time>2015-10-17T23:39:41Z</time>
      </trkpt>
      <trkpt lat="45.70582" lon="2.91362">
        <ele>942</ele>
        <time>2015-10-17T23:41:41Z</time>
      </trkpt>
      <trkpt lat="45.70558" lon="2.91397">
        <ele>944</ele>
        <time>2015-10-17T23:43:41Z</time>
      </trkpt>
      <trkpt lat="45.70523" lon="2.91437">
        <ele>946</ele>
        <time>2015-10-17T23:45:41Z</time>
      </trkpt>
      <trkpt lat="45.70505" lon="2.91467">
        <ele>947</ele>
        <time>2015-10-17T23:47:41Z</time>
      </trkpt>
      <trkpt lat="45.70468" lon="2.91517">
        <ele>951</ele>
        <time>2015-10-17T23:49:41Z</time>
      </trkpt>
      <trkpt lat="45.70453" lon="2.91455">
        <ele>943</ele>
        <time>2015-10-17T23:51:41Z</time>
      </trkpt>
      <trkpt lat="45.7042" lon="2.91439">
        <ele>941</ele>
        <time>2015-10-17T23:53:41Z</time>
      </trkpt>
      <trkpt lat="45.70393" lon="2.91367">
        <ele>935</ele>
        <time>2015-10-17T23:55:41Z</time>
      </trkpt>
    </trkseg>
  </trk>
  <trk>
    <name><![CDATA[--Orcines-- OR-5370346:ser-fr02-vtt-l]]></name>
    <trkseg>
      <trkpt lat="45.79886" lon="2.99216">
        <ele>967</ele>
        <time>2015-10-17T14:41:33Z</time>
      </trkpt>
      <trkpt lat="45.79886" lon="2.99173">
        <ele>966</ele>
        <time>2015-10-17T14:43:33Z</time>
      </trkpt>
      <trkpt lat="45.79896" lon="2.99073">
        <ele>963</ele>
        <time>2015-10-17T14:45:33Z</time>
      </trkpt>
      <trkpt lat="45.79873" lon="2.98976">
        <ele>964</ele>
        <time>2015-10-17T14:47:33Z</time>
      </trkpt>
      <trkpt lat="45.79853" lon="2.98902">
        <ele>964</ele>
        <time>2015-10-17T14:49:33Z</time>
      </trkpt>
      <trkpt lat="45.7984" lon="2.98852">
        <ele>965</ele>
        <time>2015-10-17T14:51:33Z</time>
      </trkpt>
      <trkpt lat="45.79816" lon="2.98773">
        <ele>964</ele>
        <time>2015-10-17T14:53:33Z</time>
      </trkpt>
      <trkpt lat="45.79851" lon="2.9874">
        <ele>966</ele>
        <time>2015-10-17T14:55:33Z</time>
      </trkpt>
      <trkpt lat="45.79881" lon="2.98713">
        <ele>966</ele>
        <time>2015-10-17T14:57:33Z</time>
      </trkpt>
      <trkpt lat="45.79865" lon="2.9863">
        <ele>963</ele>
        <time>2015-10-17T14:59:33Z</time>
      </trkpt>
      <trkpt lat="45.79838" lon="2.98561">
        <ele>962</ele>
        <time>2015-10-17T15:01:33Z</time>
      </trkpt>
      <trkpt lat="45.7983" lon="2.98525">
        <ele>963</ele>
        <time>2015-10-17T15:03:33Z</time>
      </trkpt>
      <trkpt lat="45.79821" lon="2.98484">
        <ele>965</ele>
        <time>2015-10-17T15:05:33Z</time>
      </trkpt>
      <trkpt lat="45.79796" lon="2.9836">
        <ele>971</ele>
        <time>2015-10-17T15:07:33Z</time>
      </trkpt>
      <trkpt lat="45.798" lon="2.98318">
        <ele>973</ele>
        <time>2015-10-17T15:09:33Z</time>
      </trkpt>
      <trkpt lat="45.79846" lon="2.98339">
        <ele>972</ele>
        <time>2015-10-17T15:11:33Z</time>
      </trkpt>
      <trkpt lat="45.7987" lon="2.98346">
        <ele>972</ele>
        <time>2015-10-17T15:13:33Z</time>
      </trkpt>
      <trkpt lat="45.79896" lon="2.98363">
        <ele>971</ele>
        <time>2015-10-17T15:15:33Z</time>
      </trkpt>
      <trkpt lat="45.79949" lon="2.98353">
        <ele>971</ele>
        <time>2015-10-17T15:17:33Z</time>
      </trkpt>
      <trkpt lat="45.79983" lon="2.98346">
        <ele>969</ele>
        <time>2015-10-17T15:19:33Z</time>
      </trkpt>
      <trkpt lat="45.80034" lon="2.98363">
        <ele>969</ele>
        <time>2015-10-17T15:21:33Z</time>
      </trkpt>
      <trkpt lat="45.80091" lon="2.98382">
        <ele>970</ele>
        <time>2015-10-17T15:23:33Z</time>
      </trkpt>
      <trkpt lat="45.80121" lon="2.98387">
        <ele>972</ele>
        <time>2015-10-17T15:25:33Z</time>
      </trkpt>
      <trkpt lat="45.80149" lon="2.98396">
        <ele>973</ele>
        <time>2015-10-17T15:27:33Z</time>
      </trkpt>
      <trkpt lat="45.80172" lon="2.98387">
        <ele>975</ele>
        <time>2015-10-17T15:29:33Z</time>
      </trkpt>
      <trkpt lat="45.80209" lon="2.98399">
        <ele>978</ele>
        <time>2015-10-17T15:31:33Z</time>
      </trkpt>
      <trkpt lat="45.80222" lon="2.98437">
        <ele>979</ele>
        <time>2015-10-17T15:33:33Z</time>
      </trkpt>
      <trkpt lat="45.80245" lon="2.98463">
        <ele>981</ele>
        <time>2015-10-17T15:35:33Z</time>
      </trkpt>
      <trkpt lat="45.80269" lon="2.98477">
        <ele>981</ele>
        <time>2015-10-17T15:37:33Z</time>
      </trkpt>
      <trkpt lat="45.80303" lon="2.98487">
        <ele>981</ele>
        <time>2015-10-17T15:39:33Z</time>
      </trkpt>
      <trkpt lat="45.80363" lon="2.98542">
        <ele>979</ele>
        <time>2015-10-17T15:41:33Z</time>
      </trkpt>
      <trkpt lat="45.80343" lon="2.98606">
        <ele>976</ele>
        <time>2015-10-17T15:43:33Z</time>
      </trkpt>
      <trkpt lat="45.8032" lon="2.98688">
        <ele>974</ele>
        <time>2015-10-17T15:45:33Z</time>
      </trkpt>
      <trkpt lat="45.80335" lon="2.98707">
        <ele>975</ele>
        <time>2015-10-17T15:47:33Z</time>
      </trkpt>
      <trkpt lat="45.8032" lon="2.98766">
        <ele>975</ele>
        <time>2015-10-17T15:49:33Z</time>
      </trkpt>
      <trkpt lat="45.80347" lon="2.98769">
        <ele>976</ele>
        <time>2015-10-17T15:51:33Z</time>
      </trkpt>
      <trkpt lat="45.80384" lon="2.98759">
        <ele>977</ele>
        <time>2015-10-17T15:53:33Z</time>
      </trkpt>
      <trkpt lat="45.80381" lon="2.98815">
        <ele>978</ele>
        <time>2015-10-17T15:55:33Z</time>
      </trkpt>
      <trkpt lat="45.80372" lon="2.98886">
        <ele>977</ele>
        <time>2015-10-17T15:57:33Z</time>
      </trkpt>
      <trkpt lat="45.80394" lon="2.98918">
        <ele>977</ele>
        <time>2015-10-17T15:59:33Z</time>
      </trkpt>
      <trkpt lat="45.80412" lon="2.98993">
        <ele>973</ele>
        <time>2015-10-17T16:01:33Z</time>
      </trkpt>
      <trkpt lat="45.80418" lon="2.99066">
        <ele>972</ele>
        <time>2015-10-17T16:03:33Z</time>
      </trkpt>
      <trkpt lat="45.80433" lon="2.99113">
        <ele>974</ele>
        <time>2015-10-17T16:05:33Z</time>
      </trkpt>
      <trkpt lat="45.80457" lon="2.9915">
        <ele>977</ele>
        <time>2015-10-17T16:07:33Z</time>
      </trkpt>
      <trkpt lat="45.80481" lon="2.99102">
        <ele>977</ele>
        <time>2015-10-17T16:09:33Z</time>
      </trkpt>
      <trkpt lat="45.80506" lon="2.99057">
        <ele>978</ele>
        <time>2015-10-17T16:11:33Z</time>
      </trkpt>
      <trkpt lat="45.80506" lon="2.98993">
        <ele>978</ele>
        <time>2015-10-17T16:13:33Z</time>
      </trkpt>
      <trkpt lat="45.80532" lon="2.98931">
        <ele>980</ele>
        <time>2015-10-17T16:15:33Z</time>
      </trkpt>
      <trkpt lat="45.80554" lon="2.98892">
        <ele>981</ele>
        <time>2015-10-17T16:17:33Z</time>
      </trkpt>
      <trkpt lat="45.80587" lon="2.98847">
        <ele>981</ele>
        <time>2015-10-17T16:19:33Z</time>
      </trkpt>
      <trkpt lat="45.80605" lon="2.9883">
        <ele>980</ele>
        <time>2015-10-17T16:21:33Z</time>
      </trkpt>
      <trkpt lat="45.80629" lon="2.98843">
        <ele>981</ele>
        <time>2015-10-17T16:23:33Z</time>
      </trkpt>
      <trkpt lat="45.80661" lon="2.98836">
        <ele>981</ele>
        <time>2015-10-17T16:25:33Z</time>
      </trkpt>
      <trkpt lat="45.80723" lon="2.98873">
        <ele>980</ele>
        <time>2015-10-17T16:27:33Z</time>
      </trkpt>
      <trkpt lat="45.80732" lon="2.98839">
        <ele>979</ele>
        <time>2015-10-17T16:29:33Z</time>
      </trkpt>
      <trkpt lat="45.80708" lon="2.98806">
        <ele>980</ele>
        <time>2015-10-17T16:31:33Z</time>
      </trkpt>
      <trkpt lat="45.80693" lon="2.98753">
        <ele>981</ele>
        <time>2015-10-17T16:33:33Z</time>
      </trkpt>
      <trkpt lat="45.80671" lon="2.98633">
        <ele>984</ele>
        <time>2015-10-17T16:35:33Z</time>
      </trkpt>
      <trkpt lat="45.80668" lon="2.98566">
        <ele>985</ele>
        <time>2015-10-17T16:37:33Z</time>
      </trkpt>
      <trkpt lat="45.80734" lon="2.98628">
        <ele>988</ele>
        <time>2015-10-17T16:39:33Z</time>
      </trkpt>
      <trkpt lat="45.80803" lon="2.98583">
        <ele>996</ele>
        <time>2015-10-17T16:41:33Z</time>
      </trkpt>
      <trkpt lat="45.80856" lon="2.98536">
        <ele>1007</ele>
        <time>2015-10-17T16:43:33Z</time>
      </trkpt>
      <trkpt lat="45.80919" lon="2.98457">
        <ele>1027</ele>
        <time>2015-10-17T16:45:33Z</time>
      </trkpt>
      <trkpt lat="45.80949" lon="2.98401">
        <ele>1038</ele>
        <time>2015-10-17T16:47:33Z</time>
      </trkpt>
      <trkpt lat="45.81005" lon="2.98371">
        <ele>1043</ele>
        <time>2015-10-17T16:49:33Z</time>
      </trkpt>
      <trkpt lat="45.81057" lon="2.98321">
        <ele>1046</ele>
        <time>2015-10-17T16:51:33Z</time>
      </trkpt>
      <trkpt lat="45.81096" lon="2.98246">
        <ele>1056</ele>
        <time>2015-10-17T16:53:33Z</time>
      </trkpt>
      <trkpt lat="45.81115" lon="2.98184">
        <ele>1066</ele>
        <time>2015-10-17T16:55:33Z</time>
      </trkpt>
      <trkpt lat="45.81165" lon="2.98229">
        <ele>1059</ele>
        <time>2015-10-17T16:57:33Z</time>
      </trkpt>
      <trkpt lat="45.81205" lon="2.98289">
        <ele>1071</ele>
        <time>2015-10-17T16:59:33Z</time>
      </trkpt>
      <trkpt lat="45.81244" lon="2.98379">
        <ele>1074</ele>
        <time>2015-10-17T17:01:33Z</time>
      </trkpt>
      <trkpt lat="45.81221" lon="2.9833">
        <ele>1073</ele>
        <time>2015-10-17T17:03:33Z</time>
      </trkpt>
      <trkpt lat="45.81177" lon="2.98244">
        <ele>1063</ele>
        <time>2015-10-17T17:05:33Z</time>
      </trkpt>
      <trkpt lat="45.81147" lon="2.98197">
        <ele>1063</ele>
        <time>2015-10-17T17:07:33Z</time>
      </trkpt>
      <trkpt lat="45.81111" lon="2.98199">
        <ele>1064</ele>
        <time>2015-10-17T17:09:33Z</time>
      </trkpt>
      <trkpt lat="45.81118" lon="2.98107">
        <ele>1076</ele>
        <time>2015-10-17T17:11:33Z</time>
      </trkpt>
      <trkpt lat="45.81133" lon="2.98049">
        <ele>1077</ele>
        <time>2015-10-17T17:13:33Z</time>
      </trkpt>
      <trkpt lat="45.81172" lon="2.98006">
        <ele>1069</ele>
        <time>2015-10-17T17:15:33Z</time>
      </trkpt>
      <trkpt lat="45.81196" lon="2.97909">
        <ele>1067</ele>
        <time>2015-10-17T17:17:33Z</time>
      </trkpt>
      <trkpt lat="45.81224" lon="2.97843">
        <ele>1056</ele>
        <time>2015-10-17T17:19:33Z</time>
      </trkpt>
      <trkpt lat="45.81242" lon="2.97759">
        <ele>1034</ele>
        <time>2015-10-17T17:21:33Z</time>
      </trkpt>
      <trkpt lat="45.81277" lon="2.97691">
        <ele>1021</ele>
        <time>2015-10-17T17:23:33Z</time>
      </trkpt>
      <trkpt lat="45.81316" lon="2.97637">
        <ele>1003</ele>
        <time>2015-10-17T17:25:33Z</time>
      </trkpt>
      <trkpt lat="45.81329" lon="2.97605">
        <ele>993</ele>
        <time>2015-10-17T17:27:33Z</time>
      </trkpt>
      <trkpt lat="45.81348" lon="2.97547">
        <ele>979</ele>
        <time>2015-10-17T17:29:33Z</time>
      </trkpt>
      <trkpt lat="45.8136" lon="2.975">
        <ele>969</ele>
        <time>2015-10-17T17:31:33Z</time>
      </trkpt>
      <trkpt lat="45.81371" lon="2.97452">
        <ele>968</ele>
        <time>2015-10-17T17:33:33Z</time>
      </trkpt>
      <trkpt lat="45.81378" lon="2.97418">
        <ele>967</ele>
        <time>2015-10-17T17:35:33Z</time>
      </trkpt>
      <trkpt lat="45.81402" lon="2.97392">
        <ele>968</ele>
        <time>2015-10-17T17:37:33Z</time>
      </trkpt>
      <trkpt lat="45.81424" lon="2.97364">
        <ele>970</ele>
        <time>2015-10-17T17:39:33Z</time>
      </trkpt>
      <trkpt lat="45.81449" lon="2.97343">
        <ele>970</ele>
        <time>2015-10-17T17:41:33Z</time>
      </trkpt>
      <trkpt lat="45.81469" lon="2.97319">
        <ele>970</ele>
        <time>2015-10-17T17:43:33Z</time>
      </trkpt>
      <trkpt lat="45.81502" lon="2.97295">
        <ele>970</ele>
        <time>2015-10-17T17:45:33Z</time>
      </trkpt>
      <trkpt lat="45.81533" lon="2.97272">
        <ele>969</ele>
        <time>2015-10-17T17:47:33Z</time>
      </trkpt>
      <trkpt lat="45.81563" lon="2.97244">
        <ele>967</ele>
        <time>2015-10-17T17:49:33Z</time>
      </trkpt>
      <trkpt lat="45.81589" lon="2.97231">
        <ele>966</ele>
        <time>2015-10-17T17:51:33Z</time>
      </trkpt>
      <trkpt lat="45.8161" lon="2.9721">
        <ele>966</ele>
        <time>2015-10-17T17:53:33Z</time>
      </trkpt>
      <trkpt lat="45.81639" lon="2.97188">
        <ele>965</ele>
        <time>2015-10-17T17:55:33Z</time>
      </trkpt>
      <trkpt lat="45.81659" lon="2.9718">
        <ele>963</ele>
        <time>2015-10-17T17:57:33Z</time>
      </trkpt>
      <trkpt lat="45.81665" lon="2.97164">
        <ele>963</ele>
        <time>2015-10-17T17:59:33Z</time>
      </trkpt>
      <trkpt lat="45.81649" lon="2.97139">
        <ele>966</ele>
        <time>2015-10-17T18:01:33Z</time>
      </trkpt>
      <trkpt lat="45.81638" lon="2.97107">
        <ele>969</ele>
        <time>2015-10-17T18:03:33Z</time>
      </trkpt>
      <trkpt lat="45.81621" lon="2.97079">
        <ele>971</ele>
        <time>2015-10-17T18:05:33Z</time>
      </trkpt>
      <trkpt lat="45.81607" lon="2.97053">
        <ele>973</ele>
        <time>2015-10-17T18:07:33Z</time>
      </trkpt>
      <trkpt lat="45.816" lon="2.97028">
        <ele>973</ele>
        <time>2015-10-17T18:09:33Z</time>
      </trkpt>
      <trkpt lat="45.81584" lon="2.97006">
        <ele>973</ele>
        <time>2015-10-17T18:11:33Z</time>
      </trkpt>
      <trkpt lat="45.81574" lon="2.96978">
        <ele>973</ele>
        <time>2015-10-17T18:13:33Z</time>
      </trkpt>
      <trkpt lat="45.81563" lon="2.96963">
        <ele>973</ele>
        <time>2015-10-17T18:15:33Z</time>
      </trkpt>
      <trkpt lat="45.81563" lon="2.96961">
        <ele>973</ele>
        <time>2015-10-17T18:17:33Z</time>
      </trkpt>
      <trkpt lat="45.81558" lon="2.96953">
        <ele>973</ele>
        <time>2015-10-17T18:19:33Z</time>
      </trkpt>
      <trkpt lat="45.81554" lon="2.96942">
        <ele>973</ele>
        <time>2015-10-17T18:21:33Z</time>
      </trkpt>
      <trkpt lat="45.81549" lon="2.96933">
        <ele>973</ele>
        <time>2015-10-17T18:23:33Z</time>
      </trkpt>
      <trkpt lat="45.81546" lon="2.96928">
        <ele>973</ele>
        <time>2015-10-17T18:25:33Z</time>
      </trkpt>
      <trkpt lat="45.81543" lon="2.96917">
        <ele>973</ele>
        <time>2015-10-17T18:27:33Z</time>
      </trkpt>
      <trkpt lat="45.81539" lon="2.96912">
        <ele>972</ele>
        <time>2015-10-17T18:29:33Z</time>
      </trkpt>
      <trkpt lat="45.81537" lon="2.96906">
        <ele>972</ele>
        <time>2015-10-17T18:31:33Z</time>
      </trkpt>
      <trkpt lat="45.81541" lon="2.96903">
        <ele>972</ele>
        <time>2015-10-17T18:33:33Z</time>
      </trkpt>
      <trkpt lat="45.81544" lon="2.96899">
        <ele>972</ele>
        <time>2015-10-17T18:35:33Z</time>
      </trkpt>
      <trkpt lat="45.81587" lon="2.96826">
        <ele>972</ele>
        <time>2015-10-17T18:37:33Z</time>
      </trkpt>
      <trkpt lat="45.8162" lon="2.96761">
        <ele>971</ele>
        <time>2015-10-17T18:39:33Z</time>
      </trkpt>
      <trkpt lat="45.81662" lon="2.96753">
        <ele>972</ele>
        <time>2015-10-17T18:41:33Z</time>
      </trkpt>
      <trkpt lat="45.81708" lon="2.96693">
        <ele>972</ele>
        <time>2015-10-17T18:43:33Z</time>
      </trkpt>
      <trkpt lat="45.81747" lon="2.96631">
        <ele>972</ele>
        <time>2015-10-17T18:45:33Z</time>
      </trkpt>
      <trkpt lat="45.81798" lon="2.96564">
        <ele>972</ele>
        <time>2015-10-17T18:47:33Z</time>
      </trkpt>
      <trkpt lat="45.81848" lon="2.96519">
        <ele>971</ele>
        <time>2015-10-17T18:49:33Z</time>
      </trkpt>
      <trkpt lat="45.81897" lon="2.96498">
        <ele>971</ele>
        <time>2015-10-17T18:51:33Z</time>
      </trkpt>
      <trkpt lat="45.81955" lon="2.96472">
        <ele>970</ele>
        <time>2015-10-17T18:53:33Z</time>
      </trkpt>
      <trkpt lat="45.82034" lon="2.96429">
        <ele>968</ele>
        <time>2015-10-17T18:55:33Z</time>
      </trkpt>
      <trkpt lat="45.82091" lon="2.96397">
        <ele>970</ele>
        <time>2015-10-17T18:57:33Z</time>
      </trkpt>
      <trkpt lat="45.82135" lon="2.96371">
        <ele>972</ele>
        <time>2015-10-17T18:59:33Z</time>
      </trkpt>
      <trkpt lat="45.82193" lon="2.96334">
        <ele>973</ele>
        <time>2015-10-17T19:01:33Z</time>
      </trkpt>
      <trkpt lat="45.82259" lon="2.96319">
        <ele>975</ele>
        <time>2015-10-17T19:03:33Z</time>
      </trkpt>
      <trkpt lat="45.82307" lon="2.96313">
        <ele>978</ele>
        <time>2015-10-17T19:05:33Z</time>
      </trkpt>
      <trkpt lat="45.82428" lon="2.96304">
        <ele>980</ele>
        <time>2015-10-17T19:07:33Z</time>
      </trkpt>
      <trkpt lat="45.82476" lon="2.9627">
        <ele>977</ele>
        <time>2015-10-17T19:09:33Z</time>
      </trkpt>
      <trkpt lat="45.82482" lon="2.96221">
        <ele>981</ele>
        <time>2015-10-17T19:11:33Z</time>
      </trkpt>
      <trkpt lat="45.82488" lon="2.96186">
        <ele>987</ele>
        <time>2015-10-17T19:13:33Z</time>
      </trkpt>
      <trkpt lat="45.82473" lon="2.96167">
        <ele>989</ele>
        <time>2015-10-17T19:15:33Z</time>
      </trkpt>
      <trkpt lat="45.82456" lon="2.96148">
        <ele>992</ele>
        <time>2015-10-17T19:17:33Z</time>
      </trkpt>
      <trkpt lat="45.82435" lon="2.96137">
        <ele>992</ele>
        <time>2015-10-17T19:19:33Z</time>
      </trkpt>
      <trkpt lat="45.8239" lon="2.96081">
        <ele>996</ele>
        <time>2015-10-17T19:21:33Z</time>
      </trkpt>
      <trkpt lat="45.82381" lon="2.9604">
        <ele>1001</ele>
        <time>2015-10-17T19:23:33Z</time>
      </trkpt>
      <trkpt lat="45.82428" lon="2.96013">
        <ele>1012</ele>
        <time>2015-10-17T19:25:33Z</time>
      </trkpt>
      <trkpt lat="45.82461" lon="2.95978">
        <ele>1021</ele>
        <time>2015-10-17T19:27:33Z</time>
      </trkpt>
      <trkpt lat="45.8248" lon="2.95935">
        <ele>1031</ele>
        <time>2015-10-17T19:29:33Z</time>
      </trkpt>
      <trkpt lat="45.82491" lon="2.9588">
        <ele>1043</ele>
        <time>2015-10-17T19:31:33Z</time>
      </trkpt>
      <trkpt lat="45.82506" lon="2.95843">
        <ele>1053</ele>
        <time>2015-10-17T19:33:33Z</time>
      </trkpt>
      <trkpt lat="45.82555" lon="2.958">
        <ele>1063</ele>
        <time>2015-10-17T19:35:33Z</time>
      </trkpt>
      <trkpt lat="45.82538" lon="2.95772">
        <ele>1068</ele>
        <time>2015-10-17T19:37:33Z</time>
      </trkpt>
      <trkpt lat="45.82525" lon="2.95693">
        <ele>1083</ele>
        <time>2015-10-17T19:39:33Z</time>
      </trkpt>
      <trkpt lat="45.82509" lon="2.95674">
        <ele>1088</ele>
        <time>2015-10-17T19:41:33Z</time>
      </trkpt>
      <trkpt lat="45.82498" lon="2.95626">
        <ele>1097</ele>
        <time>2015-10-17T19:43:33Z</time>
      </trkpt>
      <trkpt lat="45.82483" lon="2.95564">
        <ele>1103</ele>
        <time>2015-10-17T19:45:33Z</time>
      </trkpt>
      <trkpt lat="45.82485" lon="2.95525">
        <ele>1108</ele>
        <time>2015-10-17T19:47:33Z</time>
      </trkpt>
      <trkpt lat="45.82474" lon="2.95468">
        <ele>1111</ele>
        <time>2015-10-17T19:49:33Z</time>
      </trkpt>
      <trkpt lat="45.8247" lon="2.95414">
        <ele>1114</ele>
        <time>2015-10-17T19:51:33Z</time>
      </trkpt>
      <trkpt lat="45.82452" lon="2.95371">
        <ele>1113</ele>
        <time>2015-10-17T19:53:33Z</time>
      </trkpt>
      <trkpt lat="45.82426" lon="2.95332">
        <ele>1113</ele>
        <time>2015-10-17T19:55:33Z</time>
      </trkpt>
      <trkpt lat="45.82404" lon="2.95287">
        <ele>1107</ele>
        <time>2015-10-17T19:57:33Z</time>
      </trkpt>
      <trkpt lat="45.82389" lon="2.95251">
        <ele>1102</ele>
        <time>2015-10-17T19:59:33Z</time>
      </trkpt>
      <trkpt lat="45.82378" lon="2.95146">
        <ele>1096</ele>
        <time>2015-10-17T20:01:33Z</time>
      </trkpt>
      <trkpt lat="45.82369" lon="2.95103">
        <ele>1092</ele>
        <time>2015-10-17T20:03:33Z</time>
      </trkpt>
      <trkpt lat="45.82395" lon="2.95019">
        <ele>1091</ele>
        <time>2015-10-17T20:05:33Z</time>
      </trkpt>
      <trkpt lat="45.82414" lon="2.9506">
        <ele>1098</ele>
        <time>2015-10-17T20:07:33Z</time>
      </trkpt>
      <trkpt lat="45.82437" lon="2.95094">
        <ele>1099</ele>
        <time>2015-10-17T20:09:33Z</time>
      </trkpt>
      <trkpt lat="45.82495" lon="2.95133">
        <ele>1092</ele>
        <time>2015-10-17T20:11:33Z</time>
      </trkpt>
      <trkpt lat="45.82535" lon="2.95139">
        <ele>1092</ele>
        <time>2015-10-17T20:13:33Z</time>
      </trkpt>
      <trkpt lat="45.82597" lon="2.95169">
        <ele>1088</ele>
        <time>2015-10-17T20:15:33Z</time>
      </trkpt>
      <trkpt lat="45.82604" lon="2.95199">
        <ele>1087</ele>
        <time>2015-10-17T20:17:33Z</time>
      </trkpt>
      <trkpt lat="45.82627" lon="2.95197">
        <ele>1085</ele>
        <time>2015-10-17T20:19:33Z</time>
      </trkpt>
      <trkpt lat="45.82688" lon="2.95199">
        <ele>1078</ele>
        <time>2015-10-17T20:21:33Z</time>
      </trkpt>
      <trkpt lat="45.82751" lon="2.95159">
        <ele>1070</ele>
        <time>2015-10-17T20:23:33Z</time>
      </trkpt>
      <trkpt lat="45.82823" lon="2.95129">
        <ele>1059</ele>
        <time>2015-10-17T20:25:33Z</time>
      </trkpt>
      <trkpt lat="45.82897" lon="2.95109">
        <ele>1045</ele>
        <time>2015-10-17T20:27:33Z</time>
      </trkpt>
      <trkpt lat="45.82956" lon="2.95075">
        <ele>1031</ele>
        <time>2015-10-17T20:29:33Z</time>
      </trkpt>
      <trkpt lat="45.82999" lon="2.95071">
        <ele>1023</ele>
        <time>2015-10-17T20:31:33Z</time>
      </trkpt>
      <trkpt lat="45.83024" lon="2.95124">
        <ele>1024</ele>
        <time>2015-10-17T20:33:33Z</time>
      </trkpt>
      <trkpt lat="45.83042" lon="2.95201">
        <ele>1026</ele>
        <time>2015-10-17T20:35:33Z</time>
      </trkpt>
      <trkpt lat="45.83066" lon="2.95298">
        <ele>1028</ele>
        <time>2015-10-17T20:37:33Z</time>
      </trkpt>
      <trkpt lat="45.83089" lon="2.9536">
        <ele>1028</ele>
        <time>2015-10-17T20:39:33Z</time>
      </trkpt>
      <trkpt lat="45.8311" lon="2.95412">
        <ele>1030</ele>
        <time>2015-10-17T20:41:33Z</time>
      </trkpt>
      <trkpt lat="45.83123" lon="2.95483">
        <ele>1033</ele>
        <time>2015-10-17T20:43:33Z</time>
      </trkpt>
      <trkpt lat="45.83156" lon="2.95435">
        <ele>1027</ele>
        <time>2015-10-17T20:45:33Z</time>
      </trkpt>
      <trkpt lat="45.83204" lon="2.95438">
        <ele>1027</ele>
        <time>2015-10-17T20:47:33Z</time>
      </trkpt>
      <trkpt lat="45.83307" lon="2.95414">
        <ele>1024</ele>
        <time>2015-10-17T20:49:33Z</time>
      </trkpt>
      <trkpt lat="45.83353" lon="2.95399">
        <ele>1024</ele>
        <time>2015-10-17T20:51:33Z</time>
      </trkpt>
      <trkpt lat="45.83394" lon="2.95401">
        <ele>1028</ele>
        <time>2015-10-17T20:53:33Z</time>
      </trkpt>
      <trkpt lat="45.83434" lon="2.95438">
        <ele>1035</ele>
        <time>2015-10-17T20:55:33Z</time>
      </trkpt>
      <trkpt lat="45.83492" lon="2.95448">
        <ele>1033</ele>
        <time>2015-10-17T20:57:33Z</time>
      </trkpt>
      <trkpt lat="45.83542" lon="2.95483">
        <ele>1038</ele>
        <time>2015-10-17T20:59:33Z</time>
      </trkpt>
      <trkpt lat="45.83582" lon="2.95513">
        <ele>1041</ele>
        <time>2015-10-17T21:01:33Z</time>
      </trkpt>
      <trkpt lat="45.83609" lon="2.95549">
        <ele>1043</ele>
        <time>2015-10-17T21:03:33Z</time>
      </trkpt>
      <trkpt lat="45.83661" lon="2.95549">
        <ele>1034</ele>
        <time>2015-10-17T21:05:33Z</time>
      </trkpt>
      <trkpt lat="45.83685" lon="2.95603">
        <ele>1033</ele>
        <time>2015-10-17T21:07:33Z</time>
      </trkpt>
      <trkpt lat="45.83666" lon="2.95637">
        <ele>1035</ele>
        <time>2015-10-17T21:09:33Z</time>
      </trkpt>
      <trkpt lat="45.83645" lon="2.95671">
        <ele>1039</ele>
        <time>2015-10-17T21:11:33Z</time>
      </trkpt>
      <trkpt lat="45.83628" lon="2.9571">
        <ele>1042</ele>
        <time>2015-10-17T21:13:33Z</time>
      </trkpt>
      <trkpt lat="45.83613" lon="2.95764">
        <ele>1043</ele>
        <time>2015-10-17T21:15:33Z</time>
      </trkpt>
      <trkpt lat="45.83575" lon="2.95839">
        <ele>1044</ele>
        <time>2015-10-17T21:17:33Z</time>
      </trkpt>
      <trkpt lat="45.83554" lon="2.95873">
        <ele>1041</ele>
        <time>2015-10-17T21:19:33Z</time>
      </trkpt>
      <trkpt lat="45.83588" lon="2.95903">
        <ele>1035</ele>
        <time>2015-10-17T21:21:33Z</time>
      </trkpt>
      <trkpt lat="45.83664" lon="2.9591">
        <ele>1028</ele>
        <time>2015-10-17T21:23:33Z</time>
      </trkpt>
      <trkpt lat="45.83688" lon="2.95905">
        <ele>1027</ele>
        <time>2015-10-17T21:25:33Z</time>
      </trkpt>
      <trkpt lat="45.83667" lon="2.95965">
        <ele>1030</ele>
        <time>2015-10-17T21:27:33Z</time>
      </trkpt>
      <trkpt lat="45.83703" lon="2.96008">
        <ele>1035</ele>
        <time>2015-10-17T21:29:33Z</time>
      </trkpt>
      <trkpt lat="45.83727" lon="2.96017">
        <ele>1037</ele>
        <time>2015-10-17T21:31:33Z</time>
      </trkpt>
      <trkpt lat="45.8373" lon="2.96088">
        <ele>1044</ele>
        <time>2015-10-17T21:33:33Z</time>
      </trkpt>
      <trkpt lat="45.83736" lon="2.96139">
        <ele>1048</ele>
        <time>2015-10-17T21:35:33Z</time>
      </trkpt>
      <trkpt lat="45.83742" lon="2.96201">
        <ele>1053</ele>
        <time>2015-10-17T21:37:33Z</time>
      </trkpt>
      <trkpt lat="45.83805" lon="2.96223">
        <ele>1068</ele>
        <time>2015-10-17T21:39:33Z</time>
      </trkpt>
      <trkpt lat="45.83856" lon="2.96225">
        <ele>1078</ele>
        <time>2015-10-17T21:41:33Z</time>
      </trkpt>
      <trkpt lat="45.83914" lon="2.96225">
        <ele>1087</ele>
        <time>2015-10-17T21:43:33Z</time>
      </trkpt>
      <trkpt lat="45.83956" lon="2.96199">
        <ele>1090</ele>
        <time>2015-10-17T21:45:33Z</time>
      </trkpt>
      <trkpt lat="45.84025" lon="2.96227">
        <ele>1101</ele>
        <time>2015-10-17T21:47:33Z</time>
      </trkpt>
      <trkpt lat="45.84069" lon="2.96259">
        <ele>1111</ele>
        <time>2015-10-17T21:49:33Z</time>
      </trkpt>
      <trkpt lat="45.84104" lon="2.96289">
        <ele>1120</ele>
        <time>2015-10-17T21:51:33Z</time>
      </trkpt>
      <trkpt lat="45.84135" lon="2.96326">
        <ele>1130</ele>
        <time>2015-10-17T21:53:33Z</time>
      </trkpt>
      <trkpt lat="45.84183" lon="2.96354">
        <ele>1137</ele>
        <time>2015-10-17T21:55:33Z</time>
      </trkpt>
      <trkpt lat="45.84222" lon="2.96395">
        <ele>1135</ele>
        <time>2015-10-17T21:57:33Z</time>
      </trkpt>
      <trkpt lat="45.84249" lon="2.9644">
        <ele>1134</ele>
        <time>2015-10-17T21:59:33Z</time>
      </trkpt>
      <trkpt lat="45.84291" lon="2.96493">
        <ele>1133</ele>
        <time>2015-10-17T22:01:33Z</time>
      </trkpt>
      <trkpt lat="45.84341" lon="2.96508">
        <ele>1137</ele>
        <time>2015-10-17T22:03:33Z</time>
      </trkpt>
      <trkpt lat="45.84391" lon="2.96513">
        <ele>1139</ele>
        <time>2015-10-17T22:05:33Z</time>
      </trkpt>
      <trkpt lat="45.84391" lon="2.96463">
        <ele>1135</ele>
        <time>2015-10-17T22:07:33Z</time>
      </trkpt>
      <trkpt lat="45.84422" lon="2.96442">
        <ele>1133</ele>
        <time>2015-10-17T22:09:33Z</time>
      </trkpt>
      <trkpt lat="45.84461" lon="2.96472">
        <ele>1128</ele>
        <time>2015-10-17T22:11:33Z</time>
      </trkpt>
      <trkpt lat="45.84476" lon="2.96538">
        <ele>1130</ele>
        <time>2015-10-17T22:13:33Z</time>
      </trkpt>
      <trkpt lat="45.84527" lon="2.96553">
        <ele>1127</ele>
        <time>2015-10-17T22:15:33Z</time>
      </trkpt>
      <trkpt lat="45.84593" lon="2.96579">
        <ele>1135</ele>
        <time>2015-10-17T22:17:33Z</time>
      </trkpt>
      <trkpt lat="45.84613" lon="2.96656">
        <ele>1140</ele>
        <time>2015-10-17T22:19:33Z</time>
      </trkpt>
      <trkpt lat="45.84664" lon="2.96667">
        <ele>1150</ele>
        <time>2015-10-17T22:21:33Z</time>
      </trkpt>
      <trkpt lat="45.84678" lon="2.96714">
        <ele>1145</ele>
        <time>2015-10-17T22:23:33Z</time>
      </trkpt>
      <trkpt lat="45.84696" lon="2.96759">
        <ele>1141</ele>
        <time>2015-10-17T22:25:33Z</time>
      </trkpt>
      <trkpt lat="45.84715" lon="2.96809">
        <ele>1138</ele>
        <time>2015-10-17T22:27:33Z</time>
      </trkpt>
      <trkpt lat="45.84747" lon="2.96854">
        <ele>1140</ele>
        <time>2015-10-17T22:29:33Z</time>
      </trkpt>
      <trkpt lat="45.84794" lon="2.9689">
        <ele>1137</ele>
        <time>2015-10-17T22:31:33Z</time>
      </trkpt>
      <trkpt lat="45.84851" lon="2.9686">
        <ele>1129</ele>
        <time>2015-10-17T22:33:33Z</time>
      </trkpt>
      <trkpt lat="45.84887" lon="2.96824">
        <ele>1121</ele>
        <time>2015-10-17T22:35:33Z</time>
      </trkpt>
      <trkpt lat="45.84918" lon="2.96742">
        <ele>1115</ele>
        <time>2015-10-17T22:37:33Z</time>
      </trkpt>
      <trkpt lat="45.84975" lon="2.96721">
        <ele>1101</ele>
        <time>2015-10-17T22:39:33Z</time>
      </trkpt>
      <trkpt lat="45.85056" lon="2.96658">
        <ele>1080</ele>
        <time>2015-10-17T22:41:33Z</time>
      </trkpt>
      <trkpt lat="45.85102" lon="2.9659">
        <ele>1066</ele>
        <time>2015-10-17T22:43:33Z</time>
      </trkpt>
      <trkpt lat="45.85119" lon="2.96555">
        <ele>1059</ele>
        <time>2015-10-17T22:45:33Z</time>
      </trkpt>
      <trkpt lat="45.85143" lon="2.96463">
        <ele>1045</ele>
        <time>2015-10-17T22:47:33Z</time>
      </trkpt>
      <trkpt lat="45.85161" lon="2.96386">
        <ele>1038</ele>
        <time>2015-10-17T22:49:33Z</time>
      </trkpt>
      <trkpt lat="45.85192" lon="2.96437">
        <ele>1037</ele>
        <time>2015-10-17T22:51:33Z</time>
      </trkpt>
      <trkpt lat="45.8522" lon="2.96478">
        <ele>1035</ele>
        <time>2015-10-17T22:53:33Z</time>
      </trkpt>
      <trkpt lat="45.85241" lon="2.96532">
        <ele>1029</ele>
        <time>2015-10-17T22:55:33Z</time>
      </trkpt>
      <trkpt lat="45.85258" lon="2.96585">
        <ele>1024</ele>
        <time>2015-10-17T22:57:33Z</time>
      </trkpt>
      <trkpt lat="45.85267" lon="2.96616">
        <ele>1022</ele>
        <time>2015-10-17T22:59:33Z</time>
      </trkpt>
      <trkpt lat="45.85297" lon="2.9665">
        <ele>1017</ele>
        <time>2015-10-17T23:01:33Z</time>
      </trkpt>
      <trkpt lat="45.85285" lon="2.96701">
        <ele>1017</ele>
        <time>2015-10-17T23:03:33Z</time>
      </trkpt>
      <trkpt lat="45.8528" lon="2.96731">
        <ele>1016</ele>
        <time>2015-10-17T23:05:33Z</time>
      </trkpt>
      <trkpt lat="45.85252" lon="2.96766">
        <ele>1019</ele>
        <time>2015-10-17T23:07:33Z</time>
      </trkpt>
      <trkpt lat="45.85222" lon="2.96837">
        <ele>1021</ele>
        <time>2015-10-17T23:09:33Z</time>
      </trkpt>
      <trkpt lat="45.8525" lon="2.96937">
        <ele>1014</ele>
        <time>2015-10-17T23:11:33Z</time>
      </trkpt>
      <trkpt lat="45.85247" lon="2.97004">
        <ele>1010</ele>
        <time>2015-10-17T23:13:33Z</time>
      </trkpt>
      <trkpt lat="45.85243" lon="2.97036">
        <ele>1009</ele>
        <time>2015-10-17T23:15:33Z</time>
      </trkpt>
      <trkpt lat="45.85219" lon="2.97073">
        <ele>1008</ele>
        <time>2015-10-17T23:17:33Z</time>
      </trkpt>
      <trkpt lat="45.85216" lon="2.97118">
        <ele>1006</ele>
        <time>2015-10-17T23:19:33Z</time>
      </trkpt>
      <trkpt lat="45.85187" lon="2.97167">
        <ele>1004</ele>
        <time>2015-10-17T23:21:33Z</time>
      </trkpt>
      <trkpt lat="45.85164" lon="2.97218">
        <ele>1003</ele>
        <time>2015-10-17T23:23:33Z</time>
      </trkpt>
      <trkpt lat="45.85164" lon="2.97249">
        <ele>1002</ele>
        <time>2015-10-17T23:25:33Z</time>
      </trkpt>
      <trkpt lat="45.85125" lon="2.97287">
        <ele>998</ele>
        <time>2015-10-17T23:27:33Z</time>
      </trkpt>
      <trkpt lat="45.85104" lon="2.97321">
        <ele>993</ele>
        <time>2015-10-17T23:29:33Z</time>
      </trkpt>
      <trkpt lat="45.85083" lon="2.97349">
        <ele>987</ele>
        <time>2015-10-17T23:31:33Z</time>
      </trkpt>
      <trkpt lat="45.85065" lon="2.97373">
        <ele>982</ele>
        <time>2015-10-17T23:33:33Z</time>
      </trkpt>
      <trkpt lat="45.85044" lon="2.97367">
        <ele>985</ele>
        <time>2015-10-17T23:35:33Z</time>
      </trkpt>
      <trkpt lat="45.84989" lon="2.97388">
        <ele>981</ele>
        <time>2015-10-17T23:37:33Z</time>
      </trkpt>
      <trkpt lat="45.84951" lon="2.97392">
        <ele>980</ele>
        <time>2015-10-17T23:39:33Z</time>
      </trkpt>
      <trkpt lat="45.84921" lon="2.97397">
        <ele>979</ele>
        <time>2015-10-17T23:41:33Z</time>
      </trkpt>
      <trkpt lat="45.84888" lon="2.97414">
        <ele>973</ele>
        <time>2015-10-17T23:43:33Z</time>
      </trkpt>
      <trkpt lat="45.84866" lon="2.97422">
        <ele>970</ele>
        <time>2015-10-17T23:45:33Z</time>
      </trkpt>
      <trkpt lat="45.84817" lon="2.97467">
        <ele>957</ele>
        <time>2015-10-17T23:47:33Z</time>
      </trkpt>
      <trkpt lat="45.84785" lon="2.97482">
        <ele>953</ele>
        <time>2015-10-17T23:49:33Z</time>
      </trkpt>
      <trkpt lat="45.84758" lon="2.97504">
        <ele>947</ele>
        <time>2015-10-17T23:51:33Z</time>
      </trkpt>
      <trkpt lat="45.84732" lon="2.97523">
        <ele>942</ele>
        <time>2015-10-17T23:53:33Z</time>
      </trkpt>
      <trkpt lat="45.84696" lon="2.97538">
        <ele>938</ele>
        <time>2015-10-17T23:55:33Z</time>
      </trkpt>
      <trkpt lat="45.8467" lon="2.97551">
        <ele>934</ele>
        <time>2015-10-17T23:57:33Z</time>
      </trkpt>
      <trkpt lat="45.84615" lon="2.97566">
        <ele>930</ele>
        <time>2015-10-17T23:59:33Z</time>
      </trkpt>
      <trkpt lat="45.8459" lon="2.97577">
        <ele>928</ele>
        <time>2015-10-18T00:01:33Z</time>
      </trkpt>
      <trkpt lat="45.84564" lon="2.97577">
        <ele>927</ele>
        <time>2015-10-18T00:03:33Z</time>
      </trkpt>
      <trkpt lat="45.84525" lon="2.97562">
        <ele>927</ele>
        <time>2015-10-18T00:05:33Z</time>
      </trkpt>
      <trkpt lat="45.84498" lon="2.97545">
        <ele>928</ele>
        <time>2015-10-18T00:07:33Z</time>
      </trkpt>
      <trkpt lat="45.84467" lon="2.97521">
        <ele>928</ele>
        <time>2015-10-18T00:09:33Z</time>
      </trkpt>
      <trkpt lat="45.84428" lon="2.97527">
        <ele>924</ele>
        <time>2015-10-18T00:11:33Z</time>
      </trkpt>
      <trkpt lat="45.84403" lon="2.97536">
        <ele>921</ele>
        <time>2015-10-18T00:13:33Z</time>
      </trkpt>
      <trkpt lat="45.84379" lon="2.97545">
        <ele>918</ele>
        <time>2015-10-18T00:15:33Z</time>
      </trkpt>
      <trkpt lat="45.84358" lon="2.9756">
        <ele>914</ele>
        <time>2015-10-18T00:17:33Z</time>
      </trkpt>
      <trkpt lat="45.84337" lon="2.97624">
        <ele>904</ele>
        <time>2015-10-18T00:19:33Z</time>
      </trkpt>
      <trkpt lat="45.84326" lon="2.97678">
        <ele>898</ele>
        <time>2015-10-18T00:21:33Z</time>
      </trkpt>
      <trkpt lat="45.84309" lon="2.97733">
        <ele>893</ele>
        <time>2015-10-18T00:23:33Z</time>
      </trkpt>
      <trkpt lat="45.84349" lon="2.9777">
        <ele>891</ele>
        <time>2015-10-18T00:25:33Z</time>
      </trkpt>
      <trkpt lat="45.84391" lon="2.97815">
        <ele>890</ele>
        <time>2015-10-18T00:27:33Z</time>
      </trkpt>
      <trkpt lat="45.84431" lon="2.9786">
        <ele>888</ele>
        <time>2015-10-18T00:29:33Z</time>
      </trkpt>
      <trkpt lat="45.84424" lon="2.97965">
        <ele>883</ele>
        <time>2015-10-18T00:31:33Z</time>
      </trkpt>
      <trkpt lat="45.84421" lon="2.9806">
        <ele>879</ele>
        <time>2015-10-18T00:33:33Z</time>
      </trkpt>
      <trkpt lat="45.84422" lon="2.98111">
        <ele>878</ele>
        <time>2015-10-18T00:35:33Z</time>
      </trkpt>
      <trkpt lat="45.84415" lon="2.98158">
        <ele>877</ele>
        <time>2015-10-18T00:37:33Z</time>
      </trkpt>
      <trkpt lat="45.84409" lon="2.98208">
        <ele>874</ele>
        <time>2015-10-18T00:39:33Z</time>
      </trkpt>
      <trkpt lat="45.84407" lon="2.98261">
        <ele>870</ele>
        <time>2015-10-18T00:41:33Z</time>
      </trkpt>
      <trkpt lat="45.84409" lon="2.98334">
        <ele>862</ele>
        <time>2015-10-18T00:43:33Z</time>
      </trkpt>
      <trkpt lat="45.8441" lon="2.98405">
        <ele>860</ele>
        <time>2015-10-18T00:45:33Z</time>
      </trkpt>
      <trkpt lat="45.84395" lon="2.98476">
        <ele>857</ele>
        <time>2015-10-18T00:47:33Z</time>
      </trkpt>
      <trkpt lat="45.84389" lon="2.98525">
        <ele>854</ele>
        <time>2015-10-18T00:49:33Z</time>
      </trkpt>
      <trkpt lat="45.84382" lon="2.986">
        <ele>850</ele>
        <time>2015-10-18T00:51:33Z</time>
      </trkpt>
      <trkpt lat="45.84374" lon="2.98693">
        <ele>848</ele>
        <time>2015-10-18T00:53:33Z</time>
      </trkpt>
      <trkpt lat="45.8437" lon="2.98781">
        <ele>847</ele>
        <time>2015-10-18T00:55:33Z</time>
      </trkpt>
      <trkpt lat="45.8437" lon="2.98847">
        <ele>845</ele>
        <time>2015-10-18T00:57:33Z</time>
      </trkpt>
      <trkpt lat="45.84413" lon="2.98849">
        <ele>844</ele>
        <time>2015-10-18T00:59:33Z</time>
      </trkpt>
      <trkpt lat="45.84454" lon="2.98862">
        <ele>845</ele>
        <time>2015-10-18T01:01:33Z</time>
      </trkpt>
      <trkpt lat="45.84492" lon="2.98856">
        <ele>847</ele>
        <time>2015-10-18T01:03:33Z</time>
      </trkpt>
      <trkpt lat="45.84491" lon="2.98959">
        <ele>844</ele>
        <time>2015-10-18T01:05:33Z</time>
      </trkpt>
      <trkpt lat="45.84491" lon="2.99006">
        <ele>842</ele>
        <time>2015-10-18T01:07:33Z</time>
      </trkpt>
      <trkpt lat="45.8448" lon="2.99068">
        <ele>840</ele>
        <time>2015-10-18T01:09:33Z</time>
      </trkpt>
      <trkpt lat="45.84477" lon="2.99109">
        <ele>838</ele>
        <time>2015-10-18T01:11:33Z</time>
      </trkpt>
      <trkpt lat="45.84465" lon="2.99178">
        <ele>836</ele>
        <time>2015-10-18T01:13:33Z</time>
      </trkpt>
      <trkpt lat="45.84449" lon="2.99203">
        <ele>834</ele>
        <time>2015-10-18T01:15:33Z</time>
      </trkpt>
      <trkpt lat="45.84494" lon="2.99233">
        <ele>838</ele>
        <time>2015-10-18T01:17:33Z</time>
      </trkpt>
      <trkpt lat="45.84554" lon="2.99268">
        <ele>838</ele>
        <time>2015-10-18T01:19:33Z</time>
      </trkpt>
      <trkpt lat="45.84618" lon="2.99319">
        <ele>836</ele>
        <time>2015-10-18T01:21:33Z</time>
      </trkpt>
      <trkpt lat="45.84654" lon="2.99356">
        <ele>835</ele>
        <time>2015-10-18T01:23:33Z</time>
      </trkpt>
      <trkpt lat="45.84721" lon="2.99426">
        <ele>832</ele>
        <time>2015-10-18T01:25:33Z</time>
      </trkpt>
      <trkpt lat="45.84766" lon="2.99476">
        <ele>827</ele>
        <time>2015-10-18T01:27:33Z</time>
      </trkpt>
      <trkpt lat="45.84797" lon="2.99519">
        <ele>824</ele>
        <time>2015-10-18T01:29:33Z</time>
      </trkpt>
      <trkpt lat="45.8483" lon="2.99562">
        <ele>821</ele>
        <time>2015-10-18T01:31:33Z</time>
      </trkpt>
      <trkpt lat="45.84863" lon="2.996">
        <ele>819</ele>
        <time>2015-10-18T01:33:33Z</time>
      </trkpt>
      <trkpt lat="45.84896" lon="2.99637">
        <ele>818</ele>
        <time>2015-10-18T01:35:33Z</time>
      </trkpt>
      <trkpt lat="45.84923" lon="2.99673">
        <ele>818</ele>
        <time>2015-10-18T01:37:33Z</time>
      </trkpt>
      <trkpt lat="45.84956" lon="2.99708">
        <ele>818</ele>
        <time>2015-10-18T01:39:33Z</time>
      </trkpt>
      <trkpt lat="45.8499" lon="2.99751">
        <ele>817</ele>
        <time>2015-10-18T01:41:33Z</time>
      </trkpt>
      <trkpt lat="45.85027" lon="2.99763">
        <ele>817</ele>
        <time>2015-10-18T01:43:33Z</time>
      </trkpt>
      <trkpt lat="45.85066" lon="2.99783">
        <ele>815</ele>
        <time>2015-10-18T01:45:33Z</time>
      </trkpt>
      <trkpt lat="45.85086" lon="2.99828">
        <ele>813</ele>
        <time>2015-10-18T01:47:33Z</time>
      </trkpt>
      <trkpt lat="45.85134" lon="2.99847">
        <ele>810</ele>
        <time>2015-10-18T01:49:33Z</time>
      </trkpt>
      <trkpt lat="45.85192" lon="2.99877">
        <ele>807</ele>
        <time>2015-10-18T01:51:33Z</time>
      </trkpt>
      <trkpt lat="45.85204" lon="2.99905">
        <ele>806</ele>
        <time>2015-10-18T01:53:33Z</time>
      </trkpt>
      <trkpt lat="45.8525" lon="2.99944">
        <ele>803</ele>
        <time>2015-10-18T01:55:33Z</time>
      </trkpt>
      <trkpt lat="45.85308" lon="2.9998">
        <ele>798</ele>
        <time>2015-10-18T01:57:33Z</time>
      </trkpt>
      <trkpt lat="45.85361" lon="3.00006">
        <ele>794</ele>
        <time>2015-10-18T01:59:33Z</time>
      </trkpt>
      <trkpt lat="45.85404" lon="3.00019">
        <ele>791</ele>
        <time>2015-10-18T02:01:33Z</time>
      </trkpt>
      <trkpt lat="45.85438" lon="3.0007">
        <ele>787</ele>
        <time>2015-10-18T02:03:33Z</time>
      </trkpt>
      <trkpt lat="45.85468" lon="3.00107">
        <ele>783</ele>
        <time>2015-10-18T02:05:33Z</time>
      </trkpt>
      <trkpt lat="45.855" lon="3.00145">
        <ele>778</ele>
        <time>2015-10-18T02:07:33Z</time>
      </trkpt>
      <trkpt lat="45.85521" lon="3.00197">
        <ele>777</ele>
        <time>2015-10-18T02:09:33Z</time>
      </trkpt>
      <trkpt lat="45.85528" lon="3.00238">
        <ele>776</ele>
        <time>2015-10-18T02:11:33Z</time>
      </trkpt>
      <trkpt lat="45.85552" lon="3.00291">
        <ele>775</ele>
        <time>2015-10-18T02:13:33Z</time>
      </trkpt>
      <trkpt lat="45.8558" lon="3.00347">
        <ele>775</ele>
        <time>2015-10-18T02:15:33Z</time>
      </trkpt>
      <trkpt lat="45.85586" lon="3.00272">
        <ele>776</ele>
        <time>2015-10-18T02:17:33Z</time>
      </trkpt>
      <trkpt lat="45.85594" lon="3.00195">
        <ele>778</ele>
        <time>2015-10-18T02:19:33Z</time>
      </trkpt>
      <trkpt lat="45.85592" lon="3.00128">
        <ele>780</ele>
        <time>2015-10-18T02:21:33Z</time>
      </trkpt>
      <trkpt lat="45.85604" lon="3.00047">
        <ele>785</ele>
        <time>2015-10-18T02:23:33Z</time>
      </trkpt>
      <trkpt lat="45.85604" lon="2.99976">
        <ele>787</ele>
        <time>2015-10-18T02:25:33Z</time>
      </trkpt>
      <trkpt lat="45.85607" lon="2.99899">
        <ele>789</ele>
        <time>2015-10-18T02:27:33Z</time>
      </trkpt>
      <trkpt lat="45.85604" lon="2.99838">
        <ele>790</ele>
        <time>2015-10-18T02:29:33Z</time>
      </trkpt>
      <trkpt lat="45.85669" lon="2.99802">
        <ele>792</ele>
        <time>2015-10-18T02:31:33Z</time>
      </trkpt>
      <trkpt lat="45.85705" lon="2.99768">
        <ele>794</ele>
        <time>2015-10-18T02:33:33Z</time>
      </trkpt>
      <trkpt lat="45.85749" lon="2.99748">
        <ele>795</ele>
        <time>2015-10-18T02:35:33Z</time>
      </trkpt>
      <trkpt lat="45.85782" lon="2.99781">
        <ele>796</ele>
        <time>2015-10-18T02:37:33Z</time>
      </trkpt>
      <trkpt lat="45.85858" lon="2.99796">
        <ele>801</ele>
        <time>2015-10-18T02:39:33Z</time>
      </trkpt>
      <trkpt lat="45.85906" lon="2.99761">
        <ele>809</ele>
        <time>2015-10-18T02:41:33Z</time>
      </trkpt>
      <trkpt lat="45.85929" lon="2.99703">
        <ele>817</ele>
        <time>2015-10-18T02:43:33Z</time>
      </trkpt>
      <trkpt lat="45.85985" lon="2.99695">
        <ele>823</ele>
        <time>2015-10-18T02:45:33Z</time>
      </trkpt>
      <trkpt lat="45.86042" lon="2.99663">
        <ele>836</ele>
        <time>2015-10-18T02:47:33Z</time>
      </trkpt>
      <trkpt lat="45.86051" lon="2.99632">
        <ele>843</ele>
        <time>2015-10-18T02:49:33Z</time>
      </trkpt>
      <trkpt lat="45.86075" lon="2.9963">
        <ele>847</ele>
        <time>2015-10-18T02:51:33Z</time>
      </trkpt>
      <trkpt lat="45.86056" lon="2.9959">
        <ele>851</ele>
        <time>2015-10-18T02:53:33Z</time>
      </trkpt>
      <trkpt lat="45.86051" lon="2.99538">
        <ele>859</ele>
        <time>2015-10-18T02:55:33Z</time>
      </trkpt>
      <trkpt lat="45.86065" lon="2.99482">
        <ele>870</ele>
        <time>2015-10-18T02:57:33Z</time>
      </trkpt>
      <trkpt lat="45.86099" lon="2.99448">
        <ele>875</ele>
        <time>2015-10-18T02:59:33Z</time>
      </trkpt>
      <trkpt lat="45.86105" lon="2.99414">
        <ele>877</ele>
        <time>2015-10-18T03:01:33Z</time>
      </trkpt>
      <trkpt lat="45.86126" lon="2.99377">
        <ele>877</ele>
        <time>2015-10-18T03:03:33Z</time>
      </trkpt>
      <trkpt lat="45.86175" lon="2.99343">
        <ele>875</ele>
        <time>2015-10-18T03:05:33Z</time>
      </trkpt>
      <trkpt lat="45.86211" lon="2.99285">
        <ele>876</ele>
        <time>2015-10-18T03:07:33Z</time>
      </trkpt>
      <trkpt lat="45.86223" lon="2.99255">
        <ele>878</ele>
        <time>2015-10-18T03:09:33Z</time>
      </trkpt>
      <trkpt lat="45.86247" lon="2.99251">
        <ele>879</ele>
        <time>2015-10-18T03:11:33Z</time>
      </trkpt>
      <trkpt lat="45.86265" lon="2.99276">
        <ele>877</ele>
        <time>2015-10-18T03:13:33Z</time>
      </trkpt>
      <trkpt lat="45.86298" lon="2.99323">
        <ele>875</ele>
        <time>2015-10-18T03:15:33Z</time>
      </trkpt>
      <trkpt lat="45.86323" lon="2.99392">
        <ele>873</ele>
        <time>2015-10-18T03:17:33Z</time>
      </trkpt>
      <trkpt lat="45.8634" lon="2.99401">
        <ele>873</ele>
        <time>2015-10-18T03:19:33Z</time>
      </trkpt>
      <trkpt lat="45.86362" lon="2.99429">
        <ele>872</ele>
        <time>2015-10-18T03:21:33Z</time>
      </trkpt>
      <trkpt lat="45.86372" lon="2.99403">
        <ele>873</ele>
        <time>2015-10-18T03:23:33Z</time>
      </trkpt>
      <trkpt lat="45.86419" lon="2.99377">
        <ele>873</ele>
        <time>2015-10-18T03:25:33Z</time>
      </trkpt>
      <trkpt lat="45.86462" lon="2.99336">
        <ele>871</ele>
        <time>2015-10-18T03:27:33Z</time>
      </trkpt>
      <trkpt lat="45.86498" lon="2.99304">
        <ele>871</ele>
        <time>2015-10-18T03:29:33Z</time>
      </trkpt>
      <trkpt lat="45.86523" lon="2.99266">
        <ele>869</ele>
        <time>2015-10-18T03:31:33Z</time>
      </trkpt>
      <trkpt lat="45.86523" lon="2.9922">
        <ele>869</ele>
        <time>2015-10-18T03:33:33Z</time>
      </trkpt>
      <trkpt lat="45.86519" lon="2.99173">
        <ele>870</ele>
        <time>2015-10-18T03:35:33Z</time>
      </trkpt>
      <trkpt lat="45.86534" lon="2.9916">
        <ele>868</ele>
        <time>2015-10-18T03:37:33Z</time>
      </trkpt>
      <trkpt lat="45.8654" lon="2.9913">
        <ele>868</ele>
        <time>2015-10-18T03:39:33Z</time>
      </trkpt>
      <trkpt lat="45.86573" lon="2.9907">
        <ele>860</ele>
        <time>2015-10-18T03:41:33Z</time>
      </trkpt>
      <trkpt lat="45.86595" lon="2.9907">
        <ele>856</ele>
        <time>2015-10-18T03:43:33Z</time>
      </trkpt>
      <trkpt lat="45.86615" lon="2.98948">
        <ele>852</ele>
        <time>2015-10-18T03:45:33Z</time>
      </trkpt>
      <trkpt lat="45.86609" lon="2.98903">
        <ele>850</ele>
        <time>2015-10-18T03:47:33Z</time>
      </trkpt>
      <trkpt lat="45.86577" lon="2.98886">
        <ele>851</ele>
        <time>2015-10-18T03:49:33Z</time>
      </trkpt>
      <trkpt lat="45.86561" lon="2.98856">
        <ele>853</ele>
        <time>2015-10-18T03:51:33Z</time>
      </trkpt>
      <trkpt lat="45.86564" lon="2.98811">
        <ele>852</ele>
        <time>2015-10-18T03:53:33Z</time>
      </trkpt>
      <trkpt lat="45.86582" lon="2.98768">
        <ele>852</ele>
        <time>2015-10-18T03:55:33Z</time>
      </trkpt>
      <trkpt lat="45.86613" lon="2.98746">
        <ele>851</ele>
        <time>2015-10-18T03:57:33Z</time>
      </trkpt>
      <trkpt lat="45.86685" lon="2.98755">
        <ele>841</ele>
        <time>2015-10-18T03:59:33Z</time>
      </trkpt>
      <trkpt lat="45.86727" lon="2.98798">
        <ele>832</ele>
        <time>2015-10-18T04:01:33Z</time>
      </trkpt>
      <trkpt lat="45.86759" lon="2.98843">
        <ele>828</ele>
        <time>2015-10-18T04:03:33Z</time>
      </trkpt>
      <trkpt lat="45.86816" lon="2.98873">
        <ele>818</ele>
        <time>2015-10-18T04:05:33Z</time>
      </trkpt>
      <trkpt lat="45.86866" lon="2.98879">
        <ele>809</ele>
        <time>2015-10-18T04:07:33Z</time>
      </trkpt>
      <trkpt lat="45.86912" lon="2.98909">
        <ele>802</ele>
        <time>2015-10-18T04:09:33Z</time>
      </trkpt>
      <trkpt lat="45.86957" lon="2.98954">
        <ele>800</ele>
        <time>2015-10-18T04:11:33Z</time>
      </trkpt>
      <trkpt lat="45.86994" lon="2.9901">
        <ele>798</ele>
        <time>2015-10-18T04:13:33Z</time>
      </trkpt>
      <trkpt lat="45.87025" lon="2.99055">
        <ele>796</ele>
        <time>2015-10-18T04:15:33Z</time>
      </trkpt>
      <trkpt lat="45.87061" lon="2.99105">
        <ele>792</ele>
        <time>2015-10-18T04:17:33Z</time>
      </trkpt>
      <trkpt lat="45.87079" lon="2.99148">
        <ele>788</ele>
        <time>2015-10-18T04:19:33Z</time>
      </trkpt>
      <trkpt lat="45.87111" lon="2.99171">
        <ele>785</ele>
        <time>2015-10-18T04:21:33Z</time>
      </trkpt>
      <trkpt lat="45.87121" lon="2.99126">
        <ele>788</ele>
        <time>2015-10-18T04:23:33Z</time>
      </trkpt>
      <trkpt lat="45.87152" lon="2.9907">
        <ele>791</ele>
        <time>2015-10-18T04:25:33Z</time>
      </trkpt>
      <trkpt lat="45.87203" lon="2.99025">
        <ele>788</ele>
        <time>2015-10-18T04:27:33Z</time>
      </trkpt>
      <trkpt lat="45.87229" lon="2.99012">
        <ele>786</ele>
        <time>2015-10-18T04:29:33Z</time>
      </trkpt>
      <trkpt lat="45.87249" lon="2.99045">
        <ele>784</ele>
        <time>2015-10-18T04:31:33Z</time>
      </trkpt>
    </trkseg>
  </trk>
  <trk>
    <name><![CDATA[--Orcines-- OR-5370349:ser-fr02-vtt-l2]]></name>
    <trkseg>
      <trkpt lat="45.80026" lon="2.99208">
        <ele>970</ele>
        <time>2015-10-17T14:41:54Z</time>
      </trkpt>
      <trkpt lat="45.80015" lon="2.99263">
        <ele>972</ele>
        <time>2015-10-17T14:43:54Z</time>
      </trkpt>
      <trkpt lat="45.80001" lon="2.99321">
        <ele>975</ele>
        <time>2015-10-17T14:45:54Z</time>
      </trkpt>
      <trkpt lat="45.79979" lon="2.99417">
        <ele>976</ele>
        <time>2015-10-17T14:47:54Z</time>
      </trkpt>
      <trkpt lat="45.79971" lon="2.99474">
        <ele>978</ele>
        <time>2015-10-17T14:49:54Z</time>
      </trkpt>
      <trkpt lat="45.79969" lon="2.99541">
        <ele>980</ele>
        <time>2015-10-17T14:51:54Z</time>
      </trkpt>
      <trkpt lat="45.79978" lon="2.99622">
        <ele>981</ele>
        <time>2015-10-17T14:53:54Z</time>
      </trkpt>
      <trkpt lat="45.79991" lon="2.99712">
        <ele>983</ele>
        <time>2015-10-17T14:55:54Z</time>
      </trkpt>
      <trkpt lat="45.79998" lon="2.99831">
        <ele>985</ele>
        <time>2015-10-17T14:57:54Z</time>
      </trkpt>
      <trkpt lat="45.80015" lon="2.99914">
        <ele>985</ele>
        <time>2015-10-17T14:59:54Z</time>
      </trkpt>
      <trkpt lat="45.80022" lon="2.99937">
        <ele>986</ele>
        <time>2015-10-17T15:01:54Z</time>
      </trkpt>
      <trkpt lat="45.80035" lon="2.99972">
        <ele>987</ele>
        <time>2015-10-17T15:03:54Z</time>
      </trkpt>
      <trkpt lat="45.8005" lon="3.00023">
        <ele>989</ele>
        <time>2015-10-17T15:05:54Z</time>
      </trkpt>
      <trkpt lat="45.80065" lon="3.00042">
        <ele>990</ele>
        <time>2015-10-17T15:07:54Z</time>
      </trkpt>
      <trkpt lat="45.80082" lon="3.00051">
        <ele>992</ele>
        <time>2015-10-17T15:09:54Z</time>
      </trkpt>
      <trkpt lat="45.80096" lon="3.00058">
        <ele>993</ele>
        <time>2015-10-17T15:11:54Z</time>
      </trkpt>
      <trkpt lat="45.8011" lon="3.00066">
        <ele>994</ele>
        <time>2015-10-17T15:13:54Z</time>
      </trkpt>
      <trkpt lat="45.80129" lon="3.00076">
        <ele>995</ele>
        <time>2015-10-17T15:15:54Z</time>
      </trkpt>
      <trkpt lat="45.80148" lon="3.00083">
        <ele>996</ele>
        <time>2015-10-17T15:17:54Z</time>
      </trkpt>
      <trkpt lat="45.80165" lon="3.00094">
        <ele>998</ele>
        <time>2015-10-17T15:19:54Z</time>
      </trkpt>
      <trkpt lat="45.80187" lon="3.00099">
        <ele>1000</ele>
        <time>2015-10-17T15:21:54Z</time>
      </trkpt>
      <trkpt lat="45.80205" lon="3.00108">
        <ele>1002</ele>
        <time>2015-10-17T15:23:54Z</time>
      </trkpt>
      <trkpt lat="45.80222" lon="3.00117">
        <ele>1004</ele>
        <time>2015-10-17T15:25:54Z</time>
      </trkpt>
      <trkpt lat="45.80236" lon="3.00123">
        <ele>1005</ele>
        <time>2015-10-17T15:27:54Z</time>
      </trkpt>
      <trkpt lat="45.80248" lon="3.00129">
        <ele>1006</ele>
        <time>2015-10-17T15:29:54Z</time>
      </trkpt>
      <trkpt lat="45.80259" lon="3.0014">
        <ele>1007</ele>
        <time>2015-10-17T15:31:54Z</time>
      </trkpt>
      <trkpt lat="45.80269" lon="3.00157">
        <ele>1007</ele>
        <time>2015-10-17T15:33:54Z</time>
      </trkpt>
      <trkpt lat="45.80278" lon="3.00158">
        <ele>1008</ele>
        <time>2015-10-17T15:35:54Z</time>
      </trkpt>
      <trkpt lat="45.80292" lon="3.00159">
        <ele>1008</ele>
        <time>2015-10-17T15:37:54Z</time>
      </trkpt>
      <trkpt lat="45.80299" lon="3.00152">
        <ele>1008</ele>
        <time>2015-10-17T15:39:54Z</time>
      </trkpt>
      <trkpt lat="45.80305" lon="3.00145">
        <ele>1009</ele>
        <time>2015-10-17T15:41:54Z</time>
      </trkpt>
      <trkpt lat="45.80309" lon="3.00146">
        <ele>1009</ele>
        <time>2015-10-17T15:43:54Z</time>
      </trkpt>
      <trkpt lat="45.8033" lon="3.00139">
        <ele>1010</ele>
        <time>2015-10-17T15:45:54Z</time>
      </trkpt>
      <trkpt lat="45.80353" lon="3.00123">
        <ele>1011</ele>
        <time>2015-10-17T15:47:54Z</time>
      </trkpt>
      <trkpt lat="45.80371" lon="3.00091">
        <ele>1014</ele>
        <time>2015-10-17T15:49:54Z</time>
      </trkpt>
      <trkpt lat="45.80386" lon="3.00069">
        <ele>1015</ele>
        <time>2015-10-17T15:51:54Z</time>
      </trkpt>
      <trkpt lat="45.80416" lon="3.00067">
        <ele>1017</ele>
        <time>2015-10-17T15:53:54Z</time>
      </trkpt>
      <trkpt lat="45.8044" lon="3.00067">
        <ele>1018</ele>
        <time>2015-10-17T15:55:54Z</time>
      </trkpt>
      <trkpt lat="45.80468" lon="3.00064">
        <ele>1018</ele>
        <time>2015-10-17T15:57:54Z</time>
      </trkpt>
      <trkpt lat="45.80491" lon="3.00066">
        <ele>1019</ele>
        <time>2015-10-17T15:59:54Z</time>
      </trkpt>
      <trkpt lat="45.80514" lon="3.00063">
        <ele>1018</ele>
        <time>2015-10-17T16:01:54Z</time>
      </trkpt>
      <trkpt lat="45.80534" lon="3.0006">
        <ele>1016</ele>
        <time>2015-10-17T16:03:54Z</time>
      </trkpt>
      <trkpt lat="45.80563" lon="3.00049">
        <ele>1014</ele>
        <time>2015-10-17T16:05:54Z</time>
      </trkpt>
      <trkpt lat="45.80596" lon="3.00036">
        <ele>1011</ele>
        <time>2015-10-17T16:07:54Z</time>
      </trkpt>
      <trkpt lat="45.80612" lon="3.00025">
        <ele>1009</ele>
        <time>2015-10-17T16:09:54Z</time>
      </trkpt>
      <trkpt lat="45.80635" lon="3.00024">
        <ele>1007</ele>
        <time>2015-10-17T16:11:54Z</time>
      </trkpt>
      <trkpt lat="45.8066" lon="3.00014">
        <ele>1005</ele>
        <time>2015-10-17T16:13:54Z</time>
      </trkpt>
      <trkpt lat="45.80669" lon="3.00063">
        <ele>1002</ele>
        <time>2015-10-17T16:15:54Z</time>
      </trkpt>
      <trkpt lat="45.80667" lon="3.00012">
        <ele>1004</ele>
        <time>2015-10-17T16:17:54Z</time>
      </trkpt>
      <trkpt lat="45.80665" lon="2.9998">
        <ele>1005</ele>
        <time>2015-10-17T16:19:54Z</time>
      </trkpt>
      <trkpt lat="45.80672" lon="2.9994">
        <ele>1007</ele>
        <time>2015-10-17T16:21:54Z</time>
      </trkpt>
      <trkpt lat="45.80667" lon="2.99844">
        <ele>1007</ele>
        <time>2015-10-17T16:23:54Z</time>
      </trkpt>
      <trkpt lat="45.80687" lon="2.99749">
        <ele>1005</ele>
        <time>2015-10-17T16:25:54Z</time>
      </trkpt>
      <trkpt lat="45.807" lon="2.99658">
        <ele>999</ele>
        <time>2015-10-17T16:27:54Z</time>
      </trkpt>
      <trkpt lat="45.8072" lon="2.99587">
        <ele>994</ele>
        <time>2015-10-17T16:29:54Z</time>
      </trkpt>
      <trkpt lat="45.80737" lon="2.99527">
        <ele>989</ele>
        <time>2015-10-17T16:31:54Z</time>
      </trkpt>
      <trkpt lat="45.8075" lon="2.99472">
        <ele>982</ele>
        <time>2015-10-17T16:33:54Z</time>
      </trkpt>
      <trkpt lat="45.80758" lon="2.99437">
        <ele>977</ele>
        <time>2015-10-17T16:35:54Z</time>
      </trkpt>
      <trkpt lat="45.80733" lon="2.99389">
        <ele>970</ele>
        <time>2015-10-17T16:37:54Z</time>
      </trkpt>
      <trkpt lat="45.80798" lon="2.99382">
        <ele>969</ele>
        <time>2015-10-17T16:39:54Z</time>
      </trkpt>
      <trkpt lat="45.80828" lon="2.99372">
        <ele>967</ele>
        <time>2015-10-17T16:41:54Z</time>
      </trkpt>
      <trkpt lat="45.80875" lon="2.99353">
        <ele>959</ele>
        <time>2015-10-17T16:43:54Z</time>
      </trkpt>
      <trkpt lat="45.80911" lon="2.99353">
        <ele>956</ele>
        <time>2015-10-17T16:45:54Z</time>
      </trkpt>
      <trkpt lat="45.80961" lon="2.9937">
        <ele>958</ele>
        <time>2015-10-17T16:47:54Z</time>
      </trkpt>
      <trkpt lat="45.81006" lon="2.99384">
        <ele>958</ele>
        <time>2015-10-17T16:49:54Z</time>
      </trkpt>
      <trkpt lat="45.8104" lon="2.99395">
        <ele>955</ele>
        <time>2015-10-17T16:51:54Z</time>
      </trkpt>
      <trkpt lat="45.81087" lon="2.99429">
        <ele>954</ele>
        <time>2015-10-17T16:53:54Z</time>
      </trkpt>
      <trkpt lat="45.81138" lon="2.99445">
        <ele>948</ele>
        <time>2015-10-17T16:55:54Z</time>
      </trkpt>
      <trkpt lat="45.81185" lon="2.9945">
        <ele>943</ele>
        <time>2015-10-17T16:57:54Z</time>
      </trkpt>
      <trkpt lat="45.8123" lon="2.9945">
        <ele>940</ele>
        <time>2015-10-17T16:59:54Z</time>
      </trkpt>
      <trkpt lat="45.81278" lon="2.99443">
        <ele>937</ele>
        <time>2015-10-17T17:01:54Z</time>
      </trkpt>
      <trkpt lat="45.81329" lon="2.99429">
        <ele>933</ele>
        <time>2015-10-17T17:03:54Z</time>
      </trkpt>
      <trkpt lat="45.81348" lon="2.99419">
        <ele>932</ele>
        <time>2015-10-17T17:05:54Z</time>
      </trkpt>
      <trkpt lat="45.81379" lon="2.99417">
        <ele>930</ele>
        <time>2015-10-17T17:07:54Z</time>
      </trkpt>
      <trkpt lat="45.81434" lon="2.99407">
        <ele>926</ele>
        <time>2015-10-17T17:09:54Z</time>
      </trkpt>
      <trkpt lat="45.81456" lon="2.99406">
        <ele>925</ele>
        <time>2015-10-17T17:11:54Z</time>
      </trkpt>
      <trkpt lat="45.81505" lon="2.99404">
        <ele>922</ele>
        <time>2015-10-17T17:13:54Z</time>
      </trkpt>
      <trkpt lat="45.81536" lon="2.99406">
        <ele>919</ele>
        <time>2015-10-17T17:15:54Z</time>
      </trkpt>
      <trkpt lat="45.81553" lon="2.99428">
        <ele>919</ele>
        <time>2015-10-17T17:17:54Z</time>
      </trkpt>
      <trkpt lat="45.81525" lon="2.99327">
        <ele>918</ele>
        <time>2015-10-17T17:19:54Z</time>
      </trkpt>
      <trkpt lat="45.81505" lon="2.99261">
        <ele>919</ele>
        <time>2015-10-17T17:21:54Z</time>
      </trkpt>
      <trkpt lat="45.81478" lon="2.9917">
        <ele>918</ele>
        <time>2015-10-17T17:23:54Z</time>
      </trkpt>
      <trkpt lat="45.81496" lon="2.99141">
        <ele>917</ele>
        <time>2015-10-17T17:25:54Z</time>
      </trkpt>
      <trkpt lat="45.81528" lon="2.99087">
        <ele>915</ele>
        <time>2015-10-17T17:27:54Z</time>
      </trkpt>
      <trkpt lat="45.81569" lon="2.99029">
        <ele>916</ele>
        <time>2015-10-17T17:29:54Z</time>
      </trkpt>
      <trkpt lat="45.81598" lon="2.98996">
        <ele>917</ele>
        <time>2015-10-17T17:31:54Z</time>
      </trkpt>
      <trkpt lat="45.81634" lon="2.98994">
        <ele>918</ele>
        <time>2015-10-17T17:33:54Z</time>
      </trkpt>
      <trkpt lat="45.8166" lon="2.98972">
        <ele>919</ele>
        <time>2015-10-17T17:35:54Z</time>
      </trkpt>
      <trkpt lat="45.81674" lon="2.98934">
        <ele>921</ele>
        <time>2015-10-17T17:37:54Z</time>
      </trkpt>
      <trkpt lat="45.8166" lon="2.9881">
        <ele>931</ele>
        <time>2015-10-17T17:39:54Z</time>
      </trkpt>
      <trkpt lat="45.81679" lon="2.98793">
        <ele>932</ele>
        <time>2015-10-17T17:41:54Z</time>
      </trkpt>
      <trkpt lat="45.81675" lon="2.9875">
        <ele>936</ele>
        <time>2015-10-17T17:43:54Z</time>
      </trkpt>
      <trkpt lat="45.81689" lon="2.98719">
        <ele>941</ele>
        <time>2015-10-17T17:45:54Z</time>
      </trkpt>
      <trkpt lat="45.81714" lon="2.98681">
        <ele>947</ele>
        <time>2015-10-17T17:47:54Z</time>
      </trkpt>
      <trkpt lat="45.81734" lon="2.98632">
        <ele>953</ele>
        <time>2015-10-17T17:49:54Z</time>
      </trkpt>
      <trkpt lat="45.81738" lon="2.98604">
        <ele>957</ele>
        <time>2015-10-17T17:51:54Z</time>
      </trkpt>
      <trkpt lat="45.81741" lon="2.98618">
        <ele>954</ele>
        <time>2015-10-17T17:53:54Z</time>
      </trkpt>
      <trkpt lat="45.81778" lon="2.98608">
        <ele>955</ele>
        <time>2015-10-17T17:55:54Z</time>
      </trkpt>
      <trkpt lat="45.81791" lon="2.98568">
        <ele>964</ele>
        <time>2015-10-17T17:57:54Z</time>
      </trkpt>
      <trkpt lat="45.81771" lon="2.98494">
        <ele>985</ele>
        <time>2015-10-17T17:59:54Z</time>
      </trkpt>
      <trkpt lat="45.81784" lon="2.98453">
        <ele>995</ele>
        <time>2015-10-17T18:01:54Z</time>
      </trkpt>
      <trkpt lat="45.81783" lon="2.9837">
        <ele>1010</ele>
        <time>2015-10-17T18:03:54Z</time>
      </trkpt>
      <trkpt lat="45.81804" lon="2.98301">
        <ele>1010</ele>
        <time>2015-10-17T18:05:54Z</time>
      </trkpt>
      <trkpt lat="45.81824" lon="2.98194">
        <ele>999</ele>
        <time>2015-10-17T18:07:54Z</time>
      </trkpt>
      <trkpt lat="45.81824" lon="2.98129">
        <ele>997</ele>
        <time>2015-10-17T18:09:54Z</time>
      </trkpt>
      <trkpt lat="45.81817" lon="2.98062">
        <ele>998</ele>
        <time>2015-10-17T18:11:54Z</time>
      </trkpt>
      <trkpt lat="45.81807" lon="2.97986">
        <ele>996</ele>
        <time>2015-10-17T18:13:54Z</time>
      </trkpt>
      <trkpt lat="45.81784" lon="2.97929">
        <ele>992</ele>
        <time>2015-10-17T18:15:54Z</time>
      </trkpt>
      <trkpt lat="45.81779" lon="2.97866">
        <ele>982</ele>
        <time>2015-10-17T18:17:54Z</time>
      </trkpt>
      <trkpt lat="45.81777" lon="2.97814">
        <ele>975</ele>
        <time>2015-10-17T18:19:54Z</time>
      </trkpt>
      <trkpt lat="45.81807" lon="2.97759">
        <ele>968</ele>
        <time>2015-10-17T18:21:54Z</time>
      </trkpt>
      <trkpt lat="45.81825" lon="2.97709">
        <ele>964</ele>
        <time>2015-10-17T18:23:54Z</time>
      </trkpt>
      <trkpt lat="45.81859" lon="2.97666">
        <ele>961</ele>
        <time>2015-10-17T18:25:54Z</time>
      </trkpt>
      <trkpt lat="45.81905" lon="2.97677">
        <ele>962</ele>
        <time>2015-10-17T18:27:54Z</time>
      </trkpt>
      <trkpt lat="45.8189" lon="2.97629">
        <ele>962</ele>
        <time>2015-10-17T18:29:54Z</time>
      </trkpt>
      <trkpt lat="45.81852" lon="2.97551">
        <ele>961</ele>
        <time>2015-10-17T18:31:54Z</time>
      </trkpt>
      <trkpt lat="45.81808" lon="2.97463">
        <ele>958</ele>
        <time>2015-10-17T18:33:54Z</time>
      </trkpt>
      <trkpt lat="45.81775" lon="2.97386">
        <ele>958</ele>
        <time>2015-10-17T18:35:54Z</time>
      </trkpt>
      <trkpt lat="45.81715" lon="2.97277">
        <ele>961</ele>
        <time>2015-10-17T18:37:54Z</time>
      </trkpt>
      <trkpt lat="45.8168" lon="2.972">
        <ele>962</ele>
        <time>2015-10-17T18:39:54Z</time>
      </trkpt>
      <trkpt lat="45.81623" lon="2.97092">
        <ele>971</ele>
        <time>2015-10-17T18:41:54Z</time>
      </trkpt>
      <trkpt lat="45.81565" lon="2.96975">
        <ele>973</ele>
        <time>2015-10-17T18:43:54Z</time>
      </trkpt>
      <trkpt lat="45.81532" lon="2.96871">
        <ele>971</ele>
        <time>2015-10-17T18:45:54Z</time>
      </trkpt>
      <trkpt lat="45.81491" lon="2.96795">
        <ele>969</ele>
        <time>2015-10-17T18:47:54Z</time>
      </trkpt>
      <trkpt lat="45.81453" lon="2.967">
        <ele>969</ele>
        <time>2015-10-17T18:49:54Z</time>
      </trkpt>
      <trkpt lat="45.814" lon="2.96588">
        <ele>971</ele>
        <time>2015-10-17T18:51:54Z</time>
      </trkpt>
      <trkpt lat="45.81305" lon="2.96392">
        <ele>974</ele>
        <time>2015-10-17T18:53:54Z</time>
      </trkpt>
      <trkpt lat="45.81263" lon="2.96304">
        <ele>972</ele>
        <time>2015-10-17T18:55:54Z</time>
      </trkpt>
      <trkpt lat="45.81159" lon="2.96258">
        <ele>977</ele>
        <time>2015-10-17T18:57:54Z</time>
      </trkpt>
      <trkpt lat="45.81102" lon="2.96235">
        <ele>981</ele>
        <time>2015-10-17T18:59:54Z</time>
      </trkpt>
      <trkpt lat="45.81071" lon="2.96347">
        <ele>978</ele>
        <time>2015-10-17T19:01:54Z</time>
      </trkpt>
      <trkpt lat="45.81052" lon="2.96392">
        <ele>981</ele>
        <time>2015-10-17T19:03:54Z</time>
      </trkpt>
      <trkpt lat="45.81029" lon="2.96345">
        <ele>981</ele>
        <time>2015-10-17T19:05:54Z</time>
      </trkpt>
      <trkpt lat="45.81031" lon="2.96295">
        <ele>982</ele>
        <time>2015-10-17T19:07:54Z</time>
      </trkpt>
      <trkpt lat="45.81027" lon="2.96213">
        <ele>984</ele>
        <time>2015-10-17T19:09:54Z</time>
      </trkpt>
      <trkpt lat="45.81047" lon="2.96142">
        <ele>985</ele>
        <time>2015-10-17T19:11:54Z</time>
      </trkpt>
      <trkpt lat="45.81034" lon="2.95994">
        <ele>980</ele>
        <time>2015-10-17T19:13:54Z</time>
      </trkpt>
      <trkpt lat="45.81026" lon="2.95911">
        <ele>980</ele>
        <time>2015-10-17T19:15:54Z</time>
      </trkpt>
      <trkpt lat="45.81009" lon="2.95822">
        <ele>977</ele>
        <time>2015-10-17T19:17:54Z</time>
      </trkpt>
      <trkpt lat="45.81" lon="2.95779">
        <ele>977</ele>
        <time>2015-10-17T19:19:54Z</time>
      </trkpt>
      <trkpt lat="45.80945" lon="2.95727">
        <ele>975</ele>
        <time>2015-10-17T19:21:54Z</time>
      </trkpt>
      <trkpt lat="45.80912" lon="2.95641">
        <ele>974</ele>
        <time>2015-10-17T19:23:54Z</time>
      </trkpt>
      <trkpt lat="45.80854" lon="2.95584">
        <ele>969</ele>
        <time>2015-10-17T19:25:54Z</time>
      </trkpt>
      <trkpt lat="45.80831" lon="2.95541">
        <ele>968</ele>
        <time>2015-10-17T19:27:54Z</time>
      </trkpt>
      <trkpt lat="45.80794" lon="2.95393">
        <ele>967</ele>
        <time>2015-10-17T19:29:54Z</time>
      </trkpt>
      <trkpt lat="45.80769" lon="2.95295">
        <ele>967</ele>
        <time>2015-10-17T19:31:54Z</time>
      </trkpt>
      <trkpt lat="45.80744" lon="2.95216">
        <ele>966</ele>
        <time>2015-10-17T19:33:54Z</time>
      </trkpt>
      <trkpt lat="45.80723" lon="2.95152">
        <ele>964</ele>
        <time>2015-10-17T19:35:54Z</time>
      </trkpt>
      <trkpt lat="45.80691" lon="2.95088">
        <ele>959</ele>
        <time>2015-10-17T19:37:54Z</time>
      </trkpt>
      <trkpt lat="45.80664" lon="2.95035">
        <ele>956</ele>
        <time>2015-10-17T19:39:54Z</time>
      </trkpt>
      <trkpt lat="45.80648" lon="2.94975">
        <ele>955</ele>
        <time>2015-10-17T19:41:54Z</time>
      </trkpt>
      <trkpt lat="45.80616" lon="2.94932">
        <ele>952</ele>
        <time>2015-10-17T19:43:54Z</time>
      </trkpt>
      <trkpt lat="45.80591" lon="2.94878">
        <ele>950</ele>
        <time>2015-10-17T19:45:54Z</time>
      </trkpt>
      <trkpt lat="45.80559" lon="2.94813">
        <ele>949</ele>
        <time>2015-10-17T19:47:54Z</time>
      </trkpt>
      <trkpt lat="45.80535" lon="2.94766">
        <ele>950</ele>
        <time>2015-10-17T19:49:54Z</time>
      </trkpt>
      <trkpt lat="45.8053" lon="2.947">
        <ele>949</ele>
        <time>2015-10-17T19:51:54Z</time>
      </trkpt>
      <trkpt lat="45.80563" lon="2.9464">
        <ele>946</ele>
        <time>2015-10-17T19:53:54Z</time>
      </trkpt>
      <trkpt lat="45.80597" lon="2.94578">
        <ele>941</ele>
        <time>2015-10-17T19:55:54Z</time>
      </trkpt>
      <trkpt lat="45.80622" lon="2.94533">
        <ele>941</ele>
        <time>2015-10-17T19:57:54Z</time>
      </trkpt>
      <trkpt lat="45.80668" lon="2.94473">
        <ele>939</ele>
        <time>2015-10-17T19:59:54Z</time>
      </trkpt>
      <trkpt lat="45.80685" lon="2.94435">
        <ele>937</ele>
        <time>2015-10-17T20:01:54Z</time>
      </trkpt>
      <trkpt lat="45.80723" lon="2.94406">
        <ele>937</ele>
        <time>2015-10-17T20:03:54Z</time>
      </trkpt>
      <trkpt lat="45.80658" lon="2.94328">
        <ele>931</ele>
        <time>2015-10-17T20:05:54Z</time>
      </trkpt>
      <trkpt lat="45.80613" lon="2.94263">
        <ele>931</ele>
        <time>2015-10-17T20:07:54Z</time>
      </trkpt>
      <trkpt lat="45.8057" lon="2.94178">
        <ele>929</ele>
        <time>2015-10-17T20:09:54Z</time>
      </trkpt>
      <trkpt lat="45.80539" lon="2.94116">
        <ele>929</ele>
        <time>2015-10-17T20:11:54Z</time>
      </trkpt>
      <trkpt lat="45.80503" lon="2.94048">
        <ele>930</ele>
        <time>2015-10-17T20:13:54Z</time>
      </trkpt>
      <trkpt lat="45.80495" lon="2.9401">
        <ele>932</ele>
        <time>2015-10-17T20:15:54Z</time>
      </trkpt>
      <trkpt lat="45.80492" lon="2.93934">
        <ele>933</ele>
        <time>2015-10-17T20:17:54Z</time>
      </trkpt>
      <trkpt lat="45.80485" lon="2.93874">
        <ele>935</ele>
        <time>2015-10-17T20:19:54Z</time>
      </trkpt>
      <trkpt lat="45.80457" lon="2.93824">
        <ele>940</ele>
        <time>2015-10-17T20:21:54Z</time>
      </trkpt>
      <trkpt lat="45.80423" lon="2.93753">
        <ele>945</ele>
        <time>2015-10-17T20:23:54Z</time>
      </trkpt>
      <trkpt lat="45.80418" lon="2.93674">
        <ele>946</ele>
        <time>2015-10-17T20:25:54Z</time>
      </trkpt>
      <trkpt lat="45.80425" lon="2.93645">
        <ele>946</ele>
        <time>2015-10-17T20:27:54Z</time>
      </trkpt>
      <trkpt lat="45.80405" lon="2.93605">
        <ele>949</ele>
        <time>2015-10-17T20:29:54Z</time>
      </trkpt>
      <trkpt lat="45.80438" lon="2.93569">
        <ele>948</ele>
        <time>2015-10-17T20:31:54Z</time>
      </trkpt>
      <trkpt lat="45.8043" lon="2.93533">
        <ele>950</ele>
        <time>2015-10-17T20:33:54Z</time>
      </trkpt>
      <trkpt lat="45.80449" lon="2.93524">
        <ele>949</ele>
        <time>2015-10-17T20:35:54Z</time>
      </trkpt>
      <trkpt lat="45.80459" lon="2.93474">
        <ele>950</ele>
        <time>2015-10-17T20:37:54Z</time>
      </trkpt>
      <trkpt lat="45.80472" lon="2.93421">
        <ele>950</ele>
        <time>2015-10-17T20:39:54Z</time>
      </trkpt>
      <trkpt lat="45.80494" lon="2.93412">
        <ele>948</ele>
        <time>2015-10-17T20:41:54Z</time>
      </trkpt>
      <trkpt lat="45.80519" lon="2.93388">
        <ele>946</ele>
        <time>2015-10-17T20:43:54Z</time>
      </trkpt>
      <trkpt lat="45.8055" lon="2.93347">
        <ele>943</ele>
        <time>2015-10-17T20:45:54Z</time>
      </trkpt>
      <trkpt lat="45.80585" lon="2.93323">
        <ele>939</ele>
        <time>2015-10-17T20:47:54Z</time>
      </trkpt>
      <trkpt lat="45.80579" lon="2.9328">
        <ele>941</ele>
        <time>2015-10-17T20:49:54Z</time>
      </trkpt>
      <trkpt lat="45.80559" lon="2.93234">
        <ele>944</ele>
        <time>2015-10-17T20:51:54Z</time>
      </trkpt>
      <trkpt lat="45.80547" lon="2.93189">
        <ele>943</ele>
        <time>2015-10-17T20:53:54Z</time>
      </trkpt>
      <trkpt lat="45.8055" lon="2.93141">
        <ele>943</ele>
        <time>2015-10-17T20:55:54Z</time>
      </trkpt>
      <trkpt lat="45.80552" lon="2.93089">
        <ele>943</ele>
        <time>2015-10-17T20:57:54Z</time>
      </trkpt>
      <trkpt lat="45.80567" lon="2.93073">
        <ele>942</ele>
        <time>2015-10-17T20:59:54Z</time>
      </trkpt>
      <trkpt lat="45.8057" lon="2.93039">
        <ele>942</ele>
        <time>2015-10-17T21:01:54Z</time>
      </trkpt>
      <trkpt lat="45.80583" lon="2.93034">
        <ele>942</ele>
        <time>2015-10-17T21:03:54Z</time>
      </trkpt>
      <trkpt lat="45.80578" lon="2.92989">
        <ele>943</ele>
        <time>2015-10-17T21:05:54Z</time>
      </trkpt>
      <trkpt lat="45.80553" lon="2.92951">
        <ele>945</ele>
        <time>2015-10-17T21:07:54Z</time>
      </trkpt>
      <trkpt lat="45.80567" lon="2.92889">
        <ele>946</ele>
        <time>2015-10-17T21:09:54Z</time>
      </trkpt>
      <trkpt lat="45.80588" lon="2.92844">
        <ele>947</ele>
        <time>2015-10-17T21:11:54Z</time>
      </trkpt>
      <trkpt lat="45.80596" lon="2.92822">
        <ele>947</ele>
        <time>2015-10-17T21:13:54Z</time>
      </trkpt>
      <trkpt lat="45.806" lon="2.92763">
        <ele>948</ele>
        <time>2015-10-17T21:15:54Z</time>
      </trkpt>
      <trkpt lat="45.80608" lon="2.92746">
        <ele>947</ele>
        <time>2015-10-17T21:17:54Z</time>
      </trkpt>
      <trkpt lat="45.80598" lon="2.92696">
        <ele>947</ele>
        <time>2015-10-17T21:19:54Z</time>
      </trkpt>
      <trkpt lat="45.80613" lon="2.92677">
        <ele>946</ele>
        <time>2015-10-17T21:21:54Z</time>
      </trkpt>
      <trkpt lat="45.80619" lon="2.92633">
        <ele>945</ele>
        <time>2015-10-17T21:23:54Z</time>
      </trkpt>
      <trkpt lat="45.80597" lon="2.92604">
        <ele>945</ele>
        <time>2015-10-17T21:25:54Z</time>
      </trkpt>
      <trkpt lat="45.80607" lon="2.92566">
        <ele>944</ele>
        <time>2015-10-17T21:27:54Z</time>
      </trkpt>
      <trkpt lat="45.80651" lon="2.92537">
        <ele>942</ele>
        <time>2015-10-17T21:29:54Z</time>
      </trkpt>
      <trkpt lat="45.80646" lon="2.92482">
        <ele>940</ele>
        <time>2015-10-17T21:31:54Z</time>
      </trkpt>
      <trkpt lat="45.80639" lon="2.92444">
        <ele>939</ele>
        <time>2015-10-17T21:33:54Z</time>
      </trkpt>
      <trkpt lat="45.80637" lon="2.92401">
        <ele>938</ele>
        <time>2015-10-17T21:35:54Z</time>
      </trkpt>
      <trkpt lat="45.80639" lon="2.92387">
        <ele>938</ele>
        <time>2015-10-17T21:37:54Z</time>
      </trkpt>
      <trkpt lat="45.80631" lon="2.92358">
        <ele>937</ele>
        <time>2015-10-17T21:39:54Z</time>
      </trkpt>
      <trkpt lat="45.80639" lon="2.92349">
        <ele>937</ele>
        <time>2015-10-17T21:41:54Z</time>
      </trkpt>
      <trkpt lat="45.80666" lon="2.92368">
        <ele>937</ele>
        <time>2015-10-17T21:43:54Z</time>
      </trkpt>
      <trkpt lat="45.80696" lon="2.92373">
        <ele>936</ele>
        <time>2015-10-17T21:45:54Z</time>
      </trkpt>
      <trkpt lat="45.80674" lon="2.92332">
        <ele>936</ele>
        <time>2015-10-17T21:47:54Z</time>
      </trkpt>
      <trkpt lat="45.80691" lon="2.92311">
        <ele>934</ele>
        <time>2015-10-17T21:49:54Z</time>
      </trkpt>
      <trkpt lat="45.80678" lon="2.92259">
        <ele>932</ele>
        <time>2015-10-17T21:51:54Z</time>
      </trkpt>
      <trkpt lat="45.80661" lon="2.92237">
        <ele>931</ele>
        <time>2015-10-17T21:53:54Z</time>
      </trkpt>
      <trkpt lat="45.80652" lon="2.92193">
        <ele>929</ele>
        <time>2015-10-17T21:55:54Z</time>
      </trkpt>
      <trkpt lat="45.80629" lon="2.92193">
        <ele>930</ele>
        <time>2015-10-17T21:57:54Z</time>
      </trkpt>
      <trkpt lat="45.80619" lon="2.92178">
        <ele>930</ele>
        <time>2015-10-17T21:59:54Z</time>
      </trkpt>
      <trkpt lat="45.80614" lon="2.9216">
        <ele>929</ele>
        <time>2015-10-17T22:01:54Z</time>
      </trkpt>
      <trkpt lat="45.80604" lon="2.92161">
        <ele>930</ele>
        <time>2015-10-17T22:03:54Z</time>
      </trkpt>
      <trkpt lat="45.80598" lon="2.92155">
        <ele>930</ele>
        <time>2015-10-17T22:05:54Z</time>
      </trkpt>
      <trkpt lat="45.80605" lon="2.92139">
        <ele>929</ele>
        <time>2015-10-17T22:07:54Z</time>
      </trkpt>
      <trkpt lat="45.80592" lon="2.92122">
        <ele>929</ele>
        <time>2015-10-17T22:09:54Z</time>
      </trkpt>
      <trkpt lat="45.80581" lon="2.92058">
        <ele>927</ele>
        <time>2015-10-17T22:11:54Z</time>
      </trkpt>
      <trkpt lat="45.80587" lon="2.92034">
        <ele>926</ele>
        <time>2015-10-17T22:13:54Z</time>
      </trkpt>
      <trkpt lat="45.80596" lon="2.91963">
        <ele>923</ele>
        <time>2015-10-17T22:15:54Z</time>
      </trkpt>
      <trkpt lat="45.80601" lon="2.91927">
        <ele>922</ele>
        <time>2015-10-17T22:17:54Z</time>
      </trkpt>
      <trkpt lat="45.80614" lon="2.91872">
        <ele>921</ele>
        <time>2015-10-17T22:19:54Z</time>
      </trkpt>
      <trkpt lat="45.80594" lon="2.91853">
        <ele>922</ele>
        <time>2015-10-17T22:21:54Z</time>
      </trkpt>
      <trkpt lat="45.80568" lon="2.91813">
        <ele>920</ele>
        <time>2015-10-17T22:23:54Z</time>
      </trkpt>
      <trkpt lat="45.80578" lon="2.91731">
        <ele>916</ele>
        <time>2015-10-17T22:25:54Z</time>
      </trkpt>
      <trkpt lat="45.80534" lon="2.91684">
        <ele>911</ele>
        <time>2015-10-17T22:27:54Z</time>
      </trkpt>
      <trkpt lat="45.80525" lon="2.91647">
        <ele>910</ele>
        <time>2015-10-17T22:29:54Z</time>
      </trkpt>
      <trkpt lat="45.80537" lon="2.91589">
        <ele>909</ele>
        <time>2015-10-17T22:31:54Z</time>
      </trkpt>
      <trkpt lat="45.8056" lon="2.91556">
        <ele>909</ele>
        <time>2015-10-17T22:33:54Z</time>
      </trkpt>
      <trkpt lat="45.80588" lon="2.91523">
        <ele>908</ele>
        <time>2015-10-17T22:35:54Z</time>
      </trkpt>
      <trkpt lat="45.80606" lon="2.91492">
        <ele>907</ele>
        <time>2015-10-17T22:37:54Z</time>
      </trkpt>
      <trkpt lat="45.8064" lon="2.91461">
        <ele>907</ele>
        <time>2015-10-17T22:39:54Z</time>
      </trkpt>
      <trkpt lat="45.80673" lon="2.91431">
        <ele>905</ele>
        <time>2015-10-17T22:41:54Z</time>
      </trkpt>
      <trkpt lat="45.80705" lon="2.91388">
        <ele>903</ele>
        <time>2015-10-17T22:43:54Z</time>
      </trkpt>
      <trkpt lat="45.80716" lon="2.91336">
        <ele>900</ele>
        <time>2015-10-17T22:45:54Z</time>
      </trkpt>
      <trkpt lat="45.80743" lon="2.91312">
        <ele>899</ele>
        <time>2015-10-17T22:47:54Z</time>
      </trkpt>
      <trkpt lat="45.80773" lon="2.91272">
        <ele>897</ele>
        <time>2015-10-17T22:49:54Z</time>
      </trkpt>
      <trkpt lat="45.80778" lon="2.91241">
        <ele>895</ele>
        <time>2015-10-17T22:51:54Z</time>
      </trkpt>
      <trkpt lat="45.80804" lon="2.91214">
        <ele>893</ele>
        <time>2015-10-17T22:53:54Z</time>
      </trkpt>
      <trkpt lat="45.80819" lon="2.91159">
        <ele>890</ele>
        <time>2015-10-17T22:55:54Z</time>
      </trkpt>
      <trkpt lat="45.80801" lon="2.91109">
        <ele>889</ele>
        <time>2015-10-17T22:57:54Z</time>
      </trkpt>
      <trkpt lat="45.80799" lon="2.91065">
        <ele>887</ele>
        <time>2015-10-17T22:59:54Z</time>
      </trkpt>
      <trkpt lat="45.80811" lon="2.9103">
        <ele>886</ele>
        <time>2015-10-17T23:01:54Z</time>
      </trkpt>
      <trkpt lat="45.80839" lon="2.90999">
        <ele>884</ele>
        <time>2015-10-17T23:03:54Z</time>
      </trkpt>
      <trkpt lat="45.80859" lon="2.90968">
        <ele>881</ele>
        <time>2015-10-17T23:05:54Z</time>
      </trkpt>
      <trkpt lat="45.80872" lon="2.90934">
        <ele>879</ele>
        <time>2015-10-17T23:07:54Z</time>
      </trkpt>
      <trkpt lat="45.80849" lon="2.90884">
        <ele>877</ele>
        <time>2015-10-17T23:09:54Z</time>
      </trkpt>
      <trkpt lat="45.80826" lon="2.90824">
        <ele>874</ele>
        <time>2015-10-17T23:11:54Z</time>
      </trkpt>
      <trkpt lat="45.80791" lon="2.90772">
        <ele>871</ele>
        <time>2015-10-17T23:13:54Z</time>
      </trkpt>
      <trkpt lat="45.80778" lon="2.90734">
        <ele>869</ele>
        <time>2015-10-17T23:15:54Z</time>
      </trkpt>
      <trkpt lat="45.80768" lon="2.90681">
        <ele>866</ele>
        <time>2015-10-17T23:17:54Z</time>
      </trkpt>
      <trkpt lat="45.80731" lon="2.90653">
        <ele>863</ele>
        <time>2015-10-17T23:19:54Z</time>
      </trkpt>
      <trkpt lat="45.8068" lon="2.90615">
        <ele>859</ele>
        <time>2015-10-17T23:21:54Z</time>
      </trkpt>
      <trkpt lat="45.80686" lon="2.90555">
        <ele>856</ele>
        <time>2015-10-17T23:23:54Z</time>
      </trkpt>
      <trkpt lat="45.80663" lon="2.905">
        <ele>854</ele>
        <time>2015-10-17T23:25:54Z</time>
      </trkpt>
      <trkpt lat="45.80708" lon="2.9046">
        <ele>853</ele>
        <time>2015-10-17T23:27:54Z</time>
      </trkpt>
      <trkpt lat="45.80733" lon="2.90422">
        <ele>850</ele>
        <time>2015-10-17T23:29:54Z</time>
      </trkpt>
      <trkpt lat="45.80739" lon="2.90381">
        <ele>848</ele>
        <time>2015-10-17T23:31:54Z</time>
      </trkpt>
      <trkpt lat="45.80759" lon="2.90312">
        <ele>844</ele>
        <time>2015-10-17T23:33:54Z</time>
      </trkpt>
      <trkpt lat="45.80786" lon="2.9024">
        <ele>841</ele>
        <time>2015-10-17T23:35:54Z</time>
      </trkpt>
      <trkpt lat="45.80816" lon="2.90171">
        <ele>842</ele>
        <time>2015-10-17T23:37:54Z</time>
      </trkpt>
      <trkpt lat="45.80847" lon="2.90119">
        <ele>840</ele>
        <time>2015-10-17T23:39:54Z</time>
      </trkpt>
      <trkpt lat="45.80874" lon="2.90081">
        <ele>838</ele>
        <time>2015-10-17T23:41:54Z</time>
      </trkpt>
      <trkpt lat="45.80911" lon="2.90033">
        <ele>836</ele>
        <time>2015-10-17T23:43:54Z</time>
      </trkpt>
      <trkpt lat="45.80963" lon="2.90014">
        <ele>832</ele>
        <time>2015-10-17T23:45:54Z</time>
      </trkpt>
      <trkpt lat="45.80996" lon="2.89974">
        <ele>829</ele>
        <time>2015-10-17T23:47:54Z</time>
      </trkpt>
      <trkpt lat="45.81021" lon="2.89928">
        <ele>827</ele>
        <time>2015-10-17T23:49:54Z</time>
      </trkpt>
      <trkpt lat="45.81029" lon="2.89869">
        <ele>827</ele>
        <time>2015-10-17T23:51:54Z</time>
      </trkpt>
      <trkpt lat="45.80986" lon="2.89792">
        <ele>829</ele>
        <time>2015-10-17T23:53:54Z</time>
      </trkpt>
      <trkpt lat="45.81016" lon="2.89785">
        <ele>827</ele>
        <time>2015-10-17T23:55:54Z</time>
      </trkpt>
      <trkpt lat="45.81046" lon="2.89759">
        <ele>825</ele>
        <time>2015-10-17T23:57:54Z</time>
      </trkpt>
      <trkpt lat="45.81072" lon="2.89728">
        <ele>824</ele>
        <time>2015-10-17T23:59:54Z</time>
      </trkpt>
      <trkpt lat="45.81073" lon="2.89699">
        <ele>825</ele>
        <time>2015-10-18T00:01:54Z</time>
      </trkpt>
      <trkpt lat="45.81031" lon="2.89656">
        <ele>827</ele>
        <time>2015-10-18T00:03:54Z</time>
      </trkpt>
      <trkpt lat="45.81033" lon="2.89616">
        <ele>827</ele>
        <time>2015-10-18T00:05:54Z</time>
      </trkpt>
      <trkpt lat="45.81061" lon="2.89599">
        <ele>826</ele>
        <time>2015-10-18T00:07:54Z</time>
      </trkpt>
      <trkpt lat="45.81099" lon="2.89604">
        <ele>825</ele>
        <time>2015-10-18T00:09:54Z</time>
      </trkpt>
      <trkpt lat="45.81124" lon="2.8963">
        <ele>823</ele>
        <time>2015-10-18T00:11:54Z</time>
      </trkpt>
      <trkpt lat="45.81149" lon="2.89621">
        <ele>821</ele>
        <time>2015-10-18T00:13:54Z</time>
      </trkpt>
      <trkpt lat="45.81182" lon="2.89594">
        <ele>820</ele>
        <time>2015-10-18T00:15:54Z</time>
      </trkpt>
      <trkpt lat="45.81214" lon="2.89564">
        <ele>817</ele>
        <time>2015-10-18T00:17:54Z</time>
      </trkpt>
      <trkpt lat="45.81221" lon="2.89528">
        <ele>816</ele>
        <time>2015-10-18T00:19:54Z</time>
      </trkpt>
      <trkpt lat="45.81229" lon="2.89473">
        <ele>816</ele>
        <time>2015-10-18T00:21:54Z</time>
      </trkpt>
      <trkpt lat="45.81234" lon="2.8943">
        <ele>817</ele>
        <time>2015-10-18T00:23:54Z</time>
      </trkpt>
      <trkpt lat="45.81209" lon="2.89373">
        <ele>820</ele>
        <time>2015-10-18T00:25:54Z</time>
      </trkpt>
      <trkpt lat="45.81219" lon="2.89296">
        <ele>822</ele>
        <time>2015-10-18T00:27:54Z</time>
      </trkpt>
      <trkpt lat="45.81237" lon="2.89256">
        <ele>822</ele>
        <time>2015-10-18T00:29:54Z</time>
      </trkpt>
      <trkpt lat="45.81251" lon="2.89207">
        <ele>822</ele>
        <time>2015-10-18T00:31:54Z</time>
      </trkpt>
      <trkpt lat="45.81283" lon="2.89174">
        <ele>821</ele>
        <time>2015-10-18T00:33:54Z</time>
      </trkpt>
      <trkpt lat="45.81313" lon="2.89121">
        <ele>819</ele>
        <time>2015-10-18T00:35:54Z</time>
      </trkpt>
      <trkpt lat="45.81325" lon="2.89079">
        <ele>818</ele>
        <time>2015-10-18T00:37:54Z</time>
      </trkpt>
      <trkpt lat="45.81318" lon="2.89038">
        <ele>818</ele>
        <time>2015-10-18T00:39:54Z</time>
      </trkpt>
      <trkpt lat="45.81353" lon="2.89007">
        <ele>818</ele>
        <time>2015-10-18T00:41:54Z</time>
      </trkpt>
      <trkpt lat="45.81389" lon="2.88988">
        <ele>817</ele>
        <time>2015-10-18T00:43:54Z</time>
      </trkpt>
      <trkpt lat="45.81423" lon="2.88971">
        <ele>818</ele>
        <time>2015-10-18T00:45:54Z</time>
      </trkpt>
      <trkpt lat="45.81461" lon="2.88919">
        <ele>820</ele>
        <time>2015-10-18T00:47:54Z</time>
      </trkpt>
      <trkpt lat="45.81481" lon="2.88924">
        <ele>820</ele>
        <time>2015-10-18T00:49:54Z</time>
      </trkpt>
      <trkpt lat="45.81519" lon="2.88936">
        <ele>816</ele>
        <time>2015-10-18T00:51:54Z</time>
      </trkpt>
      <trkpt lat="45.81539" lon="2.88912">
        <ele>815</ele>
        <time>2015-10-18T00:53:54Z</time>
      </trkpt>
      <trkpt lat="45.81537" lon="2.88876">
        <ele>814</ele>
        <time>2015-10-18T00:55:54Z</time>
      </trkpt>
      <trkpt lat="45.81536" lon="2.88802">
        <ele>809</ele>
        <time>2015-10-18T00:57:54Z</time>
      </trkpt>
      <trkpt lat="45.81542" lon="2.88759">
        <ele>804</ele>
        <time>2015-10-18T00:59:54Z</time>
      </trkpt>
      <trkpt lat="45.81544" lon="2.88714">
        <ele>804</ele>
        <time>2015-10-18T01:01:54Z</time>
      </trkpt>
      <trkpt lat="45.81547" lon="2.88628">
        <ele>804</ele>
        <time>2015-10-18T01:03:54Z</time>
      </trkpt>
      <trkpt lat="45.81547" lon="2.88578">
        <ele>804</ele>
        <time>2015-10-18T01:05:54Z</time>
      </trkpt>
      <trkpt lat="45.8157" lon="2.88566">
        <ele>803</ele>
        <time>2015-10-18T01:07:54Z</time>
      </trkpt>
      <trkpt lat="45.81609" lon="2.88554">
        <ele>800</ele>
        <time>2015-10-18T01:09:54Z</time>
      </trkpt>
      <trkpt lat="45.81642" lon="2.88561">
        <ele>798</ele>
        <time>2015-10-18T01:11:54Z</time>
      </trkpt>
      <trkpt lat="45.81665" lon="2.8857">
        <ele>796</ele>
        <time>2015-10-18T01:13:54Z</time>
      </trkpt>
      <trkpt lat="45.8169" lon="2.8858">
        <ele>795</ele>
        <time>2015-10-18T01:15:54Z</time>
      </trkpt>
      <trkpt lat="45.81724" lon="2.8857">
        <ele>794</ele>
        <time>2015-10-18T01:17:54Z</time>
      </trkpt>
      <trkpt lat="45.81743" lon="2.88556">
        <ele>794</ele>
        <time>2015-10-18T01:19:54Z</time>
      </trkpt>
      <trkpt lat="45.81777" lon="2.88534">
        <ele>793</ele>
        <time>2015-10-18T01:21:54Z</time>
      </trkpt>
      <trkpt lat="45.81785" lon="2.88556">
        <ele>792</ele>
        <time>2015-10-18T01:23:54Z</time>
      </trkpt>
      <trkpt lat="45.81815" lon="2.88563">
        <ele>791</ele>
        <time>2015-10-18T01:25:54Z</time>
      </trkpt>
      <trkpt lat="45.81837" lon="2.88573">
        <ele>791</ele>
        <time>2015-10-18T01:27:54Z</time>
      </trkpt>
      <trkpt lat="45.81833" lon="2.88606">
        <ele>792</ele>
        <time>2015-10-18T01:29:54Z</time>
      </trkpt>
      <trkpt lat="45.8183" lon="2.88644">
        <ele>792</ele>
        <time>2015-10-18T01:31:54Z</time>
      </trkpt>
      <trkpt lat="45.818" lon="2.88683">
        <ele>794</ele>
        <time>2015-10-18T01:33:54Z</time>
      </trkpt>
      <trkpt lat="45.81805" lon="2.88714">
        <ele>795</ele>
        <time>2015-10-18T01:35:54Z</time>
      </trkpt>
      <trkpt lat="45.81823" lon="2.88742">
        <ele>796</ele>
        <time>2015-10-18T01:37:54Z</time>
      </trkpt>
      <trkpt lat="45.81837" lon="2.8879">
        <ele>796</ele>
        <time>2015-10-18T01:39:54Z</time>
      </trkpt>
      <trkpt lat="45.81861" lon="2.88823">
        <ele>796</ele>
        <time>2015-10-18T01:41:54Z</time>
      </trkpt>
      <trkpt lat="45.81893" lon="2.88814">
        <ele>795</ele>
        <time>2015-10-18T01:43:54Z</time>
      </trkpt>
      <trkpt lat="45.81903" lon="2.8884">
        <ele>795</ele>
        <time>2015-10-18T01:45:54Z</time>
      </trkpt>
      <trkpt lat="45.8193" lon="2.8884">
        <ele>795</ele>
        <time>2015-10-18T01:47:54Z</time>
      </trkpt>
      <trkpt lat="45.81931" lon="2.88871">
        <ele>795</ele>
        <time>2015-10-18T01:49:54Z</time>
      </trkpt>
      <trkpt lat="45.81973" lon="2.88864">
        <ele>793</ele>
        <time>2015-10-18T01:51:54Z</time>
      </trkpt>
      <trkpt lat="45.81989" lon="2.88859">
        <ele>793</ele>
        <time>2015-10-18T01:53:54Z</time>
      </trkpt>
      <trkpt lat="45.82003" lon="2.88869">
        <ele>793</ele>
        <time>2015-10-18T01:55:54Z</time>
      </trkpt>
      <trkpt lat="45.82029" lon="2.8889">
        <ele>793</ele>
        <time>2015-10-18T01:57:54Z</time>
      </trkpt>
      <trkpt lat="45.82049" lon="2.88902">
        <ele>794</ele>
        <time>2015-10-18T01:59:54Z</time>
      </trkpt>
      <trkpt lat="45.82076" lon="2.88941">
        <ele>794</ele>
        <time>2015-10-18T02:01:54Z</time>
      </trkpt>
      <trkpt lat="45.82117" lon="2.88989">
        <ele>796</ele>
        <time>2015-10-18T02:03:54Z</time>
      </trkpt>
      <trkpt lat="45.82127" lon="2.88987">
        <ele>797</ele>
        <time>2015-10-18T02:05:54Z</time>
      </trkpt>
      <trkpt lat="45.82146" lon="2.88989">
        <ele>799</ele>
        <time>2015-10-18T02:07:54Z</time>
      </trkpt>
      <trkpt lat="45.82156" lon="2.89006">
        <ele>800</ele>
        <time>2015-10-18T02:09:54Z</time>
      </trkpt>
      <trkpt lat="45.82147" lon="2.89058">
        <ele>801</ele>
        <time>2015-10-18T02:11:54Z</time>
      </trkpt>
      <trkpt lat="45.82154" lon="2.89082">
        <ele>802</ele>
        <time>2015-10-18T02:13:54Z</time>
      </trkpt>
      <trkpt lat="45.82172" lon="2.89103">
        <ele>804</ele>
        <time>2015-10-18T02:15:54Z</time>
      </trkpt>
      <trkpt lat="45.82196" lon="2.89106">
        <ele>805</ele>
        <time>2015-10-18T02:17:54Z</time>
      </trkpt>
      <trkpt lat="45.82217" lon="2.89106">
        <ele>806</ele>
        <time>2015-10-18T02:19:54Z</time>
      </trkpt>
      <trkpt lat="45.82242" lon="2.89144">
        <ele>808</ele>
        <time>2015-10-18T02:21:54Z</time>
      </trkpt>
      <trkpt lat="45.82264" lon="2.89165">
        <ele>809</ele>
        <time>2015-10-18T02:23:54Z</time>
      </trkpt>
      <trkpt lat="45.82287" lon="2.89201">
        <ele>810</ele>
        <time>2015-10-18T02:25:54Z</time>
      </trkpt>
      <trkpt lat="45.8231" lon="2.89237">
        <ele>811</ele>
        <time>2015-10-18T02:27:54Z</time>
      </trkpt>
      <trkpt lat="45.82335" lon="2.89265">
        <ele>811</ele>
        <time>2015-10-18T02:29:54Z</time>
      </trkpt>
      <trkpt lat="45.8235" lon="2.89275">
        <ele>811</ele>
        <time>2015-10-18T02:31:54Z</time>
      </trkpt>
      <trkpt lat="45.82387" lon="2.8927">
        <ele>810</ele>
        <time>2015-10-18T02:33:54Z</time>
      </trkpt>
      <trkpt lat="45.8241" lon="2.89251">
        <ele>809</ele>
        <time>2015-10-18T02:35:54Z</time>
      </trkpt>
      <trkpt lat="45.82405" lon="2.89339">
        <ele>810</ele>
        <time>2015-10-18T02:37:54Z</time>
      </trkpt>
      <trkpt lat="45.82417" lon="2.89387">
        <ele>809</ele>
        <time>2015-10-18T02:39:54Z</time>
      </trkpt>
      <trkpt lat="45.82425" lon="2.89418">
        <ele>809</ele>
        <time>2015-10-18T02:41:54Z</time>
      </trkpt>
      <trkpt lat="45.82425" lon="2.89456">
        <ele>810</ele>
        <time>2015-10-18T02:43:54Z</time>
      </trkpt>
      <trkpt lat="45.8241" lon="2.89468">
        <ele>810</ele>
        <time>2015-10-18T02:45:54Z</time>
      </trkpt>
      <trkpt lat="45.82362" lon="2.89494">
        <ele>811</ele>
        <time>2015-10-18T02:47:54Z</time>
      </trkpt>
      <trkpt lat="45.82325" lon="2.89525">
        <ele>811</ele>
        <time>2015-10-18T02:49:54Z</time>
      </trkpt>
      <trkpt lat="45.82294" lon="2.89567">
        <ele>812</ele>
        <time>2015-10-18T02:51:54Z</time>
      </trkpt>
      <trkpt lat="45.82254" lon="2.89545">
        <ele>811</ele>
        <time>2015-10-18T02:53:54Z</time>
      </trkpt>
      <trkpt lat="45.82196" lon="2.89522">
        <ele>812</ele>
        <time>2015-10-18T02:55:54Z</time>
      </trkpt>
      <trkpt lat="45.82142" lon="2.89533">
        <ele>812</ele>
        <time>2015-10-18T02:57:54Z</time>
      </trkpt>
      <trkpt lat="45.82112" lon="2.89522">
        <ele>811</ele>
        <time>2015-10-18T02:59:54Z</time>
      </trkpt>
      <trkpt lat="45.82096" lon="2.89543">
        <ele>810</ele>
        <time>2015-10-18T03:01:54Z</time>
      </trkpt>
      <trkpt lat="45.82051" lon="2.89536">
        <ele>808</ele>
        <time>2015-10-18T03:03:54Z</time>
      </trkpt>
      <trkpt lat="45.82" lon="2.89564">
        <ele>804</ele>
        <time>2015-10-18T03:05:54Z</time>
      </trkpt>
      <trkpt lat="45.81996" lon="2.89605">
        <ele>804</ele>
        <time>2015-10-18T03:07:54Z</time>
      </trkpt>
      <trkpt lat="45.81978" lon="2.89635">
        <ele>803</ele>
        <time>2015-10-18T03:09:54Z</time>
      </trkpt>
      <trkpt lat="45.81953" lon="2.89674">
        <ele>801</ele>
        <time>2015-10-18T03:11:54Z</time>
      </trkpt>
      <trkpt lat="45.8192" lon="2.89707">
        <ele>801</ele>
        <time>2015-10-18T03:13:54Z</time>
      </trkpt>
      <trkpt lat="45.81869" lon="2.89726">
        <ele>805</ele>
        <time>2015-10-18T03:15:54Z</time>
      </trkpt>
      <trkpt lat="45.81862" lon="2.8969">
        <ele>804</ele>
        <time>2015-10-18T03:17:54Z</time>
      </trkpt>
      <trkpt lat="45.81817" lon="2.89693">
        <ele>808</ele>
        <time>2015-10-18T03:19:54Z</time>
      </trkpt>
      <trkpt lat="45.81807" lon="2.89726">
        <ele>809</ele>
        <time>2015-10-18T03:21:54Z</time>
      </trkpt>
      <trkpt lat="45.81794" lon="2.89767">
        <ele>811</ele>
        <time>2015-10-18T03:23:54Z</time>
      </trkpt>
      <trkpt lat="45.81785" lon="2.89807">
        <ele>813</ele>
        <time>2015-10-18T03:25:54Z</time>
      </trkpt>
      <trkpt lat="45.81736" lon="2.89829">
        <ele>816</ele>
        <time>2015-10-18T03:27:54Z</time>
      </trkpt>
      <trkpt lat="45.81719" lon="2.8986">
        <ele>816</ele>
        <time>2015-10-18T03:29:54Z</time>
      </trkpt>
      <trkpt lat="45.81679" lon="2.89874">
        <ele>816</ele>
        <time>2015-10-18T03:31:54Z</time>
      </trkpt>
      <trkpt lat="45.81685" lon="2.89891">
        <ele>816</ele>
        <time>2015-10-18T03:33:54Z</time>
      </trkpt>
      <trkpt lat="45.81698" lon="2.89905">
        <ele>817</ele>
        <time>2015-10-18T03:35:54Z</time>
      </trkpt>
      <trkpt lat="45.81712" lon="2.89929">
        <ele>818</ele>
        <time>2015-10-18T03:37:54Z</time>
      </trkpt>
      <trkpt lat="45.81677" lon="2.89986">
        <ele>820</ele>
        <time>2015-10-18T03:39:54Z</time>
      </trkpt>
      <trkpt lat="45.8167" lon="2.90041">
        <ele>823</ele>
        <time>2015-10-18T03:41:54Z</time>
      </trkpt>
      <trkpt lat="45.81675" lon="2.90082">
        <ele>825</ele>
        <time>2015-10-18T03:43:54Z</time>
      </trkpt>
      <trkpt lat="45.81647" lon="2.90113">
        <ele>825</ele>
        <time>2015-10-18T03:45:54Z</time>
      </trkpt>
      <trkpt lat="45.81655" lon="2.90134">
        <ele>826</ele>
        <time>2015-10-18T03:47:54Z</time>
      </trkpt>
      <trkpt lat="45.81635" lon="2.90146">
        <ele>827</ele>
        <time>2015-10-18T03:49:54Z</time>
      </trkpt>
      <trkpt lat="45.81634" lon="2.90175">
        <ele>828</ele>
        <time>2015-10-18T03:51:54Z</time>
      </trkpt>
      <trkpt lat="45.81579" lon="2.90196">
        <ele>829</ele>
        <time>2015-10-18T03:53:54Z</time>
      </trkpt>
      <trkpt lat="45.8156" lon="2.9023">
        <ele>829</ele>
        <time>2015-10-18T03:55:54Z</time>
      </trkpt>
      <trkpt lat="45.81551" lon="2.90294">
        <ele>831</ele>
        <time>2015-10-18T03:57:54Z</time>
      </trkpt>
      <trkpt lat="45.81536" lon="2.90325">
        <ele>832</ele>
        <time>2015-10-18T03:59:54Z</time>
      </trkpt>
      <trkpt lat="45.81536" lon="2.90366">
        <ele>832</ele>
        <time>2015-10-18T04:01:54Z</time>
      </trkpt>
      <trkpt lat="45.81506" lon="2.90394">
        <ele>832</ele>
        <time>2015-10-18T04:03:54Z</time>
      </trkpt>
      <trkpt lat="45.81511" lon="2.9043">
        <ele>833</ele>
        <time>2015-10-18T04:05:54Z</time>
      </trkpt>
      <trkpt lat="45.81506" lon="2.90466">
        <ele>836</ele>
        <time>2015-10-18T04:07:54Z</time>
      </trkpt>
      <trkpt lat="45.81506" lon="2.90504">
        <ele>838</ele>
        <time>2015-10-18T04:09:54Z</time>
      </trkpt>
      <trkpt lat="45.81486" lon="2.90521">
        <ele>839</ele>
        <time>2015-10-18T04:11:54Z</time>
      </trkpt>
      <trkpt lat="45.81506" lon="2.90532">
        <ele>839</ele>
        <time>2015-10-18T04:13:54Z</time>
      </trkpt>
      <trkpt lat="45.81542" lon="2.9053">
        <ele>839</ele>
        <time>2015-10-18T04:15:54Z</time>
      </trkpt>
      <trkpt lat="45.81555" lon="2.90588">
        <ele>841</ele>
        <time>2015-10-18T04:17:54Z</time>
      </trkpt>
      <trkpt lat="45.81571" lon="2.90554">
        <ele>839</ele>
        <time>2015-10-18T04:19:54Z</time>
      </trkpt>
      <trkpt lat="45.81601" lon="2.90562">
        <ele>839</ele>
        <time>2015-10-18T04:21:54Z</time>
      </trkpt>
      <trkpt lat="45.8162" lon="2.90576">
        <ele>840</ele>
        <time>2015-10-18T04:23:54Z</time>
      </trkpt>
      <trkpt lat="45.81656" lon="2.906">
        <ele>841</ele>
        <time>2015-10-18T04:25:54Z</time>
      </trkpt>
      <trkpt lat="45.81669" lon="2.90616">
        <ele>842</ele>
        <time>2015-10-18T04:27:54Z</time>
      </trkpt>
      <trkpt lat="45.81701" lon="2.90614">
        <ele>841</ele>
        <time>2015-10-18T04:29:54Z</time>
      </trkpt>
      <trkpt lat="45.81733" lon="2.90628">
        <ele>842</ele>
        <time>2015-10-18T04:31:54Z</time>
      </trkpt>
      <trkpt lat="45.81759" lon="2.90626">
        <ele>842</ele>
        <time>2015-10-18T04:33:54Z</time>
      </trkpt>
      <trkpt lat="45.81768" lon="2.90654">
        <ele>845</ele>
        <time>2015-10-18T04:35:54Z</time>
      </trkpt>
      <trkpt lat="45.81809" lon="2.90657">
        <ele>845</ele>
        <time>2015-10-18T04:37:54Z</time>
      </trkpt>
      <trkpt lat="45.81822" lon="2.90675">
        <ele>847</ele>
        <time>2015-10-18T04:39:54Z</time>
      </trkpt>
      <trkpt lat="45.81859" lon="2.90696">
        <ele>848</ele>
        <time>2015-10-18T04:41:54Z</time>
      </trkpt>
      <trkpt lat="45.81895" lon="2.90722">
        <ele>849</ele>
        <time>2015-10-18T04:43:54Z</time>
      </trkpt>
      <trkpt lat="45.8194" lon="2.90746">
        <ele>851</ele>
        <time>2015-10-18T04:45:54Z</time>
      </trkpt>
      <trkpt lat="45.81997" lon="2.90777">
        <ele>852</ele>
        <time>2015-10-18T04:47:54Z</time>
      </trkpt>
      <trkpt lat="45.82048" lon="2.90815">
        <ele>853</ele>
        <time>2015-10-18T04:49:54Z</time>
      </trkpt>
      <trkpt lat="45.82085" lon="2.90844">
        <ele>853</ele>
        <time>2015-10-18T04:51:54Z</time>
      </trkpt>
      <trkpt lat="45.82131" lon="2.90863">
        <ele>850</ele>
        <time>2015-10-18T04:53:54Z</time>
      </trkpt>
      <trkpt lat="45.82164" lon="2.90884">
        <ele>847</ele>
        <time>2015-10-18T04:55:54Z</time>
      </trkpt>
      <trkpt lat="45.82179" lon="2.90903">
        <ele>845</ele>
        <time>2015-10-18T04:57:54Z</time>
      </trkpt>
      <trkpt lat="45.82204" lon="2.90956">
        <ele>843</ele>
        <time>2015-10-18T04:59:54Z</time>
      </trkpt>
      <trkpt lat="45.82217" lon="2.9098">
        <ele>844</ele>
        <time>2015-10-18T05:01:54Z</time>
      </trkpt>
      <trkpt lat="45.82237" lon="2.90975">
        <ele>842</ele>
        <time>2015-10-18T05:03:54Z</time>
      </trkpt>
      <trkpt lat="45.82255" lon="2.90946">
        <ele>840</ele>
        <time>2015-10-18T05:05:54Z</time>
      </trkpt>
      <trkpt lat="45.82293" lon="2.90975">
        <ele>841</ele>
        <time>2015-10-18T05:07:54Z</time>
      </trkpt>
      <trkpt lat="45.82295" lon="2.91004">
        <ele>842</ele>
        <time>2015-10-18T05:09:54Z</time>
      </trkpt>
      <trkpt lat="45.8231" lon="2.91061">
        <ele>842</ele>
        <time>2015-10-18T05:11:54Z</time>
      </trkpt>
      <trkpt lat="45.82341" lon="2.91077">
        <ele>839</ele>
        <time>2015-10-18T05:13:54Z</time>
      </trkpt>
      <trkpt lat="45.82375" lon="2.91142">
        <ele>834</ele>
        <time>2015-10-18T05:15:54Z</time>
      </trkpt>
      <trkpt lat="45.82403" lon="2.91182">
        <ele>831</ele>
        <time>2015-10-18T05:17:54Z</time>
      </trkpt>
      <trkpt lat="45.82433" lon="2.91228">
        <ele>832</ele>
        <time>2015-10-18T05:19:54Z</time>
      </trkpt>
      <trkpt lat="45.82461" lon="2.91249">
        <ele>832</ele>
        <time>2015-10-18T05:21:54Z</time>
      </trkpt>
      <trkpt lat="45.82494" lon="2.9129">
        <ele>835</ele>
        <time>2015-10-18T05:23:54Z</time>
      </trkpt>
      <trkpt lat="45.82527" lon="2.91321">
        <ele>838</ele>
        <time>2015-10-18T05:25:54Z</time>
      </trkpt>
      <trkpt lat="45.82552" lon="2.91361">
        <ele>841</ele>
        <time>2015-10-18T05:27:54Z</time>
      </trkpt>
      <trkpt lat="45.82581" lon="2.91376">
        <ele>842</ele>
        <time>2015-10-18T05:29:54Z</time>
      </trkpt>
      <trkpt lat="45.82614" lon="2.9138">
        <ele>842</ele>
        <time>2015-10-18T05:31:54Z</time>
      </trkpt>
      <trkpt lat="45.82627" lon="2.91405">
        <ele>843</ele>
        <time>2015-10-18T05:33:54Z</time>
      </trkpt>
      <trkpt lat="45.82639" lon="2.91458">
        <ele>844</ele>
        <time>2015-10-18T05:35:54Z</time>
      </trkpt>
      <trkpt lat="45.82647" lon="2.91486">
        <ele>845</ele>
        <time>2015-10-18T05:37:54Z</time>
      </trkpt>
      <trkpt lat="45.82642" lon="2.91546">
        <ele>849</ele>
        <time>2015-10-18T05:39:54Z</time>
      </trkpt>
      <trkpt lat="45.82639" lon="2.91606">
        <ele>853</ele>
        <time>2015-10-18T05:41:54Z</time>
      </trkpt>
      <trkpt lat="45.82647" lon="2.91632">
        <ele>853</ele>
        <time>2015-10-18T05:43:54Z</time>
      </trkpt>
      <trkpt lat="45.82645" lon="2.91684">
        <ele>854</ele>
        <time>2015-10-18T05:45:54Z</time>
      </trkpt>
      <trkpt lat="45.8266" lon="2.91732">
        <ele>852</ele>
        <time>2015-10-18T05:47:54Z</time>
      </trkpt>
      <trkpt lat="45.82675" lon="2.91784">
        <ele>852</ele>
        <time>2015-10-18T05:49:54Z</time>
      </trkpt>
      <trkpt lat="45.82684" lon="2.91863">
        <ele>855</ele>
        <time>2015-10-18T05:51:54Z</time>
      </trkpt>
      <trkpt lat="45.82675" lon="2.9193">
        <ele>860</ele>
        <time>2015-10-18T05:53:54Z</time>
      </trkpt>
      <trkpt lat="45.8266" lon="2.9197">
        <ele>862</ele>
        <time>2015-10-18T05:55:54Z</time>
      </trkpt>
      <trkpt lat="45.82667" lon="2.92008">
        <ele>863</ele>
        <time>2015-10-18T05:57:54Z</time>
      </trkpt>
      <trkpt lat="45.82682" lon="2.92073">
        <ele>863</ele>
        <time>2015-10-18T05:59:54Z</time>
      </trkpt>
      <trkpt lat="45.82708" lon="2.92073">
        <ele>862</ele>
        <time>2015-10-18T06:01:54Z</time>
      </trkpt>
      <trkpt lat="45.82738" lon="2.92054">
        <ele>859</ele>
        <time>2015-10-18T06:03:54Z</time>
      </trkpt>
      <trkpt lat="45.82793" lon="2.92046">
        <ele>859</ele>
        <time>2015-10-18T06:05:54Z</time>
      </trkpt>
      <trkpt lat="45.8284" lon="2.92032">
        <ele>858</ele>
        <time>2015-10-18T06:07:54Z</time>
      </trkpt>
      <trkpt lat="45.82876" lon="2.92027">
        <ele>857</ele>
        <time>2015-10-18T06:09:54Z</time>
      </trkpt>
      <trkpt lat="45.82903" lon="2.92018">
        <ele>856</ele>
        <time>2015-10-18T06:11:54Z</time>
      </trkpt>
      <trkpt lat="45.82921" lon="2.92039">
        <ele>857</ele>
        <time>2015-10-18T06:13:54Z</time>
      </trkpt>
      <trkpt lat="45.82962" lon="2.92034">
        <ele>857</ele>
        <time>2015-10-18T06:15:54Z</time>
      </trkpt>
      <trkpt lat="45.82979" lon="2.92068">
        <ele>858</ele>
        <time>2015-10-18T06:17:54Z</time>
      </trkpt>
      <trkpt lat="45.83017" lon="2.92108">
        <ele>860</ele>
        <time>2015-10-18T06:19:54Z</time>
      </trkpt>
      <trkpt lat="45.83046" lon="2.92158">
        <ele>862</ele>
        <time>2015-10-18T06:21:54Z</time>
      </trkpt>
      <trkpt lat="45.83107" lon="2.92199">
        <ele>864</ele>
        <time>2015-10-18T06:23:54Z</time>
      </trkpt>
      <trkpt lat="45.83137" lon="2.92225">
        <ele>865</ele>
        <time>2015-10-18T06:25:54Z</time>
      </trkpt>
      <trkpt lat="45.83178" lon="2.9224">
        <ele>866</ele>
        <time>2015-10-18T06:27:54Z</time>
      </trkpt>
      <trkpt lat="45.83212" lon="2.92304">
        <ele>869</ele>
        <time>2015-10-18T06:29:54Z</time>
      </trkpt>
      <trkpt lat="45.83231" lon="2.92321">
        <ele>870</ele>
        <time>2015-10-18T06:31:54Z</time>
      </trkpt>
      <trkpt lat="45.83258" lon="2.92237">
        <ele>870</ele>
        <time>2015-10-18T06:33:54Z</time>
      </trkpt>
      <trkpt lat="45.83283" lon="2.92185">
        <ele>869</ele>
        <time>2015-10-18T06:35:54Z</time>
      </trkpt>
      <trkpt lat="45.83299" lon="2.92156">
        <ele>869</ele>
        <time>2015-10-18T06:37:54Z</time>
      </trkpt>
      <trkpt lat="45.83352" lon="2.92156">
        <ele>868</ele>
        <time>2015-10-18T06:39:54Z</time>
      </trkpt>
      <trkpt lat="45.83381" lon="2.92161">
        <ele>868</ele>
        <time>2015-10-18T06:41:54Z</time>
      </trkpt>
      <trkpt lat="45.83412" lon="2.92158">
        <ele>868</ele>
        <time>2015-10-18T06:43:54Z</time>
      </trkpt>
      <trkpt lat="45.83454" lon="2.92163">
        <ele>867</ele>
        <time>2015-10-18T06:45:54Z</time>
      </trkpt>
      <trkpt lat="45.83491" lon="2.9217">
        <ele>867</ele>
        <time>2015-10-18T06:47:54Z</time>
      </trkpt>
      <trkpt lat="45.83529" lon="2.92184">
        <ele>868</ele>
        <time>2015-10-18T06:49:54Z</time>
      </trkpt>
      <trkpt lat="45.83584" lon="2.9223">
        <ele>869</ele>
        <time>2015-10-18T06:51:54Z</time>
      </trkpt>
      <trkpt lat="45.83613" lon="2.92251">
        <ele>870</ele>
        <time>2015-10-18T06:53:54Z</time>
      </trkpt>
      <trkpt lat="45.83623" lon="2.92285">
        <ele>871</ele>
        <time>2015-10-18T06:55:54Z</time>
      </trkpt>
      <trkpt lat="45.83651" lon="2.92306">
        <ele>872</ele>
        <time>2015-10-18T06:57:54Z</time>
      </trkpt>
      <trkpt lat="45.83682" lon="2.92316">
        <ele>873</ele>
        <time>2015-10-18T06:59:54Z</time>
      </trkpt>
      <trkpt lat="45.83709" lon="2.92344">
        <ele>874</ele>
        <time>2015-10-18T07:01:54Z</time>
      </trkpt>
      <trkpt lat="45.83731" lon="2.9238">
        <ele>874</ele>
        <time>2015-10-18T07:03:54Z</time>
      </trkpt>
      <trkpt lat="45.83757" lon="2.92418">
        <ele>874</ele>
        <time>2015-10-18T07:05:54Z</time>
      </trkpt>
      <trkpt lat="45.8379" lon="2.92454">
        <ele>875</ele>
        <time>2015-10-18T07:07:54Z</time>
      </trkpt>
      <trkpt lat="45.83834" lon="2.92475">
        <ele>876</ele>
        <time>2015-10-18T07:09:54Z</time>
      </trkpt>
      <trkpt lat="45.83885" lon="2.92497">
        <ele>875</ele>
        <time>2015-10-18T07:11:54Z</time>
      </trkpt>
      <trkpt lat="45.8393" lon="2.9251">
        <ele>875</ele>
        <time>2015-10-18T07:13:54Z</time>
      </trkpt>
      <trkpt lat="45.8393" lon="2.92556">
        <ele>875</ele>
        <time>2015-10-18T07:15:54Z</time>
      </trkpt>
      <trkpt lat="45.83928" lon="2.92627">
        <ele>877</ele>
        <time>2015-10-18T07:17:54Z</time>
      </trkpt>
      <trkpt lat="45.83938" lon="2.92651">
        <ele>878</ele>
        <time>2015-10-18T07:19:54Z</time>
      </trkpt>
      <trkpt lat="45.83961" lon="2.9268">
        <ele>879</ele>
        <time>2015-10-18T07:21:54Z</time>
      </trkpt>
      <trkpt lat="45.83988" lon="2.92734">
        <ele>882</ele>
        <time>2015-10-18T07:23:54Z</time>
      </trkpt>
      <trkpt lat="45.84006" lon="2.92744">
        <ele>883</ele>
        <time>2015-10-18T07:25:54Z</time>
      </trkpt>
      <trkpt lat="45.84019" lon="2.92782">
        <ele>885</ele>
        <time>2015-10-18T07:27:54Z</time>
      </trkpt>
      <trkpt lat="45.84029" lon="2.92818">
        <ele>886</ele>
        <time>2015-10-18T07:29:54Z</time>
      </trkpt>
      <trkpt lat="45.84046" lon="2.92823">
        <ele>886</ele>
        <time>2015-10-18T07:31:54Z</time>
      </trkpt>
      <trkpt lat="45.84076" lon="2.92811">
        <ele>885</ele>
        <time>2015-10-18T07:33:54Z</time>
      </trkpt>
      <trkpt lat="45.84104" lon="2.92804">
        <ele>884</ele>
        <time>2015-10-18T07:35:54Z</time>
      </trkpt>
      <trkpt lat="45.84104" lon="2.92889">
        <ele>889</ele>
        <time>2015-10-18T07:37:54Z</time>
      </trkpt>
      <trkpt lat="45.84126" lon="2.92935">
        <ele>892</ele>
        <time>2015-10-18T07:39:54Z</time>
      </trkpt>
    </trkseg>
  </trk>
  <trk>
    <name><![CDATA[--Orcines-- OR-5370351:ser-fr02-vtt-l3]]></name>
    <trkseg>
      <trkpt lat="45.79901" lon="2.99085">
        <ele>964</ele>
        <time>2015-10-17T14:42:04Z</time>
      </trkpt>
      <trkpt lat="45.79889" lon="2.9902">
        <ele>964</ele>
        <time>2015-10-17T14:44:04Z</time>
      </trkpt>
      <trkpt lat="45.79865" lon="2.98948">
        <ele>964</ele>
        <time>2015-10-17T14:46:04Z</time>
      </trkpt>
      <trkpt lat="45.7985" lon="2.98879">
        <ele>965</ele>
        <time>2015-10-17T14:48:04Z</time>
      </trkpt>
      <trkpt lat="45.79834" lon="2.98827">
        <ele>965</ele>
        <time>2015-10-17T14:50:04Z</time>
      </trkpt>
      <trkpt lat="45.7982" lon="2.98778">
        <ele>965</ele>
        <time>2015-10-17T14:52:04Z</time>
      </trkpt>
      <trkpt lat="45.79858" lon="2.98742">
        <ele>967</ele>
        <time>2015-10-17T14:54:04Z</time>
      </trkpt>
      <trkpt lat="45.79879" lon="2.98705">
        <ele>966</ele>
        <time>2015-10-17T14:56:04Z</time>
      </trkpt>
      <trkpt lat="45.7987" lon="2.98645">
        <ele>963</ele>
        <time>2015-10-17T14:58:04Z</time>
      </trkpt>
      <trkpt lat="45.79859" lon="2.98606">
        <ele>962</ele>
        <time>2015-10-17T15:00:04Z</time>
      </trkpt>
      <trkpt lat="45.7984" lon="2.98563">
        <ele>962</ele>
        <time>2015-10-17T15:02:04Z</time>
      </trkpt>
      <trkpt lat="45.79831" lon="2.98512">
        <ele>964</ele>
        <time>2015-10-17T15:04:04Z</time>
      </trkpt>
      <trkpt lat="45.79856" lon="2.98486">
        <ele>965</ele>
        <time>2015-10-17T15:06:04Z</time>
      </trkpt>
      <trkpt lat="45.79886" lon="2.98452">
        <ele>966</ele>
        <time>2015-10-17T15:08:04Z</time>
      </trkpt>
      <trkpt lat="45.79924" lon="2.98433">
        <ele>967</ele>
        <time>2015-10-17T15:10:04Z</time>
      </trkpt>
      <trkpt lat="45.79951" lon="2.98387">
        <ele>968</ele>
        <time>2015-10-17T15:12:04Z</time>
      </trkpt>
      <trkpt lat="45.79967" lon="2.98355">
        <ele>970</ele>
        <time>2015-10-17T15:14:04Z</time>
      </trkpt>
      <trkpt lat="45.80012" lon="2.98364">
        <ele>968</ele>
        <time>2015-10-17T15:16:04Z</time>
      </trkpt>
      <trkpt lat="45.80049" lon="2.98372">
        <ele>969</ele>
        <time>2015-10-17T15:18:04Z</time>
      </trkpt>
      <trkpt lat="45.80075" lon="2.98398">
        <ele>968</ele>
        <time>2015-10-17T15:20:04Z</time>
      </trkpt>
      <trkpt lat="45.80106" lon="2.98415">
        <ele>969</ele>
        <time>2015-10-17T15:22:04Z</time>
      </trkpt>
      <trkpt lat="45.80112" lon="2.98469">
        <ele>968</ele>
        <time>2015-10-17T15:24:04Z</time>
      </trkpt>
      <trkpt lat="45.80138" lon="2.98486">
        <ele>970</ele>
        <time>2015-10-17T15:26:04Z</time>
      </trkpt>
      <trkpt lat="45.80163" lon="2.98503">
        <ele>971</ele>
        <time>2015-10-17T15:28:04Z</time>
      </trkpt>
      <trkpt lat="45.80187" lon="2.98561">
        <ele>973</ele>
        <time>2015-10-17T15:30:04Z</time>
      </trkpt>
      <trkpt lat="45.80202" lon="2.98591">
        <ele>974</ele>
        <time>2015-10-17T15:32:04Z</time>
      </trkpt>
      <trkpt lat="45.80197" lon="2.98641">
        <ele>972</ele>
        <time>2015-10-17T15:34:04Z</time>
      </trkpt>
      <trkpt lat="45.80212" lon="2.98671">
        <ele>972</ele>
        <time>2015-10-17T15:36:04Z</time>
      </trkpt>
      <trkpt lat="45.80247" lon="2.98711">
        <ele>974</ele>
        <time>2015-10-17T15:38:04Z</time>
      </trkpt>
      <trkpt lat="45.8028" lon="2.98696">
        <ele>974</ele>
        <time>2015-10-17T15:40:04Z</time>
      </trkpt>
      <trkpt lat="45.80317" lon="2.98686">
        <ele>974</ele>
        <time>2015-10-17T15:42:04Z</time>
      </trkpt>
      <trkpt lat="45.80343" lon="2.98711">
        <ele>975</ele>
        <time>2015-10-17T15:44:04Z</time>
      </trkpt>
      <trkpt lat="45.80341" lon="2.98761">
        <ele>976</ele>
        <time>2015-10-17T15:46:04Z</time>
      </trkpt>
      <trkpt lat="45.80384" lon="2.98759">
        <ele>977</ele>
        <time>2015-10-17T15:48:04Z</time>
      </trkpt>
      <trkpt lat="45.80381" lon="2.98815">
        <ele>978</ele>
        <time>2015-10-17T15:50:04Z</time>
      </trkpt>
      <trkpt lat="45.80372" lon="2.98886">
        <ele>977</ele>
        <time>2015-10-17T15:52:04Z</time>
      </trkpt>
      <trkpt lat="45.80394" lon="2.98918">
        <ele>977</ele>
        <time>2015-10-17T15:54:04Z</time>
      </trkpt>
      <trkpt lat="45.80412" lon="2.98993">
        <ele>973</ele>
        <time>2015-10-17T15:56:04Z</time>
      </trkpt>
      <trkpt lat="45.80418" lon="2.99066">
        <ele>972</ele>
        <time>2015-10-17T15:58:04Z</time>
      </trkpt>
      <trkpt lat="45.80433" lon="2.99113">
        <ele>974</ele>
        <time>2015-10-17T16:00:04Z</time>
      </trkpt>
      <trkpt lat="45.80457" lon="2.9915">
        <ele>977</ele>
        <time>2015-10-17T16:02:04Z</time>
      </trkpt>
      <trkpt lat="45.80487" lon="2.99195">
        <ele>979</ele>
        <time>2015-10-17T16:04:04Z</time>
      </trkpt>
      <trkpt lat="45.8054" lon="2.99243">
        <ele>977</ele>
        <time>2015-10-17T16:06:04Z</time>
      </trkpt>
      <trkpt lat="45.80588" lon="2.99284">
        <ele>974</ele>
        <time>2015-10-17T16:08:04Z</time>
      </trkpt>
      <trkpt lat="45.80635" lon="2.99322">
        <ele>971</ele>
        <time>2015-10-17T16:10:04Z</time>
      </trkpt>
      <trkpt lat="45.80676" lon="2.99379">
        <ele>969</ele>
        <time>2015-10-17T16:12:04Z</time>
      </trkpt>
      <trkpt lat="45.8074" lon="2.99384">
        <ele>969</ele>
        <time>2015-10-17T16:14:04Z</time>
      </trkpt>
      <trkpt lat="45.80799" lon="2.99388">
        <ele>970</ele>
        <time>2015-10-17T16:16:04Z</time>
      </trkpt>
      <trkpt lat="45.80857" lon="2.99359">
        <ele>962</ele>
        <time>2015-10-17T16:18:04Z</time>
      </trkpt>
      <trkpt lat="45.80915" lon="2.99354">
        <ele>956</ele>
        <time>2015-10-17T16:20:04Z</time>
      </trkpt>
      <trkpt lat="45.80963" lon="2.99371">
        <ele>958</ele>
        <time>2015-10-17T16:22:04Z</time>
      </trkpt>
      <trkpt lat="45.8103" lon="2.99385">
        <ele>955</ele>
        <time>2015-10-17T16:24:04Z</time>
      </trkpt>
      <trkpt lat="45.81065" lon="2.99414">
        <ele>955</ele>
        <time>2015-10-17T16:26:04Z</time>
      </trkpt>
      <trkpt lat="45.81123" lon="2.99433">
        <ele>949</ele>
        <time>2015-10-17T16:28:04Z</time>
      </trkpt>
      <trkpt lat="45.81162" lon="2.99446">
        <ele>945</ele>
        <time>2015-10-17T16:30:04Z</time>
      </trkpt>
      <trkpt lat="45.8122" lon="2.99443">
        <ele>940</ele>
        <time>2015-10-17T16:32:04Z</time>
      </trkpt>
      <trkpt lat="45.81288" lon="2.99434">
        <ele>936</ele>
        <time>2015-10-17T16:34:04Z</time>
      </trkpt>
      <trkpt lat="45.81366" lon="2.99424">
        <ele>931</ele>
        <time>2015-10-17T16:36:04Z</time>
      </trkpt>
      <trkpt lat="45.81439" lon="2.99404">
        <ele>926</ele>
        <time>2015-10-17T16:38:04Z</time>
      </trkpt>
      <trkpt lat="45.8152" lon="2.99399">
        <ele>921</ele>
        <time>2015-10-17T16:40:04Z</time>
      </trkpt>
      <trkpt lat="45.81557" lon="2.99421">
        <ele>918</ele>
        <time>2015-10-17T16:42:04Z</time>
      </trkpt>
      <trkpt lat="45.81601" lon="2.9942">
        <ele>915</ele>
        <time>2015-10-17T16:44:04Z</time>
      </trkpt>
      <trkpt lat="45.81656" lon="2.99404">
        <ele>914</ele>
        <time>2015-10-17T16:46:04Z</time>
      </trkpt>
      <trkpt lat="45.81694" lon="2.99409">
        <ele>911</ele>
        <time>2015-10-17T16:48:04Z</time>
      </trkpt>
      <trkpt lat="45.81787" lon="2.99433">
        <ele>903</ele>
        <time>2015-10-17T16:50:04Z</time>
      </trkpt>
      <trkpt lat="45.81845" lon="2.99442">
        <ele>903</ele>
        <time>2015-10-17T16:52:04Z</time>
      </trkpt>
      <trkpt lat="45.8194" lon="2.99473">
        <ele>901</ele>
        <time>2015-10-17T16:54:04Z</time>
      </trkpt>
      <trkpt lat="45.82023" lon="2.99497">
        <ele>898</ele>
        <time>2015-10-17T16:56:04Z</time>
      </trkpt>
      <trkpt lat="45.82053" lon="2.99504">
        <ele>898</ele>
        <time>2015-10-17T16:58:04Z</time>
      </trkpt>
      <trkpt lat="45.82121" lon="2.99497">
        <ele>897</ele>
        <time>2015-10-17T17:00:04Z</time>
      </trkpt>
      <trkpt lat="45.82177" lon="2.99499">
        <ele>897</ele>
        <time>2015-10-17T17:02:04Z</time>
      </trkpt>
      <trkpt lat="45.8225" lon="2.99518">
        <ele>901</ele>
        <time>2015-10-17T17:04:04Z</time>
      </trkpt>
      <trkpt lat="45.82289" lon="2.99514">
        <ele>902</ele>
        <time>2015-10-17T17:06:04Z</time>
      </trkpt>
      <trkpt lat="45.82348" lon="2.99495">
        <ele>901</ele>
        <time>2015-10-17T17:08:04Z</time>
      </trkpt>
      <trkpt lat="45.82415" lon="2.99502">
        <ele>893</ele>
        <time>2015-10-17T17:10:04Z</time>
      </trkpt>
      <trkpt lat="45.82433" lon="2.99412">
        <ele>893</ele>
        <time>2015-10-17T17:12:04Z</time>
      </trkpt>
      <trkpt lat="45.82465" lon="2.99264">
        <ele>895</ele>
        <time>2015-10-17T17:14:04Z</time>
      </trkpt>
      <trkpt lat="45.82471" lon="2.99178">
        <ele>894</ele>
        <time>2015-10-17T17:16:04Z</time>
      </trkpt>
      <trkpt lat="45.82496" lon="2.99095">
        <ele>894</ele>
        <time>2015-10-17T17:18:04Z</time>
      </trkpt>
      <trkpt lat="45.82511" lon="2.98987">
        <ele>895</ele>
        <time>2015-10-17T17:20:04Z</time>
      </trkpt>
      <trkpt lat="45.8253" lon="2.98898">
        <ele>893</ele>
        <time>2015-10-17T17:22:04Z</time>
      </trkpt>
      <trkpt lat="45.82545" lon="2.9885">
        <ele>888</ele>
        <time>2015-10-17T17:24:04Z</time>
      </trkpt>
      <trkpt lat="45.82583" lon="2.98771">
        <ele>881</ele>
        <time>2015-10-17T17:26:04Z</time>
      </trkpt>
      <trkpt lat="45.82618" lon="2.98688">
        <ele>886</ele>
        <time>2015-10-17T17:28:04Z</time>
      </trkpt>
      <trkpt lat="45.8267" lon="2.98574">
        <ele>886</ele>
        <time>2015-10-17T17:30:04Z</time>
      </trkpt>
      <trkpt lat="45.8271" lon="2.98485">
        <ele>887</ele>
        <time>2015-10-17T17:32:04Z</time>
      </trkpt>
      <trkpt lat="45.82726" lon="2.98418">
        <ele>887</ele>
        <time>2015-10-17T17:34:04Z</time>
      </trkpt>
      <trkpt lat="45.82794" lon="2.98496">
        <ele>885</ele>
        <time>2015-10-17T17:36:04Z</time>
      </trkpt>
      <trkpt lat="45.8277" lon="2.98431">
        <ele>885</ele>
        <time>2015-10-17T17:38:04Z</time>
      </trkpt>
      <trkpt lat="45.82757" lon="2.98348">
        <ele>887</ele>
        <time>2015-10-17T17:40:04Z</time>
      </trkpt>
      <trkpt lat="45.82789" lon="2.98307">
        <ele>889</ele>
        <time>2015-10-17T17:42:04Z</time>
      </trkpt>
      <trkpt lat="45.82865" lon="2.98262">
        <ele>885</ele>
        <time>2015-10-17T17:44:04Z</time>
      </trkpt>
      <trkpt lat="45.82936" lon="2.98195">
        <ele>883</ele>
        <time>2015-10-17T17:46:04Z</time>
      </trkpt>
      <trkpt lat="45.83047" lon="2.98035">
        <ele>894</ele>
        <time>2015-10-17T17:48:04Z</time>
      </trkpt>
      <trkpt lat="45.83058" lon="2.97976">
        <ele>896</ele>
        <time>2015-10-17T17:50:04Z</time>
      </trkpt>
      <trkpt lat="45.83083" lon="2.97844">
        <ele>898</ele>
        <time>2015-10-17T17:52:04Z</time>
      </trkpt>
      <trkpt lat="45.83077" lon="2.97875">
        <ele>897</ele>
        <time>2015-10-17T17:54:04Z</time>
      </trkpt>
      <trkpt lat="45.83094" lon="2.97787">
        <ele>898</ele>
        <time>2015-10-17T17:56:04Z</time>
      </trkpt>
      <trkpt lat="45.83101" lon="2.97679">
        <ele>902</ele>
        <time>2015-10-17T17:58:04Z</time>
      </trkpt>
      <trkpt lat="45.83099" lon="2.97581">
        <ele>907</ele>
        <time>2015-10-17T18:00:04Z</time>
      </trkpt>
      <trkpt lat="45.83099" lon="2.97502">
        <ele>910</ele>
        <time>2015-10-17T18:02:04Z</time>
      </trkpt>
      <trkpt lat="45.83058" lon="2.97405">
        <ele>921</ele>
        <time>2015-10-17T18:04:04Z</time>
      </trkpt>
      <trkpt lat="45.83038" lon="2.97335">
        <ele>929</ele>
        <time>2015-10-17T18:06:04Z</time>
      </trkpt>
      <trkpt lat="45.8302" lon="2.97216">
        <ele>934</ele>
        <time>2015-10-17T18:08:04Z</time>
      </trkpt>
      <trkpt lat="45.82989" lon="2.9709">
        <ele>940</ele>
        <time>2015-10-17T18:10:04Z</time>
      </trkpt>
      <trkpt lat="45.82957" lon="2.96964">
        <ele>942</ele>
        <time>2015-10-17T18:12:04Z</time>
      </trkpt>
      <trkpt lat="45.8292" lon="2.96868">
        <ele>945</ele>
        <time>2015-10-17T18:14:04Z</time>
      </trkpt>
      <trkpt lat="45.82865" lon="2.9681">
        <ele>952</ele>
        <time>2015-10-17T18:16:04Z</time>
      </trkpt>
      <trkpt lat="45.82834" lon="2.96708">
        <ele>954</ele>
        <time>2015-10-17T18:18:04Z</time>
      </trkpt>
      <trkpt lat="45.8278" lon="2.96605">
        <ele>959</ele>
        <time>2015-10-17T18:20:04Z</time>
      </trkpt>
      <trkpt lat="45.82735" lon="2.96529">
        <ele>961</ele>
        <time>2015-10-17T18:22:04Z</time>
      </trkpt>
      <trkpt lat="45.82694" lon="2.9647">
        <ele>965</ele>
        <time>2015-10-17T18:24:04Z</time>
      </trkpt>
      <trkpt lat="45.82616" lon="2.96419">
        <ele>974</ele>
        <time>2015-10-17T18:26:04Z</time>
      </trkpt>
      <trkpt lat="45.82534" lon="2.96362">
        <ele>978</ele>
        <time>2015-10-17T18:28:04Z</time>
      </trkpt>
      <trkpt lat="45.82471" lon="2.96334">
        <ele>979</ele>
        <time>2015-10-17T18:30:04Z</time>
      </trkpt>
      <trkpt lat="45.82441" lon="2.96317">
        <ele>980</ele>
        <time>2015-10-17T18:32:04Z</time>
      </trkpt>
      <trkpt lat="45.82458" lon="2.96281">
        <ele>978</ele>
        <time>2015-10-17T18:34:04Z</time>
      </trkpt>
      <trkpt lat="45.82476" lon="2.9627">
        <ele>977</ele>
        <time>2015-10-17T18:36:04Z</time>
      </trkpt>
      <trkpt lat="45.82482" lon="2.96221">
        <ele>981</ele>
        <time>2015-10-17T18:38:04Z</time>
      </trkpt>
      <trkpt lat="45.82488" lon="2.96186">
        <ele>987</ele>
        <time>2015-10-17T18:40:04Z</time>
      </trkpt>
      <trkpt lat="45.82473" lon="2.96167">
        <ele>989</ele>
        <time>2015-10-17T18:42:04Z</time>
      </trkpt>
      <trkpt lat="45.82456" lon="2.96148">
        <ele>992</ele>
        <time>2015-10-17T18:44:04Z</time>
      </trkpt>
      <trkpt lat="45.82435" lon="2.96137">
        <ele>992</ele>
        <time>2015-10-17T18:46:04Z</time>
      </trkpt>
      <trkpt lat="45.8239" lon="2.96081">
        <ele>996</ele>
        <time>2015-10-17T18:48:04Z</time>
      </trkpt>
      <trkpt lat="45.82381" lon="2.9604">
        <ele>1001</ele>
        <time>2015-10-17T18:50:04Z</time>
      </trkpt>
      <trkpt lat="45.82428" lon="2.96013">
        <ele>1012</ele>
        <time>2015-10-17T18:52:04Z</time>
      </trkpt>
      <trkpt lat="45.82461" lon="2.95978">
        <ele>1021</ele>
        <time>2015-10-17T18:54:04Z</time>
      </trkpt>
      <trkpt lat="45.8248" lon="2.95935">
        <ele>1031</ele>
        <time>2015-10-17T18:56:04Z</time>
      </trkpt>
      <trkpt lat="45.82491" lon="2.9588">
        <ele>1043</ele>
        <time>2015-10-17T18:58:04Z</time>
      </trkpt>
      <trkpt lat="45.82506" lon="2.95843">
        <ele>1053</ele>
        <time>2015-10-17T19:00:04Z</time>
      </trkpt>
      <trkpt lat="45.82555" lon="2.958">
        <ele>1063</ele>
        <time>2015-10-17T19:02:04Z</time>
      </trkpt>
      <trkpt lat="45.82538" lon="2.95772">
        <ele>1068</ele>
        <time>2015-10-17T19:04:04Z</time>
      </trkpt>
      <trkpt lat="45.82525" lon="2.95693">
        <ele>1083</ele>
        <time>2015-10-17T19:06:04Z</time>
      </trkpt>
      <trkpt lat="45.82509" lon="2.95674">
        <ele>1088</ele>
        <time>2015-10-17T19:08:04Z</time>
      </trkpt>
      <trkpt lat="45.82498" lon="2.95626">
        <ele>1097</ele>
        <time>2015-10-17T19:10:04Z</time>
      </trkpt>
      <trkpt lat="45.82483" lon="2.95564">
        <ele>1103</ele>
        <time>2015-10-17T19:12:04Z</time>
      </trkpt>
      <trkpt lat="45.82485" lon="2.95525">
        <ele>1108</ele>
        <time>2015-10-17T19:14:04Z</time>
      </trkpt>
      <trkpt lat="45.82474" lon="2.95468">
        <ele>1111</ele>
        <time>2015-10-17T19:16:04Z</time>
      </trkpt>
      <trkpt lat="45.8247" lon="2.95414">
        <ele>1114</ele>
        <time>2015-10-17T19:18:04Z</time>
      </trkpt>
      <trkpt lat="45.82452" lon="2.95371">
        <ele>1113</ele>
        <time>2015-10-17T19:20:04Z</time>
      </trkpt>
      <trkpt lat="45.82426" lon="2.95332">
        <ele>1113</ele>
        <time>2015-10-17T19:22:04Z</time>
      </trkpt>
      <trkpt lat="45.82404" lon="2.95287">
        <ele>1107</ele>
        <time>2015-10-17T19:24:04Z</time>
      </trkpt>
      <trkpt lat="45.82389" lon="2.95251">
        <ele>1102</ele>
        <time>2015-10-17T19:26:04Z</time>
      </trkpt>
      <trkpt lat="45.82378" lon="2.95146">
        <ele>1096</ele>
        <time>2015-10-17T19:28:04Z</time>
      </trkpt>
      <trkpt lat="45.82369" lon="2.95103">
        <ele>1092</ele>
        <time>2015-10-17T19:30:04Z</time>
      </trkpt>
      <trkpt lat="45.82395" lon="2.95019">
        <ele>1091</ele>
        <time>2015-10-17T19:32:04Z</time>
      </trkpt>
      <trkpt lat="45.82414" lon="2.9506">
        <ele>1098</ele>
        <time>2015-10-17T19:34:04Z</time>
      </trkpt>
      <trkpt lat="45.82437" lon="2.95094">
        <ele>1099</ele>
        <time>2015-10-17T19:36:04Z</time>
      </trkpt>
      <trkpt lat="45.82495" lon="2.95133">
        <ele>1092</ele>
        <time>2015-10-17T19:38:04Z</time>
      </trkpt>
      <trkpt lat="45.82535" lon="2.95139">
        <ele>1092</ele>
        <time>2015-10-17T19:40:04Z</time>
      </trkpt>
      <trkpt lat="45.82597" lon="2.95169">
        <ele>1088</ele>
        <time>2015-10-17T19:42:04Z</time>
      </trkpt>
      <trkpt lat="45.82604" lon="2.95199">
        <ele>1087</ele>
        <time>2015-10-17T19:44:04Z</time>
      </trkpt>
      <trkpt lat="45.82627" lon="2.95197">
        <ele>1085</ele>
        <time>2015-10-17T19:46:04Z</time>
      </trkpt>
      <trkpt lat="45.82688" lon="2.95199">
        <ele>1078</ele>
        <time>2015-10-17T19:48:04Z</time>
      </trkpt>
      <trkpt lat="45.82751" lon="2.95159">
        <ele>1070</ele>
        <time>2015-10-17T19:50:04Z</time>
      </trkpt>
      <trkpt lat="45.82823" lon="2.95129">
        <ele>1059</ele>
        <time>2015-10-17T19:52:04Z</time>
      </trkpt>
      <trkpt lat="45.82897" lon="2.95109">
        <ele>1045</ele>
        <time>2015-10-17T19:54:04Z</time>
      </trkpt>
      <trkpt lat="45.82956" lon="2.95075">
        <ele>1031</ele>
        <time>2015-10-17T19:56:04Z</time>
      </trkpt>
      <trkpt lat="45.82999" lon="2.95071">
        <ele>1023</ele>
        <time>2015-10-17T19:58:04Z</time>
      </trkpt>
      <trkpt lat="45.83024" lon="2.95124">
        <ele>1024</ele>
        <time>2015-10-17T20:00:04Z</time>
      </trkpt>
      <trkpt lat="45.83042" lon="2.95201">
        <ele>1026</ele>
        <time>2015-10-17T20:02:04Z</time>
      </trkpt>
      <trkpt lat="45.83066" lon="2.95298">
        <ele>1028</ele>
        <time>2015-10-17T20:04:04Z</time>
      </trkpt>
      <trkpt lat="45.83089" lon="2.9536">
        <ele>1028</ele>
        <time>2015-10-17T20:06:04Z</time>
      </trkpt>
      <trkpt lat="45.8311" lon="2.95412">
        <ele>1030</ele>
        <time>2015-10-17T20:08:04Z</time>
      </trkpt>
      <trkpt lat="45.83123" lon="2.95483">
        <ele>1033</ele>
        <time>2015-10-17T20:10:04Z</time>
      </trkpt>
      <trkpt lat="45.83156" lon="2.95435">
        <ele>1027</ele>
        <time>2015-10-17T20:12:04Z</time>
      </trkpt>
      <trkpt lat="45.83204" lon="2.95438">
        <ele>1027</ele>
        <time>2015-10-17T20:14:04Z</time>
      </trkpt>
      <trkpt lat="45.83307" lon="2.95414">
        <ele>1024</ele>
        <time>2015-10-17T20:16:04Z</time>
      </trkpt>
      <trkpt lat="45.83353" lon="2.95399">
        <ele>1024</ele>
        <time>2015-10-17T20:18:04Z</time>
      </trkpt>
      <trkpt lat="45.83394" lon="2.95401">
        <ele>1028</ele>
        <time>2015-10-17T20:20:04Z</time>
      </trkpt>
      <trkpt lat="45.83434" lon="2.95438">
        <ele>1035</ele>
        <time>2015-10-17T20:22:04Z</time>
      </trkpt>
      <trkpt lat="45.83492" lon="2.95448">
        <ele>1033</ele>
        <time>2015-10-17T20:24:04Z</time>
      </trkpt>
      <trkpt lat="45.83542" lon="2.95483">
        <ele>1038</ele>
        <time>2015-10-17T20:26:04Z</time>
      </trkpt>
      <trkpt lat="45.83582" lon="2.95513">
        <ele>1041</ele>
        <time>2015-10-17T20:28:04Z</time>
      </trkpt>
      <trkpt lat="45.83609" lon="2.95549">
        <ele>1043</ele>
        <time>2015-10-17T20:30:04Z</time>
      </trkpt>
      <trkpt lat="45.83661" lon="2.95549">
        <ele>1034</ele>
        <time>2015-10-17T20:32:04Z</time>
      </trkpt>
      <trkpt lat="45.83685" lon="2.95603">
        <ele>1033</ele>
        <time>2015-10-17T20:34:04Z</time>
      </trkpt>
      <trkpt lat="45.83666" lon="2.95637">
        <ele>1035</ele>
        <time>2015-10-17T20:36:04Z</time>
      </trkpt>
      <trkpt lat="45.83645" lon="2.95671">
        <ele>1039</ele>
        <time>2015-10-17T20:38:04Z</time>
      </trkpt>
      <trkpt lat="45.83628" lon="2.9571">
        <ele>1042</ele>
        <time>2015-10-17T20:40:04Z</time>
      </trkpt>
      <trkpt lat="45.83613" lon="2.95764">
        <ele>1043</ele>
        <time>2015-10-17T20:42:04Z</time>
      </trkpt>
      <trkpt lat="45.83575" lon="2.95839">
        <ele>1044</ele>
        <time>2015-10-17T20:44:04Z</time>
      </trkpt>
      <trkpt lat="45.83554" lon="2.95873">
        <ele>1041</ele>
        <time>2015-10-17T20:46:04Z</time>
      </trkpt>
      <trkpt lat="45.83588" lon="2.95903">
        <ele>1035</ele>
        <time>2015-10-17T20:48:04Z</time>
      </trkpt>
      <trkpt lat="45.83664" lon="2.9591">
        <ele>1028</ele>
        <time>2015-10-17T20:50:04Z</time>
      </trkpt>
      <trkpt lat="45.83688" lon="2.95905">
        <ele>1027</ele>
        <time>2015-10-17T20:52:04Z</time>
      </trkpt>
      <trkpt lat="45.83667" lon="2.95965">
        <ele>1030</ele>
        <time>2015-10-17T20:54:04Z</time>
      </trkpt>
      <trkpt lat="45.83703" lon="2.96008">
        <ele>1035</ele>
        <time>2015-10-17T20:56:04Z</time>
      </trkpt>
      <trkpt lat="45.83727" lon="2.96017">
        <ele>1037</ele>
        <time>2015-10-17T20:58:04Z</time>
      </trkpt>
      <trkpt lat="45.8373" lon="2.96088">
        <ele>1044</ele>
        <time>2015-10-17T21:00:04Z</time>
      </trkpt>
      <trkpt lat="45.83736" lon="2.96139">
        <ele>1048</ele>
        <time>2015-10-17T21:02:04Z</time>
      </trkpt>
      <trkpt lat="45.83742" lon="2.96201">
        <ele>1053</ele>
        <time>2015-10-17T21:04:04Z</time>
      </trkpt>
      <trkpt lat="45.83805" lon="2.96223">
        <ele>1068</ele>
        <time>2015-10-17T21:06:04Z</time>
      </trkpt>
      <trkpt lat="45.83856" lon="2.96225">
        <ele>1078</ele>
        <time>2015-10-17T21:08:04Z</time>
      </trkpt>
      <trkpt lat="45.83914" lon="2.96225">
        <ele>1087</ele>
        <time>2015-10-17T21:10:04Z</time>
      </trkpt>
      <trkpt lat="45.83956" lon="2.96199">
        <ele>1090</ele>
        <time>2015-10-17T21:12:04Z</time>
      </trkpt>
      <trkpt lat="45.84025" lon="2.96227">
        <ele>1101</ele>
        <time>2015-10-17T21:14:04Z</time>
      </trkpt>
      <trkpt lat="45.84069" lon="2.96259">
        <ele>1111</ele>
        <time>2015-10-17T21:16:04Z</time>
      </trkpt>
      <trkpt lat="45.84104" lon="2.96289">
        <ele>1120</ele>
        <time>2015-10-17T21:18:04Z</time>
      </trkpt>
      <trkpt lat="45.84135" lon="2.96326">
        <ele>1130</ele>
        <time>2015-10-17T21:20:04Z</time>
      </trkpt>
      <trkpt lat="45.84183" lon="2.96354">
        <ele>1137</ele>
        <time>2015-10-17T21:22:04Z</time>
      </trkpt>
      <trkpt lat="45.84222" lon="2.96395">
        <ele>1135</ele>
        <time>2015-10-17T21:24:04Z</time>
      </trkpt>
      <trkpt lat="45.84249" lon="2.9644">
        <ele>1134</ele>
        <time>2015-10-17T21:26:04Z</time>
      </trkpt>
      <trkpt lat="45.84291" lon="2.96493">
        <ele>1133</ele>
        <time>2015-10-17T21:28:04Z</time>
      </trkpt>
      <trkpt lat="45.84341" lon="2.96508">
        <ele>1137</ele>
        <time>2015-10-17T21:30:04Z</time>
      </trkpt>
      <trkpt lat="45.84391" lon="2.96513">
        <ele>1139</ele>
        <time>2015-10-17T21:32:04Z</time>
      </trkpt>
      <trkpt lat="45.84391" lon="2.96463">
        <ele>1135</ele>
        <time>2015-10-17T21:34:04Z</time>
      </trkpt>
      <trkpt lat="45.84422" lon="2.96442">
        <ele>1133</ele>
        <time>2015-10-17T21:36:04Z</time>
      </trkpt>
      <trkpt lat="45.84461" lon="2.96472">
        <ele>1128</ele>
        <time>2015-10-17T21:38:04Z</time>
      </trkpt>
      <trkpt lat="45.84476" lon="2.96538">
        <ele>1130</ele>
        <time>2015-10-17T21:40:04Z</time>
      </trkpt>
      <trkpt lat="45.84527" lon="2.96553">
        <ele>1127</ele>
        <time>2015-10-17T21:42:04Z</time>
      </trkpt>
      <trkpt lat="45.84593" lon="2.96579">
        <ele>1135</ele>
        <time>2015-10-17T21:44:04Z</time>
      </trkpt>
      <trkpt lat="45.84613" lon="2.96656">
        <ele>1140</ele>
        <time>2015-10-17T21:46:04Z</time>
      </trkpt>
      <trkpt lat="45.84664" lon="2.96667">
        <ele>1150</ele>
        <time>2015-10-17T21:48:04Z</time>
      </trkpt>
      <trkpt lat="45.84678" lon="2.96714">
        <ele>1145</ele>
        <time>2015-10-17T21:50:04Z</time>
      </trkpt>
      <trkpt lat="45.84696" lon="2.96759">
        <ele>1141</ele>
        <time>2015-10-17T21:52:04Z</time>
      </trkpt>
      <trkpt lat="45.84715" lon="2.96809">
        <ele>1138</ele>
        <time>2015-10-17T21:54:04Z</time>
      </trkpt>
      <trkpt lat="45.84747" lon="2.96854">
        <ele>1140</ele>
        <time>2015-10-17T21:56:04Z</time>
      </trkpt>
      <trkpt lat="45.84794" lon="2.9689">
        <ele>1137</ele>
        <time>2015-10-17T21:58:04Z</time>
      </trkpt>
      <trkpt lat="45.84851" lon="2.9686">
        <ele>1129</ele>
        <time>2015-10-17T22:00:04Z</time>
      </trkpt>
      <trkpt lat="45.84887" lon="2.96824">
        <ele>1121</ele>
        <time>2015-10-17T22:02:04Z</time>
      </trkpt>
      <trkpt lat="45.84918" lon="2.96742">
        <ele>1115</ele>
        <time>2015-10-17T22:04:04Z</time>
      </trkpt>
      <trkpt lat="45.84975" lon="2.96721">
        <ele>1101</ele>
        <time>2015-10-17T22:06:04Z</time>
      </trkpt>
      <trkpt lat="45.85056" lon="2.96658">
        <ele>1080</ele>
        <time>2015-10-17T22:08:04Z</time>
      </trkpt>
      <trkpt lat="45.85102" lon="2.9659">
        <ele>1066</ele>
        <time>2015-10-17T22:10:04Z</time>
      </trkpt>
      <trkpt lat="45.85119" lon="2.96555">
        <ele>1059</ele>
        <time>2015-10-17T22:12:04Z</time>
      </trkpt>
      <trkpt lat="45.85143" lon="2.96463">
        <ele>1045</ele>
        <time>2015-10-17T22:14:04Z</time>
      </trkpt>
      <trkpt lat="45.85161" lon="2.96386">
        <ele>1038</ele>
        <time>2015-10-17T22:16:04Z</time>
      </trkpt>
      <trkpt lat="45.85192" lon="2.96437">
        <ele>1037</ele>
        <time>2015-10-17T22:18:04Z</time>
      </trkpt>
      <trkpt lat="45.8522" lon="2.96478">
        <ele>1035</ele>
        <time>2015-10-17T22:20:04Z</time>
      </trkpt>
      <trkpt lat="45.85241" lon="2.96532">
        <ele>1029</ele>
        <time>2015-10-17T22:22:04Z</time>
      </trkpt>
      <trkpt lat="45.85258" lon="2.96585">
        <ele>1024</ele>
        <time>2015-10-17T22:24:04Z</time>
      </trkpt>
      <trkpt lat="45.85267" lon="2.96616">
        <ele>1022</ele>
        <time>2015-10-17T22:26:04Z</time>
      </trkpt>
      <trkpt lat="45.85297" lon="2.9665">
        <ele>1017</ele>
        <time>2015-10-17T22:28:04Z</time>
      </trkpt>
      <trkpt lat="45.85285" lon="2.96701">
        <ele>1017</ele>
        <time>2015-10-17T22:30:04Z</time>
      </trkpt>
      <trkpt lat="45.8528" lon="2.96731">
        <ele>1016</ele>
        <time>2015-10-17T22:32:04Z</time>
      </trkpt>
      <trkpt lat="45.85252" lon="2.96766">
        <ele>1019</ele>
        <time>2015-10-17T22:34:04Z</time>
      </trkpt>
      <trkpt lat="45.85222" lon="2.96837">
        <ele>1021</ele>
        <time>2015-10-17T22:36:04Z</time>
      </trkpt>
      <trkpt lat="45.8525" lon="2.96937">
        <ele>1014</ele>
        <time>2015-10-17T22:38:04Z</time>
      </trkpt>
      <trkpt lat="45.85247" lon="2.97004">
        <ele>1010</ele>
        <time>2015-10-17T22:40:04Z</time>
      </trkpt>
      <trkpt lat="45.85243" lon="2.97036">
        <ele>1009</ele>
        <time>2015-10-17T22:42:04Z</time>
      </trkpt>
      <trkpt lat="45.85219" lon="2.97073">
        <ele>1008</ele>
        <time>2015-10-17T22:44:04Z</time>
      </trkpt>
      <trkpt lat="45.85216" lon="2.97118">
        <ele>1006</ele>
        <time>2015-10-17T22:46:04Z</time>
      </trkpt>
      <trkpt lat="45.85187" lon="2.97167">
        <ele>1004</ele>
        <time>2015-10-17T22:48:04Z</time>
      </trkpt>
      <trkpt lat="45.85164" lon="2.97218">
        <ele>1003</ele>
        <time>2015-10-17T22:50:04Z</time>
      </trkpt>
      <trkpt lat="45.85164" lon="2.97249">
        <ele>1002</ele>
        <time>2015-10-17T22:52:04Z</time>
      </trkpt>
      <trkpt lat="45.85125" lon="2.97287">
        <ele>998</ele>
        <time>2015-10-17T22:54:04Z</time>
      </trkpt>
      <trkpt lat="45.85104" lon="2.97321">
        <ele>993</ele>
        <time>2015-10-17T22:56:04Z</time>
      </trkpt>
      <trkpt lat="45.85083" lon="2.97349">
        <ele>987</ele>
        <time>2015-10-17T22:58:04Z</time>
      </trkpt>
      <trkpt lat="45.85065" lon="2.97373">
        <ele>982</ele>
        <time>2015-10-17T23:00:04Z</time>
      </trkpt>
      <trkpt lat="45.85044" lon="2.97367">
        <ele>985</ele>
        <time>2015-10-17T23:02:04Z</time>
      </trkpt>
      <trkpt lat="45.84989" lon="2.97388">
        <ele>981</ele>
        <time>2015-10-17T23:04:04Z</time>
      </trkpt>
      <trkpt lat="45.84951" lon="2.97392">
        <ele>980</ele>
        <time>2015-10-17T23:06:04Z</time>
      </trkpt>
      <trkpt lat="45.84921" lon="2.97397">
        <ele>979</ele>
        <time>2015-10-17T23:08:04Z</time>
      </trkpt>
      <trkpt lat="45.84888" lon="2.97414">
        <ele>973</ele>
        <time>2015-10-17T23:10:04Z</time>
      </trkpt>
      <trkpt lat="45.84866" lon="2.97422">
        <ele>970</ele>
        <time>2015-10-17T23:12:04Z</time>
      </trkpt>
      <trkpt lat="45.84817" lon="2.97467">
        <ele>957</ele>
        <time>2015-10-17T23:14:04Z</time>
      </trkpt>
      <trkpt lat="45.84785" lon="2.97482">
        <ele>953</ele>
        <time>2015-10-17T23:16:04Z</time>
      </trkpt>
      <trkpt lat="45.84758" lon="2.97504">
        <ele>947</ele>
        <time>2015-10-17T23:18:04Z</time>
      </trkpt>
      <trkpt lat="45.84732" lon="2.97523">
        <ele>942</ele>
        <time>2015-10-17T23:20:04Z</time>
      </trkpt>
      <trkpt lat="45.84696" lon="2.97538">
        <ele>938</ele>
        <time>2015-10-17T23:22:04Z</time>
      </trkpt>
      <trkpt lat="45.8467" lon="2.97551">
        <ele>934</ele>
        <time>2015-10-17T23:24:04Z</time>
      </trkpt>
      <trkpt lat="45.84615" lon="2.97566">
        <ele>930</ele>
        <time>2015-10-17T23:26:04Z</time>
      </trkpt>
      <trkpt lat="45.8459" lon="2.97577">
        <ele>928</ele>
        <time>2015-10-17T23:28:04Z</time>
      </trkpt>
      <trkpt lat="45.84564" lon="2.97577">
        <ele>927</ele>
        <time>2015-10-17T23:30:04Z</time>
      </trkpt>
      <trkpt lat="45.84525" lon="2.97562">
        <ele>927</ele>
        <time>2015-10-17T23:32:04Z</time>
      </trkpt>
      <trkpt lat="45.84498" lon="2.97545">
        <ele>928</ele>
        <time>2015-10-17T23:34:04Z</time>
      </trkpt>
      <trkpt lat="45.84467" lon="2.97521">
        <ele>928</ele>
        <time>2015-10-17T23:36:04Z</time>
      </trkpt>
      <trkpt lat="45.84428" lon="2.97527">
        <ele>924</ele>
        <time>2015-10-17T23:38:04Z</time>
      </trkpt>
      <trkpt lat="45.84403" lon="2.97536">
        <ele>921</ele>
        <time>2015-10-17T23:40:04Z</time>
      </trkpt>
      <trkpt lat="45.84379" lon="2.97545">
        <ele>918</ele>
        <time>2015-10-17T23:42:04Z</time>
      </trkpt>
      <trkpt lat="45.84358" lon="2.9756">
        <ele>914</ele>
        <time>2015-10-17T23:44:04Z</time>
      </trkpt>
      <trkpt lat="45.84337" lon="2.97624">
        <ele>904</ele>
        <time>2015-10-17T23:46:04Z</time>
      </trkpt>
      <trkpt lat="45.84326" lon="2.97678">
        <ele>898</ele>
        <time>2015-10-17T23:48:04Z</time>
      </trkpt>
      <trkpt lat="45.84309" lon="2.97733">
        <ele>893</ele>
        <time>2015-10-17T23:50:04Z</time>
      </trkpt>
      <trkpt lat="45.84349" lon="2.9777">
        <ele>891</ele>
        <time>2015-10-17T23:52:04Z</time>
      </trkpt>
      <trkpt lat="45.84391" lon="2.97815">
        <ele>890</ele>
        <time>2015-10-17T23:54:04Z</time>
      </trkpt>
      <trkpt lat="45.84431" lon="2.9786">
        <ele>888</ele>
        <time>2015-10-17T23:56:04Z</time>
      </trkpt>
      <trkpt lat="45.84424" lon="2.97965">
        <ele>883</ele>
        <time>2015-10-17T23:58:04Z</time>
      </trkpt>
      <trkpt lat="45.84421" lon="2.9806">
        <ele>879</ele>
        <time>2015-10-18T00:00:04Z</time>
      </trkpt>
      <trkpt lat="45.84422" lon="2.98111">
        <ele>878</ele>
        <time>2015-10-18T00:02:04Z</time>
      </trkpt>
      <trkpt lat="45.84415" lon="2.98158">
        <ele>877</ele>
        <time>2015-10-18T00:04:04Z</time>
      </trkpt>
      <trkpt lat="45.84409" lon="2.98208">
        <ele>874</ele>
        <time>2015-10-18T00:06:04Z</time>
      </trkpt>
      <trkpt lat="45.84407" lon="2.98261">
        <ele>870</ele>
        <time>2015-10-18T00:08:04Z</time>
      </trkpt>
      <trkpt lat="45.84409" lon="2.98334">
        <ele>862</ele>
        <time>2015-10-18T00:10:04Z</time>
      </trkpt>
      <trkpt lat="45.8441" lon="2.98405">
        <ele>860</ele>
        <time>2015-10-18T00:12:04Z</time>
      </trkpt>
      <trkpt lat="45.84395" lon="2.98476">
        <ele>857</ele>
        <time>2015-10-18T00:14:04Z</time>
      </trkpt>
      <trkpt lat="45.84389" lon="2.98525">
        <ele>854</ele>
        <time>2015-10-18T00:16:04Z</time>
      </trkpt>
      <trkpt lat="45.84382" lon="2.986">
        <ele>850</ele>
        <time>2015-10-18T00:18:04Z</time>
      </trkpt>
      <trkpt lat="45.84374" lon="2.98693">
        <ele>848</ele>
        <time>2015-10-18T00:20:04Z</time>
      </trkpt>
      <trkpt lat="45.8437" lon="2.98781">
        <ele>847</ele>
        <time>2015-10-18T00:22:04Z</time>
      </trkpt>
      <trkpt lat="45.8437" lon="2.98847">
        <ele>845</ele>
        <time>2015-10-18T00:24:04Z</time>
      </trkpt>
      <trkpt lat="45.84413" lon="2.98849">
        <ele>844</ele>
        <time>2015-10-18T00:26:04Z</time>
      </trkpt>
      <trkpt lat="45.84454" lon="2.98862">
        <ele>845</ele>
        <time>2015-10-18T00:28:04Z</time>
      </trkpt>
      <trkpt lat="45.84492" lon="2.98856">
        <ele>847</ele>
        <time>2015-10-18T00:30:04Z</time>
      </trkpt>
      <trkpt lat="45.84491" lon="2.98959">
        <ele>844</ele>
        <time>2015-10-18T00:32:04Z</time>
      </trkpt>
      <trkpt lat="45.84491" lon="2.99006">
        <ele>842</ele>
        <time>2015-10-18T00:34:04Z</time>
      </trkpt>
      <trkpt lat="45.8448" lon="2.99068">
        <ele>840</ele>
        <time>2015-10-18T00:36:04Z</time>
      </trkpt>
      <trkpt lat="45.84477" lon="2.99109">
        <ele>838</ele>
        <time>2015-10-18T00:38:04Z</time>
      </trkpt>
      <trkpt lat="45.84465" lon="2.99178">
        <ele>836</ele>
        <time>2015-10-18T00:40:04Z</time>
      </trkpt>
      <trkpt lat="45.84449" lon="2.99203">
        <ele>834</ele>
        <time>2015-10-18T00:42:04Z</time>
      </trkpt>
      <trkpt lat="45.84494" lon="2.99233">
        <ele>838</ele>
        <time>2015-10-18T00:44:04Z</time>
      </trkpt>
      <trkpt lat="45.84554" lon="2.99268">
        <ele>838</ele>
        <time>2015-10-18T00:46:04Z</time>
      </trkpt>
      <trkpt lat="45.84618" lon="2.99319">
        <ele>836</ele>
        <time>2015-10-18T00:48:04Z</time>
      </trkpt>
      <trkpt lat="45.84654" lon="2.99356">
        <ele>835</ele>
        <time>2015-10-18T00:50:04Z</time>
      </trkpt>
      <trkpt lat="45.84721" lon="2.99426">
        <ele>832</ele>
        <time>2015-10-18T00:52:04Z</time>
      </trkpt>
      <trkpt lat="45.84766" lon="2.99476">
        <ele>827</ele>
        <time>2015-10-18T00:54:04Z</time>
      </trkpt>
      <trkpt lat="45.84797" lon="2.99519">
        <ele>824</ele>
        <time>2015-10-18T00:56:04Z</time>
      </trkpt>
      <trkpt lat="45.8483" lon="2.99562">
        <ele>821</ele>
        <time>2015-10-18T00:58:04Z</time>
      </trkpt>
      <trkpt lat="45.84863" lon="2.996">
        <ele>819</ele>
        <time>2015-10-18T01:00:04Z</time>
      </trkpt>
      <trkpt lat="45.84896" lon="2.99637">
        <ele>818</ele>
        <time>2015-10-18T01:02:04Z</time>
      </trkpt>
      <trkpt lat="45.84923" lon="2.99673">
        <ele>818</ele>
        <time>2015-10-18T01:04:04Z</time>
      </trkpt>
      <trkpt lat="45.84956" lon="2.99708">
        <ele>818</ele>
        <time>2015-10-18T01:06:04Z</time>
      </trkpt>
      <trkpt lat="45.8499" lon="2.99751">
        <ele>817</ele>
        <time>2015-10-18T01:08:04Z</time>
      </trkpt>
      <trkpt lat="45.85027" lon="2.99763">
        <ele>817</ele>
        <time>2015-10-18T01:10:04Z</time>
      </trkpt>
      <trkpt lat="45.85066" lon="2.99783">
        <ele>815</ele>
        <time>2015-10-18T01:12:04Z</time>
      </trkpt>
      <trkpt lat="45.85086" lon="2.99828">
        <ele>813</ele>
        <time>2015-10-18T01:14:04Z</time>
      </trkpt>
      <trkpt lat="45.85134" lon="2.99847">
        <ele>810</ele>
        <time>2015-10-18T01:16:04Z</time>
      </trkpt>
      <trkpt lat="45.85192" lon="2.99877">
        <ele>807</ele>
        <time>2015-10-18T01:18:04Z</time>
      </trkpt>
      <trkpt lat="45.85204" lon="2.99905">
        <ele>806</ele>
        <time>2015-10-18T01:20:04Z</time>
      </trkpt>
      <trkpt lat="45.8525" lon="2.99944">
        <ele>803</ele>
        <time>2015-10-18T01:22:04Z</time>
      </trkpt>
      <trkpt lat="45.85308" lon="2.9998">
        <ele>798</ele>
        <time>2015-10-18T01:24:04Z</time>
      </trkpt>
      <trkpt lat="45.85361" lon="3.00006">
        <ele>794</ele>
        <time>2015-10-18T01:26:04Z</time>
      </trkpt>
      <trkpt lat="45.85404" lon="3.00019">
        <ele>791</ele>
        <time>2015-10-18T01:28:04Z</time>
      </trkpt>
      <trkpt lat="45.85438" lon="3.0007">
        <ele>787</ele>
        <time>2015-10-18T01:30:04Z</time>
      </trkpt>
      <trkpt lat="45.85468" lon="3.00107">
        <ele>783</ele>
        <time>2015-10-18T01:32:04Z</time>
      </trkpt>
      <trkpt lat="45.855" lon="3.00145">
        <ele>778</ele>
        <time>2015-10-18T01:34:04Z</time>
      </trkpt>
      <trkpt lat="45.85521" lon="3.00197">
        <ele>777</ele>
        <time>2015-10-18T01:36:04Z</time>
      </trkpt>
      <trkpt lat="45.85528" lon="3.00238">
        <ele>776</ele>
        <time>2015-10-18T01:38:04Z</time>
      </trkpt>
      <trkpt lat="45.85552" lon="3.00291">
        <ele>775</ele>
        <time>2015-10-18T01:40:04Z</time>
      </trkpt>
      <trkpt lat="45.8558" lon="3.00347">
        <ele>775</ele>
        <time>2015-10-18T01:42:04Z</time>
      </trkpt>
      <trkpt lat="45.85586" lon="3.00272">
        <ele>776</ele>
        <time>2015-10-18T01:44:04Z</time>
      </trkpt>
      <trkpt lat="45.85594" lon="3.00195">
        <ele>778</ele>
        <time>2015-10-18T01:46:04Z</time>
      </trkpt>
      <trkpt lat="45.85592" lon="3.00128">
        <ele>780</ele>
        <time>2015-10-18T01:48:04Z</time>
      </trkpt>
      <trkpt lat="45.85604" lon="3.00047">
        <ele>785</ele>
        <time>2015-10-18T01:50:04Z</time>
      </trkpt>
      <trkpt lat="45.85604" lon="2.99976">
        <ele>787</ele>
        <time>2015-10-18T01:52:04Z</time>
      </trkpt>
      <trkpt lat="45.85607" lon="2.99899">
        <ele>789</ele>
        <time>2015-10-18T01:54:04Z</time>
      </trkpt>
      <trkpt lat="45.85604" lon="2.99838">
        <ele>790</ele>
        <time>2015-10-18T01:56:04Z</time>
      </trkpt>
      <trkpt lat="45.85669" lon="2.99802">
        <ele>792</ele>
        <time>2015-10-18T01:58:04Z</time>
      </trkpt>
      <trkpt lat="45.85705" lon="2.99768">
        <ele>794</ele>
        <time>2015-10-18T02:00:04Z</time>
      </trkpt>
      <trkpt lat="45.85749" lon="2.99748">
        <ele>795</ele>
        <time>2015-10-18T02:02:04Z</time>
      </trkpt>
      <trkpt lat="45.85782" lon="2.99781">
        <ele>796</ele>
        <time>2015-10-18T02:04:04Z</time>
      </trkpt>
      <trkpt lat="45.85858" lon="2.99796">
        <ele>801</ele>
        <time>2015-10-18T02:06:04Z</time>
      </trkpt>
      <trkpt lat="45.85906" lon="2.99761">
        <ele>809</ele>
        <time>2015-10-18T02:08:04Z</time>
      </trkpt>
      <trkpt lat="45.85929" lon="2.99703">
        <ele>817</ele>
        <time>2015-10-18T02:10:04Z</time>
      </trkpt>
      <trkpt lat="45.85985" lon="2.99695">
        <ele>823</ele>
        <time>2015-10-18T02:12:04Z</time>
      </trkpt>
      <trkpt lat="45.86042" lon="2.99663">
        <ele>836</ele>
        <time>2015-10-18T02:14:04Z</time>
      </trkpt>
      <trkpt lat="45.86051" lon="2.99632">
        <ele>843</ele>
        <time>2015-10-18T02:16:04Z</time>
      </trkpt>
      <trkpt lat="45.86075" lon="2.9963">
        <ele>847</ele>
        <time>2015-10-18T02:18:04Z</time>
      </trkpt>
      <trkpt lat="45.86056" lon="2.9959">
        <ele>851</ele>
        <time>2015-10-18T02:20:04Z</time>
      </trkpt>
      <trkpt lat="45.86051" lon="2.99538">
        <ele>859</ele>
        <time>2015-10-18T02:22:04Z</time>
      </trkpt>
      <trkpt lat="45.86065" lon="2.99482">
        <ele>870</ele>
        <time>2015-10-18T02:24:04Z</time>
      </trkpt>
      <trkpt lat="45.86099" lon="2.99448">
        <ele>875</ele>
        <time>2015-10-18T02:26:04Z</time>
      </trkpt>
      <trkpt lat="45.86105" lon="2.99414">
        <ele>877</ele>
        <time>2015-10-18T02:28:04Z</time>
      </trkpt>
      <trkpt lat="45.86126" lon="2.99377">
        <ele>877</ele>
        <time>2015-10-18T02:30:04Z</time>
      </trkpt>
      <trkpt lat="45.86175" lon="2.99343">
        <ele>875</ele>
        <time>2015-10-18T02:32:04Z</time>
      </trkpt>
      <trkpt lat="45.86211" lon="2.99285">
        <ele>876</ele>
        <time>2015-10-18T02:34:04Z</time>
      </trkpt>
      <trkpt lat="45.86223" lon="2.99255">
        <ele>878</ele>
        <time>2015-10-18T02:36:04Z</time>
      </trkpt>
      <trkpt lat="45.86247" lon="2.99251">
        <ele>879</ele>
        <time>2015-10-18T02:38:04Z</time>
      </trkpt>
      <trkpt lat="45.86265" lon="2.99276">
        <ele>877</ele>
        <time>2015-10-18T02:40:04Z</time>
      </trkpt>
      <trkpt lat="45.86298" lon="2.99323">
        <ele>875</ele>
        <time>2015-10-18T02:42:04Z</time>
      </trkpt>
      <trkpt lat="45.86323" lon="2.99392">
        <ele>873</ele>
        <time>2015-10-18T02:44:04Z</time>
      </trkpt>
      <trkpt lat="45.8634" lon="2.99401">
        <ele>873</ele>
        <time>2015-10-18T02:46:04Z</time>
      </trkpt>
      <trkpt lat="45.86362" lon="2.99429">
        <ele>872</ele>
        <time>2015-10-18T02:48:04Z</time>
      </trkpt>
      <trkpt lat="45.86372" lon="2.99403">
        <ele>873</ele>
        <time>2015-10-18T02:50:04Z</time>
      </trkpt>
      <trkpt lat="45.86419" lon="2.99377">
        <ele>873</ele>
        <time>2015-10-18T02:52:04Z</time>
      </trkpt>
      <trkpt lat="45.86462" lon="2.99336">
        <ele>871</ele>
        <time>2015-10-18T02:54:04Z</time>
      </trkpt>
      <trkpt lat="45.86498" lon="2.99304">
        <ele>871</ele>
        <time>2015-10-18T02:56:04Z</time>
      </trkpt>
      <trkpt lat="45.86523" lon="2.99266">
        <ele>869</ele>
        <time>2015-10-18T02:58:04Z</time>
      </trkpt>
      <trkpt lat="45.86523" lon="2.9922">
        <ele>869</ele>
        <time>2015-10-18T03:00:04Z</time>
      </trkpt>
      <trkpt lat="45.86519" lon="2.99173">
        <ele>870</ele>
        <time>2015-10-18T03:02:04Z</time>
      </trkpt>
      <trkpt lat="45.86534" lon="2.9916">
        <ele>868</ele>
        <time>2015-10-18T03:04:04Z</time>
      </trkpt>
      <trkpt lat="45.8654" lon="2.9913">
        <ele>868</ele>
        <time>2015-10-18T03:06:04Z</time>
      </trkpt>
      <trkpt lat="45.86573" lon="2.9907">
        <ele>860</ele>
        <time>2015-10-18T03:08:04Z</time>
      </trkpt>
      <trkpt lat="45.86595" lon="2.9907">
        <ele>856</ele>
        <time>2015-10-18T03:10:04Z</time>
      </trkpt>
      <trkpt lat="45.86615" lon="2.98948">
        <ele>852</ele>
        <time>2015-10-18T03:12:04Z</time>
      </trkpt>
      <trkpt lat="45.86609" lon="2.98903">
        <ele>850</ele>
        <time>2015-10-18T03:14:04Z</time>
      </trkpt>
      <trkpt lat="45.86577" lon="2.98886">
        <ele>851</ele>
        <time>2015-10-18T03:16:04Z</time>
      </trkpt>
      <trkpt lat="45.86561" lon="2.98856">
        <ele>853</ele>
        <time>2015-10-18T03:18:04Z</time>
      </trkpt>
      <trkpt lat="45.86564" lon="2.98811">
        <ele>852</ele>
        <time>2015-10-18T03:20:04Z</time>
      </trkpt>
      <trkpt lat="45.86582" lon="2.98768">
        <ele>852</ele>
        <time>2015-10-18T03:22:04Z</time>
      </trkpt>
      <trkpt lat="45.86613" lon="2.98746">
        <ele>851</ele>
        <time>2015-10-18T03:24:04Z</time>
      </trkpt>
      <trkpt lat="45.86685" lon="2.98755">
        <ele>841</ele>
        <time>2015-10-18T03:26:04Z</time>
      </trkpt>
      <trkpt lat="45.86727" lon="2.98798">
        <ele>832</ele>
        <time>2015-10-18T03:28:04Z</time>
      </trkpt>
      <trkpt lat="45.86759" lon="2.98843">
        <ele>828</ele>
        <time>2015-10-18T03:30:04Z</time>
      </trkpt>
      <trkpt lat="45.86816" lon="2.98873">
        <ele>818</ele>
        <time>2015-10-18T03:32:04Z</time>
      </trkpt>
      <trkpt lat="45.86866" lon="2.98879">
        <ele>809</ele>
        <time>2015-10-18T03:34:04Z</time>
      </trkpt>
      <trkpt lat="45.86912" lon="2.98909">
        <ele>802</ele>
        <time>2015-10-18T03:36:04Z</time>
      </trkpt>
      <trkpt lat="45.86957" lon="2.98954">
        <ele>800</ele>
        <time>2015-10-18T03:38:04Z</time>
      </trkpt>
      <trkpt lat="45.86994" lon="2.9901">
        <ele>798</ele>
        <time>2015-10-18T03:40:04Z</time>
      </trkpt>
      <trkpt lat="45.87025" lon="2.99055">
        <ele>796</ele>
        <time>2015-10-18T03:42:04Z</time>
      </trkpt>
      <trkpt lat="45.87061" lon="2.99105">
        <ele>792</ele>
        <time>2015-10-18T03:44:04Z</time>
      </trkpt>
      <trkpt lat="45.87079" lon="2.99148">
        <ele>788</ele>
        <time>2015-10-18T03:46:04Z</time>
      </trkpt>
      <trkpt lat="45.87111" lon="2.99171">
        <ele>785</ele>
        <time>2015-10-18T03:48:04Z</time>
      </trkpt>
      <trkpt lat="45.87121" lon="2.99126">
        <ele>788</ele>
        <time>2015-10-18T03:50:04Z</time>
      </trkpt>
    </trkseg>
  </trk>
  <trk>
    <name><![CDATA[--Orcines-- OR-5370354:ser-fr03-b]]></name>
    <trkseg>
      <trkpt lat="45.80338" lon="2.98706">
        <ele>975</ele>
        <time>2015-10-17T14:42:16Z</time>
      </trkpt>
      <trkpt lat="45.80323" lon="2.98693">
        <ele>974</ele>
        <time>2015-10-17T14:44:16Z</time>
      </trkpt>
      <trkpt lat="45.80336" lon="2.98635">
        <ele>975</ele>
        <time>2015-10-17T14:46:16Z</time>
      </trkpt>
      <trkpt lat="45.80345" lon="2.98592">
        <ele>977</ele>
        <time>2015-10-17T14:48:16Z</time>
      </trkpt>
      <trkpt lat="45.80356" lon="2.98536">
        <ele>979</ele>
        <time>2015-10-17T14:50:16Z</time>
      </trkpt>
      <trkpt lat="45.80332" lon="2.98513">
        <ele>980</ele>
        <time>2015-10-17T14:52:16Z</time>
      </trkpt>
      <trkpt lat="45.80305" lon="2.98487">
        <ele>981</ele>
        <time>2015-10-17T14:54:16Z</time>
      </trkpt>
      <trkpt lat="45.80331" lon="2.98446">
        <ele>981</ele>
        <time>2015-10-17T14:56:16Z</time>
      </trkpt>
      <trkpt lat="45.80357" lon="2.98431">
        <ele>981</ele>
        <time>2015-10-17T14:58:16Z</time>
      </trkpt>
      <trkpt lat="45.80378" lon="2.98397">
        <ele>982</ele>
        <time>2015-10-17T15:00:16Z</time>
      </trkpt>
      <trkpt lat="45.80354" lon="2.98371">
        <ele>984</ele>
        <time>2015-10-17T15:02:16Z</time>
      </trkpt>
      <trkpt lat="45.80351" lon="2.98324">
        <ele>986</ele>
        <time>2015-10-17T15:04:16Z</time>
      </trkpt>
      <trkpt lat="45.80338" lon="2.98294">
        <ele>989</ele>
        <time>2015-10-17T15:06:16Z</time>
      </trkpt>
      <trkpt lat="45.80362" lon="2.98251">
        <ele>991</ele>
        <time>2015-10-17T15:08:16Z</time>
      </trkpt>
      <trkpt lat="45.80395" lon="2.98217">
        <ele>991</ele>
        <time>2015-10-17T15:10:16Z</time>
      </trkpt>
      <trkpt lat="45.8038" lon="2.98159">
        <ele>995</ele>
        <time>2015-10-17T15:12:16Z</time>
      </trkpt>
      <trkpt lat="45.80395" lon="2.98124">
        <ele>997</ele>
        <time>2015-10-17T15:14:16Z</time>
      </trkpt>
      <trkpt lat="45.80399" lon="2.98088">
        <ele>1000</ele>
        <time>2015-10-17T15:16:16Z</time>
      </trkpt>
      <trkpt lat="45.80411" lon="2.98032">
        <ele>1006</ele>
        <time>2015-10-17T15:18:16Z</time>
      </trkpt>
      <trkpt lat="45.80434" lon="2.97993">
        <ele>1010</ele>
        <time>2015-10-17T15:20:16Z</time>
      </trkpt>
      <trkpt lat="45.80449" lon="2.9791">
        <ele>1015</ele>
        <time>2015-10-17T15:22:16Z</time>
      </trkpt>
      <trkpt lat="45.8045" lon="2.97817">
        <ele>1021</ele>
        <time>2015-10-17T15:24:16Z</time>
      </trkpt>
      <trkpt lat="45.80452" lon="2.97738">
        <ele>1023</ele>
        <time>2015-10-17T15:26:16Z</time>
      </trkpt>
      <trkpt lat="45.80454" lon="2.9765">
        <ele>1026</ele>
        <time>2015-10-17T15:28:16Z</time>
      </trkpt>
      <trkpt lat="45.80463" lon="2.97599">
        <ele>1025</ele>
        <time>2015-10-17T15:30:16Z</time>
      </trkpt>
      <trkpt lat="45.80452" lon="2.97521">
        <ele>1020</ele>
        <time>2015-10-17T15:32:16Z</time>
      </trkpt>
      <trkpt lat="45.80431" lon="2.97478">
        <ele>1022</ele>
        <time>2015-10-17T15:34:16Z</time>
      </trkpt>
      <trkpt lat="45.80402" lon="2.97461">
        <ele>1026</ele>
        <time>2015-10-17T15:36:16Z</time>
      </trkpt>
      <trkpt lat="45.80387" lon="2.97433">
        <ele>1030</ele>
        <time>2015-10-17T15:38:16Z</time>
      </trkpt>
      <trkpt lat="45.80386" lon="2.97363">
        <ele>1032</ele>
        <time>2015-10-17T15:40:16Z</time>
      </trkpt>
      <trkpt lat="45.80375" lon="2.97294">
        <ele>1037</ele>
        <time>2015-10-17T15:42:16Z</time>
      </trkpt>
      <trkpt lat="45.80368" lon="2.9723">
        <ele>1039</ele>
        <time>2015-10-17T15:44:16Z</time>
      </trkpt>
      <trkpt lat="45.8036" lon="2.97165">
        <ele>1043</ele>
        <time>2015-10-17T15:46:16Z</time>
      </trkpt>
      <trkpt lat="45.8035" lon="2.97109">
        <ele>1045</ele>
        <time>2015-10-17T15:48:16Z</time>
      </trkpt>
      <trkpt lat="45.80338" lon="2.97058">
        <ele>1046</ele>
        <time>2015-10-17T15:50:16Z</time>
      </trkpt>
      <trkpt lat="45.8033" lon="2.97011">
        <ele>1044</ele>
        <time>2015-10-17T15:52:16Z</time>
      </trkpt>
      <trkpt lat="45.80312" lon="2.96968">
        <ele>1046</ele>
        <time>2015-10-17T15:54:16Z</time>
      </trkpt>
      <trkpt lat="45.80303" lon="2.96918">
        <ele>1045</ele>
        <time>2015-10-17T15:56:16Z</time>
      </trkpt>
      <trkpt lat="45.80272" lon="2.96818">
        <ele>1048</ele>
        <time>2015-10-17T15:58:16Z</time>
      </trkpt>
      <trkpt lat="45.80259" lon="2.96766">
        <ele>1047</ele>
        <time>2015-10-17T16:00:16Z</time>
      </trkpt>
      <trkpt lat="45.80235" lon="2.96702">
        <ele>1047</ele>
        <time>2015-10-17T16:02:16Z</time>
      </trkpt>
      <trkpt lat="45.80214" lon="2.96669">
        <ele>1047</ele>
        <time>2015-10-17T16:04:16Z</time>
      </trkpt>
      <trkpt lat="45.80265" lon="2.96723">
        <ele>1046</ele>
        <time>2015-10-17T16:06:16Z</time>
      </trkpt>
      <trkpt lat="45.80248" lon="2.96674">
        <ele>1045</ele>
        <time>2015-10-17T16:08:16Z</time>
      </trkpt>
      <trkpt lat="45.8022" lon="2.96642">
        <ele>1047</ele>
        <time>2015-10-17T16:10:16Z</time>
      </trkpt>
      <trkpt lat="45.80205" lon="2.96631">
        <ele>1047</ele>
        <time>2015-10-17T16:12:16Z</time>
      </trkpt>
      <trkpt lat="45.80184" lon="2.96579">
        <ele>1046</ele>
        <time>2015-10-17T16:14:16Z</time>
      </trkpt>
      <trkpt lat="45.80149" lon="2.96457">
        <ele>1047</ele>
        <time>2015-10-17T16:16:16Z</time>
      </trkpt>
      <trkpt lat="45.80124" lon="2.96416">
        <ele>1047</ele>
        <time>2015-10-17T16:18:16Z</time>
      </trkpt>
      <trkpt lat="45.80112" lon="2.9638">
        <ele>1047</ele>
        <time>2015-10-17T16:20:16Z</time>
      </trkpt>
      <trkpt lat="45.80088" lon="2.9632">
        <ele>1044</ele>
        <time>2015-10-17T16:22:16Z</time>
      </trkpt>
      <trkpt lat="45.80067" lon="2.9629">
        <ele>1043</ele>
        <time>2015-10-17T16:24:16Z</time>
      </trkpt>
      <trkpt lat="45.80051" lon="2.96247">
        <ele>1042</ele>
        <time>2015-10-17T16:26:16Z</time>
      </trkpt>
      <trkpt lat="45.80036" lon="2.96193">
        <ele>1041</ele>
        <time>2015-10-17T16:28:16Z</time>
      </trkpt>
      <trkpt lat="45.80027" lon="2.96137">
        <ele>1040</ele>
        <time>2015-10-17T16:30:16Z</time>
      </trkpt>
      <trkpt lat="45.80016" lon="2.96122">
        <ele>1040</ele>
        <time>2015-10-17T16:32:16Z</time>
      </trkpt>
      <trkpt lat="45.80024" lon="2.96024">
        <ele>1035</ele>
        <time>2015-10-17T16:34:16Z</time>
      </trkpt>
      <trkpt lat="45.80021" lon="2.95903">
        <ele>1029</ele>
        <time>2015-10-17T16:36:16Z</time>
      </trkpt>
      <trkpt lat="45.80021" lon="2.95828">
        <ele>1025</ele>
        <time>2015-10-17T16:38:16Z</time>
      </trkpt>
      <trkpt lat="45.80013" lon="2.95727">
        <ele>1018</ele>
        <time>2015-10-17T16:40:16Z</time>
      </trkpt>
      <trkpt lat="45.80003" lon="2.95697">
        <ele>1016</ele>
        <time>2015-10-17T16:42:16Z</time>
      </trkpt>
      <trkpt lat="45.79991" lon="2.9565">
        <ele>1015</ele>
        <time>2015-10-17T16:44:16Z</time>
      </trkpt>
      <trkpt lat="45.79992" lon="2.95601">
        <ele>1013</ele>
        <time>2015-10-17T16:46:16Z</time>
      </trkpt>
      <trkpt lat="45.79953" lon="2.95556">
        <ele>1013</ele>
        <time>2015-10-17T16:48:16Z</time>
      </trkpt>
      <trkpt lat="45.79922" lon="2.95506">
        <ele>1009</ele>
        <time>2015-10-17T16:50:16Z</time>
      </trkpt>
      <trkpt lat="45.79904" lon="2.95466">
        <ele>1007</ele>
        <time>2015-10-17T16:52:16Z</time>
      </trkpt>
      <trkpt lat="45.79897" lon="2.95442">
        <ele>1006</ele>
        <time>2015-10-17T16:54:16Z</time>
      </trkpt>
      <trkpt lat="45.79858" lon="2.95403">
        <ele>1005</ele>
        <time>2015-10-17T16:56:16Z</time>
      </trkpt>
      <trkpt lat="45.79805" lon="2.95352">
        <ele>1006</ele>
        <time>2015-10-17T16:58:16Z</time>
      </trkpt>
      <trkpt lat="45.79778" lon="2.95322">
        <ele>1005</ele>
        <time>2015-10-17T17:00:16Z</time>
      </trkpt>
      <trkpt lat="45.79754" lon="2.9529">
        <ele>1005</ele>
        <time>2015-10-17T17:02:16Z</time>
      </trkpt>
      <trkpt lat="45.7973" lon="2.95266">
        <ele>1006</ele>
        <time>2015-10-17T17:04:16Z</time>
      </trkpt>
      <trkpt lat="45.79668" lon="2.95187">
        <ele>1007</ele>
        <time>2015-10-17T17:06:16Z</time>
      </trkpt>
      <trkpt lat="45.79633" lon="2.95137">
        <ele>1011</ele>
        <time>2015-10-17T17:08:16Z</time>
      </trkpt>
      <trkpt lat="45.79603" lon="2.95077">
        <ele>1014</ele>
        <time>2015-10-17T17:10:16Z</time>
      </trkpt>
      <trkpt lat="45.79582" lon="2.95049">
        <ele>1016</ele>
        <time>2015-10-17T17:12:16Z</time>
      </trkpt>
      <trkpt lat="45.79551" lon="2.95006">
        <ele>1021</ele>
        <time>2015-10-17T17:14:16Z</time>
      </trkpt>
      <trkpt lat="45.79531" lon="2.94961">
        <ele>1024</ele>
        <time>2015-10-17T17:16:16Z</time>
      </trkpt>
      <trkpt lat="45.79511" lon="2.94921">
        <ele>1024</ele>
        <time>2015-10-17T17:18:16Z</time>
      </trkpt>
      <trkpt lat="45.7947" lon="2.9488">
        <ele>1031</ele>
        <time>2015-10-17T17:20:16Z</time>
      </trkpt>
      <trkpt lat="45.79437" lon="2.94813">
        <ele>1034</ele>
        <time>2015-10-17T17:22:16Z</time>
      </trkpt>
      <trkpt lat="45.79401" lon="2.94785">
        <ele>1034</ele>
        <time>2015-10-17T17:24:16Z</time>
      </trkpt>
      <trkpt lat="45.79356" lon="2.94715">
        <ele>1036</ele>
        <time>2015-10-17T17:26:16Z</time>
      </trkpt>
      <trkpt lat="45.79327" lon="2.94693">
        <ele>1033</ele>
        <time>2015-10-17T17:28:16Z</time>
      </trkpt>
      <trkpt lat="45.79298" lon="2.94652">
        <ele>1035</ele>
        <time>2015-10-17T17:30:16Z</time>
      </trkpt>
      <trkpt lat="45.79285" lon="2.9461">
        <ele>1037</ele>
        <time>2015-10-17T17:32:16Z</time>
      </trkpt>
      <trkpt lat="45.79271" lon="2.94583">
        <ele>1036</ele>
        <time>2015-10-17T17:34:16Z</time>
      </trkpt>
      <trkpt lat="45.7926" lon="2.94545">
        <ele>1036</ele>
        <time>2015-10-17T17:36:16Z</time>
      </trkpt>
      <trkpt lat="45.79244" lon="2.94502">
        <ele>1035</ele>
        <time>2015-10-17T17:38:16Z</time>
      </trkpt>
      <trkpt lat="45.79229" lon="2.94457">
        <ele>1038</ele>
        <time>2015-10-17T17:40:16Z</time>
      </trkpt>
      <trkpt lat="45.79214" lon="2.94399">
        <ele>1040</ele>
        <time>2015-10-17T17:42:16Z</time>
      </trkpt>
      <trkpt lat="45.79196" lon="2.94332">
        <ele>1039</ele>
        <time>2015-10-17T17:44:16Z</time>
      </trkpt>
      <trkpt lat="45.79184" lon="2.94275">
        <ele>1037</ele>
        <time>2015-10-17T17:46:16Z</time>
      </trkpt>
      <trkpt lat="45.79175" lon="2.94219">
        <ele>1036</ele>
        <time>2015-10-17T17:48:16Z</time>
      </trkpt>
      <trkpt lat="45.79167" lon="2.9415">
        <ele>1034</ele>
        <time>2015-10-17T17:50:16Z</time>
      </trkpt>
      <trkpt lat="45.79164" lon="2.94105">
        <ele>1033</ele>
        <time>2015-10-17T17:52:16Z</time>
      </trkpt>
      <trkpt lat="45.7917" lon="2.94066">
        <ele>1032</ele>
        <time>2015-10-17T17:54:16Z</time>
      </trkpt>
      <trkpt lat="45.79164" lon="2.94021">
        <ele>1031</ele>
        <time>2015-10-17T17:56:16Z</time>
      </trkpt>
      <trkpt lat="45.79181" lon="2.93978">
        <ele>1032</ele>
        <time>2015-10-17T17:58:16Z</time>
      </trkpt>
      <trkpt lat="45.79203" lon="2.93953">
        <ele>1037</ele>
        <time>2015-10-17T18:00:16Z</time>
      </trkpt>
      <trkpt lat="45.7922" lon="2.93916">
        <ele>1038</ele>
        <time>2015-10-17T18:02:16Z</time>
      </trkpt>
      <trkpt lat="45.79245" lon="2.93863">
        <ele>1038</ele>
        <time>2015-10-17T18:04:16Z</time>
      </trkpt>
      <trkpt lat="45.79278" lon="2.93822">
        <ele>1047</ele>
        <time>2015-10-17T18:06:16Z</time>
      </trkpt>
      <trkpt lat="45.79294" lon="2.93798">
        <ele>1049</ele>
        <time>2015-10-17T18:08:16Z</time>
      </trkpt>
      <trkpt lat="45.79311" lon="2.93779">
        <ele>1053</ele>
        <time>2015-10-17T18:10:16Z</time>
      </trkpt>
      <trkpt lat="45.79329" lon="2.93757">
        <ele>1056</ele>
        <time>2015-10-17T18:12:16Z</time>
      </trkpt>
      <trkpt lat="45.79353" lon="2.93736">
        <ele>1063</ele>
        <time>2015-10-17T18:14:16Z</time>
      </trkpt>
      <trkpt lat="45.79372" lon="2.93719">
        <ele>1069</ele>
        <time>2015-10-17T18:16:16Z</time>
      </trkpt>
      <trkpt lat="45.79399" lon="2.93704">
        <ele>1078</ele>
        <time>2015-10-17T18:18:16Z</time>
      </trkpt>
      <trkpt lat="45.79426" lon="2.93695">
        <ele>1087</ele>
        <time>2015-10-17T18:20:16Z</time>
      </trkpt>
      <trkpt lat="45.79468" lon="2.93678">
        <ele>1097</ele>
        <time>2015-10-17T18:22:16Z</time>
      </trkpt>
      <trkpt lat="45.79504" lon="2.93669">
        <ele>1107</ele>
        <time>2015-10-17T18:24:16Z</time>
      </trkpt>
      <trkpt lat="45.79543" lon="2.93667">
        <ele>1114</ele>
        <time>2015-10-17T18:26:16Z</time>
      </trkpt>
      <trkpt lat="45.79582" lon="2.93678">
        <ele>1126</ele>
        <time>2015-10-17T18:28:16Z</time>
      </trkpt>
      <trkpt lat="45.79622" lon="2.93702">
        <ele>1135</ele>
        <time>2015-10-17T18:30:16Z</time>
      </trkpt>
      <trkpt lat="45.79677" lon="2.93764">
        <ele>1153</ele>
        <time>2015-10-17T18:32:16Z</time>
      </trkpt>
      <trkpt lat="45.79701" lon="2.93802">
        <ele>1158</ele>
        <time>2015-10-17T18:34:16Z</time>
      </trkpt>
      <trkpt lat="45.79692" lon="2.9385">
        <ele>1167</ele>
        <time>2015-10-17T18:36:16Z</time>
      </trkpt>
      <trkpt lat="45.79706" lon="2.93893">
        <ele>1172</ele>
        <time>2015-10-17T18:38:16Z</time>
      </trkpt>
      <trkpt lat="45.79712" lon="2.93929">
        <ele>1177</ele>
        <time>2015-10-17T18:40:16Z</time>
      </trkpt>
      <trkpt lat="45.79705" lon="2.9397">
        <ele>1183</ele>
        <time>2015-10-17T18:42:16Z</time>
      </trkpt>
      <trkpt lat="45.79682" lon="2.9397">
        <ele>1184</ele>
        <time>2015-10-17T18:44:16Z</time>
      </trkpt>
      <trkpt lat="45.79656" lon="2.9397">
        <ele>1186</ele>
        <time>2015-10-17T18:46:16Z</time>
      </trkpt>
      <trkpt lat="45.79639" lon="2.93979">
        <ele>1189</ele>
        <time>2015-10-17T18:48:16Z</time>
      </trkpt>
      <trkpt lat="45.79613" lon="2.9399">
        <ele>1194</ele>
        <time>2015-10-17T18:50:16Z</time>
      </trkpt>
      <trkpt lat="45.79592" lon="2.94005">
        <ele>1198</ele>
        <time>2015-10-17T18:52:16Z</time>
      </trkpt>
      <trkpt lat="45.79577" lon="2.94061">
        <ele>1201</ele>
        <time>2015-10-17T18:54:16Z</time>
      </trkpt>
      <trkpt lat="45.79564" lon="2.94103">
        <ele>1202</ele>
        <time>2015-10-17T18:56:16Z</time>
      </trkpt>
      <trkpt lat="45.79576" lon="2.94168">
        <ele>1213</ele>
        <time>2015-10-17T18:58:16Z</time>
      </trkpt>
      <trkpt lat="45.79601" lon="2.94228">
        <ele>1222</ele>
        <time>2015-10-17T19:00:16Z</time>
      </trkpt>
      <trkpt lat="45.79643" lon="2.94262">
        <ele>1229</ele>
        <time>2015-10-17T19:02:16Z</time>
      </trkpt>
      <trkpt lat="45.79694" lon="2.94275">
        <ele>1233</ele>
        <time>2015-10-17T19:04:16Z</time>
      </trkpt>
      <trkpt lat="45.79739" lon="2.94247">
        <ele>1230</ele>
        <time>2015-10-17T19:06:16Z</time>
      </trkpt>
      <trkpt lat="45.79764" lon="2.94189">
        <ele>1217</ele>
        <time>2015-10-17T19:08:16Z</time>
      </trkpt>
      <trkpt lat="45.79775" lon="2.94121">
        <ele>1204</ele>
        <time>2015-10-17T19:10:16Z</time>
      </trkpt>
      <trkpt lat="45.79764" lon="2.94052">
        <ele>1192</ele>
        <time>2015-10-17T19:12:16Z</time>
      </trkpt>
      <trkpt lat="45.79737" lon="2.94">
        <ele>1186</ele>
        <time>2015-10-17T19:14:16Z</time>
      </trkpt>
      <trkpt lat="45.79709" lon="2.93981">
        <ele>1185</ele>
        <time>2015-10-17T19:16:16Z</time>
      </trkpt>
      <trkpt lat="45.79709" lon="2.93953">
        <ele>1181</ele>
        <time>2015-10-17T19:18:16Z</time>
      </trkpt>
      <trkpt lat="45.79709" lon="2.93908">
        <ele>1174</ele>
        <time>2015-10-17T19:20:16Z</time>
      </trkpt>
      <trkpt lat="45.79696" lon="2.93876">
        <ele>1170</ele>
        <time>2015-10-17T19:22:16Z</time>
      </trkpt>
      <trkpt lat="45.79696" lon="2.93831">
        <ele>1164</ele>
        <time>2015-10-17T19:24:16Z</time>
      </trkpt>
      <trkpt lat="45.7969" lon="2.93782">
        <ele>1155</ele>
        <time>2015-10-17T19:26:16Z</time>
      </trkpt>
      <trkpt lat="45.79658" lon="2.93747">
        <ele>1150</ele>
        <time>2015-10-17T19:28:16Z</time>
      </trkpt>
      <trkpt lat="45.79636" lon="2.93713">
        <ele>1139</ele>
        <time>2015-10-17T19:30:16Z</time>
      </trkpt>
      <trkpt lat="45.79594" lon="2.93683">
        <ele>1128</ele>
        <time>2015-10-17T19:32:16Z</time>
      </trkpt>
      <trkpt lat="45.79574" lon="2.93661">
        <ele>1118</ele>
        <time>2015-10-17T19:34:16Z</time>
      </trkpt>
      <trkpt lat="45.79538" lon="2.93651">
        <ele>1107</ele>
        <time>2015-10-17T19:36:16Z</time>
      </trkpt>
      <trkpt lat="45.79503" lon="2.93636">
        <ele>1094</ele>
        <time>2015-10-17T19:38:16Z</time>
      </trkpt>
      <trkpt lat="45.7951" lon="2.93599">
        <ele>1082</ele>
        <time>2015-10-17T19:40:16Z</time>
      </trkpt>
      <trkpt lat="45.79535" lon="2.93599">
        <ele>1087</ele>
        <time>2015-10-17T19:42:16Z</time>
      </trkpt>
      <trkpt lat="45.79541" lon="2.93556">
        <ele>1073</ele>
        <time>2015-10-17T19:44:16Z</time>
      </trkpt>
      <trkpt lat="45.79582" lon="2.935">
        <ele>1062</ele>
        <time>2015-10-17T19:46:16Z</time>
      </trkpt>
      <trkpt lat="45.7963" lon="2.93466">
        <ele>1048</ele>
        <time>2015-10-17T19:48:16Z</time>
      </trkpt>
      <trkpt lat="45.79685" lon="2.93423">
        <ele>1029</ele>
        <time>2015-10-17T19:50:16Z</time>
      </trkpt>
      <trkpt lat="45.79661" lon="2.93363">
        <ele>1010</ele>
        <time>2015-10-17T19:52:16Z</time>
      </trkpt>
      <trkpt lat="45.79603" lon="2.93363">
        <ele>1011</ele>
        <time>2015-10-17T19:54:16Z</time>
      </trkpt>
      <trkpt lat="45.79571" lon="2.93318">
        <ele>997</ele>
        <time>2015-10-17T19:56:16Z</time>
      </trkpt>
      <trkpt lat="45.79515" lon="2.93331">
        <ele>993</ele>
        <time>2015-10-17T19:58:16Z</time>
      </trkpt>
      <trkpt lat="45.7948" lon="2.93275">
        <ele>982</ele>
        <time>2015-10-17T20:00:16Z</time>
      </trkpt>
      <trkpt lat="45.79479" lon="2.93252">
        <ele>979</ele>
        <time>2015-10-17T20:02:16Z</time>
      </trkpt>
      <trkpt lat="45.79426" lon="2.93194">
        <ele>968</ele>
        <time>2015-10-17T20:04:16Z</time>
      </trkpt>
      <trkpt lat="45.79398" lon="2.93125">
        <ele>962</ele>
        <time>2015-10-17T20:06:16Z</time>
      </trkpt>
      <trkpt lat="45.7938" lon="2.9323">
        <ele>964</ele>
        <time>2015-10-17T20:08:16Z</time>
      </trkpt>
      <trkpt lat="45.79369" lon="2.93316">
        <ele>969</ele>
        <time>2015-10-17T20:10:16Z</time>
      </trkpt>
      <trkpt lat="45.79339" lon="2.93365">
        <ele>971</ele>
        <time>2015-10-17T20:12:16Z</time>
      </trkpt>
      <trkpt lat="45.79307" lon="2.93404">
        <ele>972</ele>
        <time>2015-10-17T20:14:16Z</time>
      </trkpt>
      <trkpt lat="45.79269" lon="2.93434">
        <ele>971</ele>
        <time>2015-10-17T20:16:16Z</time>
      </trkpt>
      <trkpt lat="45.79254" lon="2.93453">
        <ele>971</ele>
        <time>2015-10-17T20:18:16Z</time>
      </trkpt>
      <trkpt lat="45.79215" lon="2.93531">
        <ele>976</ele>
        <time>2015-10-17T20:20:16Z</time>
      </trkpt>
      <trkpt lat="45.79215" lon="2.93565">
        <ele>980</ele>
        <time>2015-10-17T20:22:16Z</time>
      </trkpt>
      <trkpt lat="45.79202" lon="2.93614">
        <ele>984</ele>
        <time>2015-10-17T20:24:16Z</time>
      </trkpt>
      <trkpt lat="45.79179" lon="2.93657">
        <ele>986</ele>
        <time>2015-10-17T20:26:16Z</time>
      </trkpt>
      <trkpt lat="45.79172" lon="2.93741">
        <ele>1003</ele>
        <time>2015-10-17T20:28:16Z</time>
      </trkpt>
      <trkpt lat="45.79164" lon="2.93803">
        <ele>1013</ele>
        <time>2015-10-17T20:30:16Z</time>
      </trkpt>
      <trkpt lat="45.79161" lon="2.93878">
        <ele>1022</ele>
        <time>2015-10-17T20:32:16Z</time>
      </trkpt>
      <trkpt lat="45.79161" lon="2.93949">
        <ele>1028</ele>
        <time>2015-10-17T20:34:16Z</time>
      </trkpt>
      <trkpt lat="45.79163" lon="2.93992">
        <ele>1030</ele>
        <time>2015-10-17T20:36:16Z</time>
      </trkpt>
      <trkpt lat="45.79166" lon="2.94046">
        <ele>1031</ele>
        <time>2015-10-17T20:38:16Z</time>
      </trkpt>
      <trkpt lat="45.79167" lon="2.94129">
        <ele>1033</ele>
        <time>2015-10-17T20:40:16Z</time>
      </trkpt>
      <trkpt lat="45.79166" lon="2.94196">
        <ele>1034</ele>
        <time>2015-10-17T20:42:16Z</time>
      </trkpt>
      <trkpt lat="45.7917" lon="2.94254">
        <ele>1034</ele>
        <time>2015-10-17T20:44:16Z</time>
      </trkpt>
      <trkpt lat="45.79191" lon="2.94303">
        <ele>1038</ele>
        <time>2015-10-17T20:46:16Z</time>
      </trkpt>
      <trkpt lat="45.79205" lon="2.94372">
        <ele>1040</ele>
        <time>2015-10-17T20:48:16Z</time>
      </trkpt>
      <trkpt lat="45.79223" lon="2.94434">
        <ele>1040</ele>
        <time>2015-10-17T20:50:16Z</time>
      </trkpt>
      <trkpt lat="45.79235" lon="2.94485">
        <ele>1036</ele>
        <time>2015-10-17T20:52:16Z</time>
      </trkpt>
      <trkpt lat="45.79251" lon="2.94524">
        <ele>1034</ele>
        <time>2015-10-17T20:54:16Z</time>
      </trkpt>
      <trkpt lat="45.79263" lon="2.94561">
        <ele>1035</ele>
        <time>2015-10-17T20:56:16Z</time>
      </trkpt>
      <trkpt lat="45.79277" lon="2.94597">
        <ele>1036</ele>
        <time>2015-10-17T20:58:16Z</time>
      </trkpt>
      <trkpt lat="45.7929" lon="2.94629">
        <ele>1036</ele>
        <time>2015-10-17T21:00:16Z</time>
      </trkpt>
      <trkpt lat="45.79259" lon="2.94582">
        <ele>1033</ele>
        <time>2015-10-17T21:02:16Z</time>
      </trkpt>
      <trkpt lat="45.79232" lon="2.94541">
        <ele>1034</ele>
        <time>2015-10-17T21:04:16Z</time>
      </trkpt>
      <trkpt lat="45.79208" lon="2.94505">
        <ele>1036</ele>
        <time>2015-10-17T21:06:16Z</time>
      </trkpt>
      <trkpt lat="45.79172" lon="2.94468">
        <ele>1036</ele>
        <time>2015-10-17T21:08:16Z</time>
      </trkpt>
      <trkpt lat="45.79143" lon="2.94445">
        <ele>1038</ele>
        <time>2015-10-17T21:10:16Z</time>
      </trkpt>
      <trkpt lat="45.79126" lon="2.9443">
        <ele>1039</ele>
        <time>2015-10-17T21:12:16Z</time>
      </trkpt>
      <trkpt lat="45.79084" lon="2.94436">
        <ele>1042</ele>
        <time>2015-10-17T21:14:16Z</time>
      </trkpt>
      <trkpt lat="45.79051" lon="2.9441">
        <ele>1044</ele>
        <time>2015-10-17T21:16:16Z</time>
      </trkpt>
      <trkpt lat="45.79015" lon="2.94402">
        <ele>1048</ele>
        <time>2015-10-17T21:18:16Z</time>
      </trkpt>
      <trkpt lat="45.78985" lon="2.9441">
        <ele>1048</ele>
        <time>2015-10-17T21:20:16Z</time>
      </trkpt>
      <trkpt lat="45.78949" lon="2.94406">
        <ele>1050</ele>
        <time>2015-10-17T21:22:16Z</time>
      </trkpt>
      <trkpt lat="45.78913" lon="2.94408">
        <ele>1051</ele>
        <time>2015-10-17T21:24:16Z</time>
      </trkpt>
      <trkpt lat="45.78889" lon="2.944">
        <ele>1050</ele>
        <time>2015-10-17T21:26:16Z</time>
      </trkpt>
      <trkpt lat="45.7885" lon="2.94419">
        <ele>1047</ele>
        <time>2015-10-17T21:28:16Z</time>
      </trkpt>
      <trkpt lat="45.78813" lon="2.94447">
        <ele>1045</ele>
        <time>2015-10-17T21:30:16Z</time>
      </trkpt>
      <trkpt lat="45.78781" lon="2.94453">
        <ele>1043</ele>
        <time>2015-10-17T21:32:16Z</time>
      </trkpt>
      <trkpt lat="45.78741" lon="2.94447">
        <ele>1041</ele>
        <time>2015-10-17T21:34:16Z</time>
      </trkpt>
      <trkpt lat="45.78708" lon="2.94451">
        <ele>1040</ele>
        <time>2015-10-17T21:36:16Z</time>
      </trkpt>
      <trkpt lat="45.7868" lon="2.94475">
        <ele>1039</ele>
        <time>2015-10-17T21:38:16Z</time>
      </trkpt>
      <trkpt lat="45.7866" lon="2.94505">
        <ele>1040</ele>
        <time>2015-10-17T21:40:16Z</time>
      </trkpt>
      <trkpt lat="45.78645" lon="2.94526">
        <ele>1042</ele>
        <time>2015-10-17T21:42:16Z</time>
      </trkpt>
      <trkpt lat="45.78629" lon="2.94554">
        <ele>1044</ele>
        <time>2015-10-17T21:44:16Z</time>
      </trkpt>
      <trkpt lat="45.78617" lon="2.9458">
        <ele>1045</ele>
        <time>2015-10-17T21:46:16Z</time>
      </trkpt>
      <trkpt lat="45.78606" lon="2.94612">
        <ele>1046</ele>
        <time>2015-10-17T21:48:16Z</time>
      </trkpt>
      <trkpt lat="45.78609" lon="2.94689">
        <ele>1048</ele>
        <time>2015-10-17T21:50:16Z</time>
      </trkpt>
      <trkpt lat="45.78612" lon="2.94745">
        <ele>1048</ele>
        <time>2015-10-17T21:52:16Z</time>
      </trkpt>
      <trkpt lat="45.78621" lon="2.94794">
        <ele>1050</ele>
        <time>2015-10-17T21:54:16Z</time>
      </trkpt>
      <trkpt lat="45.7863" lon="2.9485">
        <ele>1053</ele>
        <time>2015-10-17T21:56:16Z</time>
      </trkpt>
      <trkpt lat="45.78642" lon="2.94897">
        <ele>1054</ele>
        <time>2015-10-17T21:58:16Z</time>
      </trkpt>
      <trkpt lat="45.7865" lon="2.94932">
        <ele>1056</ele>
        <time>2015-10-17T22:00:16Z</time>
      </trkpt>
      <trkpt lat="45.78623" lon="2.95035">
        <ele>1063</ele>
        <time>2015-10-17T22:02:16Z</time>
      </trkpt>
      <trkpt lat="45.78624" lon="2.95071">
        <ele>1066</ele>
        <time>2015-10-17T22:04:16Z</time>
      </trkpt>
      <trkpt lat="45.78633" lon="2.95138">
        <ele>1072</ele>
        <time>2015-10-17T22:06:16Z</time>
      </trkpt>
      <trkpt lat="45.78621" lon="2.95196">
        <ele>1074</ele>
        <time>2015-10-17T22:08:16Z</time>
      </trkpt>
      <trkpt lat="45.78612" lon="2.95251">
        <ele>1073</ele>
        <time>2015-10-17T22:10:16Z</time>
      </trkpt>
      <trkpt lat="45.78605" lon="2.95335">
        <ele>1071</ele>
        <time>2015-10-17T22:12:16Z</time>
      </trkpt>
      <trkpt lat="45.78611" lon="2.95376">
        <ele>1072</ele>
        <time>2015-10-17T22:14:16Z</time>
      </trkpt>
      <trkpt lat="45.78609" lon="2.95421">
        <ele>1071</ele>
        <time>2015-10-17T22:16:16Z</time>
      </trkpt>
      <trkpt lat="45.78596" lon="2.95481">
        <ele>1069</ele>
        <time>2015-10-17T22:18:16Z</time>
      </trkpt>
      <trkpt lat="45.78591" lon="2.95537">
        <ele>1068</ele>
        <time>2015-10-17T22:20:16Z</time>
      </trkpt>
      <trkpt lat="45.78591" lon="2.95601">
        <ele>1068</ele>
        <time>2015-10-17T22:22:16Z</time>
      </trkpt>
      <trkpt lat="45.78579" lon="2.95659">
        <ele>1067</ele>
        <time>2015-10-17T22:24:16Z</time>
      </trkpt>
      <trkpt lat="45.78582" lon="2.95734">
        <ele>1070</ele>
        <time>2015-10-17T22:26:16Z</time>
      </trkpt>
      <trkpt lat="45.78585" lon="2.95792">
        <ele>1072</ele>
        <time>2015-10-17T22:28:16Z</time>
      </trkpt>
      <trkpt lat="45.7859" lon="2.95867">
        <ele>1075</ele>
        <time>2015-10-17T22:30:16Z</time>
      </trkpt>
      <trkpt lat="45.786" lon="2.95927">
        <ele>1079</ele>
        <time>2015-10-17T22:32:16Z</time>
      </trkpt>
      <trkpt lat="45.78615" lon="2.95985">
        <ele>1085</ele>
        <time>2015-10-17T22:34:16Z</time>
      </trkpt>
      <trkpt lat="45.78632" lon="2.96035">
        <ele>1089</ele>
        <time>2015-10-17T22:36:16Z</time>
      </trkpt>
      <trkpt lat="45.78647" lon="2.9609">
        <ele>1094</ele>
        <time>2015-10-17T22:38:16Z</time>
      </trkpt>
      <trkpt lat="45.78675" lon="2.96138">
        <ele>1101</ele>
        <time>2015-10-17T22:40:16Z</time>
      </trkpt>
      <trkpt lat="45.78707" lon="2.96202">
        <ele>1112</ele>
        <time>2015-10-17T22:42:16Z</time>
      </trkpt>
      <trkpt lat="45.78728" lon="2.96262">
        <ele>1120</ele>
        <time>2015-10-17T22:44:16Z</time>
      </trkpt>
      <trkpt lat="45.78757" lon="2.96341">
        <ele>1129</ele>
        <time>2015-10-17T22:46:16Z</time>
      </trkpt>
      <trkpt lat="45.78793" lon="2.96303">
        <ele>1134</ele>
        <time>2015-10-17T22:48:16Z</time>
      </trkpt>
      <trkpt lat="45.78819" lon="2.96249">
        <ele>1139</ele>
        <time>2015-10-17T22:50:16Z</time>
      </trkpt>
      <trkpt lat="45.78823" lon="2.9617">
        <ele>1144</ele>
        <time>2015-10-17T22:52:16Z</time>
      </trkpt>
      <trkpt lat="45.78819" lon="2.96103">
        <ele>1144</ele>
        <time>2015-10-17T22:54:16Z</time>
      </trkpt>
      <trkpt lat="45.78814" lon="2.96054">
        <ele>1144</ele>
        <time>2015-10-17T22:56:16Z</time>
      </trkpt>
      <trkpt lat="45.78814" lon="2.95994">
        <ele>1145</ele>
        <time>2015-10-17T22:58:16Z</time>
      </trkpt>
      <trkpt lat="45.78838" lon="2.9594">
        <ele>1151</ele>
        <time>2015-10-17T23:00:16Z</time>
      </trkpt>
      <trkpt lat="45.78876" lon="2.95874">
        <ele>1156</ele>
        <time>2015-10-17T23:02:16Z</time>
      </trkpt>
      <trkpt lat="45.78897" lon="2.95839">
        <ele>1159</ele>
        <time>2015-10-17T23:04:16Z</time>
      </trkpt>
      <trkpt lat="45.78946" lon="2.95863">
        <ele>1168</ele>
        <time>2015-10-17T23:06:16Z</time>
      </trkpt>
      <trkpt lat="45.79004" lon="2.95889">
        <ele>1170</ele>
        <time>2015-10-17T23:08:16Z</time>
      </trkpt>
      <trkpt lat="45.78994" lon="2.9594">
        <ele>1171</ele>
        <time>2015-10-17T23:10:16Z</time>
      </trkpt>
      <trkpt lat="45.78974" lon="2.96037">
        <ele>1184</ele>
        <time>2015-10-17T23:12:16Z</time>
      </trkpt>
      <trkpt lat="45.78991" lon="2.96118">
        <ele>1190</ele>
        <time>2015-10-17T23:14:16Z</time>
      </trkpt>
      <trkpt lat="45.79006" lon="2.96181">
        <ele>1189</ele>
        <time>2015-10-17T23:16:16Z</time>
      </trkpt>
      <trkpt lat="45.79015" lon="2.96238">
        <ele>1182</ele>
        <time>2015-10-17T23:18:16Z</time>
      </trkpt>
      <trkpt lat="45.79039" lon="2.96284">
        <ele>1172</ele>
        <time>2015-10-17T23:20:16Z</time>
      </trkpt>
      <trkpt lat="45.79048" lon="2.96348">
        <ele>1162</ele>
        <time>2015-10-17T23:22:16Z</time>
      </trkpt>
      <trkpt lat="45.79064" lon="2.96395">
        <ele>1156</ele>
        <time>2015-10-17T23:24:16Z</time>
      </trkpt>
      <trkpt lat="45.79081" lon="2.96447">
        <ele>1149</ele>
        <time>2015-10-17T23:26:16Z</time>
      </trkpt>
      <trkpt lat="45.79109" lon="2.96513">
        <ele>1136</ele>
        <time>2015-10-17T23:28:16Z</time>
      </trkpt>
      <trkpt lat="45.7913" lon="2.96569">
        <ele>1128</ele>
        <time>2015-10-17T23:30:16Z</time>
      </trkpt>
      <trkpt lat="45.79157" lon="2.96623">
        <ele>1120</ele>
        <time>2015-10-17T23:32:16Z</time>
      </trkpt>
      <trkpt lat="45.79173" lon="2.96663">
        <ele>1114</ele>
        <time>2015-10-17T23:34:16Z</time>
      </trkpt>
      <trkpt lat="45.7919" lon="2.96702">
        <ele>1109</ele>
        <time>2015-10-17T23:36:16Z</time>
      </trkpt>
      <trkpt lat="45.79206" lon="2.96734">
        <ele>1104</ele>
        <time>2015-10-17T23:38:16Z</time>
      </trkpt>
      <trkpt lat="45.79236" lon="2.96766">
        <ele>1098</ele>
        <time>2015-10-17T23:40:16Z</time>
      </trkpt>
      <trkpt lat="45.79275" lon="2.96811">
        <ele>1093</ele>
        <time>2015-10-17T23:42:16Z</time>
      </trkpt>
      <trkpt lat="45.79322" lon="2.96852">
        <ele>1092</ele>
        <time>2015-10-17T23:44:16Z</time>
      </trkpt>
      <trkpt lat="45.79323" lon="2.96917">
        <ele>1092</ele>
        <time>2015-10-17T23:46:16Z</time>
      </trkpt>
      <trkpt lat="45.79348" lon="2.96977">
        <ele>1097</ele>
        <time>2015-10-17T23:48:16Z</time>
      </trkpt>
      <trkpt lat="45.79363" lon="2.97024">
        <ele>1103</ele>
        <time>2015-10-17T23:50:16Z</time>
      </trkpt>
      <trkpt lat="45.79378" lon="2.97069">
        <ele>1109</ele>
        <time>2015-10-17T23:52:16Z</time>
      </trkpt>
      <trkpt lat="45.79398" lon="2.97103">
        <ele>1117</ele>
        <time>2015-10-17T23:54:16Z</time>
      </trkpt>
      <trkpt lat="45.79431" lon="2.97148">
        <ele>1129</ele>
        <time>2015-10-17T23:56:16Z</time>
      </trkpt>
      <trkpt lat="45.79455" lon="2.972">
        <ele>1134</ele>
        <time>2015-10-17T23:58:16Z</time>
      </trkpt>
      <trkpt lat="45.79489" lon="2.97245">
        <ele>1144</ele>
        <time>2015-10-18T00:00:16Z</time>
      </trkpt>
      <trkpt lat="45.79531" lon="2.97281">
        <ele>1152</ele>
        <time>2015-10-18T00:02:16Z</time>
      </trkpt>
      <trkpt lat="45.7957" lon="2.9732">
        <ele>1163</ele>
        <time>2015-10-18T00:04:16Z</time>
      </trkpt>
      <trkpt lat="45.79612" lon="2.97331">
        <ele>1170</ele>
        <time>2015-10-18T00:06:16Z</time>
      </trkpt>
      <trkpt lat="45.79649" lon="2.97376">
        <ele>1170</ele>
        <time>2015-10-18T00:08:16Z</time>
      </trkpt>
      <trkpt lat="45.79712" lon="2.97371">
        <ele>1168</ele>
        <time>2015-10-18T00:10:16Z</time>
      </trkpt>
      <trkpt lat="45.79761" lon="2.97337">
        <ele>1164</ele>
        <time>2015-10-18T00:12:16Z</time>
      </trkpt>
      <trkpt lat="45.79791" lon="2.97294">
        <ele>1156</ele>
        <time>2015-10-18T00:14:16Z</time>
      </trkpt>
      <trkpt lat="45.79809" lon="2.97238">
        <ele>1152</ele>
        <time>2015-10-18T00:16:16Z</time>
      </trkpt>
      <trkpt lat="45.79812" lon="2.9718">
        <ele>1147</ele>
        <time>2015-10-18T00:18:16Z</time>
      </trkpt>
      <trkpt lat="45.79808" lon="2.97125">
        <ele>1145</ele>
        <time>2015-10-18T00:20:16Z</time>
      </trkpt>
      <trkpt lat="45.79835" lon="2.97176">
        <ele>1149</ele>
        <time>2015-10-18T00:22:16Z</time>
      </trkpt>
      <trkpt lat="45.79853" lon="2.97238">
        <ele>1145</ele>
        <time>2015-10-18T00:24:16Z</time>
      </trkpt>
      <trkpt lat="45.79854" lon="2.9732">
        <ele>1144</ele>
        <time>2015-10-18T00:26:16Z</time>
      </trkpt>
      <trkpt lat="45.79854" lon="2.97401">
        <ele>1136</ele>
        <time>2015-10-18T00:28:16Z</time>
      </trkpt>
      <trkpt lat="45.79847" lon="2.97472">
        <ele>1129</ele>
        <time>2015-10-18T00:30:16Z</time>
      </trkpt>
      <trkpt lat="45.79835" lon="2.97526">
        <ele>1124</ele>
        <time>2015-10-18T00:32:16Z</time>
      </trkpt>
      <trkpt lat="45.79821" lon="2.97584">
        <ele>1115</ele>
        <time>2015-10-18T00:34:16Z</time>
      </trkpt>
      <trkpt lat="45.79799" lon="2.97642">
        <ele>1106</ele>
        <time>2015-10-18T00:36:16Z</time>
      </trkpt>
      <trkpt lat="45.79775" lon="2.97695">
        <ele>1096</ele>
        <time>2015-10-18T00:38:16Z</time>
      </trkpt>
      <trkpt lat="45.7974" lon="2.97751">
        <ele>1083</ele>
        <time>2015-10-18T00:40:16Z</time>
      </trkpt>
      <trkpt lat="45.7979" lon="2.97743">
        <ele>1086</ele>
        <time>2015-10-18T00:42:16Z</time>
      </trkpt>
      <trkpt lat="45.7976" lon="2.97822">
        <ele>1070</ele>
        <time>2015-10-18T00:44:16Z</time>
      </trkpt>
      <trkpt lat="45.79818" lon="2.97811">
        <ele>1074</ele>
        <time>2015-10-18T00:46:16Z</time>
      </trkpt>
      <trkpt lat="45.79887" lon="2.97809">
        <ele>1073</ele>
        <time>2015-10-18T00:48:16Z</time>
      </trkpt>
      <trkpt lat="45.79947" lon="2.97792">
        <ele>1073</ele>
        <time>2015-10-18T00:50:16Z</time>
      </trkpt>
      <trkpt lat="45.7999" lon="2.97753">
        <ele>1076</ele>
        <time>2015-10-18T00:52:16Z</time>
      </trkpt>
      <trkpt lat="45.79996" lon="2.97687">
        <ele>1076</ele>
        <time>2015-10-18T00:54:16Z</time>
      </trkpt>
      <trkpt lat="45.80022" lon="2.9764">
        <ele>1071</ele>
        <time>2015-10-18T00:56:16Z</time>
      </trkpt>
      <trkpt lat="45.80031" lon="2.97592">
        <ele>1068</ele>
        <time>2015-10-18T00:58:16Z</time>
      </trkpt>
      <trkpt lat="45.80035" lon="2.97524">
        <ele>1068</ele>
        <time>2015-10-18T01:00:16Z</time>
      </trkpt>
      <trkpt lat="45.80037" lon="2.97479">
        <ele>1069</ele>
        <time>2015-10-18T01:02:16Z</time>
      </trkpt>
      <trkpt lat="45.80089" lon="2.97425">
        <ele>1061</ele>
        <time>2015-10-18T01:04:16Z</time>
      </trkpt>
      <trkpt lat="45.8011" lon="2.9741">
        <ele>1060</ele>
        <time>2015-10-18T01:06:16Z</time>
      </trkpt>
      <trkpt lat="45.80122" lon="2.97459">
        <ele>1053</ele>
        <time>2015-10-18T01:08:16Z</time>
      </trkpt>
      <trkpt lat="45.80189" lon="2.97429">
        <ele>1048</ele>
        <time>2015-10-18T01:10:16Z</time>
      </trkpt>
      <trkpt lat="45.80228" lon="2.97421">
        <ele>1045</ele>
        <time>2015-10-18T01:12:16Z</time>
      </trkpt>
      <trkpt lat="45.80266" lon="2.97438">
        <ele>1037</ele>
        <time>2015-10-18T01:14:16Z</time>
      </trkpt>
      <trkpt lat="45.803" lon="2.97472">
        <ele>1029</ele>
        <time>2015-10-18T01:16:16Z</time>
      </trkpt>
      <trkpt lat="45.80358" lon="2.97474">
        <ele>1028</ele>
        <time>2015-10-18T01:18:16Z</time>
      </trkpt>
      <trkpt lat="45.80394" lon="2.97507">
        <ele>1024</ele>
        <time>2015-10-18T01:20:16Z</time>
      </trkpt>
      <trkpt lat="45.80423" lon="2.9752">
        <ele>1024</ele>
        <time>2015-10-18T01:22:16Z</time>
      </trkpt>
      <trkpt lat="45.8046" lon="2.97569">
        <ele>1023</ele>
        <time>2015-10-18T01:24:16Z</time>
      </trkpt>
      <trkpt lat="45.80453" lon="2.97631">
        <ele>1025</ele>
        <time>2015-10-18T01:26:16Z</time>
      </trkpt>
      <trkpt lat="45.80457" lon="2.97704">
        <ele>1025</ele>
        <time>2015-10-18T01:28:16Z</time>
      </trkpt>
      <trkpt lat="45.80453" lon="2.97781">
        <ele>1022</ele>
        <time>2015-10-18T01:30:16Z</time>
      </trkpt>
      <trkpt lat="45.80453" lon="2.97876">
        <ele>1017</ele>
        <time>2015-10-18T01:32:16Z</time>
      </trkpt>
      <trkpt lat="45.80442" lon="2.97964">
        <ele>1011</ele>
        <time>2015-10-18T01:34:16Z</time>
      </trkpt>
      <trkpt lat="45.80424" lon="2.98011">
        <ele>1009</ele>
        <time>2015-10-18T01:36:16Z</time>
      </trkpt>
      <trkpt lat="45.80403" lon="2.98071">
        <ele>1002</ele>
        <time>2015-10-18T01:38:16Z</time>
      </trkpt>
      <trkpt lat="45.80394" lon="2.98107">
        <ele>998</ele>
        <time>2015-10-18T01:40:16Z</time>
      </trkpt>
      <trkpt lat="45.80387" lon="2.98144">
        <ele>996</ele>
        <time>2015-10-18T01:42:16Z</time>
      </trkpt>
      <trkpt lat="45.80388" lon="2.98195">
        <ele>993</ele>
        <time>2015-10-18T01:44:16Z</time>
      </trkpt>
      <trkpt lat="45.80375" lon="2.98234">
        <ele>991</ele>
        <time>2015-10-18T01:46:16Z</time>
      </trkpt>
      <trkpt lat="45.80346" lon="2.98279">
        <ele>989</ele>
        <time>2015-10-18T01:48:16Z</time>
      </trkpt>
      <trkpt lat="45.80343" lon="2.98307">
        <ele>988</ele>
        <time>2015-10-18T01:50:16Z</time>
      </trkpt>
      <trkpt lat="45.80349" lon="2.98354">
        <ele>985</ele>
        <time>2015-10-18T01:52:16Z</time>
      </trkpt>
      <trkpt lat="45.8037" lon="2.98393">
        <ele>983</ele>
        <time>2015-10-18T01:54:16Z</time>
      </trkpt>
      <trkpt lat="45.80367" lon="2.98423">
        <ele>981</ele>
        <time>2015-10-18T01:56:16Z</time>
      </trkpt>
      <trkpt lat="45.80349" lon="2.98438">
        <ele>981</ele>
        <time>2015-10-18T01:58:16Z</time>
      </trkpt>
      <trkpt lat="45.80313" lon="2.98474">
        <ele>981</ele>
        <time>2015-10-18T02:00:16Z</time>
      </trkpt>
      <trkpt lat="45.80312" lon="2.98498">
        <ele>981</ele>
        <time>2015-10-18T02:02:16Z</time>
      </trkpt>
      <trkpt lat="45.80348" lon="2.98528">
        <ele>979</ele>
        <time>2015-10-18T02:04:16Z</time>
      </trkpt>
      <trkpt lat="45.80357" lon="2.98558">
        <ele>978</ele>
        <time>2015-10-18T02:06:16Z</time>
      </trkpt>
      <trkpt lat="45.8034" lon="2.9861">
        <ele>976</ele>
        <time>2015-10-18T02:08:16Z</time>
      </trkpt>
      <trkpt lat="45.80321" lon="2.9867">
        <ele>974</ele>
        <time>2015-10-18T02:10:16Z</time>
      </trkpt>
    </trkseg>
  </trk>
  <trk>
    <name><![CDATA[--Orcines-- OR-5370355:ser-fr03-vtt-b2]]></name>
    <trkseg>
      <trkpt lat="45.79888" lon="2.99257">
        <ele>968</ele>
        <time>2015-10-17T14:42:36Z</time>
      </trkpt>
      <trkpt lat="45.79888" lon="2.99181">
        <ele>967</ele>
        <time>2015-10-17T14:44:36Z</time>
      </trkpt>
      <trkpt lat="45.79905" lon="2.99081">
        <ele>964</ele>
        <time>2015-10-17T14:46:36Z</time>
      </trkpt>
      <trkpt lat="45.7989" lon="2.99026">
        <ele>963</ele>
        <time>2015-10-17T14:48:36Z</time>
      </trkpt>
      <trkpt lat="45.7987" lon="2.98976">
        <ele>964</ele>
        <time>2015-10-17T14:50:36Z</time>
      </trkpt>
      <trkpt lat="45.79848" lon="2.98895">
        <ele>964</ele>
        <time>2015-10-17T14:52:36Z</time>
      </trkpt>
      <trkpt lat="45.79841" lon="2.98847">
        <ele>965</ele>
        <time>2015-10-17T14:54:36Z</time>
      </trkpt>
      <trkpt lat="45.7982" lon="2.98795">
        <ele>964</ele>
        <time>2015-10-17T14:56:36Z</time>
      </trkpt>
      <trkpt lat="45.79815" lon="2.98771">
        <ele>964</ele>
        <time>2015-10-17T14:58:36Z</time>
      </trkpt>
      <trkpt lat="45.79878" lon="2.98697">
        <ele>965</ele>
        <time>2015-10-17T15:00:36Z</time>
      </trkpt>
      <trkpt lat="45.79868" lon="2.98664">
        <ele>963</ele>
        <time>2015-10-17T15:02:36Z</time>
      </trkpt>
      <trkpt lat="45.79861" lon="2.98616">
        <ele>962</ele>
        <time>2015-10-17T15:04:36Z</time>
      </trkpt>
      <trkpt lat="45.79833" lon="2.98575">
        <ele>961</ele>
        <time>2015-10-17T15:06:36Z</time>
      </trkpt>
      <trkpt lat="45.79828" lon="2.9854">
        <ele>963</ele>
        <time>2015-10-17T15:08:36Z</time>
      </trkpt>
      <trkpt lat="45.79822" lon="2.98511">
        <ele>964</ele>
        <time>2015-10-17T15:10:36Z</time>
      </trkpt>
      <trkpt lat="45.79885" lon="2.98449">
        <ele>966</ele>
        <time>2015-10-17T15:12:36Z</time>
      </trkpt>
      <trkpt lat="45.79923" lon="2.9842">
        <ele>967</ele>
        <time>2015-10-17T15:14:36Z</time>
      </trkpt>
      <trkpt lat="45.79968" lon="2.98349">
        <ele>970</ele>
        <time>2015-10-17T15:16:36Z</time>
      </trkpt>
      <trkpt lat="45.80049" lon="2.9837">
        <ele>969</ele>
        <time>2015-10-17T15:18:36Z</time>
      </trkpt>
      <trkpt lat="45.80124" lon="2.98392">
        <ele>972</ele>
        <time>2015-10-17T15:20:36Z</time>
      </trkpt>
      <trkpt lat="45.80194" lon="2.98394">
        <ele>977</ele>
        <time>2015-10-17T15:22:36Z</time>
      </trkpt>
      <trkpt lat="45.80224" lon="2.98433">
        <ele>979</ele>
        <time>2015-10-17T15:24:36Z</time>
      </trkpt>
      <trkpt lat="45.80256" lon="2.98473">
        <ele>982</ele>
        <time>2015-10-17T15:26:36Z</time>
      </trkpt>
      <trkpt lat="45.80309" lon="2.98485">
        <ele>981</ele>
        <time>2015-10-17T15:28:36Z</time>
      </trkpt>
      <trkpt lat="45.80326" lon="2.98442">
        <ele>981</ele>
        <time>2015-10-17T15:30:36Z</time>
      </trkpt>
      <trkpt lat="45.80377" lon="2.98421">
        <ele>981</ele>
        <time>2015-10-17T15:32:36Z</time>
      </trkpt>
      <trkpt lat="45.80369" lon="2.98388">
        <ele>983</ele>
        <time>2015-10-17T15:34:36Z</time>
      </trkpt>
      <trkpt lat="45.80346" lon="2.98361">
        <ele>984</ele>
        <time>2015-10-17T15:36:36Z</time>
      </trkpt>
      <trkpt lat="45.80344" lon="2.98297">
        <ele>988</ele>
        <time>2015-10-17T15:38:36Z</time>
      </trkpt>
      <trkpt lat="45.80356" lon="2.98254">
        <ele>991</ele>
        <time>2015-10-17T15:40:36Z</time>
      </trkpt>
      <trkpt lat="45.80392" lon="2.98216">
        <ele>991</ele>
        <time>2015-10-17T15:42:36Z</time>
      </trkpt>
      <trkpt lat="45.80374" lon="2.98156">
        <ele>995</ele>
        <time>2015-10-17T15:44:36Z</time>
      </trkpt>
      <trkpt lat="45.80399" lon="2.98118">
        <ele>998</ele>
        <time>2015-10-17T15:46:36Z</time>
      </trkpt>
      <trkpt lat="45.80402" lon="2.98073">
        <ele>1002</ele>
        <time>2015-10-17T15:48:36Z</time>
      </trkpt>
      <trkpt lat="45.80439" lon="2.97987">
        <ele>1010</ele>
        <time>2015-10-17T15:50:36Z</time>
      </trkpt>
      <trkpt lat="45.80454" lon="2.97918">
        <ele>1014</ele>
        <time>2015-10-17T15:52:36Z</time>
      </trkpt>
      <trkpt lat="45.80459" lon="2.97777">
        <ele>1023</ele>
        <time>2015-10-17T15:54:36Z</time>
      </trkpt>
      <trkpt lat="45.80459" lon="2.97715">
        <ele>1025</ele>
        <time>2015-10-17T15:56:36Z</time>
      </trkpt>
      <trkpt lat="45.80452" lon="2.97653">
        <ele>1026</ele>
        <time>2015-10-17T15:58:36Z</time>
      </trkpt>
      <trkpt lat="45.80466" lon="2.97579">
        <ele>1024</ele>
        <time>2015-10-17T16:00:36Z</time>
      </trkpt>
      <trkpt lat="45.80456" lon="2.9752">
        <ele>1019</ele>
        <time>2015-10-17T16:02:36Z</time>
      </trkpt>
      <trkpt lat="45.80436" lon="2.97484">
        <ele>1021</ele>
        <time>2015-10-17T16:04:36Z</time>
      </trkpt>
      <trkpt lat="45.80392" lon="2.97436">
        <ele>1029</ele>
        <time>2015-10-17T16:06:36Z</time>
      </trkpt>
      <trkpt lat="45.80381" lon="2.97343">
        <ele>1034</ele>
        <time>2015-10-17T16:08:36Z</time>
      </trkpt>
      <trkpt lat="45.80366" lon="2.97241">
        <ele>1040</ele>
        <time>2015-10-17T16:10:36Z</time>
      </trkpt>
      <trkpt lat="45.80349" lon="2.97131">
        <ele>1046</ele>
        <time>2015-10-17T16:12:36Z</time>
      </trkpt>
      <trkpt lat="45.80333" lon="2.97026">
        <ele>1044</ele>
        <time>2015-10-17T16:14:36Z</time>
      </trkpt>
      <trkpt lat="45.80313" lon="2.96971">
        <ele>1046</ele>
        <time>2015-10-17T16:16:36Z</time>
      </trkpt>
      <trkpt lat="45.80286" lon="2.96857">
        <ele>1047</ele>
        <time>2015-10-17T16:18:36Z</time>
      </trkpt>
      <trkpt lat="45.80244" lon="2.9674">
        <ele>1047</ele>
        <time>2015-10-17T16:20:36Z</time>
      </trkpt>
      <trkpt lat="45.80218" lon="2.96676">
        <ele>1047</ele>
        <time>2015-10-17T16:22:36Z</time>
      </trkpt>
      <trkpt lat="45.80194" lon="2.96652">
        <ele>1047</ele>
        <time>2015-10-17T16:24:36Z</time>
      </trkpt>
      <trkpt lat="45.80159" lon="2.96626">
        <ele>1048</ele>
        <time>2015-10-17T16:26:36Z</time>
      </trkpt>
      <trkpt lat="45.80131" lon="2.96597">
        <ele>1050</ele>
        <time>2015-10-17T16:28:36Z</time>
      </trkpt>
      <trkpt lat="45.80105" lon="2.96578">
        <ele>1051</ele>
        <time>2015-10-17T16:30:36Z</time>
      </trkpt>
      <trkpt lat="45.80098" lon="2.96542">
        <ele>1049</ele>
        <time>2015-10-17T16:32:36Z</time>
      </trkpt>
      <trkpt lat="45.80065" lon="2.9653">
        <ele>1051</ele>
        <time>2015-10-17T16:34:36Z</time>
      </trkpt>
      <trkpt lat="45.8004" lon="2.96514">
        <ele>1053</ele>
        <time>2015-10-17T16:36:36Z</time>
      </trkpt>
      <trkpt lat="45.79978" lon="2.96485">
        <ele>1057</ele>
        <time>2015-10-17T16:38:36Z</time>
      </trkpt>
      <trkpt lat="45.7994" lon="2.96475">
        <ele>1061</ele>
        <time>2015-10-17T16:40:36Z</time>
      </trkpt>
      <trkpt lat="45.79872" lon="2.9644">
        <ele>1070</ele>
        <time>2015-10-17T16:42:36Z</time>
      </trkpt>
      <trkpt lat="45.79844" lon="2.96411">
        <ele>1072</ele>
        <time>2015-10-17T16:44:36Z</time>
      </trkpt>
      <trkpt lat="45.798" lon="2.9641">
        <ele>1076</ele>
        <time>2015-10-17T16:46:36Z</time>
      </trkpt>
      <trkpt lat="45.79766" lon="2.96405">
        <ele>1080</ele>
        <time>2015-10-17T16:48:36Z</time>
      </trkpt>
      <trkpt lat="45.79707" lon="2.96401">
        <ele>1083</ele>
        <time>2015-10-17T16:50:36Z</time>
      </trkpt>
      <trkpt lat="45.79665" lon="2.96417">
        <ele>1081</ele>
        <time>2015-10-17T16:52:36Z</time>
      </trkpt>
      <trkpt lat="45.79615" lon="2.96429">
        <ele>1083</ele>
        <time>2015-10-17T16:54:36Z</time>
      </trkpt>
      <trkpt lat="45.7957" lon="2.96448">
        <ele>1083</ele>
        <time>2015-10-17T16:56:36Z</time>
      </trkpt>
      <trkpt lat="45.79537" lon="2.96489">
        <ele>1079</ele>
        <time>2015-10-17T16:58:36Z</time>
      </trkpt>
      <trkpt lat="45.79504" lon="2.96506">
        <ele>1076</ele>
        <time>2015-10-17T17:00:36Z</time>
      </trkpt>
      <trkpt lat="45.79472" lon="2.96563">
        <ele>1076</ele>
        <time>2015-10-17T17:02:36Z</time>
      </trkpt>
      <trkpt lat="45.79437" lon="2.96579">
        <ele>1071</ele>
        <time>2015-10-17T17:04:36Z</time>
      </trkpt>
      <trkpt lat="45.79421" lon="2.9662">
        <ele>1071</ele>
        <time>2015-10-17T17:06:36Z</time>
      </trkpt>
      <trkpt lat="45.79404" lon="2.96672">
        <ele>1076</ele>
        <time>2015-10-17T17:08:36Z</time>
      </trkpt>
      <trkpt lat="45.79374" lon="2.96572">
        <ele>1075</ele>
        <time>2015-10-17T17:10:36Z</time>
      </trkpt>
      <trkpt lat="45.79353" lon="2.96513">
        <ele>1080</ele>
        <time>2015-10-17T17:12:36Z</time>
      </trkpt>
      <trkpt lat="45.79346" lon="2.96463">
        <ele>1085</ele>
        <time>2015-10-17T17:14:36Z</time>
      </trkpt>
      <trkpt lat="45.79314" lon="2.96403">
        <ele>1094</ele>
        <time>2015-10-17T17:16:36Z</time>
      </trkpt>
      <trkpt lat="45.79289" lon="2.96329">
        <ele>1103</ele>
        <time>2015-10-17T17:18:36Z</time>
      </trkpt>
      <trkpt lat="45.79274" lon="2.96296">
        <ele>1106</ele>
        <time>2015-10-17T17:20:36Z</time>
      </trkpt>
      <trkpt lat="45.79248" lon="2.96198">
        <ele>1111</ele>
        <time>2015-10-17T17:22:36Z</time>
      </trkpt>
      <trkpt lat="45.79236" lon="2.96079">
        <ele>1118</ele>
        <time>2015-10-17T17:24:36Z</time>
      </trkpt>
      <trkpt lat="45.79243" lon="2.95969">
        <ele>1121</ele>
        <time>2015-10-17T17:26:36Z</time>
      </trkpt>
      <trkpt lat="45.79266" lon="2.95862">
        <ele>1129</ele>
        <time>2015-10-17T17:28:36Z</time>
      </trkpt>
      <trkpt lat="45.79301" lon="2.95764">
        <ele>1129</ele>
        <time>2015-10-17T17:30:36Z</time>
      </trkpt>
      <trkpt lat="45.79356" lon="2.95697">
        <ele>1118</ele>
        <time>2015-10-17T17:32:36Z</time>
      </trkpt>
      <trkpt lat="45.79421" lon="2.95662">
        <ele>1102</ele>
        <time>2015-10-17T17:34:36Z</time>
      </trkpt>
      <trkpt lat="45.79467" lon="2.95609">
        <ele>1091</ele>
        <time>2015-10-17T17:36:36Z</time>
      </trkpt>
      <trkpt lat="45.79521" lon="2.95578">
        <ele>1075</ele>
        <time>2015-10-17T17:38:36Z</time>
      </trkpt>
      <trkpt lat="45.79567" lon="2.9554">
        <ele>1061</ele>
        <time>2015-10-17T17:40:36Z</time>
      </trkpt>
      <trkpt lat="45.79624" lon="2.95452">
        <ele>1037</ele>
        <time>2015-10-17T17:42:36Z</time>
      </trkpt>
      <trkpt lat="45.79677" lon="2.95383">
        <ele>1019</ele>
        <time>2015-10-17T17:44:36Z</time>
      </trkpt>
      <trkpt lat="45.79694" lon="2.95334">
        <ele>1011</ele>
        <time>2015-10-17T17:46:36Z</time>
      </trkpt>
      <trkpt lat="45.79672" lon="2.95289">
        <ele>1010</ele>
        <time>2015-10-17T17:48:36Z</time>
      </trkpt>
      <trkpt lat="45.79664" lon="2.952">
        <ele>1008</ele>
        <time>2015-10-17T17:50:36Z</time>
      </trkpt>
      <trkpt lat="45.79648" lon="2.9516">
        <ele>1009</ele>
        <time>2015-10-17T17:52:36Z</time>
      </trkpt>
      <trkpt lat="45.79591" lon="2.95067">
        <ele>1015</ele>
        <time>2015-10-17T17:54:36Z</time>
      </trkpt>
      <trkpt lat="45.79561" lon="2.95027">
        <ele>1020</ele>
        <time>2015-10-17T17:56:36Z</time>
      </trkpt>
      <trkpt lat="45.79539" lon="2.9496">
        <ele>1024</ele>
        <time>2015-10-17T17:58:36Z</time>
      </trkpt>
      <trkpt lat="45.79508" lon="2.949">
        <ele>1027</ele>
        <time>2015-10-17T18:00:36Z</time>
      </trkpt>
      <trkpt lat="45.79451" lon="2.94836">
        <ele>1032</ele>
        <time>2015-10-17T18:02:36Z</time>
      </trkpt>
      <trkpt lat="45.79433" lon="2.94812">
        <ele>1033</ele>
        <time>2015-10-17T18:04:36Z</time>
      </trkpt>
      <trkpt lat="45.79403" lon="2.94788">
        <ele>1034</ele>
        <time>2015-10-17T18:06:36Z</time>
      </trkpt>
      <trkpt lat="45.79308" lon="2.94657">
        <ele>1035</ele>
        <time>2015-10-17T18:08:36Z</time>
      </trkpt>
      <trkpt lat="45.79285" lon="2.94614">
        <ele>1037</ele>
        <time>2015-10-17T18:10:36Z</time>
      </trkpt>
      <trkpt lat="45.79233" lon="2.9454">
        <ele>1034</ele>
        <time>2015-10-17T18:12:36Z</time>
      </trkpt>
      <trkpt lat="45.79188" lon="2.94476">
        <ele>1036</ele>
        <time>2015-10-17T18:14:36Z</time>
      </trkpt>
      <trkpt lat="45.79138" lon="2.94428">
        <ele>1038</ele>
        <time>2015-10-17T18:16:36Z</time>
      </trkpt>
      <trkpt lat="45.79105" lon="2.94428">
        <ele>1040</ele>
        <time>2015-10-17T18:18:36Z</time>
      </trkpt>
      <trkpt lat="45.79062" lon="2.94425">
        <ele>1043</ele>
        <time>2015-10-17T18:20:36Z</time>
      </trkpt>
      <trkpt lat="45.79022" lon="2.94408">
        <ele>1046</ele>
        <time>2015-10-17T18:22:36Z</time>
      </trkpt>
      <trkpt lat="45.78919" lon="2.94401">
        <ele>1052</ele>
        <time>2015-10-17T18:24:36Z</time>
      </trkpt>
      <trkpt lat="45.78888" lon="2.94396">
        <ele>1051</ele>
        <time>2015-10-17T18:26:36Z</time>
      </trkpt>
      <trkpt lat="45.78848" lon="2.9443">
        <ele>1047</ele>
        <time>2015-10-17T18:28:36Z</time>
      </trkpt>
      <trkpt lat="45.78778" lon="2.94451">
        <ele>1043</ele>
        <time>2015-10-17T18:30:36Z</time>
      </trkpt>
      <trkpt lat="45.78725" lon="2.94444">
        <ele>1040</ele>
        <time>2015-10-17T18:32:36Z</time>
      </trkpt>
      <trkpt lat="45.7869" lon="2.94437">
        <ele>1039</ele>
        <time>2015-10-17T18:34:36Z</time>
      </trkpt>
      <trkpt lat="45.78634" lon="2.94406">
        <ele>1040</ele>
        <time>2015-10-17T18:36:36Z</time>
      </trkpt>
      <trkpt lat="45.78637" lon="2.94328">
        <ele>1041</ele>
        <time>2015-10-17T18:38:36Z</time>
      </trkpt>
      <trkpt lat="45.78623" lon="2.94226">
        <ele>1038</ele>
        <time>2015-10-17T18:40:36Z</time>
      </trkpt>
      <trkpt lat="45.78598" lon="2.9413">
        <ele>1030</ele>
        <time>2015-10-17T18:42:36Z</time>
      </trkpt>
      <trkpt lat="45.78588" lon="2.94016">
        <ele>1018</ele>
        <time>2015-10-17T18:44:36Z</time>
      </trkpt>
      <trkpt lat="45.78573" lon="2.93866">
        <ele>1000</ele>
        <time>2015-10-17T18:46:36Z</time>
      </trkpt>
      <trkpt lat="45.78533" lon="2.93749">
        <ele>988</ele>
        <time>2015-10-17T18:48:36Z</time>
      </trkpt>
      <trkpt lat="45.78535" lon="2.93701">
        <ele>983</ele>
        <time>2015-10-17T18:50:36Z</time>
      </trkpt>
      <trkpt lat="45.78524" lon="2.93634">
        <ele>977</ele>
        <time>2015-10-17T18:52:36Z</time>
      </trkpt>
      <trkpt lat="45.78507" lon="2.93472">
        <ele>964</ele>
        <time>2015-10-17T18:54:36Z</time>
      </trkpt>
      <trkpt lat="45.78502" lon="2.93379">
        <ele>956</ele>
        <time>2015-10-17T18:56:36Z</time>
      </trkpt>
      <trkpt lat="45.78487" lon="2.93308">
        <ele>950</ele>
        <time>2015-10-17T18:58:36Z</time>
      </trkpt>
      <trkpt lat="45.78465" lon="2.9326">
        <ele>945</ele>
        <time>2015-10-17T19:00:36Z</time>
      </trkpt>
      <trkpt lat="45.78443" lon="2.93217">
        <ele>941</ele>
        <time>2015-10-17T19:02:36Z</time>
      </trkpt>
      <trkpt lat="45.78417" lon="2.93098">
        <ele>928</ele>
        <time>2015-10-17T19:04:36Z</time>
      </trkpt>
      <trkpt lat="45.78403" lon="2.93022">
        <ele>925</ele>
        <time>2015-10-17T19:06:36Z</time>
      </trkpt>
      <trkpt lat="45.7839" lon="2.93015">
        <ele>925</ele>
        <time>2015-10-17T19:08:36Z</time>
      </trkpt>
      <trkpt lat="45.78336" lon="2.93086">
        <ele>932</ele>
        <time>2015-10-17T19:10:36Z</time>
      </trkpt>
      <trkpt lat="45.78293" lon="2.93187">
        <ele>941</ele>
        <time>2015-10-17T19:12:36Z</time>
      </trkpt>
      <trkpt lat="45.78263" lon="2.93284">
        <ele>950</ele>
        <time>2015-10-17T19:14:36Z</time>
      </trkpt>
      <trkpt lat="45.78247" lon="2.93315">
        <ele>953</ele>
        <time>2015-10-17T19:16:36Z</time>
      </trkpt>
      <trkpt lat="45.78207" lon="2.93403">
        <ele>962</ele>
        <time>2015-10-17T19:18:36Z</time>
      </trkpt>
      <trkpt lat="45.78165" lon="2.93456">
        <ele>964</ele>
        <time>2015-10-17T19:20:36Z</time>
      </trkpt>
      <trkpt lat="45.78127" lon="2.93451">
        <ele>960</ele>
        <time>2015-10-17T19:22:36Z</time>
      </trkpt>
      <trkpt lat="45.78082" lon="2.93411">
        <ele>956</ele>
        <time>2015-10-17T19:24:36Z</time>
      </trkpt>
      <trkpt lat="45.78051" lon="2.93427">
        <ele>955</ele>
        <time>2015-10-17T19:26:36Z</time>
      </trkpt>
      <trkpt lat="45.77977" lon="2.93455">
        <ele>953</ele>
        <time>2015-10-17T19:28:36Z</time>
      </trkpt>
      <trkpt lat="45.77935" lon="2.93475">
        <ele>953</ele>
        <time>2015-10-17T19:30:36Z</time>
      </trkpt>
      <trkpt lat="45.77899" lon="2.93482">
        <ele>953</ele>
        <time>2015-10-17T19:32:36Z</time>
      </trkpt>
      <trkpt lat="45.77859" lon="2.9351">
        <ele>954</ele>
        <time>2015-10-17T19:34:36Z</time>
      </trkpt>
      <trkpt lat="45.77822" lon="2.93536">
        <ele>954</ele>
        <time>2015-10-17T19:36:36Z</time>
      </trkpt>
      <trkpt lat="45.7777" lon="2.93572">
        <ele>955</ele>
        <time>2015-10-17T19:38:36Z</time>
      </trkpt>
      <trkpt lat="45.77726" lon="2.93587">
        <ele>955</ele>
        <time>2015-10-17T19:40:36Z</time>
      </trkpt>
      <trkpt lat="45.77669" lon="2.93598">
        <ele>956</ele>
        <time>2015-10-17T19:42:36Z</time>
      </trkpt>
      <trkpt lat="45.77608" lon="2.93622">
        <ele>959</ele>
        <time>2015-10-17T19:44:36Z</time>
      </trkpt>
      <trkpt lat="45.77576" lon="2.93624">
        <ele>959</ele>
        <time>2015-10-17T19:46:36Z</time>
      </trkpt>
      <trkpt lat="45.77521" lon="2.93626">
        <ele>958</ele>
        <time>2015-10-17T19:48:36Z</time>
      </trkpt>
      <trkpt lat="45.77481" lon="2.93636">
        <ele>957</ele>
        <time>2015-10-17T19:50:36Z</time>
      </trkpt>
      <trkpt lat="45.77431" lon="2.93676">
        <ele>955</ele>
        <time>2015-10-17T19:52:36Z</time>
      </trkpt>
      <trkpt lat="45.77465" lon="2.9375">
        <ele>956</ele>
        <time>2015-10-17T19:54:36Z</time>
      </trkpt>
      <trkpt lat="45.77521" lon="2.93786">
        <ele>960</ele>
        <time>2015-10-17T19:56:36Z</time>
      </trkpt>
      <trkpt lat="45.77563" lon="2.93855">
        <ele>962</ele>
        <time>2015-10-17T19:58:36Z</time>
      </trkpt>
      <trkpt lat="45.77625" lon="2.93895">
        <ele>966</ele>
        <time>2015-10-17T20:00:36Z</time>
      </trkpt>
      <trkpt lat="45.77689" lon="2.93972">
        <ele>974</ele>
        <time>2015-10-17T20:02:36Z</time>
      </trkpt>
      <trkpt lat="45.77732" lon="2.94046">
        <ele>983</ele>
        <time>2015-10-17T20:04:36Z</time>
      </trkpt>
      <trkpt lat="45.77769" lon="2.94085">
        <ele>990</ele>
        <time>2015-10-17T20:06:36Z</time>
      </trkpt>
      <trkpt lat="45.77807" lon="2.94156">
        <ele>999</ele>
        <time>2015-10-17T20:08:36Z</time>
      </trkpt>
      <trkpt lat="45.77848" lon="2.94178">
        <ele>1004</ele>
        <time>2015-10-17T20:10:36Z</time>
      </trkpt>
      <trkpt lat="45.77905" lon="2.94166">
        <ele>1006</ele>
        <time>2015-10-17T20:12:36Z</time>
      </trkpt>
      <trkpt lat="45.77958" lon="2.94211">
        <ele>1008</ele>
        <time>2015-10-17T20:14:36Z</time>
      </trkpt>
      <trkpt lat="45.78011" lon="2.94283">
        <ele>1015</ele>
        <time>2015-10-17T20:16:36Z</time>
      </trkpt>
      <trkpt lat="45.78021" lon="2.94347">
        <ele>1021</ele>
        <time>2015-10-17T20:18:36Z</time>
      </trkpt>
      <trkpt lat="45.78068" lon="2.94397">
        <ele>1021</ele>
        <time>2015-10-17T20:20:36Z</time>
      </trkpt>
      <trkpt lat="45.78125" lon="2.94442">
        <ele>1023</ele>
        <time>2015-10-17T20:22:36Z</time>
      </trkpt>
      <trkpt lat="45.7823" lon="2.94473">
        <ele>1031</ele>
        <time>2015-10-17T20:24:36Z</time>
      </trkpt>
      <trkpt lat="45.78312" lon="2.94492">
        <ele>1037</ele>
        <time>2015-10-17T20:26:36Z</time>
      </trkpt>
      <trkpt lat="45.78398" lon="2.94478">
        <ele>1041</ele>
        <time>2015-10-17T20:28:36Z</time>
      </trkpt>
      <trkpt lat="45.7847" lon="2.94483">
        <ele>1043</ele>
        <time>2015-10-17T20:30:36Z</time>
      </trkpt>
      <trkpt lat="45.78541" lon="2.94442">
        <ele>1045</ele>
        <time>2015-10-17T20:32:36Z</time>
      </trkpt>
      <trkpt lat="45.78618" lon="2.94426">
        <ele>1041</ele>
        <time>2015-10-17T20:34:36Z</time>
      </trkpt>
      <trkpt lat="45.78714" lon="2.94445">
        <ele>1040</ele>
        <time>2015-10-17T20:36:36Z</time>
      </trkpt>
      <trkpt lat="45.78676" lon="2.94495">
        <ele>1039</ele>
        <time>2015-10-17T20:38:36Z</time>
      </trkpt>
      <trkpt lat="45.78621" lon="2.94561">
        <ele>1044</ele>
        <time>2015-10-17T20:40:36Z</time>
      </trkpt>
      <trkpt lat="45.78604" lon="2.94633">
        <ele>1046</ele>
        <time>2015-10-17T20:42:36Z</time>
      </trkpt>
      <trkpt lat="45.78614" lon="2.94707">
        <ele>1048</ele>
        <time>2015-10-17T20:44:36Z</time>
      </trkpt>
      <trkpt lat="45.78616" lon="2.94783">
        <ele>1050</ele>
        <time>2015-10-17T20:46:36Z</time>
      </trkpt>
      <trkpt lat="45.78636" lon="2.94845">
        <ele>1053</ele>
        <time>2015-10-17T20:48:36Z</time>
      </trkpt>
      <trkpt lat="45.78651" lon="2.94945">
        <ele>1058</ele>
        <time>2015-10-17T20:50:36Z</time>
      </trkpt>
      <trkpt lat="45.78628" lon="2.95029">
        <ele>1063</ele>
        <time>2015-10-17T20:52:36Z</time>
      </trkpt>
      <trkpt lat="45.78631" lon="2.95113">
        <ele>1070</ele>
        <time>2015-10-17T20:54:36Z</time>
      </trkpt>
      <trkpt lat="45.7862" lon="2.95201">
        <ele>1074</ele>
        <time>2015-10-17T20:56:36Z</time>
      </trkpt>
      <trkpt lat="45.7861" lon="2.95299">
        <ele>1073</ele>
        <time>2015-10-17T20:58:36Z</time>
      </trkpt>
      <trkpt lat="45.78608" lon="2.95368">
        <ele>1071</ele>
        <time>2015-10-17T21:00:36Z</time>
      </trkpt>
      <trkpt lat="45.78595" lon="2.95518">
        <ele>1069</ele>
        <time>2015-10-17T21:02:36Z</time>
      </trkpt>
      <trkpt lat="45.78585" lon="2.95649">
        <ele>1067</ele>
        <time>2015-10-17T21:04:36Z</time>
      </trkpt>
      <trkpt lat="45.78578" lon="2.95728">
        <ele>1070</ele>
        <time>2015-10-17T21:06:36Z</time>
      </trkpt>
      <trkpt lat="45.78586" lon="2.9584">
        <ele>1074</ele>
        <time>2015-10-17T21:08:36Z</time>
      </trkpt>
      <trkpt lat="45.78543" lon="2.95857">
        <ele>1074</ele>
        <time>2015-10-17T21:10:36Z</time>
      </trkpt>
      <trkpt lat="45.7848" lon="2.95864">
        <ele>1073</ele>
        <time>2015-10-17T21:12:36Z</time>
      </trkpt>
      <trkpt lat="45.78437" lon="2.95862">
        <ele>1073</ele>
        <time>2015-10-17T21:14:36Z</time>
      </trkpt>
      <trkpt lat="45.78397" lon="2.9585">
        <ele>1073</ele>
        <time>2015-10-17T21:16:36Z</time>
      </trkpt>
      <trkpt lat="45.78346" lon="2.95847">
        <ele>1072</ele>
        <time>2015-10-17T21:18:36Z</time>
      </trkpt>
      <trkpt lat="45.78291" lon="2.95838">
        <ele>1072</ele>
        <time>2015-10-17T21:20:36Z</time>
      </trkpt>
      <trkpt lat="45.78212" lon="2.95811">
        <ele>1072</ele>
        <time>2015-10-17T21:22:36Z</time>
      </trkpt>
      <trkpt lat="45.78146" lon="2.95709">
        <ele>1074</ele>
        <time>2015-10-17T21:24:36Z</time>
      </trkpt>
      <trkpt lat="45.78135" lon="2.95635">
        <ele>1076</ele>
        <time>2015-10-17T21:26:36Z</time>
      </trkpt>
      <trkpt lat="45.78083" lon="2.95518">
        <ele>1079</ele>
        <time>2015-10-17T21:28:36Z</time>
      </trkpt>
      <trkpt lat="45.78056" lon="2.95449">
        <ele>1078</ele>
        <time>2015-10-17T21:30:36Z</time>
      </trkpt>
      <trkpt lat="45.78017" lon="2.95353">
        <ele>1071</ele>
        <time>2015-10-17T21:32:36Z</time>
      </trkpt>
      <trkpt lat="45.77937" lon="2.95327">
        <ele>1069</ele>
        <time>2015-10-17T21:34:36Z</time>
      </trkpt>
      <trkpt lat="45.77922" lon="2.95308">
        <ele>1068</ele>
        <time>2015-10-17T21:36:36Z</time>
      </trkpt>
      <trkpt lat="45.77899" lon="2.95308">
        <ele>1070</ele>
        <time>2015-10-17T21:38:36Z</time>
      </trkpt>
      <trkpt lat="45.77845" lon="2.9527">
        <ele>1072</ele>
        <time>2015-10-17T21:40:36Z</time>
      </trkpt>
      <trkpt lat="45.77749" lon="2.95234">
        <ele>1073</ele>
        <time>2015-10-17T21:42:36Z</time>
      </trkpt>
      <trkpt lat="45.77718" lon="2.95234">
        <ele>1073</ele>
        <time>2015-10-17T21:44:36Z</time>
      </trkpt>
      <trkpt lat="45.77669" lon="2.95255">
        <ele>1074</ele>
        <time>2015-10-17T21:46:36Z</time>
      </trkpt>
      <trkpt lat="45.77582" lon="2.95286">
        <ele>1071</ele>
        <time>2015-10-17T21:48:36Z</time>
      </trkpt>
      <trkpt lat="45.77532" lon="2.95229">
        <ele>1065</ele>
        <time>2015-10-17T21:50:36Z</time>
      </trkpt>
      <trkpt lat="45.77464" lon="2.95208">
        <ele>1067</ele>
        <time>2015-10-17T21:52:36Z</time>
      </trkpt>
      <trkpt lat="45.77406" lon="2.95189">
        <ele>1070</ele>
        <time>2015-10-17T21:54:36Z</time>
      </trkpt>
      <trkpt lat="45.77356" lon="2.95187">
        <ele>1070</ele>
        <time>2015-10-17T21:56:36Z</time>
      </trkpt>
      <trkpt lat="45.77303" lon="2.95206">
        <ele>1076</ele>
        <time>2015-10-17T21:58:36Z</time>
      </trkpt>
      <trkpt lat="45.77256" lon="2.95201">
        <ele>1076</ele>
        <time>2015-10-17T22:00:36Z</time>
      </trkpt>
      <trkpt lat="45.77209" lon="2.9523">
        <ele>1083</ele>
        <time>2015-10-17T22:02:36Z</time>
      </trkpt>
      <trkpt lat="45.7713" lon="2.95258">
        <ele>1089</ele>
        <time>2015-10-17T22:04:36Z</time>
      </trkpt>
      <trkpt lat="45.77088" lon="2.95261">
        <ele>1087</ele>
        <time>2015-10-17T22:06:36Z</time>
      </trkpt>
      <trkpt lat="45.77013" lon="2.95314">
        <ele>1094</ele>
        <time>2015-10-17T22:08:36Z</time>
      </trkpt>
      <trkpt lat="45.76968" lon="2.95326">
        <ele>1089</ele>
        <time>2015-10-17T22:10:36Z</time>
      </trkpt>
      <trkpt lat="45.76911" lon="2.95364">
        <ele>1087</ele>
        <time>2015-10-17T22:12:36Z</time>
      </trkpt>
      <trkpt lat="45.76853" lon="2.95381">
        <ele>1083</ele>
        <time>2015-10-17T22:14:36Z</time>
      </trkpt>
      <trkpt lat="45.76801" lon="2.95421">
        <ele>1088</ele>
        <time>2015-10-17T22:16:36Z</time>
      </trkpt>
      <trkpt lat="45.76755" lon="2.95405">
        <ele>1081</ele>
        <time>2015-10-17T22:18:36Z</time>
      </trkpt>
      <trkpt lat="45.76717" lon="2.95412">
        <ele>1081</ele>
        <time>2015-10-17T22:20:36Z</time>
      </trkpt>
      <trkpt lat="45.76634" lon="2.95421">
        <ele>1076</ele>
        <time>2015-10-17T22:22:36Z</time>
      </trkpt>
      <trkpt lat="45.76612" lon="2.95452">
        <ele>1081</ele>
        <time>2015-10-17T22:24:36Z</time>
      </trkpt>
      <trkpt lat="45.76566" lon="2.95478">
        <ele>1082</ele>
        <time>2015-10-17T22:26:36Z</time>
      </trkpt>
      <trkpt lat="45.76528" lon="2.95514">
        <ele>1086</ele>
        <time>2015-10-17T22:28:36Z</time>
      </trkpt>
      <trkpt lat="45.76478" lon="2.95521">
        <ele>1082</ele>
        <time>2015-10-17T22:30:36Z</time>
      </trkpt>
      <trkpt lat="45.76398" lon="2.95559">
        <ele>1080</ele>
        <time>2015-10-17T22:32:36Z</time>
      </trkpt>
      <trkpt lat="45.76375" lon="2.95602">
        <ele>1079</ele>
        <time>2015-10-17T22:34:36Z</time>
      </trkpt>
      <trkpt lat="45.76345" lon="2.95633">
        <ele>1075</ele>
        <time>2015-10-17T22:36:36Z</time>
      </trkpt>
      <trkpt lat="45.76338" lon="2.95671">
        <ele>1070</ele>
        <time>2015-10-17T22:38:36Z</time>
      </trkpt>
      <trkpt lat="45.76355" lon="2.95724">
        <ele>1070</ele>
        <time>2015-10-17T22:40:36Z</time>
      </trkpt>
      <trkpt lat="45.76377" lon="2.95768">
        <ele>1072</ele>
        <time>2015-10-17T22:42:36Z</time>
      </trkpt>
      <trkpt lat="45.76385" lon="2.9581">
        <ele>1072</ele>
        <time>2015-10-17T22:44:36Z</time>
      </trkpt>
      <trkpt lat="45.76375" lon="2.95886">
        <ele>1062</ele>
        <time>2015-10-17T22:46:36Z</time>
      </trkpt>
      <trkpt lat="45.76357" lon="2.95933">
        <ele>1052</ele>
        <time>2015-10-17T22:48:36Z</time>
      </trkpt>
      <trkpt lat="45.7635" lon="2.96035">
        <ele>1040</ele>
        <time>2015-10-17T22:50:36Z</time>
      </trkpt>
      <trkpt lat="45.76365" lon="2.96102">
        <ele>1035</ele>
        <time>2015-10-17T22:52:36Z</time>
      </trkpt>
      <trkpt lat="45.76353" lon="2.96176">
        <ele>1027</ele>
        <time>2015-10-17T22:54:36Z</time>
      </trkpt>
      <trkpt lat="45.76363" lon="2.96209">
        <ele>1026</ele>
        <time>2015-10-17T22:56:36Z</time>
      </trkpt>
      <trkpt lat="45.76355" lon="2.96259">
        <ele>1021</ele>
        <time>2015-10-17T22:58:36Z</time>
      </trkpt>
      <trkpt lat="45.76335" lon="2.96255">
        <ele>1018</ele>
        <time>2015-10-17T23:00:36Z</time>
      </trkpt>
      <trkpt lat="45.76345" lon="2.96307">
        <ele>1017</ele>
        <time>2015-10-17T23:02:36Z</time>
      </trkpt>
      <trkpt lat="45.76325" lon="2.96343">
        <ele>1012</ele>
        <time>2015-10-17T23:04:36Z</time>
      </trkpt>
      <trkpt lat="45.76329" lon="2.96376">
        <ele>1011</ele>
        <time>2015-10-17T23:06:36Z</time>
      </trkpt>
      <trkpt lat="45.76299" lon="2.96393">
        <ele>1006</ele>
        <time>2015-10-17T23:08:36Z</time>
      </trkpt>
      <trkpt lat="45.76314" lon="2.96438">
        <ele>1006</ele>
        <time>2015-10-17T23:10:36Z</time>
      </trkpt>
      <trkpt lat="45.7629" lon="2.96455">
        <ele>1001</ele>
        <time>2015-10-17T23:12:36Z</time>
      </trkpt>
      <trkpt lat="45.7631" lon="2.96488">
        <ele>1002</ele>
        <time>2015-10-17T23:14:36Z</time>
      </trkpt>
      <trkpt lat="45.76285" lon="2.96505">
        <ele>996</ele>
        <time>2015-10-17T23:16:36Z</time>
      </trkpt>
      <trkpt lat="45.76284" lon="2.96555">
        <ele>992</ele>
        <time>2015-10-17T23:18:36Z</time>
      </trkpt>
      <trkpt lat="45.76274" lon="2.96581">
        <ele>989</ele>
        <time>2015-10-17T23:20:36Z</time>
      </trkpt>
      <trkpt lat="45.7625" lon="2.96581">
        <ele>984</ele>
        <time>2015-10-17T23:22:36Z</time>
      </trkpt>
      <trkpt lat="45.76255" lon="2.9661">
        <ele>984</ele>
        <time>2015-10-17T23:24:36Z</time>
      </trkpt>
      <trkpt lat="45.76182" lon="2.96698">
        <ele>974</ele>
        <time>2015-10-17T23:26:36Z</time>
      </trkpt>
      <trkpt lat="45.76186" lon="2.96815">
        <ele>967</ele>
        <time>2015-10-17T23:28:36Z</time>
      </trkpt>
      <trkpt lat="45.76204" lon="2.96853">
        <ele>965</ele>
        <time>2015-10-17T23:30:36Z</time>
      </trkpt>
      <trkpt lat="45.76194" lon="2.96909">
        <ele>962</ele>
        <time>2015-10-17T23:32:36Z</time>
      </trkpt>
      <trkpt lat="45.76179" lon="2.96947">
        <ele>961</ele>
        <time>2015-10-17T23:34:36Z</time>
      </trkpt>
      <trkpt lat="45.76174" lon="2.96997">
        <ele>960</ele>
        <time>2015-10-17T23:36:36Z</time>
      </trkpt>
      <trkpt lat="45.76194" lon="2.97076">
        <ele>956</ele>
        <time>2015-10-17T23:38:36Z</time>
      </trkpt>
      <trkpt lat="45.76211" lon="2.97159">
        <ele>954</ele>
        <time>2015-10-17T23:40:36Z</time>
      </trkpt>
      <trkpt lat="45.76193" lon="2.97219">
        <ele>952</ele>
        <time>2015-10-17T23:42:36Z</time>
      </trkpt>
      <trkpt lat="45.76226" lon="2.97352">
        <ele>945</ele>
        <time>2015-10-17T23:44:36Z</time>
      </trkpt>
      <trkpt lat="45.76241" lon="2.97455">
        <ele>942</ele>
        <time>2015-10-17T23:46:36Z</time>
      </trkpt>
      <trkpt lat="45.76246" lon="2.97576">
        <ele>938</ele>
        <time>2015-10-17T23:48:36Z</time>
      </trkpt>
      <trkpt lat="45.76253" lon="2.97657">
        <ele>934</ele>
        <time>2015-10-17T23:50:36Z</time>
      </trkpt>
      <trkpt lat="45.76316" lon="2.97702">
        <ele>932</ele>
        <time>2015-10-17T23:52:36Z</time>
      </trkpt>
      <trkpt lat="45.76383" lon="2.97745">
        <ele>932</ele>
        <time>2015-10-17T23:54:36Z</time>
      </trkpt>
      <trkpt lat="45.76436" lon="2.97826">
        <ele>933</ele>
        <time>2015-10-17T23:56:36Z</time>
      </trkpt>
      <trkpt lat="45.76496" lon="2.9786">
        <ele>933</ele>
        <time>2015-10-17T23:58:36Z</time>
      </trkpt>
      <trkpt lat="45.76549" lon="2.97896">
        <ele>933</ele>
        <time>2015-10-18T00:00:36Z</time>
      </trkpt>
      <trkpt lat="45.76644" lon="2.97891">
        <ele>937</ele>
        <time>2015-10-18T00:02:36Z</time>
      </trkpt>
      <trkpt lat="45.76733" lon="2.97896">
        <ele>940</ele>
        <time>2015-10-18T00:04:36Z</time>
      </trkpt>
      <trkpt lat="45.76796" lon="2.97935">
        <ele>938</ele>
        <time>2015-10-18T00:06:36Z</time>
      </trkpt>
      <trkpt lat="45.76874" lon="2.97949">
        <ele>936</ele>
        <time>2015-10-18T00:08:36Z</time>
      </trkpt>
      <trkpt lat="45.76951" lon="2.97954">
        <ele>934</ele>
        <time>2015-10-18T00:10:36Z</time>
      </trkpt>
      <trkpt lat="45.77022" lon="2.97997">
        <ele>933</ele>
        <time>2015-10-18T00:12:36Z</time>
      </trkpt>
      <trkpt lat="45.77096" lon="2.98039">
        <ele>936</ele>
        <time>2015-10-18T00:14:36Z</time>
      </trkpt>
      <trkpt lat="45.7716" lon="2.98082">
        <ele>934</ele>
        <time>2015-10-18T00:16:36Z</time>
      </trkpt>
      <trkpt lat="45.77214" lon="2.98149">
        <ele>928</ele>
        <time>2015-10-18T00:18:36Z</time>
      </trkpt>
      <trkpt lat="45.77286" lon="2.98203">
        <ele>924</ele>
        <time>2015-10-18T00:20:36Z</time>
      </trkpt>
      <trkpt lat="45.77397" lon="2.98253">
        <ele>925</ele>
        <time>2015-10-18T00:22:36Z</time>
      </trkpt>
      <trkpt lat="45.77474" lon="2.98281">
        <ele>924</ele>
        <time>2015-10-18T00:24:36Z</time>
      </trkpt>
      <trkpt lat="45.77584" lon="2.98353">
        <ele>923</ele>
        <time>2015-10-18T00:26:36Z</time>
      </trkpt>
      <trkpt lat="45.77703" lon="2.98424">
        <ele>929</ele>
        <time>2015-10-18T00:28:36Z</time>
      </trkpt>
      <trkpt lat="45.77801" lon="2.98483">
        <ele>930</ele>
        <time>2015-10-18T00:30:36Z</time>
      </trkpt>
      <trkpt lat="45.77923" lon="2.98557">
        <ele>930</ele>
        <time>2015-10-18T00:32:36Z</time>
      </trkpt>
      <trkpt lat="45.78019" lon="2.98586">
        <ele>929</ele>
        <time>2015-10-18T00:34:36Z</time>
      </trkpt>
      <trkpt lat="45.78076" lon="2.98593">
        <ele>930</ele>
        <time>2015-10-18T00:36:36Z</time>
      </trkpt>
      <trkpt lat="45.78131" lon="2.98576">
        <ele>929</ele>
        <time>2015-10-18T00:38:36Z</time>
      </trkpt>
      <trkpt lat="45.78199" lon="2.98578">
        <ele>929</ele>
        <time>2015-10-18T00:40:36Z</time>
      </trkpt>
      <trkpt lat="45.78274" lon="2.98549">
        <ele>931</ele>
        <time>2015-10-18T00:42:36Z</time>
      </trkpt>
      <trkpt lat="45.78357" lon="2.98537">
        <ele>933</ele>
        <time>2015-10-18T00:44:36Z</time>
      </trkpt>
      <trkpt lat="45.7844" lon="2.98513">
        <ele>933</ele>
        <time>2015-10-18T00:46:36Z</time>
      </trkpt>
      <trkpt lat="45.78505" lon="2.98454">
        <ele>935</ele>
        <time>2015-10-18T00:48:36Z</time>
      </trkpt>
      <trkpt lat="45.78577" lon="2.9843">
        <ele>937</ele>
        <time>2015-10-18T00:50:36Z</time>
      </trkpt>
      <trkpt lat="45.78674" lon="2.98414">
        <ele>937</ele>
        <time>2015-10-18T00:52:36Z</time>
      </trkpt>
      <trkpt lat="45.7877" lon="2.98423">
        <ele>938</ele>
        <time>2015-10-18T00:54:36Z</time>
      </trkpt>
      <trkpt lat="45.78818" lon="2.98416">
        <ele>939</ele>
        <time>2015-10-18T00:56:36Z</time>
      </trkpt>
      <trkpt lat="45.78873" lon="2.98459">
        <ele>943</ele>
        <time>2015-10-18T00:58:36Z</time>
      </trkpt>
      <trkpt lat="45.78949" lon="2.98487">
        <ele>943</ele>
        <time>2015-10-18T01:00:36Z</time>
      </trkpt>
      <trkpt lat="45.79013" lon="2.98504">
        <ele>940</ele>
        <time>2015-10-18T01:02:36Z</time>
      </trkpt>
      <trkpt lat="45.79145" lon="2.98504">
        <ele>938</ele>
        <time>2015-10-18T01:04:36Z</time>
      </trkpt>
      <trkpt lat="45.79201" lon="2.9853">
        <ele>939</ele>
        <time>2015-10-18T01:06:36Z</time>
      </trkpt>
      <trkpt lat="45.79273" lon="2.98578">
        <ele>939</ele>
        <time>2015-10-18T01:08:36Z</time>
      </trkpt>
      <trkpt lat="45.79342" lon="2.98601">
        <ele>941</ele>
        <time>2015-10-18T01:10:36Z</time>
      </trkpt>
      <trkpt lat="45.79397" lon="2.98636">
        <ele>942</ele>
        <time>2015-10-18T01:12:36Z</time>
      </trkpt>
      <trkpt lat="45.79419" lon="2.98691">
        <ele>941</ele>
        <time>2015-10-18T01:14:36Z</time>
      </trkpt>
      <trkpt lat="45.79455" lon="2.98724">
        <ele>942</ele>
        <time>2015-10-18T01:16:36Z</time>
      </trkpt>
      <trkpt lat="45.79493" lon="2.98765">
        <ele>942</ele>
        <time>2015-10-18T01:18:36Z</time>
      </trkpt>
      <trkpt lat="45.7958" lon="2.98746">
        <ele>947</ele>
        <time>2015-10-18T01:20:36Z</time>
      </trkpt>
      <trkpt lat="45.79631" lon="2.98765">
        <ele>948</ele>
        <time>2015-10-18T01:22:36Z</time>
      </trkpt>
      <trkpt lat="45.79688" lon="2.98794">
        <ele>951</ele>
        <time>2015-10-18T01:24:36Z</time>
      </trkpt>
      <trkpt lat="45.79699" lon="2.98856">
        <ele>951</ele>
        <time>2015-10-18T01:26:36Z</time>
      </trkpt>
      <trkpt lat="45.79743" lon="2.9886">
        <ele>956</ele>
        <time>2015-10-18T01:28:36Z</time>
      </trkpt>
      <trkpt lat="45.79781" lon="2.98889">
        <ele>958</ele>
        <time>2015-10-18T01:30:36Z</time>
      </trkpt>
      <trkpt lat="45.79841" lon="2.98896">
        <ele>964</ele>
        <time>2015-10-18T01:32:36Z</time>
      </trkpt>
      <trkpt lat="45.79864" lon="2.98949">
        <ele>964</ele>
        <time>2015-10-18T01:34:36Z</time>
      </trkpt>
      <trkpt lat="45.79883" lon="2.99011">
        <ele>963</ele>
        <time>2015-10-18T01:36:36Z</time>
      </trkpt>
      <trkpt lat="45.79893" lon="2.99075">
        <ele>963</ele>
        <time>2015-10-18T01:38:36Z</time>
      </trkpt>
      <trkpt lat="45.79888" lon="2.99133">
        <ele>965</ele>
        <time>2015-10-18T01:40:36Z</time>
      </trkpt>
      <trkpt lat="45.79882" lon="2.9923">
        <ele>967</ele>
        <time>2015-10-18T01:42:36Z</time>
      </trkpt>
    </trkseg>
  </trk>
  <trk>
    <name><![CDATA[--Orcines-- OR-5370357:ser-fr03-vtt-b3]]></name>
    <trkseg>
      <trkpt lat="45.80346" lon="2.9869">
        <ele>975</ele>
        <time>2015-10-17T14:42:50Z</time>
      </trkpt>
      <trkpt lat="45.80316" lon="2.98689">
        <ele>974</ele>
        <time>2015-10-17T14:44:50Z</time>
      </trkpt>
      <trkpt lat="45.80239" lon="2.98713">
        <ele>974</ele>
        <time>2015-10-17T14:46:50Z</time>
      </trkpt>
      <trkpt lat="45.80202" lon="2.98646">
        <ele>972</ele>
        <time>2015-10-17T14:48:50Z</time>
      </trkpt>
      <trkpt lat="45.80194" lon="2.98588">
        <ele>973</ele>
        <time>2015-10-17T14:50:50Z</time>
      </trkpt>
      <trkpt lat="45.8018" lon="2.98533">
        <ele>972</ele>
        <time>2015-10-17T14:52:50Z</time>
      </trkpt>
      <trkpt lat="45.80158" lon="2.98501">
        <ele>970</ele>
        <time>2015-10-17T14:54:50Z</time>
      </trkpt>
      <trkpt lat="45.80114" lon="2.98473">
        <ele>968</ele>
        <time>2015-10-17T14:56:50Z</time>
      </trkpt>
      <trkpt lat="45.80108" lon="2.98429">
        <ele>969</ele>
        <time>2015-10-17T14:58:50Z</time>
      </trkpt>
      <trkpt lat="45.80083" lon="2.98397">
        <ele>968</ele>
        <time>2015-10-17T15:00:50Z</time>
      </trkpt>
      <trkpt lat="45.80058" lon="2.98377">
        <ele>969</ele>
        <time>2015-10-17T15:02:50Z</time>
      </trkpt>
      <trkpt lat="45.80001" lon="2.98359">
        <ele>968</ele>
        <time>2015-10-17T15:04:50Z</time>
      </trkpt>
      <trkpt lat="45.79951" lon="2.98356">
        <ele>970</ele>
        <time>2015-10-17T15:06:50Z</time>
      </trkpt>
      <trkpt lat="45.79898" lon="2.98363">
        <ele>971</ele>
        <time>2015-10-17T15:08:50Z</time>
      </trkpt>
      <trkpt lat="45.79883" lon="2.98348">
        <ele>972</ele>
        <time>2015-10-17T15:10:50Z</time>
      </trkpt>
      <trkpt lat="45.79827" lon="2.98335">
        <ele>972</ele>
        <time>2015-10-17T15:12:50Z</time>
      </trkpt>
      <trkpt lat="45.79773" lon="2.98301">
        <ele>974</ele>
        <time>2015-10-17T15:14:50Z</time>
      </trkpt>
      <trkpt lat="45.79628" lon="2.98279">
        <ele>970</ele>
        <time>2015-10-17T15:16:50Z</time>
      </trkpt>
      <trkpt lat="45.79527" lon="2.9818">
        <ele>974</ele>
        <time>2015-10-17T15:18:50Z</time>
      </trkpt>
      <trkpt lat="45.79453" lon="2.98075">
        <ele>976</ele>
        <time>2015-10-17T15:20:50Z</time>
      </trkpt>
      <trkpt lat="45.7938" lon="2.97932">
        <ele>981</ele>
        <time>2015-10-17T15:22:50Z</time>
      </trkpt>
      <trkpt lat="45.79331" lon="2.9785">
        <ele>983</ele>
        <time>2015-10-17T15:24:50Z</time>
      </trkpt>
      <trkpt lat="45.79253" lon="2.97736">
        <ele>980</ele>
        <time>2015-10-17T15:26:50Z</time>
      </trkpt>
      <trkpt lat="45.79239" lon="2.97646">
        <ele>988</ele>
        <time>2015-10-17T15:28:50Z</time>
      </trkpt>
      <trkpt lat="45.79236" lon="2.97494">
        <ele>1006</ele>
        <time>2015-10-17T15:30:50Z</time>
      </trkpt>
      <trkpt lat="45.79226" lon="2.97423">
        <ele>1015</ele>
        <time>2015-10-17T15:32:50Z</time>
      </trkpt>
      <trkpt lat="45.79247" lon="2.97316">
        <ele>1028</ele>
        <time>2015-10-17T15:34:50Z</time>
      </trkpt>
      <trkpt lat="45.79256" lon="2.97168">
        <ele>1052</ele>
        <time>2015-10-17T15:36:50Z</time>
      </trkpt>
      <trkpt lat="45.79305" lon="2.96942">
        <ele>1088</ele>
        <time>2015-10-17T15:38:50Z</time>
      </trkpt>
      <trkpt lat="45.79323" lon="2.96861">
        <ele>1092</ele>
        <time>2015-10-17T15:40:50Z</time>
      </trkpt>
      <trkpt lat="45.79363" lon="2.96762">
        <ele>1086</ele>
        <time>2015-10-17T15:42:50Z</time>
      </trkpt>
      <trkpt lat="45.79405" lon="2.9667">
        <ele>1075</ele>
        <time>2015-10-17T15:44:50Z</time>
      </trkpt>
      <trkpt lat="45.79449" lon="2.96563">
        <ele>1073</ele>
        <time>2015-10-17T15:46:50Z</time>
      </trkpt>
      <trkpt lat="45.79535" lon="2.96483">
        <ele>1080</ele>
        <time>2015-10-17T15:48:50Z</time>
      </trkpt>
      <trkpt lat="45.79649" lon="2.96421">
        <ele>1082</ele>
        <time>2015-10-17T15:50:50Z</time>
      </trkpt>
      <trkpt lat="45.79767" lon="2.96406">
        <ele>1079</ele>
        <time>2015-10-17T15:52:50Z</time>
      </trkpt>
      <trkpt lat="45.79889" lon="2.96453">
        <ele>1068</ele>
        <time>2015-10-17T15:54:50Z</time>
      </trkpt>
      <trkpt lat="45.79953" lon="2.96408">
        <ele>1056</ele>
        <time>2015-10-17T15:56:50Z</time>
      </trkpt>
      <trkpt lat="45.79972" lon="2.96316">
        <ele>1052</ele>
        <time>2015-10-17T15:58:50Z</time>
      </trkpt>
      <trkpt lat="45.79992" lon="2.96226">
        <ele>1044</ele>
        <time>2015-10-17T16:00:50Z</time>
      </trkpt>
      <trkpt lat="45.80013" lon="2.96131">
        <ele>1040</ele>
        <time>2015-10-17T16:02:50Z</time>
      </trkpt>
      <trkpt lat="45.80017" lon="2.96035">
        <ele>1036</ele>
        <time>2015-10-17T16:04:50Z</time>
      </trkpt>
      <trkpt lat="45.80013" lon="2.95839">
        <ele>1026</ele>
        <time>2015-10-17T16:06:50Z</time>
      </trkpt>
      <trkpt lat="45.79996" lon="2.95706">
        <ele>1017</ele>
        <time>2015-10-17T16:08:50Z</time>
      </trkpt>
      <trkpt lat="45.79987" lon="2.95595">
        <ele>1013</ele>
        <time>2015-10-17T16:10:50Z</time>
      </trkpt>
      <trkpt lat="45.79901" lon="2.95447">
        <ele>1006</ele>
        <time>2015-10-17T16:12:50Z</time>
      </trkpt>
      <trkpt lat="45.79814" lon="2.95367">
        <ele>1006</ele>
        <time>2015-10-17T16:14:50Z</time>
      </trkpt>
      <trkpt lat="45.79718" lon="2.95251">
        <ele>1006</ele>
        <time>2015-10-17T16:16:50Z</time>
      </trkpt>
      <trkpt lat="45.79616" lon="2.95125">
        <ele>1013</ele>
        <time>2015-10-17T16:18:50Z</time>
      </trkpt>
      <trkpt lat="45.79561" lon="2.95033">
        <ele>1020</ele>
        <time>2015-10-17T16:20:50Z</time>
      </trkpt>
      <trkpt lat="45.79518" lon="2.94932">
        <ele>1024</ele>
        <time>2015-10-17T16:22:50Z</time>
      </trkpt>
      <trkpt lat="45.79426" lon="2.94814">
        <ele>1032</ele>
        <time>2015-10-17T16:24:50Z</time>
      </trkpt>
      <trkpt lat="45.79325" lon="2.94668">
        <ele>1034</ele>
        <time>2015-10-17T16:26:50Z</time>
      </trkpt>
      <trkpt lat="45.79259" lon="2.9458">
        <ele>1033</ele>
        <time>2015-10-17T16:28:50Z</time>
      </trkpt>
      <trkpt lat="45.79193" lon="2.94477">
        <ele>1036</ele>
        <time>2015-10-17T16:30:50Z</time>
      </trkpt>
      <trkpt lat="45.79123" lon="2.94427">
        <ele>1039</ele>
        <time>2015-10-17T16:32:50Z</time>
      </trkpt>
      <trkpt lat="45.79079" lon="2.9443">
        <ele>1042</ele>
        <time>2015-10-17T16:34:50Z</time>
      </trkpt>
      <trkpt lat="45.79004" lon="2.94395">
        <ele>1050</ele>
        <time>2015-10-17T16:36:50Z</time>
      </trkpt>
      <trkpt lat="45.78897" lon="2.94408">
        <ele>1050</ele>
        <time>2015-10-17T16:38:50Z</time>
      </trkpt>
      <trkpt lat="45.78781" lon="2.9446">
        <ele>1043</ele>
        <time>2015-10-17T16:40:50Z</time>
      </trkpt>
      <trkpt lat="45.78707" lon="2.94442">
        <ele>1040</ele>
        <time>2015-10-17T16:42:50Z</time>
      </trkpt>
      <trkpt lat="45.78624" lon="2.94556">
        <ele>1044</ele>
        <time>2015-10-17T16:44:50Z</time>
      </trkpt>
      <trkpt lat="45.786" lon="2.9464">
        <ele>1047</ele>
        <time>2015-10-17T16:46:50Z</time>
      </trkpt>
      <trkpt lat="45.78617" lon="2.94764">
        <ele>1049</ele>
        <time>2015-10-17T16:48:50Z</time>
      </trkpt>
      <trkpt lat="45.78651" lon="2.94949">
        <ele>1058</ele>
        <time>2015-10-17T16:50:50Z</time>
      </trkpt>
      <trkpt lat="45.78623" lon="2.9502">
        <ele>1062</ele>
        <time>2015-10-17T16:52:50Z</time>
      </trkpt>
      <trkpt lat="45.78638" lon="2.95131">
        <ele>1071</ele>
        <time>2015-10-17T16:54:50Z</time>
      </trkpt>
      <trkpt lat="45.78602" lon="2.95279">
        <ele>1071</ele>
        <time>2015-10-17T16:56:50Z</time>
      </trkpt>
      <trkpt lat="45.7859" lon="2.95528">
        <ele>1068</ele>
        <time>2015-10-17T16:58:50Z</time>
      </trkpt>
      <trkpt lat="45.78584" lon="2.95657">
        <ele>1067</ele>
        <time>2015-10-17T17:00:50Z</time>
      </trkpt>
      <trkpt lat="45.78587" lon="2.95824">
        <ele>1073</ele>
        <time>2015-10-17T17:02:50Z</time>
      </trkpt>
      <trkpt lat="45.78597" lon="2.95919">
        <ele>1078</ele>
        <time>2015-10-17T17:04:50Z</time>
      </trkpt>
      <trkpt lat="45.78615" lon="2.95985">
        <ele>1085</ele>
        <time>2015-10-17T17:06:50Z</time>
      </trkpt>
      <trkpt lat="45.78581" lon="2.9606">
        <ele>1087</ele>
        <time>2015-10-17T17:08:50Z</time>
      </trkpt>
      <trkpt lat="45.7853" lon="2.96129">
        <ele>1093</ele>
        <time>2015-10-17T17:10:50Z</time>
      </trkpt>
      <trkpt lat="45.78494" lon="2.96189">
        <ele>1101</ele>
        <time>2015-10-17T17:12:50Z</time>
      </trkpt>
      <trkpt lat="45.78445" lon="2.96202">
        <ele>1102</ele>
        <time>2015-10-17T17:14:50Z</time>
      </trkpt>
      <trkpt lat="45.78383" lon="2.96279">
        <ele>1110</ele>
        <time>2015-10-17T17:16:50Z</time>
      </trkpt>
      <trkpt lat="45.78377" lon="2.96391">
        <ele>1121</ele>
        <time>2015-10-17T17:18:50Z</time>
      </trkpt>
      <trkpt lat="45.78383" lon="2.9652">
        <ele>1125</ele>
        <time>2015-10-17T17:20:50Z</time>
      </trkpt>
      <trkpt lat="45.78404" lon="2.96623">
        <ele>1125</ele>
        <time>2015-10-17T17:22:50Z</time>
      </trkpt>
      <trkpt lat="45.78437" lon="2.96777">
        <ele>1122</ele>
        <time>2015-10-17T17:24:50Z</time>
      </trkpt>
      <trkpt lat="45.78467" lon="2.96869">
        <ele>1122</ele>
        <time>2015-10-17T17:26:50Z</time>
      </trkpt>
      <trkpt lat="45.785" lon="2.96919">
        <ele>1118</ele>
        <time>2015-10-17T17:28:50Z</time>
      </trkpt>
      <trkpt lat="45.78529" lon="2.9706">
        <ele>1101</ele>
        <time>2015-10-17T17:30:50Z</time>
      </trkpt>
      <trkpt lat="45.78499" lon="2.97155">
        <ele>1094</ele>
        <time>2015-10-17T17:32:50Z</time>
      </trkpt>
      <trkpt lat="45.78476" lon="2.97178">
        <ele>1094</ele>
        <time>2015-10-17T17:34:50Z</time>
      </trkpt>
      <trkpt lat="45.78487" lon="2.97217">
        <ele>1089</ele>
        <time>2015-10-17T17:36:50Z</time>
      </trkpt>
      <trkpt lat="45.78515" lon="2.97223">
        <ele>1086</ele>
        <time>2015-10-17T17:38:50Z</time>
      </trkpt>
      <trkpt lat="45.7853" lon="2.97245">
        <ele>1082</ele>
        <time>2015-10-17T17:40:50Z</time>
      </trkpt>
      <trkpt lat="45.78578" lon="2.97273">
        <ele>1071</ele>
        <time>2015-10-17T17:42:50Z</time>
      </trkpt>
      <trkpt lat="45.78484" lon="2.97468">
        <ele>1046</ele>
        <time>2015-10-17T17:44:50Z</time>
      </trkpt>
      <trkpt lat="45.78424" lon="2.9762">
        <ele>1031</ele>
        <time>2015-10-17T17:46:50Z</time>
      </trkpt>
      <trkpt lat="45.78331" lon="2.97749">
        <ele>1017</ele>
        <time>2015-10-17T17:48:50Z</time>
      </trkpt>
      <trkpt lat="45.78244" lon="2.97865">
        <ele>996</ele>
        <time>2015-10-17T17:50:50Z</time>
      </trkpt>
      <trkpt lat="45.7816" lon="2.97908">
        <ele>985</ele>
        <time>2015-10-17T17:52:50Z</time>
      </trkpt>
      <trkpt lat="45.78168" lon="2.98002">
        <ele>975</ele>
        <time>2015-10-17T17:54:50Z</time>
      </trkpt>
      <trkpt lat="45.78163" lon="2.98127">
        <ele>961</ele>
        <time>2015-10-17T17:56:50Z</time>
      </trkpt>
      <trkpt lat="45.78148" lon="2.98268">
        <ele>949</ele>
        <time>2015-10-17T17:58:50Z</time>
      </trkpt>
      <trkpt lat="45.78136" lon="2.9838">
        <ele>940</ele>
        <time>2015-10-17T18:00:50Z</time>
      </trkpt>
      <trkpt lat="45.78123" lon="2.98577">
        <ele>929</ele>
        <time>2015-10-17T18:02:50Z</time>
      </trkpt>
      <trkpt lat="45.78186" lon="2.98588">
        <ele>928</ele>
        <time>2015-10-17T18:04:50Z</time>
      </trkpt>
      <trkpt lat="45.78306" lon="2.98541">
        <ele>932</ele>
        <time>2015-10-17T18:06:50Z</time>
      </trkpt>
      <trkpt lat="45.78398" lon="2.98519">
        <ele>933</ele>
        <time>2015-10-17T18:08:50Z</time>
      </trkpt>
      <trkpt lat="45.78484" lon="2.98472">
        <ele>934</ele>
        <time>2015-10-17T18:10:50Z</time>
      </trkpt>
      <trkpt lat="45.78555" lon="2.9844">
        <ele>936</ele>
        <time>2015-10-17T18:12:50Z</time>
      </trkpt>
      <trkpt lat="45.78623" lon="2.98421">
        <ele>937</ele>
        <time>2015-10-17T18:14:50Z</time>
      </trkpt>
      <trkpt lat="45.78693" lon="2.9841">
        <ele>937</ele>
        <time>2015-10-17T18:16:50Z</time>
      </trkpt>
      <trkpt lat="45.7876" lon="2.98406">
        <ele>938</ele>
        <time>2015-10-17T18:18:50Z</time>
      </trkpt>
      <trkpt lat="45.78859" lon="2.98446">
        <ele>942</ele>
        <time>2015-10-17T18:20:50Z</time>
      </trkpt>
      <trkpt lat="45.78918" lon="2.98472">
        <ele>944</ele>
        <time>2015-10-17T18:22:50Z</time>
      </trkpt>
      <trkpt lat="45.79146" lon="2.98522">
        <ele>938</ele>
        <time>2015-10-17T18:24:50Z</time>
      </trkpt>
      <trkpt lat="45.79284" lon="2.98575">
        <ele>939</ele>
        <time>2015-10-17T18:26:50Z</time>
      </trkpt>
      <trkpt lat="45.79386" lon="2.98627">
        <ele>942</ele>
        <time>2015-10-17T18:28:50Z</time>
      </trkpt>
      <trkpt lat="45.79417" lon="2.98674">
        <ele>942</ele>
        <time>2015-10-17T18:30:50Z</time>
      </trkpt>
      <trkpt lat="45.79458" lon="2.9873">
        <ele>942</ele>
        <time>2015-10-17T18:32:50Z</time>
      </trkpt>
      <trkpt lat="45.79497" lon="2.98768">
        <ele>942</ele>
        <time>2015-10-17T18:34:50Z</time>
      </trkpt>
      <trkpt lat="45.7958" lon="2.98747">
        <ele>947</ele>
        <time>2015-10-17T18:36:50Z</time>
      </trkpt>
      <trkpt lat="45.79687" lon="2.98796">
        <ele>951</ele>
        <time>2015-10-17T18:38:50Z</time>
      </trkpt>
      <trkpt lat="45.79711" lon="2.98858">
        <ele>952</ele>
        <time>2015-10-17T18:40:50Z</time>
      </trkpt>
      <trkpt lat="45.79769" lon="2.98882">
        <ele>957</ele>
        <time>2015-10-17T18:42:50Z</time>
      </trkpt>
      <trkpt lat="45.79851" lon="2.98899">
        <ele>964</ele>
        <time>2015-10-17T18:44:50Z</time>
      </trkpt>
      <trkpt lat="45.79814" lon="2.9877">
        <ele>964</ele>
        <time>2015-10-17T18:46:50Z</time>
      </trkpt>
      <trkpt lat="45.79878" lon="2.98715">
        <ele>966</ele>
        <time>2015-10-17T18:48:50Z</time>
      </trkpt>
      <trkpt lat="45.79859" lon="2.98627">
        <ele>962</ele>
        <time>2015-10-17T18:50:50Z</time>
      </trkpt>
      <trkpt lat="45.79844" lon="2.98577">
        <ele>962</ele>
        <time>2015-10-17T18:52:50Z</time>
      </trkpt>
      <trkpt lat="45.79824" lon="2.98509">
        <ele>964</ele>
        <time>2015-10-17T18:54:50Z</time>
      </trkpt>
      <trkpt lat="45.79927" lon="2.98401">
        <ele>968</ele>
        <time>2015-10-17T18:56:50Z</time>
      </trkpt>
      <trkpt lat="45.79972" lon="2.98348">
        <ele>970</ele>
        <time>2015-10-17T18:58:50Z</time>
      </trkpt>
      <trkpt lat="45.80032" lon="2.98365">
        <ele>969</ele>
        <time>2015-10-17T19:00:50Z</time>
      </trkpt>
      <trkpt lat="45.80093" lon="2.98414">
        <ele>968</ele>
        <time>2015-10-17T19:02:50Z</time>
      </trkpt>
      <trkpt lat="45.80111" lon="2.98451">
        <ele>969</ele>
        <time>2015-10-17T19:04:50Z</time>
      </trkpt>
      <trkpt lat="45.8014" lon="2.98496">
        <ele>970</ele>
        <time>2015-10-17T19:06:50Z</time>
      </trkpt>
      <trkpt lat="45.80176" lon="2.98513">
        <ele>972</ele>
        <time>2015-10-17T19:08:50Z</time>
      </trkpt>
      <trkpt lat="45.80191" lon="2.98567">
        <ele>973</ele>
        <time>2015-10-17T19:10:50Z</time>
      </trkpt>
      <trkpt lat="45.80201" lon="2.98627">
        <ele>972</ele>
        <time>2015-10-17T19:12:50Z</time>
      </trkpt>
      <trkpt lat="45.80216" lon="2.98672">
        <ele>972</ele>
        <time>2015-10-17T19:14:50Z</time>
      </trkpt>
      <trkpt lat="45.8023" lon="2.98702">
        <ele>974</ele>
        <time>2015-10-17T19:16:50Z</time>
      </trkpt>
      <trkpt lat="45.80258" lon="2.9871">
        <ele>975</ele>
        <time>2015-10-17T19:18:50Z</time>
      </trkpt>
      <trkpt lat="45.803" lon="2.987">
        <ele>974</ele>
        <time>2015-10-17T19:20:50Z</time>
      </trkpt>
      <trkpt lat="45.80347" lon="2.98691">
        <ele>975</ele>
        <time>2015-10-17T19:22:50Z</time>
      </trkpt>
    </trkseg>
  </trk>
  <trk>
    <name><![CDATA[--Pontgibaud-- OR-5370360:ser-fr03-l]]></name>
    <trkseg>
      <trkpt lat="45.81855" lon="2.87784">
        <ele>775</ele>
        <time>2015-10-17T14:42:27Z</time>
      </trkpt>
      <trkpt lat="45.81834" lon="2.87839">
        <ele>776</ele>
        <time>2015-10-17T14:44:27Z</time>
      </trkpt>
      <trkpt lat="45.81821" lon="2.87934">
        <ele>778</ele>
        <time>2015-10-17T14:46:27Z</time>
      </trkpt>
      <trkpt lat="45.81816" lon="2.8803">
        <ele>780</ele>
        <time>2015-10-17T14:48:27Z</time>
      </trkpt>
      <trkpt lat="45.81818" lon="2.88116">
        <ele>782</ele>
        <time>2015-10-17T14:50:27Z</time>
      </trkpt>
      <trkpt lat="45.81833" lon="2.88172">
        <ele>783</ele>
        <time>2015-10-17T14:52:27Z</time>
      </trkpt>
      <trkpt lat="45.81866" lon="2.88223">
        <ele>782</ele>
        <time>2015-10-17T14:54:27Z</time>
      </trkpt>
      <trkpt lat="45.81905" lon="2.88281">
        <ele>781</ele>
        <time>2015-10-17T14:56:27Z</time>
      </trkpt>
      <trkpt lat="45.81919" lon="2.88361">
        <ele>782</ele>
        <time>2015-10-17T14:58:27Z</time>
      </trkpt>
      <trkpt lat="45.81909" lon="2.88427">
        <ele>785</ele>
        <time>2015-10-17T15:00:27Z</time>
      </trkpt>
      <trkpt lat="45.81887" lon="2.88477">
        <ele>787</ele>
        <time>2015-10-17T15:02:27Z</time>
      </trkpt>
      <trkpt lat="45.81863" lon="2.88515">
        <ele>789</ele>
        <time>2015-10-17T15:04:27Z</time>
      </trkpt>
      <trkpt lat="45.81837" lon="2.88552">
        <ele>790</ele>
        <time>2015-10-17T15:06:27Z</time>
      </trkpt>
      <trkpt lat="45.81809" lon="2.88565">
        <ele>791</ele>
        <time>2015-10-17T15:08:27Z</time>
      </trkpt>
      <trkpt lat="45.8178" lon="2.88543">
        <ele>793</ele>
        <time>2015-10-17T15:10:27Z</time>
      </trkpt>
      <trkpt lat="45.81767" lon="2.88541">
        <ele>793</ele>
        <time>2015-10-17T15:12:27Z</time>
      </trkpt>
      <trkpt lat="45.81733" lon="2.88569">
        <ele>794</ele>
        <time>2015-10-17T15:14:27Z</time>
      </trkpt>
      <trkpt lat="45.81704" lon="2.88571">
        <ele>795</ele>
        <time>2015-10-17T15:16:27Z</time>
      </trkpt>
      <trkpt lat="45.81668" lon="2.88569">
        <ele>796</ele>
        <time>2015-10-17T15:18:27Z</time>
      </trkpt>
      <trkpt lat="45.81644" lon="2.88558">
        <ele>798</ele>
        <time>2015-10-17T15:20:27Z</time>
      </trkpt>
      <trkpt lat="45.81622" lon="2.88554">
        <ele>799</ele>
        <time>2015-10-17T15:22:27Z</time>
      </trkpt>
      <trkpt lat="45.81583" lon="2.8856">
        <ele>802</ele>
        <time>2015-10-17T15:24:27Z</time>
      </trkpt>
      <trkpt lat="45.8155" lon="2.88582">
        <ele>804</ele>
        <time>2015-10-17T15:26:27Z</time>
      </trkpt>
      <trkpt lat="45.81546" lon="2.88638">
        <ele>804</ele>
        <time>2015-10-17T15:28:27Z</time>
      </trkpt>
      <trkpt lat="45.8154" lon="2.88717">
        <ele>804</ele>
        <time>2015-10-17T15:30:27Z</time>
      </trkpt>
      <trkpt lat="45.81546" lon="2.88771">
        <ele>805</ele>
        <time>2015-10-17T15:32:27Z</time>
      </trkpt>
      <trkpt lat="45.81535" lon="2.8882">
        <ele>811</ele>
        <time>2015-10-17T15:34:27Z</time>
      </trkpt>
      <trkpt lat="45.81541" lon="2.88899">
        <ele>814</ele>
        <time>2015-10-17T15:36:27Z</time>
      </trkpt>
      <trkpt lat="45.8152" lon="2.88925">
        <ele>817</ele>
        <time>2015-10-17T15:38:27Z</time>
      </trkpt>
      <trkpt lat="45.81496" lon="2.88925">
        <ele>819</ele>
        <time>2015-10-17T15:40:27Z</time>
      </trkpt>
      <trkpt lat="45.81462" lon="2.88912">
        <ele>820</ele>
        <time>2015-10-17T15:42:27Z</time>
      </trkpt>
      <trkpt lat="45.81435" lon="2.88942">
        <ele>819</ele>
        <time>2015-10-17T15:44:27Z</time>
      </trkpt>
      <trkpt lat="45.81423" lon="2.88972">
        <ele>818</ele>
        <time>2015-10-17T15:46:27Z</time>
      </trkpt>
      <trkpt lat="45.81401" lon="2.88983">
        <ele>817</ele>
        <time>2015-10-17T15:48:27Z</time>
      </trkpt>
      <trkpt lat="45.81365" lon="2.88998">
        <ele>817</ele>
        <time>2015-10-17T15:50:27Z</time>
      </trkpt>
      <trkpt lat="45.81341" lon="2.89015">
        <ele>818</ele>
        <time>2015-10-17T15:52:27Z</time>
      </trkpt>
      <trkpt lat="45.81317" lon="2.89047">
        <ele>818</ele>
        <time>2015-10-17T15:54:27Z</time>
      </trkpt>
      <trkpt lat="45.81318" lon="2.8909">
        <ele>818</ele>
        <time>2015-10-17T15:56:27Z</time>
      </trkpt>
      <trkpt lat="45.81308" lon="2.89118">
        <ele>819</ele>
        <time>2015-10-17T15:58:27Z</time>
      </trkpt>
      <trkpt lat="45.81288" lon="2.89159">
        <ele>821</ele>
        <time>2015-10-17T16:00:27Z</time>
      </trkpt>
      <trkpt lat="45.81272" lon="2.89185">
        <ele>822</ele>
        <time>2015-10-17T16:02:27Z</time>
      </trkpt>
      <trkpt lat="45.81248" lon="2.89204">
        <ele>822</ele>
        <time>2015-10-17T16:04:27Z</time>
      </trkpt>
      <trkpt lat="45.81239" lon="2.89258">
        <ele>822</ele>
        <time>2015-10-17T16:06:27Z</time>
      </trkpt>
      <trkpt lat="45.81212" lon="2.89335">
        <ele>822</ele>
        <time>2015-10-17T16:08:27Z</time>
      </trkpt>
      <trkpt lat="45.81209" lon="2.89382">
        <ele>820</ele>
        <time>2015-10-17T16:10:27Z</time>
      </trkpt>
      <trkpt lat="45.81226" lon="2.89438">
        <ele>817</ele>
        <time>2015-10-17T16:12:27Z</time>
      </trkpt>
      <trkpt lat="45.8123" lon="2.89479">
        <ele>816</ele>
        <time>2015-10-17T16:14:27Z</time>
      </trkpt>
      <trkpt lat="45.81212" lon="2.89567">
        <ele>817</ele>
        <time>2015-10-17T16:16:27Z</time>
      </trkpt>
      <trkpt lat="45.81178" lon="2.89595">
        <ele>820</ele>
        <time>2015-10-17T16:18:27Z</time>
      </trkpt>
      <trkpt lat="45.8113" lon="2.89631">
        <ele>823</ele>
        <time>2015-10-17T16:20:27Z</time>
      </trkpt>
      <trkpt lat="45.8111" lon="2.89612">
        <ele>824</ele>
        <time>2015-10-17T16:22:27Z</time>
      </trkpt>
      <trkpt lat="45.81085" lon="2.89607">
        <ele>826</ele>
        <time>2015-10-17T16:24:27Z</time>
      </trkpt>
      <trkpt lat="45.81046" lon="2.89592">
        <ele>827</ele>
        <time>2015-10-17T16:26:27Z</time>
      </trkpt>
      <trkpt lat="45.8103" lon="2.89631">
        <ele>827</ele>
        <time>2015-10-17T16:28:27Z</time>
      </trkpt>
      <trkpt lat="45.81039" lon="2.89665">
        <ele>828</ele>
        <time>2015-10-17T16:30:27Z</time>
      </trkpt>
      <trkpt lat="45.81071" lon="2.89702">
        <ele>825</ele>
        <time>2015-10-17T16:32:27Z</time>
      </trkpt>
      <trkpt lat="45.81037" lon="2.8976">
        <ele>825</ele>
        <time>2015-10-17T16:34:27Z</time>
      </trkpt>
      <trkpt lat="45.81004" lon="2.89783">
        <ele>828</ele>
        <time>2015-10-17T16:36:27Z</time>
      </trkpt>
      <trkpt lat="45.80994" lon="2.89803">
        <ele>829</ele>
        <time>2015-10-17T16:38:27Z</time>
      </trkpt>
      <trkpt lat="45.81007" lon="2.89841">
        <ele>828</ele>
        <time>2015-10-17T16:40:27Z</time>
      </trkpt>
      <trkpt lat="45.81024" lon="2.89878">
        <ele>827</ele>
        <time>2015-10-17T16:42:27Z</time>
      </trkpt>
      <trkpt lat="45.81022" lon="2.89927">
        <ele>827</ele>
        <time>2015-10-17T16:44:27Z</time>
      </trkpt>
      <trkpt lat="45.81007" lon="2.89959">
        <ele>828</ele>
        <time>2015-10-17T16:46:27Z</time>
      </trkpt>
      <trkpt lat="45.80983" lon="2.89987">
        <ele>830</ele>
        <time>2015-10-17T16:48:27Z</time>
      </trkpt>
      <trkpt lat="45.80961" lon="2.90002">
        <ele>832</ele>
        <time>2015-10-17T16:50:27Z</time>
      </trkpt>
      <trkpt lat="45.80928" lon="2.90022">
        <ele>835</ele>
        <time>2015-10-17T16:52:27Z</time>
      </trkpt>
      <trkpt lat="45.80905" lon="2.90034">
        <ele>836</ele>
        <time>2015-10-17T16:54:27Z</time>
      </trkpt>
      <trkpt lat="45.80885" lon="2.90065">
        <ele>837</ele>
        <time>2015-10-17T16:56:27Z</time>
      </trkpt>
      <trkpt lat="45.80859" lon="2.90107">
        <ele>839</ele>
        <time>2015-10-17T16:58:27Z</time>
      </trkpt>
      <trkpt lat="45.80832" lon="2.9015">
        <ele>842</ele>
        <time>2015-10-17T17:00:27Z</time>
      </trkpt>
      <trkpt lat="45.80808" lon="2.90178">
        <ele>842</ele>
        <time>2015-10-17T17:02:27Z</time>
      </trkpt>
      <trkpt lat="45.80787" lon="2.90223">
        <ele>841</ele>
        <time>2015-10-17T17:04:27Z</time>
      </trkpt>
      <trkpt lat="45.80774" lon="2.90283">
        <ele>843</ele>
        <time>2015-10-17T17:06:27Z</time>
      </trkpt>
      <trkpt lat="45.80747" lon="2.90352">
        <ele>846</ele>
        <time>2015-10-17T17:08:27Z</time>
      </trkpt>
      <trkpt lat="45.8073" lon="2.90419">
        <ele>850</ele>
        <time>2015-10-17T17:10:27Z</time>
      </trkpt>
      <trkpt lat="45.80708" lon="2.90446">
        <ele>852</ele>
        <time>2015-10-17T17:12:27Z</time>
      </trkpt>
      <trkpt lat="45.80678" lon="2.90483">
        <ele>854</ele>
        <time>2015-10-17T17:14:27Z</time>
      </trkpt>
      <trkpt lat="45.80669" lon="2.90498">
        <ele>854</ele>
        <time>2015-10-17T17:16:27Z</time>
      </trkpt>
      <trkpt lat="45.80678" lon="2.90545">
        <ele>855</ele>
        <time>2015-10-17T17:18:27Z</time>
      </trkpt>
      <trkpt lat="45.80675" lon="2.90586">
        <ele>857</ele>
        <time>2015-10-17T17:20:27Z</time>
      </trkpt>
      <trkpt lat="45.80684" lon="2.90614">
        <ele>859</ele>
        <time>2015-10-17T17:22:27Z</time>
      </trkpt>
      <trkpt lat="45.8072" lon="2.90648">
        <ele>863</ele>
        <time>2015-10-17T17:24:27Z</time>
      </trkpt>
      <trkpt lat="45.80747" lon="2.90674">
        <ele>865</ele>
        <time>2015-10-17T17:26:27Z</time>
      </trkpt>
      <trkpt lat="45.80778" lon="2.90715">
        <ele>868</ele>
        <time>2015-10-17T17:28:27Z</time>
      </trkpt>
      <trkpt lat="45.80789" lon="2.9077">
        <ele>871</ele>
        <time>2015-10-17T17:30:27Z</time>
      </trkpt>
      <trkpt lat="45.80816" lon="2.90809">
        <ele>873</ele>
        <time>2015-10-17T17:32:27Z</time>
      </trkpt>
      <trkpt lat="45.80834" lon="2.90846">
        <ele>875</ele>
        <time>2015-10-17T17:34:27Z</time>
      </trkpt>
      <trkpt lat="45.80855" lon="2.90904">
        <ele>879</ele>
        <time>2015-10-17T17:36:27Z</time>
      </trkpt>
      <trkpt lat="45.80871" lon="2.90942">
        <ele>880</ele>
        <time>2015-10-17T17:38:27Z</time>
      </trkpt>
      <trkpt lat="45.80862" lon="2.90974">
        <ele>881</ele>
        <time>2015-10-17T17:40:27Z</time>
      </trkpt>
      <trkpt lat="45.80844" lon="2.90987">
        <ele>883</ele>
        <time>2015-10-17T17:42:27Z</time>
      </trkpt>
      <trkpt lat="45.80817" lon="2.91034">
        <ele>886</ele>
        <time>2015-10-17T17:44:27Z</time>
      </trkpt>
      <trkpt lat="45.80799" lon="2.91064">
        <ele>887</ele>
        <time>2015-10-17T17:46:27Z</time>
      </trkpt>
      <trkpt lat="45.80817" lon="2.9115">
        <ele>890</ele>
        <time>2015-10-17T17:48:27Z</time>
      </trkpt>
      <trkpt lat="45.80808" lon="2.91193">
        <ele>892</ele>
        <time>2015-10-17T17:50:27Z</time>
      </trkpt>
      <trkpt lat="45.80777" lon="2.91245">
        <ele>896</ele>
        <time>2015-10-17T17:52:27Z</time>
      </trkpt>
      <trkpt lat="45.80775" lon="2.91277">
        <ele>897</ele>
        <time>2015-10-17T17:54:27Z</time>
      </trkpt>
      <trkpt lat="45.80756" lon="2.91294">
        <ele>898</ele>
        <time>2015-10-17T17:56:27Z</time>
      </trkpt>
      <trkpt lat="45.80733" lon="2.91315">
        <ele>899</ele>
        <time>2015-10-17T17:58:27Z</time>
      </trkpt>
      <trkpt lat="45.8072" lon="2.91343">
        <ele>900</ele>
        <time>2015-10-17T18:00:27Z</time>
      </trkpt>
      <trkpt lat="45.80704" lon="2.91382">
        <ele>902</ele>
        <time>2015-10-17T18:02:27Z</time>
      </trkpt>
      <trkpt lat="45.8069" lon="2.91403">
        <ele>903</ele>
        <time>2015-10-17T18:04:27Z</time>
      </trkpt>
      <trkpt lat="45.80677" lon="2.91427">
        <ele>905</ele>
        <time>2015-10-17T18:06:27Z</time>
      </trkpt>
      <trkpt lat="45.80632" lon="2.91464">
        <ele>907</ele>
        <time>2015-10-17T18:08:27Z</time>
      </trkpt>
      <trkpt lat="45.80614" lon="2.91485">
        <ele>907</ele>
        <time>2015-10-17T18:10:27Z</time>
      </trkpt>
      <trkpt lat="45.8059" lon="2.91517">
        <ele>908</ele>
        <time>2015-10-17T18:12:27Z</time>
      </trkpt>
      <trkpt lat="45.80546" lon="2.91569">
        <ele>909</ele>
        <time>2015-10-17T18:14:27Z</time>
      </trkpt>
      <trkpt lat="45.80532" lon="2.91599">
        <ele>909</ele>
        <time>2015-10-17T18:16:27Z</time>
      </trkpt>
      <trkpt lat="45.80521" lon="2.91631">
        <ele>909</ele>
        <time>2015-10-17T18:18:27Z</time>
      </trkpt>
      <trkpt lat="45.8053" lon="2.91672">
        <ele>910</ele>
        <time>2015-10-17T18:20:27Z</time>
      </trkpt>
      <trkpt lat="45.80554" lon="2.91704">
        <ele>913</ele>
        <time>2015-10-17T18:22:27Z</time>
      </trkpt>
      <trkpt lat="45.80578" lon="2.91736">
        <ele>916</ele>
        <time>2015-10-17T18:24:27Z</time>
      </trkpt>
      <trkpt lat="45.80564" lon="2.918">
        <ele>919</ele>
        <time>2015-10-17T18:26:27Z</time>
      </trkpt>
      <trkpt lat="45.80584" lon="2.9183">
        <ele>922</ele>
        <time>2015-10-17T18:28:27Z</time>
      </trkpt>
      <trkpt lat="45.80594" lon="2.91863">
        <ele>922</ele>
        <time>2015-10-17T18:30:27Z</time>
      </trkpt>
      <trkpt lat="45.80611" lon="2.91867">
        <ele>922</ele>
        <time>2015-10-17T18:32:27Z</time>
      </trkpt>
      <trkpt lat="45.80602" lon="2.91925">
        <ele>922</ele>
        <time>2015-10-17T18:34:27Z</time>
      </trkpt>
      <trkpt lat="45.806" lon="2.91964">
        <ele>923</ele>
        <time>2015-10-17T18:36:27Z</time>
      </trkpt>
      <trkpt lat="45.80588" lon="2.92002">
        <ele>925</ele>
        <time>2015-10-17T18:38:27Z</time>
      </trkpt>
      <trkpt lat="45.80581" lon="2.92067">
        <ele>927</ele>
        <time>2015-10-17T18:40:27Z</time>
      </trkpt>
      <trkpt lat="45.80591" lon="2.92114">
        <ele>929</ele>
        <time>2015-10-17T18:42:27Z</time>
      </trkpt>
      <trkpt lat="45.80597" lon="2.9212">
        <ele>928</ele>
        <time>2015-10-17T18:44:27Z</time>
      </trkpt>
      <trkpt lat="45.80597" lon="2.92154">
        <ele>930</ele>
        <time>2015-10-17T18:46:27Z</time>
      </trkpt>
      <trkpt lat="45.80617" lon="2.92157">
        <ele>929</ele>
        <time>2015-10-17T18:48:27Z</time>
      </trkpt>
      <trkpt lat="45.80626" lon="2.92189">
        <ele>930</ele>
        <time>2015-10-17T18:50:27Z</time>
      </trkpt>
      <trkpt lat="45.8065" lon="2.92193">
        <ele>929</ele>
        <time>2015-10-17T18:52:27Z</time>
      </trkpt>
      <trkpt lat="45.80657" lon="2.92215">
        <ele>930</ele>
        <time>2015-10-17T18:54:27Z</time>
      </trkpt>
      <trkpt lat="45.80666" lon="2.92247">
        <ele>932</ele>
        <time>2015-10-17T18:56:27Z</time>
      </trkpt>
      <trkpt lat="45.80684" lon="2.92253">
        <ele>932</ele>
        <time>2015-10-17T18:58:27Z</time>
      </trkpt>
      <trkpt lat="45.80684" lon="2.92305">
        <ele>934</ele>
        <time>2015-10-17T19:00:27Z</time>
      </trkpt>
      <trkpt lat="45.80674" lon="2.92328">
        <ele>935</ele>
        <time>2015-10-17T19:02:27Z</time>
      </trkpt>
      <trkpt lat="45.80692" lon="2.92373">
        <ele>936</ele>
        <time>2015-10-17T19:04:27Z</time>
      </trkpt>
      <trkpt lat="45.80674" lon="2.92367">
        <ele>936</ele>
        <time>2015-10-17T19:06:27Z</time>
      </trkpt>
      <trkpt lat="45.80642" lon="2.92343">
        <ele>937</ele>
        <time>2015-10-17T19:08:27Z</time>
      </trkpt>
      <trkpt lat="45.80633" lon="2.9236">
        <ele>937</ele>
        <time>2015-10-17T19:10:27Z</time>
      </trkpt>
      <trkpt lat="45.80639" lon="2.92395">
        <ele>938</ele>
        <time>2015-10-17T19:12:27Z</time>
      </trkpt>
      <trkpt lat="45.80642" lon="2.9244">
        <ele>939</ele>
        <time>2015-10-17T19:14:27Z</time>
      </trkpt>
      <trkpt lat="45.80645" lon="2.92487">
        <ele>941</ele>
        <time>2015-10-17T19:16:27Z</time>
      </trkpt>
      <trkpt lat="45.80647" lon="2.92543">
        <ele>942</ele>
        <time>2015-10-17T19:18:27Z</time>
      </trkpt>
      <trkpt lat="45.80609" lon="2.92566">
        <ele>944</ele>
        <time>2015-10-17T19:20:27Z</time>
      </trkpt>
      <trkpt lat="45.80596" lon="2.92601">
        <ele>945</ele>
        <time>2015-10-17T19:22:27Z</time>
      </trkpt>
      <trkpt lat="45.80608" lon="2.92612">
        <ele>945</ele>
        <time>2015-10-17T19:24:27Z</time>
      </trkpt>
      <trkpt lat="45.80611" lon="2.9268">
        <ele>947</ele>
        <time>2015-10-17T19:26:27Z</time>
      </trkpt>
      <trkpt lat="45.806" lon="2.92693">
        <ele>947</ele>
        <time>2015-10-17T19:28:27Z</time>
      </trkpt>
      <trkpt lat="45.80609" lon="2.92732">
        <ele>947</ele>
        <time>2015-10-17T19:30:27Z</time>
      </trkpt>
      <trkpt lat="45.806" lon="2.92762">
        <ele>948</ele>
        <time>2015-10-17T19:32:27Z</time>
      </trkpt>
      <trkpt lat="45.80597" lon="2.92818">
        <ele>947</ele>
        <time>2015-10-17T19:34:27Z</time>
      </trkpt>
      <trkpt lat="45.80582" lon="2.9283">
        <ele>947</ele>
        <time>2015-10-17T19:36:27Z</time>
      </trkpt>
      <trkpt lat="45.80587" lon="2.92843">
        <ele>947</ele>
        <time>2015-10-17T19:38:27Z</time>
      </trkpt>
      <trkpt lat="45.80572" lon="2.92867">
        <ele>947</ele>
        <time>2015-10-17T19:40:27Z</time>
      </trkpt>
      <trkpt lat="45.80555" lon="2.92953">
        <ele>945</ele>
        <time>2015-10-17T19:42:27Z</time>
      </trkpt>
      <trkpt lat="45.8057" lon="2.92985">
        <ele>943</ele>
        <time>2015-10-17T19:44:27Z</time>
      </trkpt>
      <trkpt lat="45.80578" lon="2.9303">
        <ele>942</ele>
        <time>2015-10-17T19:46:27Z</time>
      </trkpt>
      <trkpt lat="45.80569" lon="2.93047">
        <ele>942</ele>
        <time>2015-10-17T19:48:27Z</time>
      </trkpt>
      <trkpt lat="45.80566" lon="2.93066">
        <ele>942</ele>
        <time>2015-10-17T19:50:27Z</time>
      </trkpt>
      <trkpt lat="45.80557" lon="2.93077">
        <ele>942</ele>
        <time>2015-10-17T19:52:27Z</time>
      </trkpt>
      <trkpt lat="45.80551" lon="2.93103">
        <ele>943</ele>
        <time>2015-10-17T19:54:27Z</time>
      </trkpt>
      <trkpt lat="45.80545" lon="2.9315">
        <ele>943</ele>
        <time>2015-10-17T19:56:27Z</time>
      </trkpt>
      <trkpt lat="45.80551" lon="2.93202">
        <ele>944</ele>
        <time>2015-10-17T19:58:27Z</time>
      </trkpt>
      <trkpt lat="45.80557" lon="2.93236">
        <ele>944</ele>
        <time>2015-10-17T20:00:27Z</time>
      </trkpt>
      <trkpt lat="45.80579" lon="2.93272">
        <ele>941</ele>
        <time>2015-10-17T20:02:27Z</time>
      </trkpt>
      <trkpt lat="45.80581" lon="2.93311">
        <ele>940</ele>
        <time>2015-10-17T20:04:27Z</time>
      </trkpt>
      <trkpt lat="45.80564" lon="2.93337">
        <ele>941</ele>
        <time>2015-10-17T20:06:27Z</time>
      </trkpt>
      <trkpt lat="45.80535" lon="2.93365">
        <ele>944</ele>
        <time>2015-10-17T20:08:27Z</time>
      </trkpt>
      <trkpt lat="45.80491" lon="2.9342">
        <ele>948</ele>
        <time>2015-10-17T20:10:27Z</time>
      </trkpt>
      <trkpt lat="45.80469" lon="2.93459">
        <ele>949</ele>
        <time>2015-10-17T20:12:27Z</time>
      </trkpt>
      <trkpt lat="45.80447" lon="2.93521">
        <ele>950</ele>
        <time>2015-10-17T20:14:27Z</time>
      </trkpt>
      <trkpt lat="45.80432" lon="2.93536">
        <ele>950</ele>
        <time>2015-10-17T20:16:27Z</time>
      </trkpt>
      <trkpt lat="45.80436" lon="2.93564">
        <ele>948</ele>
        <time>2015-10-17T20:18:27Z</time>
      </trkpt>
      <trkpt lat="45.80409" lon="2.93614">
        <ele>948</ele>
        <time>2015-10-17T20:20:27Z</time>
      </trkpt>
      <trkpt lat="45.80421" lon="2.93648">
        <ele>946</ele>
        <time>2015-10-17T20:22:27Z</time>
      </trkpt>
      <trkpt lat="45.8042" lon="2.93697">
        <ele>945</ele>
        <time>2015-10-17T20:24:27Z</time>
      </trkpt>
      <trkpt lat="45.80421" lon="2.93751">
        <ele>945</ele>
        <time>2015-10-17T20:26:27Z</time>
      </trkpt>
      <trkpt lat="45.80448" lon="2.938">
        <ele>942</ele>
        <time>2015-10-17T20:28:27Z</time>
      </trkpt>
      <trkpt lat="45.8047" lon="2.9385">
        <ele>938</ele>
        <time>2015-10-17T20:30:27Z</time>
      </trkpt>
      <trkpt lat="45.80484" lon="2.93908">
        <ele>934</ele>
        <time>2015-10-17T20:32:27Z</time>
      </trkpt>
      <trkpt lat="45.80494" lon="2.93961">
        <ele>932</ele>
        <time>2015-10-17T20:34:27Z</time>
      </trkpt>
      <trkpt lat="45.80496" lon="2.94011">
        <ele>931</ele>
        <time>2015-10-17T20:36:27Z</time>
      </trkpt>
      <trkpt lat="45.80505" lon="2.94073">
        <ele>930</ele>
        <time>2015-10-17T20:38:27Z</time>
      </trkpt>
      <trkpt lat="45.80545" lon="2.94146">
        <ele>929</ele>
        <time>2015-10-17T20:40:27Z</time>
      </trkpt>
      <trkpt lat="45.80511" lon="2.94223">
        <ele>935</ele>
        <time>2015-10-17T20:42:27Z</time>
      </trkpt>
      <trkpt lat="45.80481" lon="2.94305">
        <ele>940</ele>
        <time>2015-10-17T20:44:27Z</time>
      </trkpt>
      <trkpt lat="45.80454" lon="2.94382">
        <ele>943</ele>
        <time>2015-10-17T20:46:27Z</time>
      </trkpt>
      <trkpt lat="45.80439" lon="2.94433">
        <ele>944</ele>
        <time>2015-10-17T20:48:27Z</time>
      </trkpt>
      <trkpt lat="45.80415" lon="2.94457">
        <ele>947</ele>
        <time>2015-10-17T20:50:27Z</time>
      </trkpt>
      <trkpt lat="45.80381" lon="2.94493">
        <ele>953</ele>
        <time>2015-10-17T20:52:27Z</time>
      </trkpt>
      <trkpt lat="45.80363" lon="2.94556">
        <ele>957</ele>
        <time>2015-10-17T20:54:27Z</time>
      </trkpt>
      <trkpt lat="45.80325" lon="2.94674">
        <ele>961</ele>
        <time>2015-10-17T20:56:27Z</time>
      </trkpt>
      <trkpt lat="45.80291" lon="2.94725">
        <ele>967</ele>
        <time>2015-10-17T20:58:27Z</time>
      </trkpt>
      <trkpt lat="45.80263" lon="2.94785">
        <ele>970</ele>
        <time>2015-10-17T21:00:27Z</time>
      </trkpt>
      <trkpt lat="45.80227" lon="2.94798">
        <ele>978</ele>
        <time>2015-10-17T21:02:27Z</time>
      </trkpt>
      <trkpt lat="45.80204" lon="2.94796">
        <ele>985</ele>
        <time>2015-10-17T21:04:27Z</time>
      </trkpt>
      <trkpt lat="45.80161" lon="2.94837">
        <ele>991</ele>
        <time>2015-10-17T21:06:27Z</time>
      </trkpt>
      <trkpt lat="45.80114" lon="2.94882">
        <ele>997</ele>
        <time>2015-10-17T21:08:27Z</time>
      </trkpt>
      <trkpt lat="45.80059" lon="2.94916">
        <ele>1002</ele>
        <time>2015-10-17T21:10:27Z</time>
      </trkpt>
      <trkpt lat="45.80028" lon="2.9492">
        <ele>1007</ele>
        <time>2015-10-17T21:12:27Z</time>
      </trkpt>
      <trkpt lat="45.79989" lon="2.94929">
        <ele>1013</ele>
        <time>2015-10-17T21:14:27Z</time>
      </trkpt>
      <trkpt lat="45.7998" lon="2.94932">
        <ele>1014</ele>
        <time>2015-10-17T21:16:27Z</time>
      </trkpt>
      <trkpt lat="45.79957" lon="2.94949">
        <ele>1016</ele>
        <time>2015-10-17T21:18:27Z</time>
      </trkpt>
      <trkpt lat="45.79947" lon="2.9496">
        <ele>1016</ele>
        <time>2015-10-17T21:20:27Z</time>
      </trkpt>
      <trkpt lat="45.79932" lon="2.94968">
        <ele>1018</ele>
        <time>2015-10-17T21:22:27Z</time>
      </trkpt>
      <trkpt lat="45.79908" lon="2.94981">
        <ele>1018</ele>
        <time>2015-10-17T21:24:27Z</time>
      </trkpt>
      <trkpt lat="45.79906" lon="2.95009">
        <ele>1015</ele>
        <time>2015-10-17T21:26:27Z</time>
      </trkpt>
      <trkpt lat="45.79942" lon="2.95048">
        <ele>1010</ele>
        <time>2015-10-17T21:28:27Z</time>
      </trkpt>
      <trkpt lat="45.79969" lon="2.9508">
        <ele>1006</ele>
        <time>2015-10-17T21:30:27Z</time>
      </trkpt>
      <trkpt lat="45.8002" lon="2.95091">
        <ele>1002</ele>
        <time>2015-10-17T21:32:27Z</time>
      </trkpt>
      <trkpt lat="45.80064" lon="2.95095">
        <ele>999</ele>
        <time>2015-10-17T21:34:27Z</time>
      </trkpt>
      <trkpt lat="45.80086" lon="2.95131">
        <ele>998</ele>
        <time>2015-10-17T21:36:27Z</time>
      </trkpt>
      <trkpt lat="45.80129" lon="2.95112">
        <ele>995</ele>
        <time>2015-10-17T21:38:27Z</time>
      </trkpt>
      <trkpt lat="45.80185" lon="2.95144">
        <ele>990</ele>
        <time>2015-10-17T21:40:27Z</time>
      </trkpt>
      <trkpt lat="45.80234" lon="2.95144">
        <ele>984</ele>
        <time>2015-10-17T21:42:27Z</time>
      </trkpt>
      <trkpt lat="45.80282" lon="2.95133">
        <ele>980</ele>
        <time>2015-10-17T21:44:27Z</time>
      </trkpt>
      <trkpt lat="45.80324" lon="2.95112">
        <ele>976</ele>
        <time>2015-10-17T21:46:27Z</time>
      </trkpt>
      <trkpt lat="45.80367" lon="2.9508">
        <ele>971</ele>
        <time>2015-10-17T21:48:27Z</time>
      </trkpt>
      <trkpt lat="45.80433" lon="2.95039">
        <ele>961</ele>
        <time>2015-10-17T21:50:27Z</time>
      </trkpt>
      <trkpt lat="45.80487" lon="2.95005">
        <ele>957</ele>
        <time>2015-10-17T21:52:27Z</time>
      </trkpt>
      <trkpt lat="45.8053" lon="2.94983">
        <ele>954</ele>
        <time>2015-10-17T21:54:27Z</time>
      </trkpt>
      <trkpt lat="45.80578" lon="2.95024">
        <ele>956</ele>
        <time>2015-10-17T21:56:27Z</time>
      </trkpt>
      <trkpt lat="45.80625" lon="2.95018">
        <ele>956</ele>
        <time>2015-10-17T21:58:27Z</time>
      </trkpt>
      <trkpt lat="45.80665" lon="2.95039">
        <ele>956</ele>
        <time>2015-10-17T22:00:27Z</time>
      </trkpt>
      <trkpt lat="45.80689" lon="2.95088">
        <ele>959</ele>
        <time>2015-10-17T22:02:27Z</time>
      </trkpt>
      <trkpt lat="45.80711" lon="2.95144">
        <ele>963</ele>
        <time>2015-10-17T22:04:27Z</time>
      </trkpt>
      <trkpt lat="45.80741" lon="2.95196">
        <ele>965</ele>
        <time>2015-10-17T22:06:27Z</time>
      </trkpt>
      <trkpt lat="45.80764" lon="2.95266">
        <ele>967</ele>
        <time>2015-10-17T22:08:27Z</time>
      </trkpt>
      <trkpt lat="45.8078" lon="2.95322">
        <ele>967</ele>
        <time>2015-10-17T22:10:27Z</time>
      </trkpt>
      <trkpt lat="45.80791" lon="2.95372">
        <ele>968</ele>
        <time>2015-10-17T22:12:27Z</time>
      </trkpt>
      <trkpt lat="45.80806" lon="2.9544">
        <ele>968</ele>
        <time>2015-10-17T22:14:27Z</time>
      </trkpt>
      <trkpt lat="45.8082" lon="2.95507">
        <ele>968</ele>
        <time>2015-10-17T22:16:27Z</time>
      </trkpt>
      <trkpt lat="45.80853" lon="2.95575">
        <ele>969</ele>
        <time>2015-10-17T22:18:27Z</time>
      </trkpt>
      <trkpt lat="45.80894" lon="2.95631">
        <ele>973</ele>
        <time>2015-10-17T22:20:27Z</time>
      </trkpt>
      <trkpt lat="45.80939" lon="2.95689">
        <ele>975</ele>
        <time>2015-10-17T22:22:27Z</time>
      </trkpt>
      <trkpt lat="45.80967" lon="2.95745">
        <ele>976</ele>
        <time>2015-10-17T22:24:27Z</time>
      </trkpt>
      <trkpt lat="45.8101" lon="2.95811">
        <ele>977</ele>
        <time>2015-10-17T22:26:27Z</time>
      </trkpt>
      <trkpt lat="45.81018" lon="2.9588">
        <ele>979</ele>
        <time>2015-10-17T22:28:27Z</time>
      </trkpt>
      <trkpt lat="45.81025" lon="2.95966">
        <ele>980</ele>
        <time>2015-10-17T22:30:27Z</time>
      </trkpt>
      <trkpt lat="45.81036" lon="2.96024">
        <ele>981</ele>
        <time>2015-10-17T22:32:27Z</time>
      </trkpt>
      <trkpt lat="45.81046" lon="2.96118">
        <ele>984</ele>
        <time>2015-10-17T22:34:27Z</time>
      </trkpt>
      <trkpt lat="45.81037" lon="2.96159">
        <ele>985</ele>
        <time>2015-10-17T22:36:27Z</time>
      </trkpt>
      <trkpt lat="45.81028" lon="2.96202">
        <ele>985</ele>
        <time>2015-10-17T22:38:27Z</time>
      </trkpt>
      <trkpt lat="45.81027" lon="2.96292">
        <ele>982</ele>
        <time>2015-10-17T22:40:27Z</time>
      </trkpt>
      <trkpt lat="45.81031" lon="2.96365">
        <ele>981</ele>
        <time>2015-10-17T22:42:27Z</time>
      </trkpt>
      <trkpt lat="45.81064" lon="2.96394">
        <ele>980</ele>
        <time>2015-10-17T22:44:27Z</time>
      </trkpt>
      <trkpt lat="45.81078" lon="2.96343">
        <ele>978</ele>
        <time>2015-10-17T22:46:27Z</time>
      </trkpt>
      <trkpt lat="45.8109" lon="2.96287">
        <ele>979</ele>
        <time>2015-10-17T22:48:27Z</time>
      </trkpt>
      <trkpt lat="45.81108" lon="2.9622">
        <ele>981</ele>
        <time>2015-10-17T22:50:27Z</time>
      </trkpt>
      <trkpt lat="45.81164" lon="2.96255">
        <ele>977</ele>
        <time>2015-10-17T22:52:27Z</time>
      </trkpt>
      <trkpt lat="45.81217" lon="2.96276">
        <ele>974</ele>
        <time>2015-10-17T22:54:27Z</time>
      </trkpt>
      <trkpt lat="45.81256" lon="2.96304">
        <ele>972</ele>
        <time>2015-10-17T22:56:27Z</time>
      </trkpt>
      <trkpt lat="45.8128" lon="2.96346">
        <ele>972</ele>
        <time>2015-10-17T22:58:27Z</time>
      </trkpt>
      <trkpt lat="45.81313" lon="2.96408">
        <ele>974</ele>
        <time>2015-10-17T23:00:27Z</time>
      </trkpt>
      <trkpt lat="45.81345" lon="2.96477">
        <ele>974</ele>
        <time>2015-10-17T23:02:27Z</time>
      </trkpt>
      <trkpt lat="45.81377" lon="2.96532">
        <ele>972</ele>
        <time>2015-10-17T23:04:27Z</time>
      </trkpt>
      <trkpt lat="45.81396" lon="2.96593">
        <ele>971</ele>
        <time>2015-10-17T23:06:27Z</time>
      </trkpt>
      <trkpt lat="45.81429" lon="2.96642">
        <ele>970</ele>
        <time>2015-10-17T23:08:27Z</time>
      </trkpt>
      <trkpt lat="45.8145" lon="2.96685">
        <ele>969</ele>
        <time>2015-10-17T23:10:27Z</time>
      </trkpt>
      <trkpt lat="45.81473" lon="2.96747">
        <ele>968</ele>
        <time>2015-10-17T23:12:27Z</time>
      </trkpt>
      <trkpt lat="45.81502" lon="2.96816">
        <ele>970</ele>
        <time>2015-10-17T23:14:27Z</time>
      </trkpt>
      <trkpt lat="45.81532" lon="2.96874">
        <ele>972</ele>
        <time>2015-10-17T23:16:27Z</time>
      </trkpt>
      <trkpt lat="45.81552" lon="2.96932">
        <ele>973</ele>
        <time>2015-10-17T23:18:27Z</time>
      </trkpt>
      <trkpt lat="45.81525" lon="2.96981">
        <ele>974</ele>
        <time>2015-10-17T23:20:27Z</time>
      </trkpt>
      <trkpt lat="45.81491" lon="2.97032">
        <ele>976</ele>
        <time>2015-10-17T23:22:27Z</time>
      </trkpt>
      <trkpt lat="45.81461" lon="2.97075">
        <ele>976</ele>
        <time>2015-10-17T23:24:27Z</time>
      </trkpt>
      <trkpt lat="45.81434" lon="2.97097">
        <ele>976</ele>
        <time>2015-10-17T23:26:27Z</time>
      </trkpt>
      <trkpt lat="45.81408" lon="2.97127">
        <ele>976</ele>
        <time>2015-10-17T23:28:27Z</time>
      </trkpt>
      <trkpt lat="45.81378" lon="2.97155">
        <ele>975</ele>
        <time>2015-10-17T23:30:27Z</time>
      </trkpt>
      <trkpt lat="45.81342" lon="2.97178">
        <ele>973</ele>
        <time>2015-10-17T23:32:27Z</time>
      </trkpt>
      <trkpt lat="45.8131" lon="2.97183">
        <ele>973</ele>
        <time>2015-10-17T23:34:27Z</time>
      </trkpt>
      <trkpt lat="45.81275" lon="2.97189">
        <ele>974</ele>
        <time>2015-10-17T23:36:27Z</time>
      </trkpt>
      <trkpt lat="45.81251" lon="2.97196">
        <ele>974</ele>
        <time>2015-10-17T23:38:27Z</time>
      </trkpt>
      <trkpt lat="45.81211" lon="2.97208">
        <ele>977</ele>
        <time>2015-10-17T23:40:27Z</time>
      </trkpt>
      <trkpt lat="45.81164" lon="2.97223">
        <ele>978</ele>
        <time>2015-10-17T23:42:27Z</time>
      </trkpt>
      <trkpt lat="45.81123" lon="2.97232">
        <ele>977</ele>
        <time>2015-10-17T23:44:27Z</time>
      </trkpt>
      <trkpt lat="45.81084" lon="2.97234">
        <ele>977</ele>
        <time>2015-10-17T23:46:27Z</time>
      </trkpt>
      <trkpt lat="45.81066" lon="2.97262">
        <ele>974</ele>
        <time>2015-10-17T23:48:27Z</time>
      </trkpt>
      <trkpt lat="45.81118" lon="2.9729">
        <ele>973</ele>
        <time>2015-10-17T23:50:27Z</time>
      </trkpt>
      <trkpt lat="45.81172" lon="2.9732">
        <ele>971</ele>
        <time>2015-10-17T23:52:27Z</time>
      </trkpt>
      <trkpt lat="45.81229" lon="2.9735">
        <ele>971</ele>
        <time>2015-10-17T23:54:27Z</time>
      </trkpt>
      <trkpt lat="45.81281" lon="2.97382">
        <ele>970</ele>
        <time>2015-10-17T23:56:27Z</time>
      </trkpt>
      <trkpt lat="45.81338" lon="2.97414">
        <ele>969</ele>
        <time>2015-10-17T23:58:27Z</time>
      </trkpt>
      <trkpt lat="45.81404" lon="2.97438">
        <ele>967</ele>
        <time>2015-10-18T00:00:27Z</time>
      </trkpt>
      <trkpt lat="45.81485" lon="2.97462">
        <ele>964</ele>
        <time>2015-10-18T00:02:27Z</time>
      </trkpt>
      <trkpt lat="45.81534" lon="2.97477">
        <ele>962</ele>
        <time>2015-10-18T00:04:27Z</time>
      </trkpt>
      <trkpt lat="45.81601" lon="2.97517">
        <ele>960</ele>
        <time>2015-10-18T00:06:27Z</time>
      </trkpt>
      <trkpt lat="45.81668" lon="2.97567">
        <ele>958</ele>
        <time>2015-10-18T00:08:27Z</time>
      </trkpt>
      <trkpt lat="45.81703" lon="2.97627">
        <ele>962</ele>
        <time>2015-10-18T00:10:27Z</time>
      </trkpt>
      <trkpt lat="45.81734" lon="2.97702">
        <ele>967</ele>
        <time>2015-10-18T00:12:27Z</time>
      </trkpt>
      <trkpt lat="45.81761" lon="2.97749">
        <ele>967</ele>
        <time>2015-10-18T00:14:27Z</time>
      </trkpt>
      <trkpt lat="45.81776" lon="2.97805">
        <ele>974</ele>
        <time>2015-10-18T00:16:27Z</time>
      </trkpt>
      <trkpt lat="45.81778" lon="2.97856">
        <ele>981</ele>
        <time>2015-10-18T00:18:27Z</time>
      </trkpt>
      <trkpt lat="45.81781" lon="2.97906">
        <ele>988</ele>
        <time>2015-10-18T00:20:27Z</time>
      </trkpt>
      <trkpt lat="45.81799" lon="2.97951">
        <ele>993</ele>
        <time>2015-10-18T00:22:27Z</time>
      </trkpt>
      <trkpt lat="45.81805" lon="2.98009">
        <ele>999</ele>
        <time>2015-10-18T00:24:27Z</time>
      </trkpt>
      <trkpt lat="45.81818" lon="2.98069">
        <ele>998</ele>
        <time>2015-10-18T00:26:27Z</time>
      </trkpt>
      <trkpt lat="45.81824" lon="2.98116">
        <ele>997</ele>
        <time>2015-10-18T00:28:27Z</time>
      </trkpt>
      <trkpt lat="45.81824" lon="2.9817">
        <ele>998</ele>
        <time>2015-10-18T00:30:27Z</time>
      </trkpt>
      <trkpt lat="45.81818" lon="2.98219">
        <ele>1003</ele>
        <time>2015-10-18T00:32:27Z</time>
      </trkpt>
      <trkpt lat="45.81809" lon="2.98273">
        <ele>1008</ele>
        <time>2015-10-18T00:34:27Z</time>
      </trkpt>
      <trkpt lat="45.81796" lon="2.9832">
        <ele>1013</ele>
        <time>2015-10-18T00:36:27Z</time>
      </trkpt>
      <trkpt lat="45.81781" lon="2.9838">
        <ele>1009</ele>
        <time>2015-10-18T00:38:27Z</time>
      </trkpt>
      <trkpt lat="45.81784" lon="2.9844">
        <ele>998</ele>
        <time>2015-10-18T00:40:27Z</time>
      </trkpt>
      <trkpt lat="45.81773" lon="2.98492">
        <ele>985</ele>
        <time>2015-10-18T00:42:27Z</time>
      </trkpt>
      <trkpt lat="45.81784" lon="2.98543">
        <ele>971</ele>
        <time>2015-10-18T00:44:27Z</time>
      </trkpt>
      <trkpt lat="45.81779" lon="2.98603">
        <ele>956</ele>
        <time>2015-10-18T00:46:27Z</time>
      </trkpt>
      <trkpt lat="45.81739" lon="2.98612">
        <ele>955</ele>
        <time>2015-10-18T00:48:27Z</time>
      </trkpt>
      <trkpt lat="45.81736" lon="2.98635">
        <ele>952</ele>
        <time>2015-10-18T00:50:27Z</time>
      </trkpt>
      <trkpt lat="45.81781" lon="2.9865">
        <ele>947</ele>
        <time>2015-10-18T00:52:27Z</time>
      </trkpt>
      <trkpt lat="45.81827" lon="2.9868">
        <ele>938</ele>
        <time>2015-10-18T00:54:27Z</time>
      </trkpt>
      <trkpt lat="45.81876" lon="2.98717">
        <ele>926</ele>
        <time>2015-10-18T00:56:27Z</time>
      </trkpt>
      <trkpt lat="45.8184" lon="2.98745">
        <ele>922</ele>
        <time>2015-10-18T00:58:27Z</time>
      </trkpt>
      <trkpt lat="45.81826" lon="2.98775">
        <ele>920</ele>
        <time>2015-10-18T01:00:27Z</time>
      </trkpt>
      <trkpt lat="45.81784" lon="2.98835">
        <ele>920</ele>
        <time>2015-10-18T01:02:27Z</time>
      </trkpt>
      <trkpt lat="45.81839" lon="2.98835">
        <ele>913</ele>
        <time>2015-10-18T01:04:27Z</time>
      </trkpt>
      <trkpt lat="45.81908" lon="2.98831">
        <ele>906</ele>
        <time>2015-10-18T01:06:27Z</time>
      </trkpt>
      <trkpt lat="45.81965" lon="2.98822">
        <ele>904</ele>
        <time>2015-10-18T01:08:27Z</time>
      </trkpt>
      <trkpt lat="45.82012" lon="2.98809">
        <ele>904</ele>
        <time>2015-10-18T01:10:27Z</time>
      </trkpt>
      <trkpt lat="45.82069" lon="2.98779">
        <ele>904</ele>
        <time>2015-10-18T01:12:27Z</time>
      </trkpt>
      <trkpt lat="45.82105" lon="2.98747">
        <ele>904</ele>
        <time>2015-10-18T01:14:27Z</time>
      </trkpt>
      <trkpt lat="45.8214" lon="2.9873">
        <ele>906</ele>
        <time>2015-10-18T01:16:27Z</time>
      </trkpt>
      <trkpt lat="45.82137" lon="2.98749">
        <ele>904</ele>
        <time>2015-10-18T01:18:27Z</time>
      </trkpt>
      <trkpt lat="45.82114" lon="2.98764">
        <ele>904</ele>
        <time>2015-10-18T01:20:27Z</time>
      </trkpt>
      <trkpt lat="45.82102" lon="2.98794">
        <ele>905</ele>
        <time>2015-10-18T01:22:27Z</time>
      </trkpt>
      <trkpt lat="45.82075" lon="2.98805">
        <ele>904</ele>
        <time>2015-10-18T01:24:27Z</time>
      </trkpt>
      <trkpt lat="45.82054" lon="2.98833">
        <ele>904</ele>
        <time>2015-10-18T01:26:27Z</time>
      </trkpt>
      <trkpt lat="45.82032" lon="2.98876">
        <ele>904</ele>
        <time>2015-10-18T01:28:27Z</time>
      </trkpt>
      <trkpt lat="45.82017" lon="2.9894">
        <ele>906</ele>
        <time>2015-10-18T01:30:27Z</time>
      </trkpt>
      <trkpt lat="45.82006" lon="2.99004">
        <ele>908</ele>
        <time>2015-10-18T01:32:27Z</time>
      </trkpt>
      <trkpt lat="45.81981" lon="2.99054">
        <ele>907</ele>
        <time>2015-10-18T01:34:27Z</time>
      </trkpt>
      <trkpt lat="45.81953" lon="2.99092">
        <ele>907</ele>
        <time>2015-10-18T01:36:27Z</time>
      </trkpt>
      <trkpt lat="45.81923" lon="2.99127">
        <ele>907</ele>
        <time>2015-10-18T01:38:27Z</time>
      </trkpt>
      <trkpt lat="45.81891" lon="2.99167">
        <ele>907</ele>
        <time>2015-10-18T01:40:27Z</time>
      </trkpt>
      <trkpt lat="45.81858" lon="2.992">
        <ele>908</ele>
        <time>2015-10-18T01:42:27Z</time>
      </trkpt>
      <trkpt lat="45.81828" lon="2.99249">
        <ele>906</ele>
        <time>2015-10-18T01:44:27Z</time>
      </trkpt>
      <trkpt lat="45.81805" lon="2.99285">
        <ele>906</ele>
        <time>2015-10-18T01:46:27Z</time>
      </trkpt>
      <trkpt lat="45.81778" lon="2.99339">
        <ele>904</ele>
        <time>2015-10-18T01:48:27Z</time>
      </trkpt>
      <trkpt lat="45.81767" lon="2.99373">
        <ele>904</ele>
        <time>2015-10-18T01:50:27Z</time>
      </trkpt>
      <trkpt lat="45.81743" lon="2.99427">
        <ele>905</ele>
        <time>2015-10-18T01:52:27Z</time>
      </trkpt>
      <trkpt lat="45.81707" lon="2.99414">
        <ele>909</ele>
        <time>2015-10-18T01:54:27Z</time>
      </trkpt>
      <trkpt lat="45.81674" lon="2.99403">
        <ele>913</ele>
        <time>2015-10-18T01:56:27Z</time>
      </trkpt>
      <trkpt lat="45.8164" lon="2.99403">
        <ele>914</ele>
        <time>2015-10-18T01:58:27Z</time>
      </trkpt>
      <trkpt lat="45.81613" lon="2.99412">
        <ele>915</ele>
        <time>2015-10-18T02:00:27Z</time>
      </trkpt>
      <trkpt lat="45.81567" lon="2.99423">
        <ele>917</ele>
        <time>2015-10-18T02:02:27Z</time>
      </trkpt>
      <trkpt lat="45.81523" lon="2.99399">
        <ele>920</ele>
        <time>2015-10-18T02:04:27Z</time>
      </trkpt>
      <trkpt lat="45.81491" lon="2.99403">
        <ele>923</ele>
        <time>2015-10-18T02:06:27Z</time>
      </trkpt>
      <trkpt lat="45.81453" lon="2.9941">
        <ele>925</ele>
        <time>2015-10-18T02:08:27Z</time>
      </trkpt>
      <trkpt lat="45.81405" lon="2.99419">
        <ele>929</ele>
        <time>2015-10-18T02:10:27Z</time>
      </trkpt>
      <trkpt lat="45.81366" lon="2.99423">
        <ele>931</ele>
        <time>2015-10-18T02:12:27Z</time>
      </trkpt>
      <trkpt lat="45.81314" lon="2.99431">
        <ele>934</ele>
        <time>2015-10-18T02:14:27Z</time>
      </trkpt>
      <trkpt lat="45.81272" lon="2.99444">
        <ele>937</ele>
        <time>2015-10-18T02:16:27Z</time>
      </trkpt>
      <trkpt lat="45.81239" lon="2.99446">
        <ele>939</ele>
        <time>2015-10-18T02:18:27Z</time>
      </trkpt>
      <trkpt lat="45.81208" lon="2.99451">
        <ele>942</ele>
        <time>2015-10-18T02:20:27Z</time>
      </trkpt>
      <trkpt lat="45.81161" lon="2.99446">
        <ele>945</ele>
        <time>2015-10-18T02:22:27Z</time>
      </trkpt>
      <trkpt lat="45.81121" lon="2.99431">
        <ele>949</ele>
        <time>2015-10-18T02:24:27Z</time>
      </trkpt>
      <trkpt lat="45.81081" lon="2.99416">
        <ele>953</ele>
        <time>2015-10-18T02:26:27Z</time>
      </trkpt>
      <trkpt lat="45.81045" lon="2.99393">
        <ele>955</ele>
        <time>2015-10-18T02:28:27Z</time>
      </trkpt>
      <trkpt lat="45.81001" lon="2.99386">
        <ele>958</ele>
        <time>2015-10-18T02:30:27Z</time>
      </trkpt>
      <trkpt lat="45.80967" lon="2.99382">
        <ele>959</ele>
        <time>2015-10-18T02:32:27Z</time>
      </trkpt>
      <trkpt lat="45.80943" lon="2.99365">
        <ele>957</ele>
        <time>2015-10-18T02:34:27Z</time>
      </trkpt>
      <trkpt lat="45.80904" lon="2.99358">
        <ele>958</ele>
        <time>2015-10-18T02:36:27Z</time>
      </trkpt>
      <trkpt lat="45.8087" lon="2.99363">
        <ele>962</ele>
        <time>2015-10-18T02:38:27Z</time>
      </trkpt>
      <trkpt lat="45.80835" lon="2.99371">
        <ele>966</ele>
        <time>2015-10-18T02:40:27Z</time>
      </trkpt>
      <trkpt lat="45.80797" lon="2.99378">
        <ele>968</ele>
        <time>2015-10-18T02:42:27Z</time>
      </trkpt>
      <trkpt lat="45.80738" lon="2.99388">
        <ele>970</ele>
        <time>2015-10-18T02:44:27Z</time>
      </trkpt>
      <trkpt lat="45.80702" lon="2.99386">
        <ele>970</ele>
        <time>2015-10-18T02:46:27Z</time>
      </trkpt>
      <trkpt lat="45.80677" lon="2.9938">
        <ele>969</ele>
        <time>2015-10-18T02:48:27Z</time>
      </trkpt>
      <trkpt lat="45.8065" lon="2.99352">
        <ele>970</ele>
        <time>2015-10-18T02:50:27Z</time>
      </trkpt>
      <trkpt lat="45.8062" lon="2.99322">
        <ele>971</ele>
        <time>2015-10-18T02:52:27Z</time>
      </trkpt>
      <trkpt lat="45.80596" lon="2.99288">
        <ele>973</ele>
        <time>2015-10-18T02:54:27Z</time>
      </trkpt>
      <trkpt lat="45.80568" lon="2.99266">
        <ele>975</ele>
        <time>2015-10-18T02:56:27Z</time>
      </trkpt>
      <trkpt lat="45.80536" lon="2.99247">
        <ele>977</ele>
        <time>2015-10-18T02:58:27Z</time>
      </trkpt>
      <trkpt lat="45.80512" lon="2.99223">
        <ele>978</ele>
        <time>2015-10-18T03:00:27Z</time>
      </trkpt>
      <trkpt lat="45.80491" lon="2.992">
        <ele>979</ele>
        <time>2015-10-18T03:02:27Z</time>
      </trkpt>
      <trkpt lat="45.80461" lon="2.99152">
        <ele>977</ele>
        <time>2015-10-18T03:04:27Z</time>
      </trkpt>
      <trkpt lat="45.80433" lon="2.9911">
        <ele>974</ele>
        <time>2015-10-18T03:06:27Z</time>
      </trkpt>
      <trkpt lat="45.80405" lon="2.9906">
        <ele>972</ele>
        <time>2015-10-18T03:08:27Z</time>
      </trkpt>
      <trkpt lat="45.80406" lon="2.99019">
        <ele>972</ele>
        <time>2015-10-18T03:10:27Z</time>
      </trkpt>
      <trkpt lat="45.80396" lon="2.98938">
        <ele>976</ele>
        <time>2015-10-18T03:12:27Z</time>
      </trkpt>
      <trkpt lat="45.80379" lon="2.98904">
        <ele>977</ele>
        <time>2015-10-18T03:14:27Z</time>
      </trkpt>
      <trkpt lat="45.80366" lon="2.98861">
        <ele>978</ele>
        <time>2015-10-18T03:16:27Z</time>
      </trkpt>
      <trkpt lat="45.80378" lon="2.98807">
        <ele>978</ele>
        <time>2015-10-18T03:18:27Z</time>
      </trkpt>
      <trkpt lat="45.80361" lon="2.98773">
        <ele>977</ele>
        <time>2015-10-18T03:20:27Z</time>
      </trkpt>
      <trkpt lat="45.80324" lon="2.98766">
        <ele>975</ele>
        <time>2015-10-18T03:22:27Z</time>
      </trkpt>
    </trkseg>
  </trk>
  <trk>
    <name><![CDATA[--Saint-Genès-Champanelle-- OR-5370364:ser-fr04-b2]]></name>
    <trkseg>
      <trkpt lat="45.70151" lon="2.96726">
        <ele>986</ele>
        <time>2015-10-17T14:43:56Z</time>
      </trkpt>
      <trkpt lat="45.70132" lon="2.96642">
        <ele>987</ele>
        <time>2015-10-17T14:45:56Z</time>
      </trkpt>
      <trkpt lat="45.70126" lon="2.9659">
        <ele>990</ele>
        <time>2015-10-17T14:47:56Z</time>
      </trkpt>
      <trkpt lat="45.701" lon="2.96521">
        <ele>995</ele>
        <time>2015-10-17T14:49:56Z</time>
      </trkpt>
      <trkpt lat="45.7008" lon="2.96521">
        <ele>994</ele>
        <time>2015-10-17T14:51:56Z</time>
      </trkpt>
      <trkpt lat="45.70076" lon="2.96414">
        <ele>1002</ele>
        <time>2015-10-17T14:53:56Z</time>
      </trkpt>
      <trkpt lat="45.70083" lon="2.96326">
        <ele>1006</ele>
        <time>2015-10-17T14:55:56Z</time>
      </trkpt>
      <trkpt lat="45.70113" lon="2.96197">
        <ele>1001</ele>
        <time>2015-10-17T14:57:56Z</time>
      </trkpt>
      <trkpt lat="45.70155" lon="2.96116">
        <ele>999</ele>
        <time>2015-10-17T14:59:56Z</time>
      </trkpt>
      <trkpt lat="45.702" lon="2.96042">
        <ele>1001</ele>
        <time>2015-10-17T15:01:56Z</time>
      </trkpt>
      <trkpt lat="45.70231" lon="2.96092">
        <ele>1013</ele>
        <time>2015-10-17T15:03:56Z</time>
      </trkpt>
      <trkpt lat="45.70276" lon="2.96159">
        <ele>1043</ele>
        <time>2015-10-17T15:05:56Z</time>
      </trkpt>
      <trkpt lat="45.7032" lon="2.96152">
        <ele>1059</ele>
        <time>2015-10-17T15:07:56Z</time>
      </trkpt>
      <trkpt lat="45.70366" lon="2.96161">
        <ele>1070</ele>
        <time>2015-10-17T15:09:56Z</time>
      </trkpt>
      <trkpt lat="45.70368" lon="2.96223">
        <ele>1087</ele>
        <time>2015-10-17T15:11:56Z</time>
      </trkpt>
      <trkpt lat="45.70401" lon="2.96252">
        <ele>1107</ele>
        <time>2015-10-17T15:13:56Z</time>
      </trkpt>
      <trkpt lat="45.70453" lon="2.96319">
        <ele>1128</ele>
        <time>2015-10-17T15:15:56Z</time>
      </trkpt>
      <trkpt lat="45.70506" lon="2.96335">
        <ele>1145</ele>
        <time>2015-10-17T15:17:56Z</time>
      </trkpt>
      <trkpt lat="45.70578" lon="2.96309">
        <ele>1142</ele>
        <time>2015-10-17T15:19:56Z</time>
      </trkpt>
      <trkpt lat="45.70618" lon="2.96276">
        <ele>1135</ele>
        <time>2015-10-17T15:21:56Z</time>
      </trkpt>
      <trkpt lat="45.70649" lon="2.9623">
        <ele>1133</ele>
        <time>2015-10-17T15:23:56Z</time>
      </trkpt>
      <trkpt lat="45.70671" lon="2.9619">
        <ele>1130</ele>
        <time>2015-10-17T15:25:56Z</time>
      </trkpt>
      <trkpt lat="45.70671" lon="2.9613">
        <ele>1126</ele>
        <time>2015-10-17T15:27:56Z</time>
      </trkpt>
      <trkpt lat="45.70664" lon="2.96102">
        <ele>1123</ele>
        <time>2015-10-17T15:29:56Z</time>
      </trkpt>
      <trkpt lat="45.70701" lon="2.96032">
        <ele>1112</ele>
        <time>2015-10-17T15:31:56Z</time>
      </trkpt>
      <trkpt lat="45.70757" lon="2.96028">
        <ele>1101</ele>
        <time>2015-10-17T15:33:56Z</time>
      </trkpt>
      <trkpt lat="45.70731" lon="2.95945">
        <ele>1100</ele>
        <time>2015-10-17T15:35:56Z</time>
      </trkpt>
      <trkpt lat="45.70788" lon="2.95955">
        <ele>1101</ele>
        <time>2015-10-17T15:37:56Z</time>
      </trkpt>
      <trkpt lat="45.70781" lon="2.95933">
        <ele>1101</ele>
        <time>2015-10-17T15:39:56Z</time>
      </trkpt>
      <trkpt lat="45.70844" lon="2.95952">
        <ele>1111</ele>
        <time>2015-10-17T15:41:56Z</time>
      </trkpt>
      <trkpt lat="45.70944" lon="2.95979">
        <ele>1130</ele>
        <time>2015-10-17T15:43:56Z</time>
      </trkpt>
      <trkpt lat="45.71004" lon="2.95949">
        <ele>1146</ele>
        <time>2015-10-17T15:45:56Z</time>
      </trkpt>
      <trkpt lat="45.7105" lon="2.95918">
        <ele>1152</ele>
        <time>2015-10-17T15:47:56Z</time>
      </trkpt>
      <trkpt lat="45.71104" lon="2.95849">
        <ele>1160</ele>
        <time>2015-10-17T15:49:56Z</time>
      </trkpt>
      <trkpt lat="45.711" lon="2.95828">
        <ele>1165</ele>
        <time>2015-10-17T15:51:56Z</time>
      </trkpt>
      <trkpt lat="45.7112" lon="2.9578">
        <ele>1160</ele>
        <time>2015-10-17T15:53:56Z</time>
      </trkpt>
      <trkpt lat="45.71139" lon="2.95728">
        <ele>1160</ele>
        <time>2015-10-17T15:55:56Z</time>
      </trkpt>
      <trkpt lat="45.71167" lon="2.95623">
        <ele>1163</ele>
        <time>2015-10-17T15:57:56Z</time>
      </trkpt>
      <trkpt lat="45.71172" lon="2.95558">
        <ele>1158</ele>
        <time>2015-10-17T15:59:56Z</time>
      </trkpt>
      <trkpt lat="45.71157" lon="2.95494">
        <ele>1147</ele>
        <time>2015-10-17T16:01:56Z</time>
      </trkpt>
      <trkpt lat="45.71124" lon="2.95441">
        <ele>1134</ele>
        <time>2015-10-17T16:03:56Z</time>
      </trkpt>
      <trkpt lat="45.71089" lon="2.95372">
        <ele>1128</ele>
        <time>2015-10-17T16:05:56Z</time>
      </trkpt>
      <trkpt lat="45.71062" lon="2.95368">
        <ele>1127</ele>
        <time>2015-10-17T16:07:56Z</time>
      </trkpt>
      <trkpt lat="45.70984" lon="2.95313">
        <ele>1124</ele>
        <time>2015-10-17T16:09:56Z</time>
      </trkpt>
      <trkpt lat="45.70942" lon="2.95315">
        <ele>1117</ele>
        <time>2015-10-17T16:11:56Z</time>
      </trkpt>
      <trkpt lat="45.70909" lon="2.95329">
        <ele>1111</ele>
        <time>2015-10-17T16:13:56Z</time>
      </trkpt>
      <trkpt lat="45.70869" lon="2.9532">
        <ele>1099</ele>
        <time>2015-10-17T16:15:56Z</time>
      </trkpt>
      <trkpt lat="45.70814" lon="2.95315">
        <ele>1084</ele>
        <time>2015-10-17T16:17:56Z</time>
      </trkpt>
      <trkpt lat="45.70779" lon="2.9532">
        <ele>1075</ele>
        <time>2015-10-17T16:19:56Z</time>
      </trkpt>
      <trkpt lat="45.70736" lon="2.95329">
        <ele>1064</ele>
        <time>2015-10-17T16:21:56Z</time>
      </trkpt>
      <trkpt lat="45.70716" lon="2.95332">
        <ele>1058</ele>
        <time>2015-10-17T16:23:56Z</time>
      </trkpt>
      <trkpt lat="45.70688" lon="2.9531">
        <ele>1050</ele>
        <time>2015-10-17T16:25:56Z</time>
      </trkpt>
      <trkpt lat="45.70601" lon="2.95294">
        <ele>1032</ele>
        <time>2015-10-17T16:27:56Z</time>
      </trkpt>
      <trkpt lat="45.70564" lon="2.95342">
        <ele>1024</ele>
        <time>2015-10-17T16:29:56Z</time>
      </trkpt>
      <trkpt lat="45.70494" lon="2.95408">
        <ele>1013</ele>
        <time>2015-10-17T16:31:56Z</time>
      </trkpt>
      <trkpt lat="45.70469" lon="2.95444">
        <ele>1010</ele>
        <time>2015-10-17T16:33:56Z</time>
      </trkpt>
      <trkpt lat="45.70464" lon="2.95563">
        <ele>1002</ele>
        <time>2015-10-17T16:35:56Z</time>
      </trkpt>
      <trkpt lat="45.70434" lon="2.95618">
        <ele>999</ele>
        <time>2015-10-17T16:37:56Z</time>
      </trkpt>
      <trkpt lat="45.70402" lon="2.95649">
        <ele>997</ele>
        <time>2015-10-17T16:39:56Z</time>
      </trkpt>
      <trkpt lat="45.70372" lon="2.95709">
        <ele>998</ele>
        <time>2015-10-17T16:41:56Z</time>
      </trkpt>
      <trkpt lat="45.70359" lon="2.95792">
        <ele>1001</ele>
        <time>2015-10-17T16:43:56Z</time>
      </trkpt>
      <trkpt lat="45.70317" lon="2.95857">
        <ele>996</ele>
        <time>2015-10-17T16:45:56Z</time>
      </trkpt>
      <trkpt lat="45.70292" lon="2.95902">
        <ele>995</ele>
        <time>2015-10-17T16:47:56Z</time>
      </trkpt>
      <trkpt lat="45.70259" lon="2.95969">
        <ele>998</ele>
        <time>2015-10-17T16:49:56Z</time>
      </trkpt>
      <trkpt lat="45.70227" lon="2.95973">
        <ele>997</ele>
        <time>2015-10-17T16:51:56Z</time>
      </trkpt>
      <trkpt lat="45.70219" lon="2.95885">
        <ele>993</ele>
        <time>2015-10-17T16:53:56Z</time>
      </trkpt>
      <trkpt lat="45.70194" lon="2.95854">
        <ele>993</ele>
        <time>2015-10-17T16:55:56Z</time>
      </trkpt>
      <trkpt lat="45.70162" lon="2.95773">
        <ele>993</ele>
        <time>2015-10-17T16:57:56Z</time>
      </trkpt>
      <trkpt lat="45.70129" lon="2.95737">
        <ele>994</ele>
        <time>2015-10-17T16:59:56Z</time>
      </trkpt>
      <trkpt lat="45.70077" lon="2.95737">
        <ele>995</ele>
        <time>2015-10-17T17:01:56Z</time>
      </trkpt>
      <trkpt lat="45.70024" lon="2.95728">
        <ele>997</ele>
        <time>2015-10-17T17:03:56Z</time>
      </trkpt>
      <trkpt lat="45.69989" lon="2.9568">
        <ele>1002</ele>
        <time>2015-10-17T17:05:56Z</time>
      </trkpt>
      <trkpt lat="45.69979" lon="2.95606">
        <ele>1005</ele>
        <time>2015-10-17T17:07:56Z</time>
      </trkpt>
      <trkpt lat="45.70009" lon="2.95477">
        <ele>1009</ele>
        <time>2015-10-17T17:09:56Z</time>
      </trkpt>
      <trkpt lat="45.69973" lon="2.95415">
        <ele>1003</ele>
        <time>2015-10-17T17:11:56Z</time>
      </trkpt>
      <trkpt lat="45.69938" lon="2.95394">
        <ele>996</ele>
        <time>2015-10-17T17:13:56Z</time>
      </trkpt>
      <trkpt lat="45.69938" lon="2.95291">
        <ele>994</ele>
        <time>2015-10-17T17:15:56Z</time>
      </trkpt>
      <trkpt lat="45.69911" lon="2.9521">
        <ele>991</ele>
        <time>2015-10-17T17:17:56Z</time>
      </trkpt>
      <trkpt lat="45.69896" lon="2.9511">
        <ele>992</ele>
        <time>2015-10-17T17:19:56Z</time>
      </trkpt>
      <trkpt lat="45.69876" lon="2.95017">
        <ele>993</ele>
        <time>2015-10-17T17:21:56Z</time>
      </trkpt>
      <trkpt lat="45.69829" lon="2.94934">
        <ele>993</ele>
        <time>2015-10-17T17:23:56Z</time>
      </trkpt>
      <trkpt lat="45.69784" lon="2.94829">
        <ele>997</ele>
        <time>2015-10-17T17:25:56Z</time>
      </trkpt>
      <trkpt lat="45.69749" lon="2.94743">
        <ele>998</ele>
        <time>2015-10-17T17:27:56Z</time>
      </trkpt>
      <trkpt lat="45.69723" lon="2.94803">
        <ele>996</ele>
        <time>2015-10-17T17:29:56Z</time>
      </trkpt>
      <trkpt lat="45.69689" lon="2.94861">
        <ele>993</ele>
        <time>2015-10-17T17:31:56Z</time>
      </trkpt>
      <trkpt lat="45.69646" lon="2.94961">
        <ele>990</ele>
        <time>2015-10-17T17:33:56Z</time>
      </trkpt>
      <trkpt lat="45.69626" lon="2.94992">
        <ele>989</ele>
        <time>2015-10-17T17:35:56Z</time>
      </trkpt>
      <trkpt lat="45.69593" lon="2.95075">
        <ele>985</ele>
        <time>2015-10-17T17:37:56Z</time>
      </trkpt>
      <trkpt lat="45.69585" lon="2.95125">
        <ele>982</ele>
        <time>2015-10-17T17:39:56Z</time>
      </trkpt>
      <trkpt lat="45.6954" lon="2.95161">
        <ele>978</ele>
        <time>2015-10-17T17:41:56Z</time>
      </trkpt>
      <trkpt lat="45.6953" lon="2.95206">
        <ele>976</ele>
        <time>2015-10-17T17:43:56Z</time>
      </trkpt>
      <trkpt lat="45.6951" lon="2.95264">
        <ele>974</ele>
        <time>2015-10-17T17:45:56Z</time>
      </trkpt>
      <trkpt lat="45.69481" lon="2.95335">
        <ele>972</ele>
        <time>2015-10-17T17:47:56Z</time>
      </trkpt>
      <trkpt lat="45.69465" lon="2.95354">
        <ele>971</ele>
        <time>2015-10-17T17:49:56Z</time>
      </trkpt>
      <trkpt lat="45.69423" lon="2.95305">
        <ele>970</ele>
        <time>2015-10-17T17:51:56Z</time>
      </trkpt>
      <trkpt lat="45.69368" lon="2.95215">
        <ele>967</ele>
        <time>2015-10-17T17:53:56Z</time>
      </trkpt>
      <trkpt lat="45.69312" lon="2.95127">
        <ele>969</ele>
        <time>2015-10-17T17:55:56Z</time>
      </trkpt>
      <trkpt lat="45.69242" lon="2.95134">
        <ele>964</ele>
        <time>2015-10-17T17:57:56Z</time>
      </trkpt>
      <trkpt lat="45.6916" lon="2.95134">
        <ele>959</ele>
        <time>2015-10-17T17:59:56Z</time>
      </trkpt>
      <trkpt lat="45.69103" lon="2.95122">
        <ele>958</ele>
        <time>2015-10-17T18:01:56Z</time>
      </trkpt>
      <trkpt lat="45.69057" lon="2.95112">
        <ele>958</ele>
        <time>2015-10-17T18:03:56Z</time>
      </trkpt>
      <trkpt lat="45.69043" lon="2.95126">
        <ele>957</ele>
        <time>2015-10-17T18:05:56Z</time>
      </trkpt>
      <trkpt lat="45.69018" lon="2.95147">
        <ele>958</ele>
        <time>2015-10-17T18:07:56Z</time>
      </trkpt>
      <trkpt lat="45.68985" lon="2.95121">
        <ele>958</ele>
        <time>2015-10-17T18:09:56Z</time>
      </trkpt>
      <trkpt lat="45.68938" lon="2.95109">
        <ele>957</ele>
        <time>2015-10-17T18:11:56Z</time>
      </trkpt>
      <trkpt lat="45.68896" lon="2.95131">
        <ele>959</ele>
        <time>2015-10-17T18:13:56Z</time>
      </trkpt>
      <trkpt lat="45.68838" lon="2.95121">
        <ele>957</ele>
        <time>2015-10-17T18:15:56Z</time>
      </trkpt>
      <trkpt lat="45.68785" lon="2.95123">
        <ele>956</ele>
        <time>2015-10-17T18:17:56Z</time>
      </trkpt>
      <trkpt lat="45.68758" lon="2.9515">
        <ele>959</ele>
        <time>2015-10-17T18:19:56Z</time>
      </trkpt>
      <trkpt lat="45.68718" lon="2.95154">
        <ele>956</ele>
        <time>2015-10-17T18:21:56Z</time>
      </trkpt>
      <trkpt lat="45.68666" lon="2.95216">
        <ele>955</ele>
        <time>2015-10-17T18:23:56Z</time>
      </trkpt>
      <trkpt lat="45.68661" lon="2.95305">
        <ele>958</ele>
        <time>2015-10-17T18:25:56Z</time>
      </trkpt>
      <trkpt lat="45.68653" lon="2.9535">
        <ele>958</ele>
        <time>2015-10-17T18:27:56Z</time>
      </trkpt>
      <trkpt lat="45.68645" lon="2.95441">
        <ele>957</ele>
        <time>2015-10-17T18:29:56Z</time>
      </trkpt>
      <trkpt lat="45.68616" lon="2.95435">
        <ele>957</ele>
        <time>2015-10-17T18:31:56Z</time>
      </trkpt>
      <trkpt lat="45.68589" lon="2.95408">
        <ele>955</ele>
        <time>2015-10-17T18:33:56Z</time>
      </trkpt>
      <trkpt lat="45.68559" lon="2.95408">
        <ele>956</ele>
        <time>2015-10-17T18:35:56Z</time>
      </trkpt>
      <trkpt lat="45.68551" lon="2.95437">
        <ele>958</ele>
        <time>2015-10-17T18:37:56Z</time>
      </trkpt>
      <trkpt lat="45.68529" lon="2.95456">
        <ele>961</ele>
        <time>2015-10-17T18:39:56Z</time>
      </trkpt>
      <trkpt lat="45.68506" lon="2.95461">
        <ele>963</ele>
        <time>2015-10-17T18:41:56Z</time>
      </trkpt>
      <trkpt lat="45.68472" lon="2.95506">
        <ele>966</ele>
        <time>2015-10-17T18:43:56Z</time>
      </trkpt>
      <trkpt lat="45.68527" lon="2.95533">
        <ele>968</ele>
        <time>2015-10-17T18:45:56Z</time>
      </trkpt>
      <trkpt lat="45.68562" lon="2.95619">
        <ele>978</ele>
        <time>2015-10-17T18:47:56Z</time>
      </trkpt>
      <trkpt lat="45.68597" lon="2.95704">
        <ele>991</ele>
        <time>2015-10-17T18:49:56Z</time>
      </trkpt>
      <trkpt lat="45.68612" lon="2.9575">
        <ele>998</ele>
        <time>2015-10-17T18:51:56Z</time>
      </trkpt>
      <trkpt lat="45.68654" lon="2.95778">
        <ele>1000</ele>
        <time>2015-10-17T18:53:56Z</time>
      </trkpt>
      <trkpt lat="45.6868" lon="2.95826">
        <ele>1007</ele>
        <time>2015-10-17T18:55:56Z</time>
      </trkpt>
      <trkpt lat="45.6876" lon="2.95857">
        <ele>1000</ele>
        <time>2015-10-17T18:57:56Z</time>
      </trkpt>
      <trkpt lat="45.68777" lon="2.95895">
        <ele>1012</ele>
        <time>2015-10-17T18:59:56Z</time>
      </trkpt>
      <trkpt lat="45.68815" lon="2.95924">
        <ele>1008</ele>
        <time>2015-10-17T19:01:56Z</time>
      </trkpt>
      <trkpt lat="45.68835" lon="2.95976">
        <ele>1017</ele>
        <time>2015-10-17T19:03:56Z</time>
      </trkpt>
      <trkpt lat="45.6884" lon="2.96033">
        <ele>1025</ele>
        <time>2015-10-17T19:05:56Z</time>
      </trkpt>
      <trkpt lat="45.68829" lon="2.96112">
        <ele>1031</ele>
        <time>2015-10-17T19:07:56Z</time>
      </trkpt>
      <trkpt lat="45.68799" lon="2.96169">
        <ele>1029</ele>
        <time>2015-10-17T19:09:56Z</time>
      </trkpt>
      <trkpt lat="45.68805" lon="2.9626">
        <ele>1022</ele>
        <time>2015-10-17T19:11:56Z</time>
      </trkpt>
      <trkpt lat="45.68779" lon="2.96324">
        <ele>1027</ele>
        <time>2015-10-17T19:13:56Z</time>
      </trkpt>
      <trkpt lat="45.68745" lon="2.96403">
        <ele>1041</ele>
        <time>2015-10-17T19:15:56Z</time>
      </trkpt>
      <trkpt lat="45.68697" lon="2.9647">
        <ele>1041</ele>
        <time>2015-10-17T19:17:56Z</time>
      </trkpt>
      <trkpt lat="45.68652" lon="2.96517">
        <ele>1033</ele>
        <time>2015-10-17T19:19:56Z</time>
      </trkpt>
      <trkpt lat="45.686" lon="2.96534">
        <ele>1023</ele>
        <time>2015-10-17T19:21:56Z</time>
      </trkpt>
      <trkpt lat="45.68555" lon="2.96544">
        <ele>1014</ele>
        <time>2015-10-17T19:23:56Z</time>
      </trkpt>
      <trkpt lat="45.68522" lon="2.96503">
        <ele>1016</ele>
        <time>2015-10-17T19:25:56Z</time>
      </trkpt>
      <trkpt lat="45.6849" lon="2.96496">
        <ele>1010</ele>
        <time>2015-10-17T19:27:56Z</time>
      </trkpt>
      <trkpt lat="45.68452" lon="2.96475">
        <ele>1004</ele>
        <time>2015-10-17T19:29:56Z</time>
      </trkpt>
      <trkpt lat="45.68409" lon="2.96494">
        <ele>992</ele>
        <time>2015-10-17T19:31:56Z</time>
      </trkpt>
      <trkpt lat="45.68379" lon="2.96544">
        <ele>984</ele>
        <time>2015-10-17T19:33:56Z</time>
      </trkpt>
      <trkpt lat="45.68354" lon="2.96565">
        <ele>980</ele>
        <time>2015-10-17T19:35:56Z</time>
      </trkpt>
      <trkpt lat="45.68311" lon="2.96584">
        <ele>974</ele>
        <time>2015-10-17T19:37:56Z</time>
      </trkpt>
      <trkpt lat="45.68269" lon="2.96606">
        <ele>969</ele>
        <time>2015-10-17T19:39:56Z</time>
      </trkpt>
      <trkpt lat="45.68244" lon="2.96618">
        <ele>967</ele>
        <time>2015-10-17T19:41:56Z</time>
      </trkpt>
      <trkpt lat="45.68249" lon="2.96684">
        <ele>967</ele>
        <time>2015-10-17T19:43:56Z</time>
      </trkpt>
      <trkpt lat="45.68282" lon="2.96749">
        <ele>965</ele>
        <time>2015-10-17T19:45:56Z</time>
      </trkpt>
      <trkpt lat="45.68334" lon="2.96794">
        <ele>965</ele>
        <time>2015-10-17T19:47:56Z</time>
      </trkpt>
      <trkpt lat="45.68402" lon="2.96782">
        <ele>968</ele>
        <time>2015-10-17T19:49:56Z</time>
      </trkpt>
      <trkpt lat="45.68474" lon="2.96773">
        <ele>966</ele>
        <time>2015-10-17T19:51:56Z</time>
      </trkpt>
      <trkpt lat="45.68507" lon="2.96744">
        <ele>969</ele>
        <time>2015-10-17T19:53:56Z</time>
      </trkpt>
      <trkpt lat="45.68572" lon="2.96753">
        <ele>966</ele>
        <time>2015-10-17T19:55:56Z</time>
      </trkpt>
      <trkpt lat="45.68655" lon="2.96758">
        <ele>962</ele>
        <time>2015-10-17T19:57:56Z</time>
      </trkpt>
      <trkpt lat="45.6872" lon="2.96721">
        <ele>968</ele>
        <time>2015-10-17T19:59:56Z</time>
      </trkpt>
      <trkpt lat="45.68784" lon="2.9669">
        <ele>971</ele>
        <time>2015-10-17T20:01:56Z</time>
      </trkpt>
      <trkpt lat="45.68808" lon="2.96656">
        <ele>973</ele>
        <time>2015-10-17T20:03:56Z</time>
      </trkpt>
      <trkpt lat="45.68868" lon="2.96647">
        <ele>972</ele>
        <time>2015-10-17T20:05:56Z</time>
      </trkpt>
      <trkpt lat="45.68921" lon="2.96575">
        <ele>970</ele>
        <time>2015-10-17T20:07:56Z</time>
      </trkpt>
      <trkpt lat="45.68999" lon="2.96549">
        <ele>969</ele>
        <time>2015-10-17T20:09:56Z</time>
      </trkpt>
      <trkpt lat="45.69056" lon="2.96549">
        <ele>971</ele>
        <time>2015-10-17T20:11:56Z</time>
      </trkpt>
      <trkpt lat="45.69107" lon="2.96582">
        <ele>972</ele>
        <time>2015-10-17T20:13:56Z</time>
      </trkpt>
      <trkpt lat="45.69137" lon="2.96634">
        <ele>972</ele>
        <time>2015-10-17T20:15:56Z</time>
      </trkpt>
      <trkpt lat="45.69182" lon="2.96694">
        <ele>972</ele>
        <time>2015-10-17T20:17:56Z</time>
      </trkpt>
      <trkpt lat="45.69228" lon="2.96694">
        <ele>972</ele>
        <time>2015-10-17T20:19:56Z</time>
      </trkpt>
      <trkpt lat="45.69285" lon="2.96732">
        <ele>967</ele>
        <time>2015-10-17T20:21:56Z</time>
      </trkpt>
      <trkpt lat="45.69367" lon="2.9672">
        <ele>964</ele>
        <time>2015-10-17T20:23:56Z</time>
      </trkpt>
      <trkpt lat="45.69383" lon="2.96677">
        <ele>965</ele>
        <time>2015-10-17T20:25:56Z</time>
      </trkpt>
      <trkpt lat="45.69438" lon="2.96701">
        <ele>964</ele>
        <time>2015-10-17T20:27:56Z</time>
      </trkpt>
      <trkpt lat="45.695" lon="2.9672">
        <ele>965</ele>
        <time>2015-10-17T20:29:56Z</time>
      </trkpt>
      <trkpt lat="45.69545" lon="2.96782">
        <ele>970</ele>
        <time>2015-10-17T20:31:56Z</time>
      </trkpt>
      <trkpt lat="45.6954" lon="2.96823">
        <ele>972</ele>
        <time>2015-10-17T20:33:56Z</time>
      </trkpt>
      <trkpt lat="45.69516" lon="2.96854">
        <ele>972</ele>
        <time>2015-10-17T20:35:56Z</time>
      </trkpt>
      <trkpt lat="45.69498" lon="2.96913">
        <ele>979</ele>
        <time>2015-10-17T20:37:56Z</time>
      </trkpt>
      <trkpt lat="45.69513" lon="2.96961">
        <ele>983</ele>
        <time>2015-10-17T20:39:56Z</time>
      </trkpt>
      <trkpt lat="45.69583" lon="2.96936">
        <ele>987</ele>
        <time>2015-10-17T20:41:56Z</time>
      </trkpt>
      <trkpt lat="45.69663" lon="2.96914">
        <ele>986</ele>
        <time>2015-10-17T20:43:56Z</time>
      </trkpt>
      <trkpt lat="45.69743" lon="2.96907">
        <ele>981</ele>
        <time>2015-10-17T20:45:56Z</time>
      </trkpt>
      <trkpt lat="45.69821" lon="2.96905">
        <ele>978</ele>
        <time>2015-10-17T20:47:56Z</time>
      </trkpt>
      <trkpt lat="45.69864" lon="2.96938">
        <ele>978</ele>
        <time>2015-10-17T20:49:56Z</time>
      </trkpt>
      <trkpt lat="45.6993" lon="2.96973">
        <ele>979</ele>
        <time>2015-10-17T20:51:56Z</time>
      </trkpt>
      <trkpt lat="45.70058" lon="2.9699">
        <ele>983</ele>
        <time>2015-10-17T20:53:56Z</time>
      </trkpt>
      <trkpt lat="45.70091" lon="2.9694">
        <ele>984</ele>
        <time>2015-10-17T20:55:56Z</time>
      </trkpt>
      <trkpt lat="45.70112" lon="2.96873">
        <ele>983</ele>
        <time>2015-10-17T20:57:56Z</time>
      </trkpt>
      <trkpt lat="45.70146" lon="2.96763">
        <ele>985</ele>
        <time>2015-10-17T20:59:56Z</time>
      </trkpt>
    </trkseg>
  </trk>
  <trk>
    <name><![CDATA[--Saint-Genès-Champanelle-- OR-5370400:ser-fr04-b3]]></name>
    <trkseg>
      <trkpt lat="45.70151" lon="2.96726">
        <ele>986</ele>
        <time>2015-10-17T14:44:10Z</time>
      </trkpt>
      <trkpt lat="45.70132" lon="2.96642">
        <ele>987</ele>
        <time>2015-10-17T14:46:10Z</time>
      </trkpt>
      <trkpt lat="45.70126" lon="2.9659">
        <ele>990</ele>
        <time>2015-10-17T14:48:10Z</time>
      </trkpt>
      <trkpt lat="45.70083" lon="2.96545">
        <ele>993</ele>
        <time>2015-10-17T14:50:10Z</time>
      </trkpt>
      <trkpt lat="45.7006" lon="2.96483">
        <ele>996</ele>
        <time>2015-10-17T14:52:10Z</time>
      </trkpt>
      <trkpt lat="45.70076" lon="2.96414">
        <ele>1002</ele>
        <time>2015-10-17T14:54:10Z</time>
      </trkpt>
      <trkpt lat="45.70066" lon="2.96321">
        <ele>1004</ele>
        <time>2015-10-17T14:56:10Z</time>
      </trkpt>
      <trkpt lat="45.70173" lon="2.9636">
        <ele>1007</ele>
        <time>2015-10-17T14:58:10Z</time>
      </trkpt>
      <trkpt lat="45.70231" lon="2.96238">
        <ele>1030</ele>
        <time>2015-10-17T15:00:10Z</time>
      </trkpt>
      <trkpt lat="45.70276" lon="2.96159">
        <ele>1043</ele>
        <time>2015-10-17T15:02:10Z</time>
      </trkpt>
      <trkpt lat="45.7032" lon="2.96152">
        <ele>1059</ele>
        <time>2015-10-17T15:04:10Z</time>
      </trkpt>
      <trkpt lat="45.70366" lon="2.96161">
        <ele>1070</ele>
        <time>2015-10-17T15:06:10Z</time>
      </trkpt>
      <trkpt lat="45.70368" lon="2.96223">
        <ele>1087</ele>
        <time>2015-10-17T15:08:10Z</time>
      </trkpt>
      <trkpt lat="45.70401" lon="2.96252">
        <ele>1107</ele>
        <time>2015-10-17T15:10:10Z</time>
      </trkpt>
      <trkpt lat="45.70453" lon="2.96319">
        <ele>1128</ele>
        <time>2015-10-17T15:12:10Z</time>
      </trkpt>
      <trkpt lat="45.70506" lon="2.96335">
        <ele>1145</ele>
        <time>2015-10-17T15:14:10Z</time>
      </trkpt>
      <trkpt lat="45.70578" lon="2.96309">
        <ele>1142</ele>
        <time>2015-10-17T15:16:10Z</time>
      </trkpt>
      <trkpt lat="45.70618" lon="2.96276">
        <ele>1135</ele>
        <time>2015-10-17T15:18:10Z</time>
      </trkpt>
      <trkpt lat="45.70649" lon="2.9623">
        <ele>1133</ele>
        <time>2015-10-17T15:20:10Z</time>
      </trkpt>
      <trkpt lat="45.70671" lon="2.9619">
        <ele>1130</ele>
        <time>2015-10-17T15:22:10Z</time>
      </trkpt>
      <trkpt lat="45.70671" lon="2.9613">
        <ele>1126</ele>
        <time>2015-10-17T15:24:10Z</time>
      </trkpt>
      <trkpt lat="45.70664" lon="2.96102">
        <ele>1123</ele>
        <time>2015-10-17T15:26:10Z</time>
      </trkpt>
      <trkpt lat="45.70701" lon="2.96032">
        <ele>1112</ele>
        <time>2015-10-17T15:28:10Z</time>
      </trkpt>
      <trkpt lat="45.70757" lon="2.96028">
        <ele>1101</ele>
        <time>2015-10-17T15:30:10Z</time>
      </trkpt>
      <trkpt lat="45.70731" lon="2.95945">
        <ele>1100</ele>
        <time>2015-10-17T15:32:10Z</time>
      </trkpt>
      <trkpt lat="45.70788" lon="2.95955">
        <ele>1101</ele>
        <time>2015-10-17T15:34:10Z</time>
      </trkpt>
      <trkpt lat="45.70781" lon="2.95933">
        <ele>1101</ele>
        <time>2015-10-17T15:36:10Z</time>
      </trkpt>
      <trkpt lat="45.70844" lon="2.95952">
        <ele>1111</ele>
        <time>2015-10-17T15:38:10Z</time>
      </trkpt>
      <trkpt lat="45.70944" lon="2.95979">
        <ele>1130</ele>
        <time>2015-10-17T15:40:10Z</time>
      </trkpt>
      <trkpt lat="45.71004" lon="2.95949">
        <ele>1146</ele>
        <time>2015-10-17T15:42:10Z</time>
      </trkpt>
      <trkpt lat="45.7105" lon="2.95918">
        <ele>1152</ele>
        <time>2015-10-17T15:44:10Z</time>
      </trkpt>
      <trkpt lat="45.71104" lon="2.95849">
        <ele>1160</ele>
        <time>2015-10-17T15:46:10Z</time>
      </trkpt>
      <trkpt lat="45.711" lon="2.95828">
        <ele>1165</ele>
        <time>2015-10-17T15:48:10Z</time>
      </trkpt>
      <trkpt lat="45.7112" lon="2.9578">
        <ele>1160</ele>
        <time>2015-10-17T15:50:10Z</time>
      </trkpt>
      <trkpt lat="45.71139" lon="2.95728">
        <ele>1160</ele>
        <time>2015-10-17T15:52:10Z</time>
      </trkpt>
      <trkpt lat="45.71167" lon="2.95623">
        <ele>1163</ele>
        <time>2015-10-17T15:54:10Z</time>
      </trkpt>
      <trkpt lat="45.71172" lon="2.95558">
        <ele>1158</ele>
        <time>2015-10-17T15:56:10Z</time>
      </trkpt>
      <trkpt lat="45.71157" lon="2.95494">
        <ele>1147</ele>
        <time>2015-10-17T15:58:10Z</time>
      </trkpt>
      <trkpt lat="45.71124" lon="2.95441">
        <ele>1134</ele>
        <time>2015-10-17T16:00:10Z</time>
      </trkpt>
      <trkpt lat="45.71089" lon="2.95372">
        <ele>1128</ele>
        <time>2015-10-17T16:02:10Z</time>
      </trkpt>
      <trkpt lat="45.71062" lon="2.95368">
        <ele>1127</ele>
        <time>2015-10-17T16:04:10Z</time>
      </trkpt>
      <trkpt lat="45.70984" lon="2.95313">
        <ele>1124</ele>
        <time>2015-10-17T16:06:10Z</time>
      </trkpt>
      <trkpt lat="45.70942" lon="2.95315">
        <ele>1117</ele>
        <time>2015-10-17T16:08:10Z</time>
      </trkpt>
      <trkpt lat="45.70909" lon="2.95329">
        <ele>1111</ele>
        <time>2015-10-17T16:10:10Z</time>
      </trkpt>
      <trkpt lat="45.70869" lon="2.9532">
        <ele>1099</ele>
        <time>2015-10-17T16:12:10Z</time>
      </trkpt>
      <trkpt lat="45.70814" lon="2.95315">
        <ele>1084</ele>
        <time>2015-10-17T16:14:10Z</time>
      </trkpt>
      <trkpt lat="45.70779" lon="2.9532">
        <ele>1075</ele>
        <time>2015-10-17T16:16:10Z</time>
      </trkpt>
      <trkpt lat="45.70736" lon="2.95329">
        <ele>1064</ele>
        <time>2015-10-17T16:18:10Z</time>
      </trkpt>
      <trkpt lat="45.70716" lon="2.95332">
        <ele>1058</ele>
        <time>2015-10-17T16:20:10Z</time>
      </trkpt>
      <trkpt lat="45.70688" lon="2.9531">
        <ele>1050</ele>
        <time>2015-10-17T16:22:10Z</time>
      </trkpt>
      <trkpt lat="45.70601" lon="2.95294">
        <ele>1032</ele>
        <time>2015-10-17T16:24:10Z</time>
      </trkpt>
      <trkpt lat="45.70564" lon="2.95342">
        <ele>1024</ele>
        <time>2015-10-17T16:26:10Z</time>
      </trkpt>
      <trkpt lat="45.70494" lon="2.95408">
        <ele>1013</ele>
        <time>2015-10-17T16:28:10Z</time>
      </trkpt>
      <trkpt lat="45.70469" lon="2.95444">
        <ele>1010</ele>
        <time>2015-10-17T16:30:10Z</time>
      </trkpt>
      <trkpt lat="45.70464" lon="2.95563">
        <ele>1002</ele>
        <time>2015-10-17T16:32:10Z</time>
      </trkpt>
      <trkpt lat="45.70434" lon="2.95618">
        <ele>999</ele>
        <time>2015-10-17T16:34:10Z</time>
      </trkpt>
      <trkpt lat="45.70402" lon="2.95649">
        <ele>997</ele>
        <time>2015-10-17T16:36:10Z</time>
      </trkpt>
      <trkpt lat="45.70372" lon="2.95709">
        <ele>998</ele>
        <time>2015-10-17T16:38:10Z</time>
      </trkpt>
      <trkpt lat="45.70359" lon="2.95792">
        <ele>1001</ele>
        <time>2015-10-17T16:40:10Z</time>
      </trkpt>
      <trkpt lat="45.70317" lon="2.95857">
        <ele>996</ele>
        <time>2015-10-17T16:42:10Z</time>
      </trkpt>
      <trkpt lat="45.70292" lon="2.95902">
        <ele>995</ele>
        <time>2015-10-17T16:44:10Z</time>
      </trkpt>
      <trkpt lat="45.70259" lon="2.95969">
        <ele>998</ele>
        <time>2015-10-17T16:46:10Z</time>
      </trkpt>
      <trkpt lat="45.70227" lon="2.95973">
        <ele>997</ele>
        <time>2015-10-17T16:48:10Z</time>
      </trkpt>
      <trkpt lat="45.70219" lon="2.95885">
        <ele>993</ele>
        <time>2015-10-17T16:50:10Z</time>
      </trkpt>
      <trkpt lat="45.70194" lon="2.95854">
        <ele>993</ele>
        <time>2015-10-17T16:52:10Z</time>
      </trkpt>
      <trkpt lat="45.70162" lon="2.95773">
        <ele>993</ele>
        <time>2015-10-17T16:54:10Z</time>
      </trkpt>
      <trkpt lat="45.70129" lon="2.95737">
        <ele>994</ele>
        <time>2015-10-17T16:56:10Z</time>
      </trkpt>
      <trkpt lat="45.70077" lon="2.95737">
        <ele>995</ele>
        <time>2015-10-17T16:58:10Z</time>
      </trkpt>
      <trkpt lat="45.70024" lon="2.95728">
        <ele>997</ele>
        <time>2015-10-17T17:00:10Z</time>
      </trkpt>
      <trkpt lat="45.69989" lon="2.9568">
        <ele>1002</ele>
        <time>2015-10-17T17:02:10Z</time>
      </trkpt>
      <trkpt lat="45.69979" lon="2.95606">
        <ele>1005</ele>
        <time>2015-10-17T17:04:10Z</time>
      </trkpt>
      <trkpt lat="45.70009" lon="2.95477">
        <ele>1009</ele>
        <time>2015-10-17T17:06:10Z</time>
      </trkpt>
      <trkpt lat="45.69973" lon="2.95415">
        <ele>1003</ele>
        <time>2015-10-17T17:08:10Z</time>
      </trkpt>
      <trkpt lat="45.69938" lon="2.95394">
        <ele>996</ele>
        <time>2015-10-17T17:10:10Z</time>
      </trkpt>
      <trkpt lat="45.69938" lon="2.95291">
        <ele>994</ele>
        <time>2015-10-17T17:12:10Z</time>
      </trkpt>
      <trkpt lat="45.69911" lon="2.9521">
        <ele>991</ele>
        <time>2015-10-17T17:14:10Z</time>
      </trkpt>
      <trkpt lat="45.69896" lon="2.9511">
        <ele>992</ele>
        <time>2015-10-17T17:16:10Z</time>
      </trkpt>
      <trkpt lat="45.69876" lon="2.95017">
        <ele>993</ele>
        <time>2015-10-17T17:18:10Z</time>
      </trkpt>
      <trkpt lat="45.69829" lon="2.94934">
        <ele>993</ele>
        <time>2015-10-17T17:20:10Z</time>
      </trkpt>
      <trkpt lat="45.69784" lon="2.94829">
        <ele>997</ele>
        <time>2015-10-17T17:22:10Z</time>
      </trkpt>
      <trkpt lat="45.69749" lon="2.94743">
        <ele>998</ele>
        <time>2015-10-17T17:24:10Z</time>
      </trkpt>
      <trkpt lat="45.69723" lon="2.94803">
        <ele>996</ele>
        <time>2015-10-17T17:26:10Z</time>
      </trkpt>
      <trkpt lat="45.69689" lon="2.94861">
        <ele>993</ele>
        <time>2015-10-17T17:28:10Z</time>
      </trkpt>
      <trkpt lat="45.69646" lon="2.94961">
        <ele>990</ele>
        <time>2015-10-17T17:30:10Z</time>
      </trkpt>
      <trkpt lat="45.69626" lon="2.94992">
        <ele>989</ele>
        <time>2015-10-17T17:32:10Z</time>
      </trkpt>
      <trkpt lat="45.69593" lon="2.95075">
        <ele>985</ele>
        <time>2015-10-17T17:34:10Z</time>
      </trkpt>
      <trkpt lat="45.69585" lon="2.95125">
        <ele>982</ele>
        <time>2015-10-17T17:36:10Z</time>
      </trkpt>
      <trkpt lat="45.6954" lon="2.95161">
        <ele>978</ele>
        <time>2015-10-17T17:38:10Z</time>
      </trkpt>
      <trkpt lat="45.6953" lon="2.95206">
        <ele>976</ele>
        <time>2015-10-17T17:40:10Z</time>
      </trkpt>
      <trkpt lat="45.6951" lon="2.95264">
        <ele>974</ele>
        <time>2015-10-17T17:42:10Z</time>
      </trkpt>
      <trkpt lat="45.69481" lon="2.95335">
        <ele>972</ele>
        <time>2015-10-17T17:44:10Z</time>
      </trkpt>
      <trkpt lat="45.69465" lon="2.95354">
        <ele>971</ele>
        <time>2015-10-17T17:46:10Z</time>
      </trkpt>
      <trkpt lat="45.69423" lon="2.95305">
        <ele>970</ele>
        <time>2015-10-17T17:48:10Z</time>
      </trkpt>
      <trkpt lat="45.69368" lon="2.95215">
        <ele>967</ele>
        <time>2015-10-17T17:50:10Z</time>
      </trkpt>
      <trkpt lat="45.69312" lon="2.95127">
        <ele>969</ele>
        <time>2015-10-17T17:52:10Z</time>
      </trkpt>
      <trkpt lat="45.69242" lon="2.95134">
        <ele>964</ele>
        <time>2015-10-17T17:54:10Z</time>
      </trkpt>
      <trkpt lat="45.6916" lon="2.95134">
        <ele>959</ele>
        <time>2015-10-17T17:56:10Z</time>
      </trkpt>
      <trkpt lat="45.69103" lon="2.95122">
        <ele>958</ele>
        <time>2015-10-17T17:58:10Z</time>
      </trkpt>
      <trkpt lat="45.69057" lon="2.95112">
        <ele>958</ele>
        <time>2015-10-17T18:00:10Z</time>
      </trkpt>
      <trkpt lat="45.69043" lon="2.95126">
        <ele>957</ele>
        <time>2015-10-17T18:02:10Z</time>
      </trkpt>
      <trkpt lat="45.69018" lon="2.95147">
        <ele>958</ele>
        <time>2015-10-17T18:04:10Z</time>
      </trkpt>
      <trkpt lat="45.68985" lon="2.95121">
        <ele>958</ele>
        <time>2015-10-17T18:06:10Z</time>
      </trkpt>
      <trkpt lat="45.68938" lon="2.95109">
        <ele>957</ele>
        <time>2015-10-17T18:08:10Z</time>
      </trkpt>
      <trkpt lat="45.68896" lon="2.95131">
        <ele>959</ele>
        <time>2015-10-17T18:10:10Z</time>
      </trkpt>
      <trkpt lat="45.68838" lon="2.95121">
        <ele>957</ele>
        <time>2015-10-17T18:12:10Z</time>
      </trkpt>
      <trkpt lat="45.68785" lon="2.95123">
        <ele>956</ele>
        <time>2015-10-17T18:14:10Z</time>
      </trkpt>
      <trkpt lat="45.68758" lon="2.9515">
        <ele>959</ele>
        <time>2015-10-17T18:16:10Z</time>
      </trkpt>
      <trkpt lat="45.68718" lon="2.95154">
        <ele>956</ele>
        <time>2015-10-17T18:18:10Z</time>
      </trkpt>
      <trkpt lat="45.68666" lon="2.95216">
        <ele>955</ele>
        <time>2015-10-17T18:20:10Z</time>
      </trkpt>
      <trkpt lat="45.68661" lon="2.95305">
        <ele>958</ele>
        <time>2015-10-17T18:22:10Z</time>
      </trkpt>
      <trkpt lat="45.68653" lon="2.9535">
        <ele>958</ele>
        <time>2015-10-17T18:24:10Z</time>
      </trkpt>
      <trkpt lat="45.68645" lon="2.95441">
        <ele>957</ele>
        <time>2015-10-17T18:26:10Z</time>
      </trkpt>
      <trkpt lat="45.68616" lon="2.95435">
        <ele>957</ele>
        <time>2015-10-17T18:28:10Z</time>
      </trkpt>
      <trkpt lat="45.68589" lon="2.95408">
        <ele>955</ele>
        <time>2015-10-17T18:30:10Z</time>
      </trkpt>
      <trkpt lat="45.68559" lon="2.95408">
        <ele>956</ele>
        <time>2015-10-17T18:32:10Z</time>
      </trkpt>
      <trkpt lat="45.68551" lon="2.95437">
        <ele>958</ele>
        <time>2015-10-17T18:34:10Z</time>
      </trkpt>
      <trkpt lat="45.68529" lon="2.95456">
        <ele>961</ele>
        <time>2015-10-17T18:36:10Z</time>
      </trkpt>
      <trkpt lat="45.68506" lon="2.95461">
        <ele>963</ele>
        <time>2015-10-17T18:38:10Z</time>
      </trkpt>
      <trkpt lat="45.68472" lon="2.95506">
        <ele>966</ele>
        <time>2015-10-17T18:40:10Z</time>
      </trkpt>
      <trkpt lat="45.68527" lon="2.95533">
        <ele>968</ele>
        <time>2015-10-17T18:42:10Z</time>
      </trkpt>
      <trkpt lat="45.68562" lon="2.95619">
        <ele>978</ele>
        <time>2015-10-17T18:44:10Z</time>
      </trkpt>
      <trkpt lat="45.68597" lon="2.95704">
        <ele>991</ele>
        <time>2015-10-17T18:46:10Z</time>
      </trkpt>
      <trkpt lat="45.68612" lon="2.9575">
        <ele>998</ele>
        <time>2015-10-17T18:48:10Z</time>
      </trkpt>
      <trkpt lat="45.68654" lon="2.95778">
        <ele>1000</ele>
        <time>2015-10-17T18:50:10Z</time>
      </trkpt>
      <trkpt lat="45.6868" lon="2.95826">
        <ele>1007</ele>
        <time>2015-10-17T18:52:10Z</time>
      </trkpt>
      <trkpt lat="45.6876" lon="2.95857">
        <ele>1000</ele>
        <time>2015-10-17T18:54:10Z</time>
      </trkpt>
      <trkpt lat="45.68777" lon="2.95895">
        <ele>1012</ele>
        <time>2015-10-17T18:56:10Z</time>
      </trkpt>
      <trkpt lat="45.68815" lon="2.95924">
        <ele>1008</ele>
        <time>2015-10-17T18:58:10Z</time>
      </trkpt>
      <trkpt lat="45.68835" lon="2.95976">
        <ele>1017</ele>
        <time>2015-10-17T19:00:10Z</time>
      </trkpt>
      <trkpt lat="45.6884" lon="2.96033">
        <ele>1025</ele>
        <time>2015-10-17T19:02:10Z</time>
      </trkpt>
      <trkpt lat="45.68829" lon="2.96112">
        <ele>1031</ele>
        <time>2015-10-17T19:04:10Z</time>
      </trkpt>
      <trkpt lat="45.68799" lon="2.96169">
        <ele>1029</ele>
        <time>2015-10-17T19:06:10Z</time>
      </trkpt>
      <trkpt lat="45.68816" lon="2.96019">
        <ele>1033</ele>
        <time>2015-10-17T19:08:10Z</time>
      </trkpt>
      <trkpt lat="45.68789" lon="2.96072">
        <ele>1044</ele>
        <time>2015-10-17T19:10:10Z</time>
      </trkpt>
      <trkpt lat="45.68777" lon="2.95989">
        <ele>1044</ele>
        <time>2015-10-17T19:12:10Z</time>
      </trkpt>
      <trkpt lat="45.68764" lon="2.96049">
        <ele>1052</ele>
        <time>2015-10-17T19:14:10Z</time>
      </trkpt>
      <trkpt lat="45.68725" lon="2.96027">
        <ele>1062</ele>
        <time>2015-10-17T19:16:10Z</time>
      </trkpt>
      <trkpt lat="45.68663" lon="2.96057">
        <ele>1074</ele>
        <time>2015-10-17T19:18:10Z</time>
      </trkpt>
      <trkpt lat="45.68609" lon="2.96129">
        <ele>1072</ele>
        <time>2015-10-17T19:20:10Z</time>
      </trkpt>
      <trkpt lat="45.68593" lon="2.9624">
        <ele>1079</ele>
        <time>2015-10-17T19:22:10Z</time>
      </trkpt>
      <trkpt lat="45.68618" lon="2.96325">
        <ele>1071</ele>
        <time>2015-10-17T19:24:10Z</time>
      </trkpt>
      <trkpt lat="45.68656" lon="2.9636">
        <ele>1064</ele>
        <time>2015-10-17T19:26:10Z</time>
      </trkpt>
      <trkpt lat="45.68653" lon="2.96231">
        <ele>1064</ele>
        <time>2015-10-17T19:28:10Z</time>
      </trkpt>
      <trkpt lat="45.68689" lon="2.9633">
        <ele>1057</ele>
        <time>2015-10-17T19:30:10Z</time>
      </trkpt>
      <trkpt lat="45.68692" lon="2.96231">
        <ele>1052</ele>
        <time>2015-10-17T19:32:10Z</time>
      </trkpt>
      <trkpt lat="45.68713" lon="2.96293">
        <ele>1046</ele>
        <time>2015-10-17T19:34:10Z</time>
      </trkpt>
      <trkpt lat="45.68744" lon="2.96336">
        <ele>1038</ele>
        <time>2015-10-17T19:36:10Z</time>
      </trkpt>
      <trkpt lat="45.68779" lon="2.96324">
        <ele>1027</ele>
        <time>2015-10-17T19:38:10Z</time>
      </trkpt>
      <trkpt lat="45.68745" lon="2.96403">
        <ele>1041</ele>
        <time>2015-10-17T19:40:10Z</time>
      </trkpt>
      <trkpt lat="45.68697" lon="2.9647">
        <ele>1041</ele>
        <time>2015-10-17T19:42:10Z</time>
      </trkpt>
      <trkpt lat="45.68652" lon="2.96517">
        <ele>1033</ele>
        <time>2015-10-17T19:44:10Z</time>
      </trkpt>
      <trkpt lat="45.686" lon="2.96534">
        <ele>1023</ele>
        <time>2015-10-17T19:46:10Z</time>
      </trkpt>
      <trkpt lat="45.68555" lon="2.96544">
        <ele>1014</ele>
        <time>2015-10-17T19:48:10Z</time>
      </trkpt>
      <trkpt lat="45.68522" lon="2.96503">
        <ele>1016</ele>
        <time>2015-10-17T19:50:10Z</time>
      </trkpt>
      <trkpt lat="45.6849" lon="2.96496">
        <ele>1010</ele>
        <time>2015-10-17T19:52:10Z</time>
      </trkpt>
      <trkpt lat="45.68452" lon="2.96475">
        <ele>1004</ele>
        <time>2015-10-17T19:54:10Z</time>
      </trkpt>
      <trkpt lat="45.68409" lon="2.96494">
        <ele>992</ele>
        <time>2015-10-17T19:56:10Z</time>
      </trkpt>
      <trkpt lat="45.68379" lon="2.96544">
        <ele>984</ele>
        <time>2015-10-17T19:58:10Z</time>
      </trkpt>
      <trkpt lat="45.68354" lon="2.96565">
        <ele>980</ele>
        <time>2015-10-17T20:00:10Z</time>
      </trkpt>
      <trkpt lat="45.68311" lon="2.96584">
        <ele>974</ele>
        <time>2015-10-17T20:02:10Z</time>
      </trkpt>
      <trkpt lat="45.68269" lon="2.96606">
        <ele>969</ele>
        <time>2015-10-17T20:04:10Z</time>
      </trkpt>
      <trkpt lat="45.68244" lon="2.96618">
        <ele>967</ele>
        <time>2015-10-17T20:06:10Z</time>
      </trkpt>
      <trkpt lat="45.68249" lon="2.96684">
        <ele>967</ele>
        <time>2015-10-17T20:08:10Z</time>
      </trkpt>
      <trkpt lat="45.68282" lon="2.96749">
        <ele>965</ele>
        <time>2015-10-17T20:10:10Z</time>
      </trkpt>
      <trkpt lat="45.68334" lon="2.96794">
        <ele>965</ele>
        <time>2015-10-17T20:12:10Z</time>
      </trkpt>
      <trkpt lat="45.68402" lon="2.96782">
        <ele>968</ele>
        <time>2015-10-17T20:14:10Z</time>
      </trkpt>
      <trkpt lat="45.68474" lon="2.96773">
        <ele>966</ele>
        <time>2015-10-17T20:16:10Z</time>
      </trkpt>
      <trkpt lat="45.68507" lon="2.96744">
        <ele>969</ele>
        <time>2015-10-17T20:18:10Z</time>
      </trkpt>
      <trkpt lat="45.68572" lon="2.96753">
        <ele>966</ele>
        <time>2015-10-17T20:20:10Z</time>
      </trkpt>
      <trkpt lat="45.68655" lon="2.96758">
        <ele>962</ele>
        <time>2015-10-17T20:22:10Z</time>
      </trkpt>
      <trkpt lat="45.6872" lon="2.96721">
        <ele>968</ele>
        <time>2015-10-17T20:24:10Z</time>
      </trkpt>
      <trkpt lat="45.68784" lon="2.9669">
        <ele>971</ele>
        <time>2015-10-17T20:26:10Z</time>
      </trkpt>
      <trkpt lat="45.68808" lon="2.96656">
        <ele>973</ele>
        <time>2015-10-17T20:28:10Z</time>
      </trkpt>
      <trkpt lat="45.68868" lon="2.96647">
        <ele>972</ele>
        <time>2015-10-17T20:30:10Z</time>
      </trkpt>
      <trkpt lat="45.68921" lon="2.96575">
        <ele>970</ele>
        <time>2015-10-17T20:32:10Z</time>
      </trkpt>
      <trkpt lat="45.68999" lon="2.96549">
        <ele>969</ele>
        <time>2015-10-17T20:34:10Z</time>
      </trkpt>
      <trkpt lat="45.69056" lon="2.96549">
        <ele>971</ele>
        <time>2015-10-17T20:36:10Z</time>
      </trkpt>
      <trkpt lat="45.69107" lon="2.96582">
        <ele>972</ele>
        <time>2015-10-17T20:38:10Z</time>
      </trkpt>
      <trkpt lat="45.69137" lon="2.96634">
        <ele>972</ele>
        <time>2015-10-17T20:40:10Z</time>
      </trkpt>
      <trkpt lat="45.69182" lon="2.96694">
        <ele>972</ele>
        <time>2015-10-17T20:42:10Z</time>
      </trkpt>
      <trkpt lat="45.69228" lon="2.96694">
        <ele>972</ele>
        <time>2015-10-17T20:44:10Z</time>
      </trkpt>
      <trkpt lat="45.69285" lon="2.96732">
        <ele>967</ele>
        <time>2015-10-17T20:46:10Z</time>
      </trkpt>
      <trkpt lat="45.69367" lon="2.9672">
        <ele>964</ele>
        <time>2015-10-17T20:48:10Z</time>
      </trkpt>
      <trkpt lat="45.69383" lon="2.96677">
        <ele>965</ele>
        <time>2015-10-17T20:50:10Z</time>
      </trkpt>
      <trkpt lat="45.69438" lon="2.96701">
        <ele>964</ele>
        <time>2015-10-17T20:52:10Z</time>
      </trkpt>
      <trkpt lat="45.695" lon="2.9672">
        <ele>965</ele>
        <time>2015-10-17T20:54:10Z</time>
      </trkpt>
      <trkpt lat="45.69545" lon="2.96782">
        <ele>970</ele>
        <time>2015-10-17T20:56:10Z</time>
      </trkpt>
      <trkpt lat="45.6954" lon="2.96823">
        <ele>972</ele>
        <time>2015-10-17T20:58:10Z</time>
      </trkpt>
      <trkpt lat="45.69516" lon="2.96854">
        <ele>972</ele>
        <time>2015-10-17T21:00:10Z</time>
      </trkpt>
      <trkpt lat="45.69498" lon="2.96913">
        <ele>979</ele>
        <time>2015-10-17T21:02:10Z</time>
      </trkpt>
      <trkpt lat="45.69513" lon="2.96961">
        <ele>983</ele>
        <time>2015-10-17T21:04:10Z</time>
      </trkpt>
      <trkpt lat="45.69583" lon="2.96936">
        <ele>987</ele>
        <time>2015-10-17T21:06:10Z</time>
      </trkpt>
      <trkpt lat="45.69663" lon="2.96914">
        <ele>986</ele>
        <time>2015-10-17T21:08:10Z</time>
      </trkpt>
      <trkpt lat="45.69743" lon="2.96907">
        <ele>981</ele>
        <time>2015-10-17T21:10:10Z</time>
      </trkpt>
      <trkpt lat="45.69821" lon="2.96905">
        <ele>978</ele>
        <time>2015-10-17T21:12:10Z</time>
      </trkpt>
      <trkpt lat="45.69864" lon="2.96938">
        <ele>978</ele>
        <time>2015-10-17T21:14:10Z</time>
      </trkpt>
      <trkpt lat="45.6993" lon="2.96973">
        <ele>979</ele>
        <time>2015-10-17T21:16:10Z</time>
      </trkpt>
      <trkpt lat="45.70058" lon="2.9699">
        <ele>983</ele>
        <time>2015-10-17T21:18:10Z</time>
      </trkpt>
      <trkpt lat="45.70091" lon="2.9694">
        <ele>984</ele>
        <time>2015-10-17T21:20:10Z</time>
      </trkpt>
      <trkpt lat="45.70112" lon="2.96873">
        <ele>983</ele>
        <time>2015-10-17T21:22:10Z</time>
      </trkpt>
      <trkpt lat="45.70146" lon="2.96763">
        <ele>985</ele>
        <time>2015-10-17T21:24:10Z</time>
      </trkpt>
    </trkseg>
  </trk>
  <trk>
    <name><![CDATA[--Volvic-- OR-5358173:ser-fr01-b]]></name>
    <trkseg>
      <trkpt lat="45.8712" lon="3.02755">
        <ele>580</ele>
        <time>2015-10-17T12:36:47Z</time>
      </trkpt>
      <trkpt lat="45.87123" lon="3.0279">
        <ele>578</ele>
        <time>2015-10-17T12:38:47Z</time>
      </trkpt>
      <trkpt lat="45.87106" lon="3.02854">
        <ele>573</ele>
        <time>2015-10-17T12:40:47Z</time>
      </trkpt>
      <trkpt lat="45.87166" lon="3.02871">
        <ele>578</ele>
        <time>2015-10-17T12:42:47Z</time>
      </trkpt>
      <trkpt lat="45.87226" lon="3.0291">
        <ele>583</ele>
        <time>2015-10-17T12:44:47Z</time>
      </trkpt>
      <trkpt lat="45.87272" lon="3.02978">
        <ele>581</ele>
        <time>2015-10-17T12:46:47Z</time>
      </trkpt>
      <trkpt lat="45.87296" lon="3.03053">
        <ele>578</ele>
        <time>2015-10-17T12:48:47Z</time>
      </trkpt>
      <trkpt lat="45.87319" lon="3.03118">
        <ele>577</ele>
        <time>2015-10-17T12:50:47Z</time>
      </trkpt>
      <trkpt lat="45.87346" lon="3.03184">
        <ele>578</ele>
        <time>2015-10-17T12:52:47Z</time>
      </trkpt>
      <trkpt lat="45.87395" lon="3.03208">
        <ele>582</ele>
        <time>2015-10-17T12:54:47Z</time>
      </trkpt>
      <trkpt lat="45.87364" lon="3.03245">
        <ele>581</ele>
        <time>2015-10-17T12:56:47Z</time>
      </trkpt>
      <trkpt lat="45.8733" lon="3.03281">
        <ele>578</ele>
        <time>2015-10-17T12:58:47Z</time>
      </trkpt>
      <trkpt lat="45.8731" lon="3.0333">
        <ele>576</ele>
        <time>2015-10-17T13:00:47Z</time>
      </trkpt>
      <trkpt lat="45.87274" lon="3.0338">
        <ele>569</ele>
        <time>2015-10-17T13:02:47Z</time>
      </trkpt>
      <trkpt lat="45.873" lon="3.03382">
        <ele>574</ele>
        <time>2015-10-17T13:04:47Z</time>
      </trkpt>
      <trkpt lat="45.87329" lon="3.03349">
        <ele>580</ele>
        <time>2015-10-17T13:06:47Z</time>
      </trkpt>
      <trkpt lat="45.8736" lon="3.03339">
        <ele>586</ele>
        <time>2015-10-17T13:08:47Z</time>
      </trkpt>
      <trkpt lat="45.874" lon="3.03332">
        <ele>594</ele>
        <time>2015-10-17T13:10:47Z</time>
      </trkpt>
      <trkpt lat="45.87438" lon="3.03332">
        <ele>603</ele>
        <time>2015-10-17T13:12:47Z</time>
      </trkpt>
      <trkpt lat="45.87477" lon="3.03362">
        <ele>615</ele>
        <time>2015-10-17T13:14:47Z</time>
      </trkpt>
      <trkpt lat="45.8749" lon="3.03429">
        <ele>623</ele>
        <time>2015-10-17T13:16:47Z</time>
      </trkpt>
      <trkpt lat="45.87507" lon="3.03489">
        <ele>621</ele>
        <time>2015-10-17T13:18:47Z</time>
      </trkpt>
      <trkpt lat="45.87532" lon="3.03532">
        <ele>623</ele>
        <time>2015-10-17T13:20:47Z</time>
      </trkpt>
      <trkpt lat="45.87553" lon="3.03598">
        <ele>622</ele>
        <time>2015-10-17T13:22:47Z</time>
      </trkpt>
      <trkpt lat="45.87602" lon="3.03665">
        <ele>627</ele>
        <time>2015-10-17T13:24:47Z</time>
      </trkpt>
      <trkpt lat="45.87667" lon="3.03693">
        <ele>630</ele>
        <time>2015-10-17T13:26:47Z</time>
      </trkpt>
      <trkpt lat="45.87735" lon="3.0371">
        <ele>626</ele>
        <time>2015-10-17T13:28:47Z</time>
      </trkpt>
      <trkpt lat="45.87785" lon="3.03689">
        <ele>630</ele>
        <time>2015-10-17T13:30:47Z</time>
      </trkpt>
      <trkpt lat="45.87853" lon="3.03671">
        <ele>629</ele>
        <time>2015-10-17T13:32:47Z</time>
      </trkpt>
      <trkpt lat="45.87937" lon="3.03661">
        <ele>624</ele>
        <time>2015-10-17T13:34:47Z</time>
      </trkpt>
      <trkpt lat="45.88001" lon="3.03665">
        <ele>616</ele>
        <time>2015-10-17T13:36:47Z</time>
      </trkpt>
      <trkpt lat="45.88072" lon="3.03667">
        <ele>612</ele>
        <time>2015-10-17T13:38:47Z</time>
      </trkpt>
      <trkpt lat="45.8813" lon="3.03646">
        <ele>616</ele>
        <time>2015-10-17T13:40:47Z</time>
      </trkpt>
      <trkpt lat="45.88197" lon="3.03629">
        <ele>617</ele>
        <time>2015-10-17T13:42:47Z</time>
      </trkpt>
      <trkpt lat="45.88263" lon="3.03665">
        <ele>606</ele>
        <time>2015-10-17T13:44:47Z</time>
      </trkpt>
      <trkpt lat="45.88317" lon="3.03704">
        <ele>599</ele>
        <time>2015-10-17T13:46:47Z</time>
      </trkpt>
      <trkpt lat="45.88372" lon="3.03738">
        <ele>593</ele>
        <time>2015-10-17T13:48:47Z</time>
      </trkpt>
      <trkpt lat="45.88429" lon="3.03764">
        <ele>591</ele>
        <time>2015-10-17T13:50:47Z</time>
      </trkpt>
      <trkpt lat="45.88451" lon="3.03822">
        <ele>587</ele>
        <time>2015-10-17T13:52:47Z</time>
      </trkpt>
      <trkpt lat="45.88485" lon="3.03772">
        <ele>589</ele>
        <time>2015-10-17T13:54:47Z</time>
      </trkpt>
      <trkpt lat="45.88479" lon="3.03729">
        <ele>584</ele>
        <time>2015-10-17T13:56:47Z</time>
      </trkpt>
      <trkpt lat="45.88452" lon="3.0368">
        <ele>583</ele>
        <time>2015-10-17T13:58:47Z</time>
      </trkpt>
      <trkpt lat="45.8843" lon="3.03637">
        <ele>591</ele>
        <time>2015-10-17T14:00:47Z</time>
      </trkpt>
      <trkpt lat="45.88426" lon="3.03607">
        <ele>594</ele>
        <time>2015-10-17T14:02:47Z</time>
      </trkpt>
      <trkpt lat="45.88451" lon="3.03575">
        <ele>584</ele>
        <time>2015-10-17T14:04:47Z</time>
      </trkpt>
      <trkpt lat="45.88478" lon="3.03541">
        <ele>573</ele>
        <time>2015-10-17T14:06:47Z</time>
      </trkpt>
      <trkpt lat="45.88478" lon="3.03502">
        <ele>575</ele>
        <time>2015-10-17T14:08:47Z</time>
      </trkpt>
      <trkpt lat="45.88481" lon="3.03433">
        <ele>576</ele>
        <time>2015-10-17T14:10:47Z</time>
      </trkpt>
      <trkpt lat="45.88491" lon="3.03371">
        <ele>572</ele>
        <time>2015-10-17T14:12:47Z</time>
      </trkpt>
      <trkpt lat="45.88496" lon="3.03305">
        <ele>572</ele>
        <time>2015-10-17T14:14:47Z</time>
      </trkpt>
      <trkpt lat="45.88529" lon="3.03345">
        <ele>572</ele>
        <time>2015-10-17T14:16:47Z</time>
      </trkpt>
      <trkpt lat="45.88548" lon="3.03388">
        <ele>571</ele>
        <time>2015-10-17T14:18:47Z</time>
      </trkpt>
      <trkpt lat="45.8856" lon="3.03455">
        <ele>564</ele>
        <time>2015-10-17T14:20:47Z</time>
      </trkpt>
      <trkpt lat="45.88564" lon="3.03528">
        <ele>554</ele>
        <time>2015-10-17T14:22:47Z</time>
      </trkpt>
      <trkpt lat="45.88576" lon="3.03586">
        <ele>545</ele>
        <time>2015-10-17T14:24:47Z</time>
      </trkpt>
      <trkpt lat="45.88603" lon="3.03635">
        <ele>542</ele>
        <time>2015-10-17T14:26:47Z</time>
      </trkpt>
      <trkpt lat="45.88632" lon="3.03671">
        <ele>539</ele>
        <time>2015-10-17T14:28:47Z</time>
      </trkpt>
      <trkpt lat="45.88662" lon="3.03708">
        <ele>534</ele>
        <time>2015-10-17T14:30:47Z</time>
      </trkpt>
      <trkpt lat="45.88696" lon="3.03755">
        <ele>530</ele>
        <time>2015-10-17T14:32:47Z</time>
      </trkpt>
      <trkpt lat="45.88724" lon="3.03802">
        <ele>527</ele>
        <time>2015-10-17T14:34:47Z</time>
      </trkpt>
      <trkpt lat="45.88745" lon="3.03882">
        <ele>514</ele>
        <time>2015-10-17T14:36:47Z</time>
      </trkpt>
      <trkpt lat="45.88789" lon="3.03882">
        <ele>516</ele>
        <time>2015-10-17T14:38:47Z</time>
      </trkpt>
      <trkpt lat="45.88811" lon="3.03922">
        <ele>513</ele>
        <time>2015-10-17T14:40:47Z</time>
      </trkpt>
      <trkpt lat="45.88806" lon="3.03985">
        <ele>514</ele>
        <time>2015-10-17T14:42:47Z</time>
      </trkpt>
      <trkpt lat="45.88789" lon="3.04043">
        <ele>510</ele>
        <time>2015-10-17T14:44:47Z</time>
      </trkpt>
      <trkpt lat="45.88783" lon="3.04116">
        <ele>507</ele>
        <time>2015-10-17T14:46:47Z</time>
      </trkpt>
      <trkpt lat="45.88805" lon="3.04189">
        <ele>505</ele>
        <time>2015-10-17T14:48:47Z</time>
      </trkpt>
      <trkpt lat="45.88833" lon="3.04251">
        <ele>501</ele>
        <time>2015-10-17T14:50:47Z</time>
      </trkpt>
      <trkpt lat="45.88871" lon="3.04315">
        <ele>500</ele>
        <time>2015-10-17T14:52:47Z</time>
      </trkpt>
      <trkpt lat="45.88878" lon="3.04319">
        <ele>501</ele>
        <time>2015-10-17T14:54:47Z</time>
      </trkpt>
      <trkpt lat="45.88899" lon="3.0436">
        <ele>502</ele>
        <time>2015-10-17T14:56:47Z</time>
      </trkpt>
      <trkpt lat="45.88918" lon="3.04373">
        <ele>506</ele>
        <time>2015-10-17T14:58:47Z</time>
      </trkpt>
      <trkpt lat="45.88921" lon="3.04416">
        <ele>501</ele>
        <time>2015-10-17T15:00:47Z</time>
      </trkpt>
      <trkpt lat="45.88939" lon="3.04452">
        <ele>501</ele>
        <time>2015-10-17T15:02:47Z</time>
      </trkpt>
      <trkpt lat="45.88951" lon="3.04435">
        <ele>507</ele>
        <time>2015-10-17T15:04:47Z</time>
      </trkpt>
      <trkpt lat="45.88944" lon="3.04388">
        <ele>513</ele>
        <time>2015-10-17T15:06:47Z</time>
      </trkpt>
      <trkpt lat="45.88941" lon="3.04349">
        <ele>518</ele>
        <time>2015-10-17T15:08:47Z</time>
      </trkpt>
      <trkpt lat="45.88941" lon="3.04317">
        <ele>524</ele>
        <time>2015-10-17T15:10:47Z</time>
      </trkpt>
      <trkpt lat="45.88935" lon="3.04289">
        <ele>528</ele>
        <time>2015-10-17T15:12:47Z</time>
      </trkpt>
      <trkpt lat="45.88942" lon="3.04285">
        <ele>531</ele>
        <time>2015-10-17T15:14:47Z</time>
      </trkpt>
      <trkpt lat="45.88984" lon="3.04337">
        <ele>537</ele>
        <time>2015-10-17T15:16:47Z</time>
      </trkpt>
      <trkpt lat="45.88989" lon="3.04367">
        <ele>533</ele>
        <time>2015-10-17T15:18:47Z</time>
      </trkpt>
      <trkpt lat="45.89023" lon="3.04422">
        <ele>532</ele>
        <time>2015-10-17T15:20:47Z</time>
      </trkpt>
      <trkpt lat="45.89057" lon="3.04463">
        <ele>533</ele>
        <time>2015-10-17T15:22:47Z</time>
      </trkpt>
      <trkpt lat="45.89102" lon="3.04487">
        <ele>536</ele>
        <time>2015-10-17T15:24:47Z</time>
      </trkpt>
      <trkpt lat="45.89151" lon="3.04493">
        <ele>540</ele>
        <time>2015-10-17T15:26:47Z</time>
      </trkpt>
      <trkpt lat="45.89204" lon="3.04472">
        <ele>543</ele>
        <time>2015-10-17T15:28:47Z</time>
      </trkpt>
      <trkpt lat="45.89169" lon="3.04457">
        <ele>554</ele>
        <time>2015-10-17T15:30:47Z</time>
      </trkpt>
      <trkpt lat="45.89126" lon="3.0445">
        <ele>551</ele>
        <time>2015-10-17T15:32:47Z</time>
      </trkpt>
      <trkpt lat="45.89083" lon="3.04422">
        <ele>552</ele>
        <time>2015-10-17T15:34:47Z</time>
      </trkpt>
      <trkpt lat="45.89048" lon="3.04377">
        <ele>552</ele>
        <time>2015-10-17T15:36:47Z</time>
      </trkpt>
      <trkpt lat="45.89026" lon="3.04304">
        <ele>562</ele>
        <time>2015-10-17T15:38:47Z</time>
      </trkpt>
      <trkpt lat="45.89019" lon="3.04281">
        <ele>565</ele>
        <time>2015-10-17T15:40:47Z</time>
      </trkpt>
      <trkpt lat="45.88992" lon="3.04238">
        <ele>563</ele>
        <time>2015-10-17T15:42:47Z</time>
      </trkpt>
      <trkpt lat="45.88983" lon="3.04189">
        <ele>572</ele>
        <time>2015-10-17T15:44:47Z</time>
      </trkpt>
      <trkpt lat="45.88966" lon="3.04139">
        <ele>575</ele>
        <time>2015-10-17T15:46:47Z</time>
      </trkpt>
      <trkpt lat="45.88948" lon="3.04107">
        <ele>574</ele>
        <time>2015-10-17T15:48:47Z</time>
      </trkpt>
      <trkpt lat="45.88933" lon="3.04075">
        <ele>572</ele>
        <time>2015-10-17T15:50:47Z</time>
      </trkpt>
      <trkpt lat="45.88989" lon="3.04092">
        <ele>592</ele>
        <time>2015-10-17T15:52:47Z</time>
      </trkpt>
      <trkpt lat="45.89011" lon="3.04081">
        <ele>601</ele>
        <time>2015-10-17T15:54:47Z</time>
      </trkpt>
      <trkpt lat="45.88996" lon="3.0406">
        <ele>595</ele>
        <time>2015-10-17T15:56:47Z</time>
      </trkpt>
      <trkpt lat="45.89017" lon="3.04008">
        <ele>600</ele>
        <time>2015-10-17T15:58:47Z</time>
      </trkpt>
      <trkpt lat="45.89053" lon="3.0397">
        <ele>603</ele>
        <time>2015-10-17T16:00:47Z</time>
      </trkpt>
      <trkpt lat="45.89071" lon="3.03953">
        <ele>604</ele>
        <time>2015-10-17T16:02:47Z</time>
      </trkpt>
      <trkpt lat="45.89126" lon="3.03944">
        <ele>615</ele>
        <time>2015-10-17T16:04:47Z</time>
      </trkpt>
      <trkpt lat="45.8918" lon="3.03925">
        <ele>624</ele>
        <time>2015-10-17T16:06:47Z</time>
      </trkpt>
      <trkpt lat="45.89186" lon="3.0388">
        <ele>624</ele>
        <time>2015-10-17T16:08:47Z</time>
      </trkpt>
      <trkpt lat="45.89181" lon="3.03837">
        <ele>622</ele>
        <time>2015-10-17T16:10:47Z</time>
      </trkpt>
      <trkpt lat="45.89171" lon="3.03785">
        <ele>623</ele>
        <time>2015-10-17T16:12:47Z</time>
      </trkpt>
      <trkpt lat="45.89147" lon="3.03742">
        <ele>615</ele>
        <time>2015-10-17T16:14:47Z</time>
      </trkpt>
      <trkpt lat="45.89163" lon="3.03699">
        <ele>616</ele>
        <time>2015-10-17T16:16:47Z</time>
      </trkpt>
      <trkpt lat="45.89183" lon="3.03697">
        <ele>621</ele>
        <time>2015-10-17T16:18:47Z</time>
      </trkpt>
      <trkpt lat="45.89187" lon="3.03691">
        <ele>621</ele>
        <time>2015-10-17T16:20:47Z</time>
      </trkpt>
      <trkpt lat="45.89226" lon="3.03736">
        <ele>634</ele>
        <time>2015-10-17T16:22:47Z</time>
      </trkpt>
      <trkpt lat="45.89277" lon="3.03753">
        <ele>645</ele>
        <time>2015-10-17T16:24:47Z</time>
      </trkpt>
      <trkpt lat="45.89305" lon="3.03744">
        <ele>649</ele>
        <time>2015-10-17T16:26:47Z</time>
      </trkpt>
      <trkpt lat="45.89322" lon="3.03783">
        <ele>652</ele>
        <time>2015-10-17T16:28:47Z</time>
      </trkpt>
      <trkpt lat="45.89328" lon="3.03832">
        <ele>651</ele>
        <time>2015-10-17T16:30:47Z</time>
      </trkpt>
      <trkpt lat="45.89369" lon="3.0383">
        <ele>652</ele>
        <time>2015-10-17T16:32:47Z</time>
      </trkpt>
      <trkpt lat="45.89389" lon="3.03819">
        <ele>652</ele>
        <time>2015-10-17T16:34:47Z</time>
      </trkpt>
      <trkpt lat="45.89375" lon="3.0377">
        <ele>655</ele>
        <time>2015-10-17T16:36:47Z</time>
      </trkpt>
      <trkpt lat="45.89378" lon="3.03727">
        <ele>656</ele>
        <time>2015-10-17T16:38:47Z</time>
      </trkpt>
      <trkpt lat="45.89384" lon="3.03684">
        <ele>658</ele>
        <time>2015-10-17T16:40:47Z</time>
      </trkpt>
      <trkpt lat="45.89384" lon="3.03629">
        <ele>659</ele>
        <time>2015-10-17T16:42:47Z</time>
      </trkpt>
      <trkpt lat="45.89389" lon="3.03588">
        <ele>661</ele>
        <time>2015-10-17T16:44:47Z</time>
      </trkpt>
      <trkpt lat="45.89387" lon="3.03553">
        <ele>660</ele>
        <time>2015-10-17T16:46:47Z</time>
      </trkpt>
      <trkpt lat="45.89375" lon="3.03545">
        <ele>660</ele>
        <time>2015-10-17T16:48:47Z</time>
      </trkpt>
      <trkpt lat="45.89378" lon="3.03474">
        <ele>659</ele>
        <time>2015-10-17T16:50:47Z</time>
      </trkpt>
      <trkpt lat="45.89378" lon="3.0341">
        <ele>658</ele>
        <time>2015-10-17T16:52:47Z</time>
      </trkpt>
      <trkpt lat="45.89438" lon="3.03397">
        <ele>653</ele>
        <time>2015-10-17T16:54:47Z</time>
      </trkpt>
      <trkpt lat="45.89486" lon="3.03386">
        <ele>651</ele>
        <time>2015-10-17T16:56:47Z</time>
      </trkpt>
      <trkpt lat="45.89511" lon="3.03386">
        <ele>648</ele>
        <time>2015-10-17T16:58:47Z</time>
      </trkpt>
      <trkpt lat="45.89528" lon="3.03429">
        <ele>646</ele>
        <time>2015-10-17T17:00:47Z</time>
      </trkpt>
      <trkpt lat="45.89558" lon="3.0348">
        <ele>642</ele>
        <time>2015-10-17T17:02:47Z</time>
      </trkpt>
      <trkpt lat="45.89579" lon="3.0353">
        <ele>639</ele>
        <time>2015-10-17T17:04:47Z</time>
      </trkpt>
      <trkpt lat="45.89595" lon="3.03581">
        <ele>638</ele>
        <time>2015-10-17T17:06:47Z</time>
      </trkpt>
      <trkpt lat="45.8962" lon="3.03626">
        <ele>634</ele>
        <time>2015-10-17T17:08:47Z</time>
      </trkpt>
      <trkpt lat="45.89641" lon="3.03671">
        <ele>632</ele>
        <time>2015-10-17T17:10:47Z</time>
      </trkpt>
      <trkpt lat="45.89649" lon="3.03766">
        <ele>626</ele>
        <time>2015-10-17T17:12:47Z</time>
      </trkpt>
      <trkpt lat="45.89637" lon="3.03837">
        <ele>622</ele>
        <time>2015-10-17T17:14:47Z</time>
      </trkpt>
      <trkpt lat="45.89622" lon="3.03916">
        <ele>622</ele>
        <time>2015-10-17T17:16:47Z</time>
      </trkpt>
      <trkpt lat="45.89632" lon="3.03957">
        <ele>620</ele>
        <time>2015-10-17T17:18:47Z</time>
      </trkpt>
      <trkpt lat="45.89643" lon="3.04013">
        <ele>617</ele>
        <time>2015-10-17T17:20:47Z</time>
      </trkpt>
      <trkpt lat="45.89658" lon="3.04047">
        <ele>613</ele>
        <time>2015-10-17T17:22:47Z</time>
      </trkpt>
      <trkpt lat="45.89665" lon="3.04118">
        <ele>613</ele>
        <time>2015-10-17T17:24:47Z</time>
      </trkpt>
      <trkpt lat="45.89706" lon="3.04135">
        <ele>603</ele>
        <time>2015-10-17T17:26:47Z</time>
      </trkpt>
      <trkpt lat="45.89708" lon="3.04208">
        <ele>603</ele>
        <time>2015-10-17T17:28:47Z</time>
      </trkpt>
      <trkpt lat="45.89741" lon="3.04251">
        <ele>592</ele>
        <time>2015-10-17T17:30:47Z</time>
      </trkpt>
      <trkpt lat="45.89719" lon="3.04277">
        <ele>595</ele>
        <time>2015-10-17T17:32:47Z</time>
      </trkpt>
      <trkpt lat="45.89711" lon="3.04304">
        <ele>593</ele>
        <time>2015-10-17T17:34:47Z</time>
      </trkpt>
      <trkpt lat="45.89726" lon="3.04397">
        <ele>563</ele>
        <time>2015-10-17T17:36:47Z</time>
      </trkpt>
      <trkpt lat="45.89698" lon="3.04437">
        <ele>570</ele>
        <time>2015-10-17T17:38:47Z</time>
      </trkpt>
      <trkpt lat="45.89691" lon="3.04485">
        <ele>565</ele>
        <time>2015-10-17T17:40:47Z</time>
      </trkpt>
      <trkpt lat="45.89711" lon="3.04528">
        <ele>550</ele>
        <time>2015-10-17T17:42:47Z</time>
      </trkpt>
      <trkpt lat="45.89737" lon="3.04553">
        <ele>536</ele>
        <time>2015-10-17T17:44:47Z</time>
      </trkpt>
      <trkpt lat="45.89741" lon="3.04607">
        <ele>527</ele>
        <time>2015-10-17T17:46:47Z</time>
      </trkpt>
      <trkpt lat="45.8972" lon="3.04637">
        <ele>527</ele>
        <time>2015-10-17T17:48:47Z</time>
      </trkpt>
      <trkpt lat="45.89697" lon="3.04671">
        <ele>523</ele>
        <time>2015-10-17T17:50:47Z</time>
      </trkpt>
      <trkpt lat="45.8965" lon="3.04671">
        <ele>530</ele>
        <time>2015-10-17T17:52:47Z</time>
      </trkpt>
      <trkpt lat="45.89608" lon="3.04667">
        <ele>531</ele>
        <time>2015-10-17T17:54:47Z</time>
      </trkpt>
      <trkpt lat="45.89571" lon="3.04669">
        <ele>529</ele>
        <time>2015-10-17T17:56:47Z</time>
      </trkpt>
      <trkpt lat="45.89525" lon="3.04667">
        <ele>524</ele>
        <time>2015-10-17T17:58:47Z</time>
      </trkpt>
      <trkpt lat="45.89477" lon="3.04671">
        <ele>519</ele>
        <time>2015-10-17T18:00:47Z</time>
      </trkpt>
      <trkpt lat="45.89458" lon="3.04686">
        <ele>514</ele>
        <time>2015-10-17T18:02:47Z</time>
      </trkpt>
      <trkpt lat="45.89505" lon="3.04699">
        <ele>513</ele>
        <time>2015-10-17T18:04:47Z</time>
      </trkpt>
      <trkpt lat="45.89564" lon="3.04697">
        <ele>519</ele>
        <time>2015-10-17T18:06:47Z</time>
      </trkpt>
      <trkpt lat="45.89628" lon="3.04697">
        <ele>521</ele>
        <time>2015-10-17T18:08:47Z</time>
      </trkpt>
      <trkpt lat="45.89674" lon="3.04704">
        <ele>518</ele>
        <time>2015-10-17T18:10:47Z</time>
      </trkpt>
      <trkpt lat="45.89737" lon="3.04667">
        <ele>517</ele>
        <time>2015-10-17T18:12:47Z</time>
      </trkpt>
      <trkpt lat="45.89753" lon="3.04616">
        <ele>521</ele>
        <time>2015-10-17T18:14:47Z</time>
      </trkpt>
      <trkpt lat="45.89755" lon="3.04564">
        <ele>526</ele>
        <time>2015-10-17T18:16:47Z</time>
      </trkpt>
      <trkpt lat="45.89744" lon="3.04515">
        <ele>536</ele>
        <time>2015-10-17T18:18:47Z</time>
      </trkpt>
      <trkpt lat="45.89735" lon="3.04491">
        <ele>542</ele>
        <time>2015-10-17T18:20:47Z</time>
      </trkpt>
      <trkpt lat="45.89753" lon="3.04448">
        <ele>539</ele>
        <time>2015-10-17T18:22:47Z</time>
      </trkpt>
      <trkpt lat="45.89761" lon="3.04399">
        <ele>545</ele>
        <time>2015-10-17T18:24:47Z</time>
      </trkpt>
      <trkpt lat="45.89755" lon="3.04377">
        <ele>554</ele>
        <time>2015-10-17T18:26:47Z</time>
      </trkpt>
      <trkpt lat="45.89798" lon="3.04337">
        <ele>556</ele>
        <time>2015-10-17T18:28:47Z</time>
      </trkpt>
      <trkpt lat="45.89843" lon="3.04324">
        <ele>550</ele>
        <time>2015-10-17T18:30:47Z</time>
      </trkpt>
      <trkpt lat="45.89865" lon="3.04341">
        <ele>540</ele>
        <time>2015-10-17T18:32:47Z</time>
      </trkpt>
      <trkpt lat="45.899" lon="3.04268">
        <ele>556</ele>
        <time>2015-10-17T18:34:47Z</time>
      </trkpt>
      <trkpt lat="45.8994" lon="3.04242">
        <ele>556</ele>
        <time>2015-10-17T18:36:47Z</time>
      </trkpt>
      <trkpt lat="45.89961" lon="3.04204">
        <ele>560</ele>
        <time>2015-10-17T18:38:47Z</time>
      </trkpt>
      <trkpt lat="45.8994" lon="3.04176">
        <ele>562</ele>
        <time>2015-10-17T18:40:47Z</time>
      </trkpt>
      <trkpt lat="45.89907" lon="3.04152">
        <ele>564</ele>
        <time>2015-10-17T18:42:47Z</time>
      </trkpt>
      <trkpt lat="45.89885" lon="3.04126">
        <ele>569</ele>
        <time>2015-10-17T18:44:47Z</time>
      </trkpt>
      <trkpt lat="45.89859" lon="3.04077">
        <ele>574</ele>
        <time>2015-10-17T18:46:47Z</time>
      </trkpt>
      <trkpt lat="45.89852" lon="3.04045">
        <ele>576</ele>
        <time>2015-10-17T18:48:47Z</time>
      </trkpt>
      <trkpt lat="45.89858" lon="3.03989">
        <ele>579</ele>
        <time>2015-10-17T18:50:47Z</time>
      </trkpt>
      <trkpt lat="45.8988" lon="3.03938">
        <ele>580</ele>
        <time>2015-10-17T18:52:47Z</time>
      </trkpt>
      <trkpt lat="45.89886" lon="3.0389">
        <ele>581</ele>
        <time>2015-10-17T18:54:47Z</time>
      </trkpt>
      <trkpt lat="45.89876" lon="3.0383">
        <ele>586</ele>
        <time>2015-10-17T18:56:47Z</time>
      </trkpt>
      <trkpt lat="45.89859" lon="3.03796">
        <ele>589</ele>
        <time>2015-10-17T18:58:47Z</time>
      </trkpt>
      <trkpt lat="45.89852" lon="3.03749">
        <ele>591</ele>
        <time>2015-10-17T19:00:47Z</time>
      </trkpt>
      <trkpt lat="45.89862" lon="3.03701">
        <ele>590</ele>
        <time>2015-10-17T19:02:47Z</time>
      </trkpt>
      <trkpt lat="45.89871" lon="3.03667">
        <ele>589</ele>
        <time>2015-10-17T19:04:47Z</time>
      </trkpt>
      <trkpt lat="45.8987" lon="3.03631">
        <ele>588</ele>
        <time>2015-10-17T19:06:47Z</time>
      </trkpt>
      <trkpt lat="45.89883" lon="3.03588">
        <ele>588</ele>
        <time>2015-10-17T19:08:47Z</time>
      </trkpt>
      <trkpt lat="45.89858" lon="3.03571">
        <ele>587</ele>
        <time>2015-10-17T19:10:47Z</time>
      </trkpt>
      <trkpt lat="45.89837" lon="3.03556">
        <ele>586</ele>
        <time>2015-10-17T19:12:47Z</time>
      </trkpt>
      <trkpt lat="45.89823" lon="3.03517">
        <ele>588</ele>
        <time>2015-10-17T19:14:47Z</time>
      </trkpt>
      <trkpt lat="45.89818" lon="3.03478">
        <ele>590</ele>
        <time>2015-10-17T19:16:47Z</time>
      </trkpt>
      <trkpt lat="45.89809" lon="3.0344">
        <ele>594</ele>
        <time>2015-10-17T19:18:47Z</time>
      </trkpt>
      <trkpt lat="45.89803" lon="3.03399">
        <ele>597</ele>
        <time>2015-10-17T19:20:47Z</time>
      </trkpt>
      <trkpt lat="45.89806" lon="3.03332">
        <ele>599</ele>
        <time>2015-10-17T19:22:47Z</time>
      </trkpt>
      <trkpt lat="45.89794" lon="3.03311">
        <ele>601</ele>
        <time>2015-10-17T19:24:47Z</time>
      </trkpt>
      <trkpt lat="45.89813" lon="3.03277">
        <ele>596</ele>
        <time>2015-10-17T19:26:47Z</time>
      </trkpt>
      <trkpt lat="45.89835" lon="3.03244">
        <ele>592</ele>
        <time>2015-10-17T19:28:47Z</time>
      </trkpt>
      <trkpt lat="45.89856" lon="3.03208">
        <ele>598</ele>
        <time>2015-10-17T19:30:47Z</time>
      </trkpt>
      <trkpt lat="45.89853" lon="3.03169">
        <ele>597</ele>
        <time>2015-10-17T19:32:47Z</time>
      </trkpt>
      <trkpt lat="45.89822" lon="3.03191">
        <ele>594</ele>
        <time>2015-10-17T19:34:47Z</time>
      </trkpt>
      <trkpt lat="45.89797" lon="3.03206">
        <ele>597</ele>
        <time>2015-10-17T19:36:47Z</time>
      </trkpt>
      <trkpt lat="45.89777" lon="3.03195">
        <ele>600</ele>
        <time>2015-10-17T19:38:47Z</time>
      </trkpt>
      <trkpt lat="45.89744" lon="3.0318">
        <ele>603</ele>
        <time>2015-10-17T19:40:47Z</time>
      </trkpt>
      <trkpt lat="45.89713" lon="3.03154">
        <ele>609</ele>
        <time>2015-10-17T19:42:47Z</time>
      </trkpt>
      <trkpt lat="45.8968" lon="3.03135">
        <ele>614</ele>
        <time>2015-10-17T19:44:47Z</time>
      </trkpt>
      <trkpt lat="45.89656" lon="3.03135">
        <ele>618</ele>
        <time>2015-10-17T19:46:47Z</time>
      </trkpt>
      <trkpt lat="45.8967" lon="3.0318">
        <ele>617</ele>
        <time>2015-10-17T19:48:47Z</time>
      </trkpt>
      <trkpt lat="45.8968" lon="3.03229">
        <ele>622</ele>
        <time>2015-10-17T19:50:47Z</time>
      </trkpt>
      <trkpt lat="45.89694" lon="3.03279">
        <ele>623</ele>
        <time>2015-10-17T19:52:47Z</time>
      </trkpt>
      <trkpt lat="45.89686" lon="3.0332">
        <ele>627</ele>
        <time>2015-10-17T19:54:47Z</time>
      </trkpt>
      <trkpt lat="45.89682" lon="3.03365">
        <ele>628</ele>
        <time>2015-10-17T19:56:47Z</time>
      </trkpt>
      <trkpt lat="45.89671" lon="3.03397">
        <ele>631</ele>
        <time>2015-10-17T19:58:47Z</time>
      </trkpt>
      <trkpt lat="45.89641" lon="3.03386">
        <ele>635</ele>
        <time>2015-10-17T20:00:47Z</time>
      </trkpt>
      <trkpt lat="45.8961" lon="3.03365">
        <ele>639</ele>
        <time>2015-10-17T20:02:47Z</time>
      </trkpt>
      <trkpt lat="45.8958" lon="3.03373">
        <ele>641</ele>
        <time>2015-10-17T20:04:47Z</time>
      </trkpt>
      <trkpt lat="45.89552" lon="3.0338">
        <ele>644</ele>
        <time>2015-10-17T20:06:47Z</time>
      </trkpt>
      <trkpt lat="45.89526" lon="3.03388">
        <ele>646</ele>
        <time>2015-10-17T20:08:47Z</time>
      </trkpt>
      <trkpt lat="45.89468" lon="3.0339">
        <ele>652</ele>
        <time>2015-10-17T20:10:47Z</time>
      </trkpt>
      <trkpt lat="45.89389" lon="3.0341">
        <ele>657</ele>
        <time>2015-10-17T20:12:47Z</time>
      </trkpt>
      <trkpt lat="45.8938" lon="3.03386">
        <ele>658</ele>
        <time>2015-10-17T20:14:47Z</time>
      </trkpt>
      <trkpt lat="45.89387" lon="3.03289">
        <ele>656</ele>
        <time>2015-10-17T20:16:47Z</time>
      </trkpt>
      <trkpt lat="45.89384" lon="3.0321">
        <ele>655</ele>
        <time>2015-10-17T20:18:47Z</time>
      </trkpt>
      <trkpt lat="45.89362" lon="3.03159">
        <ele>654</ele>
        <time>2015-10-17T20:20:47Z</time>
      </trkpt>
      <trkpt lat="45.89352" lon="3.03088">
        <ele>655</ele>
        <time>2015-10-17T20:22:47Z</time>
      </trkpt>
      <trkpt lat="45.89332" lon="3.03028">
        <ele>660</ele>
        <time>2015-10-17T20:24:47Z</time>
      </trkpt>
      <trkpt lat="45.89301" lon="3.02987">
        <ele>664</ele>
        <time>2015-10-17T20:26:47Z</time>
      </trkpt>
      <trkpt lat="45.89265" lon="3.02972">
        <ele>666</ele>
        <time>2015-10-17T20:28:47Z</time>
      </trkpt>
      <trkpt lat="45.89222" lon="3.02948">
        <ele>666</ele>
        <time>2015-10-17T20:30:47Z</time>
      </trkpt>
      <trkpt lat="45.89184" lon="3.02933">
        <ele>664</ele>
        <time>2015-10-17T20:32:47Z</time>
      </trkpt>
      <trkpt lat="45.8916" lon="3.0289">
        <ele>668</ele>
        <time>2015-10-17T20:34:47Z</time>
      </trkpt>
      <trkpt lat="45.89138" lon="3.0285">
        <ele>671</ele>
        <time>2015-10-17T20:36:47Z</time>
      </trkpt>
      <trkpt lat="45.89102" lon="3.02815">
        <ele>672</ele>
        <time>2015-10-17T20:38:47Z</time>
      </trkpt>
      <trkpt lat="45.89075" lon="3.02792">
        <ele>673</ele>
        <time>2015-10-17T20:40:47Z</time>
      </trkpt>
      <trkpt lat="45.89057" lon="3.02766">
        <ele>677</ele>
        <time>2015-10-17T20:42:47Z</time>
      </trkpt>
      <trkpt lat="45.89033" lon="3.02785">
        <ele>678</ele>
        <time>2015-10-17T20:44:47Z</time>
      </trkpt>
      <trkpt lat="45.89036" lon="3.02832">
        <ele>674</ele>
        <time>2015-10-17T20:46:47Z</time>
      </trkpt>
      <trkpt lat="45.89041" lon="3.02897">
        <ele>665</ele>
        <time>2015-10-17T20:48:47Z</time>
      </trkpt>
      <trkpt lat="45.89027" lon="3.02944">
        <ele>660</ele>
        <time>2015-10-17T20:50:47Z</time>
      </trkpt>
      <trkpt lat="45.89007" lon="3.02976">
        <ele>657</ele>
        <time>2015-10-17T20:52:47Z</time>
      </trkpt>
      <trkpt lat="45.88989" lon="3.03011">
        <ele>652</ele>
        <time>2015-10-17T20:54:47Z</time>
      </trkpt>
      <trkpt lat="45.88942" lon="3.03036">
        <ele>651</ele>
        <time>2015-10-17T20:56:47Z</time>
      </trkpt>
      <trkpt lat="45.88887" lon="3.03077">
        <ele>652</ele>
        <time>2015-10-17T20:58:47Z</time>
      </trkpt>
      <trkpt lat="45.88863" lon="3.03126">
        <ele>650</ele>
        <time>2015-10-17T21:00:47Z</time>
      </trkpt>
      <trkpt lat="45.88845" lon="3.03193">
        <ele>646</ele>
        <time>2015-10-17T21:02:47Z</time>
      </trkpt>
      <trkpt lat="45.8883" lon="3.03232">
        <ele>646</ele>
        <time>2015-10-17T21:04:47Z</time>
      </trkpt>
      <trkpt lat="45.88802" lon="3.03268">
        <ele>642</ele>
        <time>2015-10-17T21:06:47Z</time>
      </trkpt>
      <trkpt lat="45.88769" lon="3.03257">
        <ele>640</ele>
        <time>2015-10-17T21:08:47Z</time>
      </trkpt>
      <trkpt lat="45.88732" lon="3.03249">
        <ele>635</ele>
        <time>2015-10-17T21:10:47Z</time>
      </trkpt>
      <trkpt lat="45.88685" lon="3.03229">
        <ele>626</ele>
        <time>2015-10-17T21:12:47Z</time>
      </trkpt>
      <trkpt lat="45.88642" lon="3.03208">
        <ele>616</ele>
        <time>2015-10-17T21:14:47Z</time>
      </trkpt>
      <trkpt lat="45.88614" lon="3.03191">
        <ele>608</ele>
        <time>2015-10-17T21:16:47Z</time>
      </trkpt>
      <trkpt lat="45.88596" lon="3.03163">
        <ele>604</ele>
        <time>2015-10-17T21:18:47Z</time>
      </trkpt>
      <trkpt lat="45.88581" lon="3.03122">
        <ele>605</ele>
        <time>2015-10-17T21:20:47Z</time>
      </trkpt>
      <trkpt lat="45.88564" lon="3.03086">
        <ele>608</ele>
        <time>2015-10-17T21:22:47Z</time>
      </trkpt>
      <trkpt lat="45.88554" lon="3.03064">
        <ele>610</ele>
        <time>2015-10-17T21:24:47Z</time>
      </trkpt>
      <trkpt lat="45.88551" lon="3.03023">
        <ele>616</ele>
        <time>2015-10-17T21:26:47Z</time>
      </trkpt>
      <trkpt lat="45.88545" lon="3.02987">
        <ele>620</ele>
        <time>2015-10-17T21:28:47Z</time>
      </trkpt>
      <trkpt lat="45.88526" lon="3.02955">
        <ele>622</ele>
        <time>2015-10-17T21:30:47Z</time>
      </trkpt>
      <trkpt lat="45.88505" lon="3.02944">
        <ele>621</ele>
        <time>2015-10-17T21:32:47Z</time>
      </trkpt>
      <trkpt lat="45.88485" lon="3.02965">
        <ele>622</ele>
        <time>2015-10-17T21:34:47Z</time>
      </trkpt>
      <trkpt lat="45.88469" lon="3.03002">
        <ele>621</ele>
        <time>2015-10-17T21:36:47Z</time>
      </trkpt>
      <trkpt lat="45.88457" lon="3.03038">
        <ele>620</ele>
        <time>2015-10-17T21:38:47Z</time>
      </trkpt>
      <trkpt lat="45.88457" lon="3.03083">
        <ele>614</ele>
        <time>2015-10-17T21:40:47Z</time>
      </trkpt>
      <trkpt lat="45.88446" lon="3.03107">
        <ele>614</ele>
        <time>2015-10-17T21:42:47Z</time>
      </trkpt>
      <trkpt lat="45.88415" lon="3.03096">
        <ele>623</ele>
        <time>2015-10-17T21:44:47Z</time>
      </trkpt>
      <trkpt lat="45.88382" lon="3.03105">
        <ele>628</ele>
        <time>2015-10-17T21:46:47Z</time>
      </trkpt>
      <trkpt lat="45.88351" lon="3.03118">
        <ele>632</ele>
        <time>2015-10-17T21:48:47Z</time>
      </trkpt>
      <trkpt lat="45.88331" lon="3.03081">
        <ele>641</ele>
        <time>2015-10-17T21:50:47Z</time>
      </trkpt>
      <trkpt lat="45.88308" lon="3.03077">
        <ele>643</ele>
        <time>2015-10-17T21:52:47Z</time>
      </trkpt>
      <trkpt lat="45.88287" lon="3.03094">
        <ele>643</ele>
        <time>2015-10-17T21:54:47Z</time>
      </trkpt>
      <trkpt lat="45.88287" lon="3.03129">
        <ele>641</ele>
        <time>2015-10-17T21:56:47Z</time>
      </trkpt>
      <trkpt lat="45.88288" lon="3.03178">
        <ele>640</ele>
        <time>2015-10-17T21:58:47Z</time>
      </trkpt>
      <trkpt lat="45.88288" lon="3.03199">
        <ele>641</ele>
        <time>2015-10-17T22:00:47Z</time>
      </trkpt>
      <trkpt lat="45.88266" lon="3.03189">
        <ele>647</ele>
        <time>2015-10-17T22:02:47Z</time>
      </trkpt>
      <trkpt lat="45.88243" lon="3.03152">
        <ele>649</ele>
        <time>2015-10-17T22:04:47Z</time>
      </trkpt>
      <trkpt lat="45.88221" lon="3.03126">
        <ele>653</ele>
        <time>2015-10-17T22:06:47Z</time>
      </trkpt>
      <trkpt lat="45.88203" lon="3.03086">
        <ele>654</ele>
        <time>2015-10-17T22:08:47Z</time>
      </trkpt>
      <trkpt lat="45.88185" lon="3.03064">
        <ele>657</ele>
        <time>2015-10-17T22:10:47Z</time>
      </trkpt>
      <trkpt lat="45.88166" lon="3.03026">
        <ele>661</ele>
        <time>2015-10-17T22:12:47Z</time>
      </trkpt>
      <trkpt lat="45.88149" lon="3.02991">
        <ele>664</ele>
        <time>2015-10-17T22:14:47Z</time>
      </trkpt>
      <trkpt lat="45.88142" lon="3.02948">
        <ele>667</ele>
        <time>2015-10-17T22:16:47Z</time>
      </trkpt>
      <trkpt lat="45.88116" lon="3.02933">
        <ele>670</ele>
        <time>2015-10-17T22:18:47Z</time>
      </trkpt>
      <trkpt lat="45.88072" lon="3.02877">
        <ele>674</ele>
        <time>2015-10-17T22:20:47Z</time>
      </trkpt>
      <trkpt lat="45.88045" lon="3.02854">
        <ele>675</ele>
        <time>2015-10-17T22:22:47Z</time>
      </trkpt>
      <trkpt lat="45.88022" lon="3.02824">
        <ele>673</ele>
        <time>2015-10-17T22:24:47Z</time>
      </trkpt>
      <trkpt lat="45.88" lon="3.02798">
        <ele>672</ele>
        <time>2015-10-17T22:26:47Z</time>
      </trkpt>
      <trkpt lat="45.87974" lon="3.02781">
        <ele>668</ele>
        <time>2015-10-17T22:28:47Z</time>
      </trkpt>
      <trkpt lat="45.87949" lon="3.02779">
        <ele>664</ele>
        <time>2015-10-17T22:30:47Z</time>
      </trkpt>
      <trkpt lat="45.87924" lon="3.02777">
        <ele>660</ele>
        <time>2015-10-17T22:32:47Z</time>
      </trkpt>
      <trkpt lat="45.87894" lon="3.02777">
        <ele>654</ele>
        <time>2015-10-17T22:34:47Z</time>
      </trkpt>
      <trkpt lat="45.87827" lon="3.02768">
        <ele>640</ele>
        <time>2015-10-17T22:36:47Z</time>
      </trkpt>
      <trkpt lat="45.87794" lon="3.02762">
        <ele>635</ele>
        <time>2015-10-17T22:38:47Z</time>
      </trkpt>
      <trkpt lat="45.87761" lon="3.02757">
        <ele>629</ele>
        <time>2015-10-17T22:40:47Z</time>
      </trkpt>
      <trkpt lat="45.87722" lon="3.02757">
        <ele>625</ele>
        <time>2015-10-17T22:42:47Z</time>
      </trkpt>
      <trkpt lat="45.87691" lon="3.02751">
        <ele>621</ele>
        <time>2015-10-17T22:44:47Z</time>
      </trkpt>
      <trkpt lat="45.87659" lon="3.02749">
        <ele>618</ele>
        <time>2015-10-17T22:46:47Z</time>
      </trkpt>
      <trkpt lat="45.8762" lon="3.02749">
        <ele>613</ele>
        <time>2015-10-17T22:48:47Z</time>
      </trkpt>
      <trkpt lat="45.8759" lon="3.02751">
        <ele>610</ele>
        <time>2015-10-17T22:50:47Z</time>
      </trkpt>
      <trkpt lat="45.8754" lon="3.0273">
        <ele>602</ele>
        <time>2015-10-17T22:52:47Z</time>
      </trkpt>
      <trkpt lat="45.87512" lon="3.02718">
        <ele>599</ele>
        <time>2015-10-17T22:54:47Z</time>
      </trkpt>
      <trkpt lat="45.87495" lon="3.02703">
        <ele>598</ele>
        <time>2015-10-17T22:56:47Z</time>
      </trkpt>
      <trkpt lat="45.87468" lon="3.02699">
        <ele>596</ele>
        <time>2015-10-17T22:58:47Z</time>
      </trkpt>
      <trkpt lat="45.8745" lon="3.02737">
        <ele>594</ele>
        <time>2015-10-17T23:00:47Z</time>
      </trkpt>
      <trkpt lat="45.87457" lon="3.02785">
        <ele>592</ele>
        <time>2015-10-17T23:02:47Z</time>
      </trkpt>
      <trkpt lat="45.87485" lon="3.02854">
        <ele>589</ele>
        <time>2015-10-17T23:04:47Z</time>
      </trkpt>
      <trkpt lat="45.87508" lon="3.02909">
        <ele>589</ele>
        <time>2015-10-17T23:06:47Z</time>
      </trkpt>
      <trkpt lat="45.87515" lon="3.0299">
        <ele>586</ele>
        <time>2015-10-17T23:08:47Z</time>
      </trkpt>
      <trkpt lat="45.87528" lon="3.03063">
        <ele>588</ele>
        <time>2015-10-17T23:10:47Z</time>
      </trkpt>
      <trkpt lat="45.87512" lon="3.03106">
        <ele>586</ele>
        <time>2015-10-17T23:12:47Z</time>
      </trkpt>
      <trkpt lat="45.8749" lon="3.03149">
        <ele>585</ele>
        <time>2015-10-17T23:14:47Z</time>
      </trkpt>
      <trkpt lat="45.8745" lon="3.03185">
        <ele>584</ele>
        <time>2015-10-17T23:16:47Z</time>
      </trkpt>
      <trkpt lat="45.87407" lon="3.03209">
        <ele>583</ele>
        <time>2015-10-17T23:18:47Z</time>
      </trkpt>
      <trkpt lat="45.87366" lon="3.03204">
        <ele>579</ele>
        <time>2015-10-17T23:20:47Z</time>
      </trkpt>
      <trkpt lat="45.87331" lon="3.03166">
        <ele>577</ele>
        <time>2015-10-17T23:22:47Z</time>
      </trkpt>
      <trkpt lat="45.87304" lon="3.0309">
        <ele>577</ele>
        <time>2015-10-17T23:24:47Z</time>
      </trkpt>
      <trkpt lat="45.87278" lon="3.03016">
        <ele>579</ele>
        <time>2015-10-17T23:26:47Z</time>
      </trkpt>
      <trkpt lat="45.87256" lon="3.02947">
        <ele>582</ele>
        <time>2015-10-17T23:28:47Z</time>
      </trkpt>
      <trkpt lat="45.8721" lon="3.02889">
        <ele>582</ele>
        <time>2015-10-17T23:30:47Z</time>
      </trkpt>
      <trkpt lat="45.87153" lon="3.02861">
        <ele>577</ele>
        <time>2015-10-17T23:32:47Z</time>
      </trkpt>
      <trkpt lat="45.87107" lon="3.02835">
        <ele>574</ele>
        <time>2015-10-17T23:34:47Z</time>
      </trkpt>
      <trkpt lat="45.87135" lon="3.02792">
        <ele>578</ele>
        <time>2015-10-17T23:36:47Z</time>
      </trkpt>
    </trkseg>
  </trk>
  <trk>
    <name><![CDATA[--Volvic-- OR-5358178:ser-fr01-vtt-l]]></name>
    <trkseg>
      <trkpt lat="45.8713" lon="3.02706">
        <ele>586</ele>
        <time>2015-10-17T12:37:15Z</time>
      </trkpt>
      <trkpt lat="45.8712" lon="3.02678">
        <ele>590</ele>
        <time>2015-10-17T12:39:15Z</time>
      </trkpt>
      <trkpt lat="45.87145" lon="3.02629">
        <ele>594</ele>
        <time>2015-10-17T12:41:15Z</time>
      </trkpt>
      <trkpt lat="45.87151" lon="3.02564">
        <ele>599</ele>
        <time>2015-10-17T12:43:15Z</time>
      </trkpt>
      <trkpt lat="45.87144" lon="3.02508">
        <ele>605</ele>
        <time>2015-10-17T12:45:15Z</time>
      </trkpt>
      <trkpt lat="45.87153" lon="3.02438">
        <ele>611</ele>
        <time>2015-10-17T12:47:15Z</time>
      </trkpt>
      <trkpt lat="45.87193" lon="3.02393">
        <ele>613</ele>
        <time>2015-10-17T12:49:15Z</time>
      </trkpt>
      <trkpt lat="45.87225" lon="3.02347">
        <ele>615</ele>
        <time>2015-10-17T12:51:15Z</time>
      </trkpt>
      <trkpt lat="45.87244" lon="3.023">
        <ele>617</ele>
        <time>2015-10-17T12:53:15Z</time>
      </trkpt>
      <trkpt lat="45.87236" lon="3.02242">
        <ele>620</ele>
        <time>2015-10-17T12:55:15Z</time>
      </trkpt>
      <trkpt lat="45.87235" lon="3.02197">
        <ele>620</ele>
        <time>2015-10-17T12:57:15Z</time>
      </trkpt>
      <trkpt lat="45.8723" lon="3.02144">
        <ele>620</ele>
        <time>2015-10-17T12:59:15Z</time>
      </trkpt>
      <trkpt lat="45.87225" lon="3.02092">
        <ele>621</ele>
        <time>2015-10-17T13:01:15Z</time>
      </trkpt>
      <trkpt lat="45.8722" lon="3.02043">
        <ele>622</ele>
        <time>2015-10-17T13:03:15Z</time>
      </trkpt>
      <trkpt lat="45.87217" lon="3.02">
        <ele>624</ele>
        <time>2015-10-17T13:05:15Z</time>
      </trkpt>
      <trkpt lat="45.87178" lon="3.02">
        <ele>625</ele>
        <time>2015-10-17T13:07:15Z</time>
      </trkpt>
      <trkpt lat="45.87153" lon="3.01957">
        <ele>629</ele>
        <time>2015-10-17T13:09:15Z</time>
      </trkpt>
      <trkpt lat="45.87138" lon="3.01916">
        <ele>632</ele>
        <time>2015-10-17T13:11:15Z</time>
      </trkpt>
      <trkpt lat="45.8712" lon="3.01901">
        <ele>635</ele>
        <time>2015-10-17T13:13:15Z</time>
      </trkpt>
      <trkpt lat="45.87115" lon="3.01848">
        <ele>638</ele>
        <time>2015-10-17T13:15:15Z</time>
      </trkpt>
      <trkpt lat="45.87121" lon="3.01805">
        <ele>640</ele>
        <time>2015-10-17T13:17:15Z</time>
      </trkpt>
      <trkpt lat="45.87126" lon="3.01753">
        <ele>644</ele>
        <time>2015-10-17T13:19:15Z</time>
      </trkpt>
      <trkpt lat="45.87142" lon="3.01719">
        <ele>648</ele>
        <time>2015-10-17T13:21:15Z</time>
      </trkpt>
      <trkpt lat="45.87166" lon="3.01751">
        <ele>646</ele>
        <time>2015-10-17T13:23:15Z</time>
      </trkpt>
      <trkpt lat="45.8718" lon="3.01794">
        <ele>645</ele>
        <time>2015-10-17T13:25:15Z</time>
      </trkpt>
      <trkpt lat="45.87195" lon="3.01839">
        <ele>643</ele>
        <time>2015-10-17T13:27:15Z</time>
      </trkpt>
      <trkpt lat="45.87213" lon="3.01873">
        <ele>640</ele>
        <time>2015-10-17T13:29:15Z</time>
      </trkpt>
      <trkpt lat="45.8726" lon="3.01899">
        <ele>641</ele>
        <time>2015-10-17T13:31:15Z</time>
      </trkpt>
      <trkpt lat="45.87305" lon="3.01933">
        <ele>641</ele>
        <time>2015-10-17T13:33:15Z</time>
      </trkpt>
      <trkpt lat="45.87341" lon="3.01946">
        <ele>643</ele>
        <time>2015-10-17T13:35:15Z</time>
      </trkpt>
      <trkpt lat="45.87386" lon="3.01972">
        <ele>637</ele>
        <time>2015-10-17T13:37:15Z</time>
      </trkpt>
      <trkpt lat="45.87443" lon="3.01985">
        <ele>633</ele>
        <time>2015-10-17T13:39:15Z</time>
      </trkpt>
      <trkpt lat="45.87487" lon="3.01968">
        <ele>634</ele>
        <time>2015-10-17T13:41:15Z</time>
      </trkpt>
      <trkpt lat="45.8754" lon="3.01936">
        <ele>631</ele>
        <time>2015-10-17T13:43:15Z</time>
      </trkpt>
      <trkpt lat="45.87574" lon="3.01901">
        <ele>628</ele>
        <time>2015-10-17T13:45:15Z</time>
      </trkpt>
      <trkpt lat="45.87617" lon="3.01873">
        <ele>626</ele>
        <time>2015-10-17T13:47:15Z</time>
      </trkpt>
      <trkpt lat="45.87655" lon="3.01869">
        <ele>621</ele>
        <time>2015-10-17T13:49:15Z</time>
      </trkpt>
      <trkpt lat="45.87688" lon="3.0192">
        <ele>620</ele>
        <time>2015-10-17T13:51:15Z</time>
      </trkpt>
      <trkpt lat="45.87689" lon="3.0188">
        <ele>625</ele>
        <time>2015-10-17T13:53:15Z</time>
      </trkpt>
      <trkpt lat="45.87694" lon="3.01835">
        <ele>631</ele>
        <time>2015-10-17T13:55:15Z</time>
      </trkpt>
      <trkpt lat="45.87706" lon="3.01787">
        <ele>639</ele>
        <time>2015-10-17T13:57:15Z</time>
      </trkpt>
      <trkpt lat="45.87718" lon="3.01745">
        <ele>644</ele>
        <time>2015-10-17T13:59:15Z</time>
      </trkpt>
      <trkpt lat="45.87735" lon="3.0171">
        <ele>645</ele>
        <time>2015-10-17T14:01:15Z</time>
      </trkpt>
      <trkpt lat="45.87764" lon="3.01678">
        <ele>647</ele>
        <time>2015-10-17T14:03:15Z</time>
      </trkpt>
      <trkpt lat="45.87782" lon="3.01642">
        <ele>650</ele>
        <time>2015-10-17T14:05:15Z</time>
      </trkpt>
      <trkpt lat="45.87797" lon="3.01603">
        <ele>652</ele>
        <time>2015-10-17T14:07:15Z</time>
      </trkpt>
      <trkpt lat="45.87843" lon="3.01592">
        <ele>661</ele>
        <time>2015-10-17T14:09:15Z</time>
      </trkpt>
      <trkpt lat="45.87889" lon="3.01616">
        <ele>667</ele>
        <time>2015-10-17T14:11:15Z</time>
      </trkpt>
      <trkpt lat="45.87945" lon="3.01624">
        <ele>671</ele>
        <time>2015-10-17T14:13:15Z</time>
      </trkpt>
      <trkpt lat="45.87974" lon="3.0162">
        <ele>673</ele>
        <time>2015-10-17T14:15:15Z</time>
      </trkpt>
      <trkpt lat="45.87973" lon="3.01584">
        <ele>678</ele>
        <time>2015-10-17T14:17:15Z</time>
      </trkpt>
      <trkpt lat="45.87958" lon="3.01558">
        <ele>680</ele>
        <time>2015-10-17T14:19:15Z</time>
      </trkpt>
      <trkpt lat="45.8794" lon="3.01543">
        <ele>679</ele>
        <time>2015-10-17T14:21:15Z</time>
      </trkpt>
      <trkpt lat="45.87924" lon="3.01521">
        <ele>679</ele>
        <time>2015-10-17T14:23:15Z</time>
      </trkpt>
      <trkpt lat="45.87928" lon="3.01472">
        <ele>686</ele>
        <time>2015-10-17T14:25:15Z</time>
      </trkpt>
      <trkpt lat="45.87922" lon="3.01448">
        <ele>688</ele>
        <time>2015-10-17T14:27:15Z</time>
      </trkpt>
      <trkpt lat="45.87922" lon="3.01416">
        <ele>692</ele>
        <time>2015-10-17T14:29:15Z</time>
      </trkpt>
      <trkpt lat="45.87927" lon="3.01358">
        <ele>699</ele>
        <time>2015-10-17T14:31:15Z</time>
      </trkpt>
      <trkpt lat="45.8793" lon="3.01311">
        <ele>703</ele>
        <time>2015-10-17T14:33:15Z</time>
      </trkpt>
      <trkpt lat="45.87952" lon="3.01262">
        <ele>707</ele>
        <time>2015-10-17T14:35:15Z</time>
      </trkpt>
      <trkpt lat="45.87919" lon="3.01219">
        <ele>708</ele>
        <time>2015-10-17T14:37:15Z</time>
      </trkpt>
      <trkpt lat="45.87879" lon="3.01234">
        <ele>704</ele>
        <time>2015-10-17T14:39:15Z</time>
      </trkpt>
      <trkpt lat="45.87853" lon="3.01219">
        <ele>704</ele>
        <time>2015-10-17T14:41:15Z</time>
      </trkpt>
      <trkpt lat="45.87825" lon="3.01184">
        <ele>704</ele>
        <time>2015-10-17T14:43:15Z</time>
      </trkpt>
      <trkpt lat="45.87809" lon="3.01167">
        <ele>703</ele>
        <time>2015-10-17T14:45:15Z</time>
      </trkpt>
      <trkpt lat="45.87792" lon="3.01131">
        <ele>702</ele>
        <time>2015-10-17T14:47:15Z</time>
      </trkpt>
      <trkpt lat="45.87764" lon="3.01094">
        <ele>700</ele>
        <time>2015-10-17T14:49:15Z</time>
      </trkpt>
      <trkpt lat="45.87743" lon="3.01062">
        <ele>698</ele>
        <time>2015-10-17T14:51:15Z</time>
      </trkpt>
      <trkpt lat="45.87713" lon="3.01028">
        <ele>697</ele>
        <time>2015-10-17T14:53:15Z</time>
      </trkpt>
      <trkpt lat="45.87698" lon="3.01">
        <ele>698</ele>
        <time>2015-10-17T14:55:15Z</time>
      </trkpt>
      <trkpt lat="45.8768" lon="3.00981">
        <ele>697</ele>
        <time>2015-10-17T14:57:15Z</time>
      </trkpt>
      <trkpt lat="45.87653" lon="3.00987">
        <ele>697</ele>
        <time>2015-10-17T14:59:15Z</time>
      </trkpt>
      <trkpt lat="45.87628" lon="3.00994">
        <ele>697</ele>
        <time>2015-10-17T15:01:15Z</time>
      </trkpt>
      <trkpt lat="45.87602" lon="3.01002">
        <ele>698</ele>
        <time>2015-10-17T15:03:15Z</time>
      </trkpt>
      <trkpt lat="45.87577" lon="3.01011">
        <ele>697</ele>
        <time>2015-10-17T15:05:15Z</time>
      </trkpt>
      <trkpt lat="45.87534" lon="3.01011">
        <ele>695</ele>
        <time>2015-10-17T15:07:15Z</time>
      </trkpt>
      <trkpt lat="45.8751" lon="3.01021">
        <ele>693</ele>
        <time>2015-10-17T15:09:15Z</time>
      </trkpt>
      <trkpt lat="45.87489" lon="3.01049">
        <ele>690</ele>
        <time>2015-10-17T15:11:15Z</time>
      </trkpt>
      <trkpt lat="45.87471" lon="3.01088">
        <ele>688</ele>
        <time>2015-10-17T15:13:15Z</time>
      </trkpt>
      <trkpt lat="45.87449" lon="3.01127">
        <ele>689</ele>
        <time>2015-10-17T15:15:15Z</time>
      </trkpt>
      <trkpt lat="45.87429" lon="3.01161">
        <ele>691</ele>
        <time>2015-10-17T15:17:15Z</time>
      </trkpt>
      <trkpt lat="45.87408" lon="3.01163">
        <ele>690</ele>
        <time>2015-10-17T15:19:15Z</time>
      </trkpt>
      <trkpt lat="45.8738" lon="3.01152">
        <ele>685</ele>
        <time>2015-10-17T15:21:15Z</time>
      </trkpt>
      <trkpt lat="45.8736" lon="3.01114">
        <ele>683</ele>
        <time>2015-10-17T15:23:15Z</time>
      </trkpt>
      <trkpt lat="45.87346" lon="3.01071">
        <ele>682</ele>
        <time>2015-10-17T15:25:15Z</time>
      </trkpt>
      <trkpt lat="45.87325" lon="3.01092">
        <ele>680</ele>
        <time>2015-10-17T15:27:15Z</time>
      </trkpt>
      <trkpt lat="45.87281" lon="3.01122">
        <ele>675</ele>
        <time>2015-10-17T15:29:15Z</time>
      </trkpt>
      <trkpt lat="45.87266" lon="3.01148">
        <ele>672</ele>
        <time>2015-10-17T15:31:15Z</time>
      </trkpt>
      <trkpt lat="45.87242" lon="3.01169">
        <ele>669</ele>
        <time>2015-10-17T15:33:15Z</time>
      </trkpt>
      <trkpt lat="45.87208" lon="3.01178">
        <ele>669</ele>
        <time>2015-10-17T15:35:15Z</time>
      </trkpt>
      <trkpt lat="45.87186" lon="3.01178">
        <ele>669</ele>
        <time>2015-10-17T15:37:15Z</time>
      </trkpt>
      <trkpt lat="45.87168" lon="3.01124">
        <ele>671</ele>
        <time>2015-10-17T15:39:15Z</time>
      </trkpt>
      <trkpt lat="45.87162" lon="3.01054">
        <ele>675</ele>
        <time>2015-10-17T15:41:15Z</time>
      </trkpt>
      <trkpt lat="45.87147" lon="3.00978">
        <ele>679</ele>
        <time>2015-10-17T15:43:15Z</time>
      </trkpt>
      <trkpt lat="45.87145" lon="3.0091">
        <ele>683</ele>
        <time>2015-10-17T15:45:15Z</time>
      </trkpt>
      <trkpt lat="45.8713" lon="3.00856">
        <ele>685</ele>
        <time>2015-10-17T15:47:15Z</time>
      </trkpt>
      <trkpt lat="45.8712" lon="3.00811">
        <ele>688</ele>
        <time>2015-10-17T15:49:15Z</time>
      </trkpt>
      <trkpt lat="45.87117" lon="3.00777">
        <ele>690</ele>
        <time>2015-10-17T15:51:15Z</time>
      </trkpt>
      <trkpt lat="45.87095" lon="3.0076">
        <ele>691</ele>
        <time>2015-10-17T15:53:15Z</time>
      </trkpt>
      <trkpt lat="45.87053" lon="3.00764">
        <ele>693</ele>
        <time>2015-10-17T15:55:15Z</time>
      </trkpt>
      <trkpt lat="45.87041" lon="3.00702">
        <ele>699</ele>
        <time>2015-10-17T15:57:15Z</time>
      </trkpt>
      <trkpt lat="45.87036" lon="3.00667">
        <ele>702</ele>
        <time>2015-10-17T15:59:15Z</time>
      </trkpt>
      <trkpt lat="45.87041" lon="3.00614">
        <ele>707</ele>
        <time>2015-10-17T16:01:15Z</time>
      </trkpt>
      <trkpt lat="45.87096" lon="3.00569">
        <ele>709</ele>
        <time>2015-10-17T16:03:15Z</time>
      </trkpt>
      <trkpt lat="45.87087" lon="3.00513">
        <ele>714</ele>
        <time>2015-10-17T16:05:15Z</time>
      </trkpt>
      <trkpt lat="45.87087" lon="3.00457">
        <ele>717</ele>
        <time>2015-10-17T16:07:15Z</time>
      </trkpt>
      <trkpt lat="45.87087" lon="3.00382">
        <ele>718</ele>
        <time>2015-10-17T16:09:15Z</time>
      </trkpt>
      <trkpt lat="45.87086" lon="3.0032">
        <ele>718</ele>
        <time>2015-10-17T16:11:15Z</time>
      </trkpt>
      <trkpt lat="45.87087" lon="3.00255">
        <ele>720</ele>
        <time>2015-10-17T16:13:15Z</time>
      </trkpt>
      <trkpt lat="45.8708" lon="3.002">
        <ele>723</ele>
        <time>2015-10-17T16:15:15Z</time>
      </trkpt>
      <trkpt lat="45.87084" lon="3.00163">
        <ele>724</ele>
        <time>2015-10-17T16:17:15Z</time>
      </trkpt>
      <trkpt lat="45.8708" lon="3.00077">
        <ele>727</ele>
        <time>2015-10-17T16:19:15Z</time>
      </trkpt>
      <trkpt lat="45.8708" lon="3">
        <ele>733</ele>
        <time>2015-10-17T16:21:15Z</time>
      </trkpt>
      <trkpt lat="45.8708" lon="2.99934">
        <ele>737</ele>
        <time>2015-10-17T16:23:15Z</time>
      </trkpt>
      <trkpt lat="45.8708" lon="2.99876">
        <ele>741</ele>
        <time>2015-10-17T16:25:15Z</time>
      </trkpt>
      <trkpt lat="45.87081" lon="2.99837">
        <ele>744</ele>
        <time>2015-10-17T16:27:15Z</time>
      </trkpt>
      <trkpt lat="45.87075" lon="2.99764">
        <ele>748</ele>
        <time>2015-10-17T16:29:15Z</time>
      </trkpt>
      <trkpt lat="45.87072" lon="2.99712">
        <ele>750</ele>
        <time>2015-10-17T16:31:15Z</time>
      </trkpt>
      <trkpt lat="45.87086" lon="2.99663">
        <ele>752</ele>
        <time>2015-10-17T16:33:15Z</time>
      </trkpt>
      <trkpt lat="45.87084" lon="2.99642">
        <ele>754</ele>
        <time>2015-10-17T16:35:15Z</time>
      </trkpt>
      <trkpt lat="45.87077" lon="2.99582">
        <ele>757</ele>
        <time>2015-10-17T16:37:15Z</time>
      </trkpt>
      <trkpt lat="45.87084" lon="2.99543">
        <ele>760</ele>
        <time>2015-10-17T16:39:15Z</time>
      </trkpt>
      <trkpt lat="45.871" lon="2.99468">
        <ele>768</ele>
        <time>2015-10-17T16:41:15Z</time>
      </trkpt>
      <trkpt lat="45.87092" lon="2.99416">
        <ele>773</ele>
        <time>2015-10-17T16:43:15Z</time>
      </trkpt>
      <trkpt lat="45.87153" lon="2.99371">
        <ele>776</ele>
        <time>2015-10-17T16:45:15Z</time>
      </trkpt>
      <trkpt lat="45.87177" lon="2.99335">
        <ele>777</ele>
        <time>2015-10-17T16:47:15Z</time>
      </trkpt>
      <trkpt lat="45.87172" lon="2.99277">
        <ele>779</ele>
        <time>2015-10-17T16:49:15Z</time>
      </trkpt>
      <trkpt lat="45.87162" lon="2.99243">
        <ele>781</ele>
        <time>2015-10-17T16:51:15Z</time>
      </trkpt>
      <trkpt lat="45.87147" lon="2.99217">
        <ele>783</ele>
        <time>2015-10-17T16:53:15Z</time>
      </trkpt>
      <trkpt lat="45.8713" lon="2.99193">
        <ele>784</ele>
        <time>2015-10-17T16:55:15Z</time>
      </trkpt>
      <trkpt lat="45.87124" lon="2.99144">
        <ele>787</ele>
        <time>2015-10-17T16:57:15Z</time>
      </trkpt>
      <trkpt lat="45.87169" lon="2.99069">
        <ele>790</ele>
        <time>2015-10-17T16:59:15Z</time>
      </trkpt>
      <trkpt lat="45.87199" lon="2.9903">
        <ele>788</ele>
        <time>2015-10-17T17:01:15Z</time>
      </trkpt>
      <trkpt lat="45.87244" lon="2.99028">
        <ele>784</ele>
        <time>2015-10-17T17:03:15Z</time>
      </trkpt>
      <trkpt lat="45.87275" lon="2.98985">
        <ele>784</ele>
        <time>2015-10-17T17:05:15Z</time>
      </trkpt>
      <trkpt lat="45.87257" lon="2.98923">
        <ele>787</ele>
        <time>2015-10-17T17:07:15Z</time>
      </trkpt>
      <trkpt lat="45.87257" lon="2.98867">
        <ele>788</ele>
        <time>2015-10-17T17:09:15Z</time>
      </trkpt>
      <trkpt lat="45.87271" lon="2.98816">
        <ele>788</ele>
        <time>2015-10-17T17:11:15Z</time>
      </trkpt>
      <trkpt lat="45.87271" lon="2.98749">
        <ele>789</ele>
        <time>2015-10-17T17:13:15Z</time>
      </trkpt>
      <trkpt lat="45.87265" lon="2.98685">
        <ele>792</ele>
        <time>2015-10-17T17:15:15Z</time>
      </trkpt>
      <trkpt lat="45.87266" lon="2.98633">
        <ele>793</ele>
        <time>2015-10-17T17:17:15Z</time>
      </trkpt>
      <trkpt lat="45.87292" lon="2.98569">
        <ele>793</ele>
        <time>2015-10-17T17:19:15Z</time>
      </trkpt>
      <trkpt lat="45.87269" lon="2.98539">
        <ele>795</ele>
        <time>2015-10-17T17:21:15Z</time>
      </trkpt>
      <trkpt lat="45.87245" lon="2.98509">
        <ele>796</ele>
        <time>2015-10-17T17:23:15Z</time>
      </trkpt>
      <trkpt lat="45.87253" lon="2.98449">
        <ele>798</ele>
        <time>2015-10-17T17:25:15Z</time>
      </trkpt>
      <trkpt lat="45.87226" lon="2.9841">
        <ele>803</ele>
        <time>2015-10-17T17:27:15Z</time>
      </trkpt>
      <trkpt lat="45.87223" lon="2.98369">
        <ele>804</ele>
        <time>2015-10-17T17:29:15Z</time>
      </trkpt>
      <trkpt lat="45.87225" lon="2.98292">
        <ele>805</ele>
        <time>2015-10-17T17:31:15Z</time>
      </trkpt>
      <trkpt lat="45.87207" lon="2.98238">
        <ele>807</ele>
        <time>2015-10-17T17:33:15Z</time>
      </trkpt>
      <trkpt lat="45.8719" lon="2.98185">
        <ele>809</ele>
        <time>2015-10-17T17:35:15Z</time>
      </trkpt>
      <trkpt lat="45.87169" lon="2.98146">
        <ele>810</ele>
        <time>2015-10-17T17:37:15Z</time>
      </trkpt>
      <trkpt lat="45.87132" lon="2.98086">
        <ele>812</ele>
        <time>2015-10-17T17:39:15Z</time>
      </trkpt>
      <trkpt lat="45.87114" lon="2.98045">
        <ele>814</ele>
        <time>2015-10-17T17:41:15Z</time>
      </trkpt>
      <trkpt lat="45.87114" lon="2.97994">
        <ele>815</ele>
        <time>2015-10-17T17:43:15Z</time>
      </trkpt>
      <trkpt lat="45.87096" lon="2.97938">
        <ele>818</ele>
        <time>2015-10-17T17:45:15Z</time>
      </trkpt>
      <trkpt lat="45.87093" lon="2.97897">
        <ele>820</ele>
        <time>2015-10-17T17:47:15Z</time>
      </trkpt>
      <trkpt lat="45.87099" lon="2.9785">
        <ele>821</ele>
        <time>2015-10-17T17:49:15Z</time>
      </trkpt>
      <trkpt lat="45.87089" lon="2.97826">
        <ele>823</ele>
        <time>2015-10-17T17:51:15Z</time>
      </trkpt>
      <trkpt lat="45.8708" lon="2.97768">
        <ele>825</ele>
        <time>2015-10-17T17:53:15Z</time>
      </trkpt>
      <trkpt lat="45.87083" lon="2.9768">
        <ele>825</ele>
        <time>2015-10-17T17:55:15Z</time>
      </trkpt>
      <trkpt lat="45.87089" lon="2.97627">
        <ele>824</ele>
        <time>2015-10-17T17:57:15Z</time>
      </trkpt>
      <trkpt lat="45.87108" lon="2.97586">
        <ele>823</ele>
        <time>2015-10-17T17:59:15Z</time>
      </trkpt>
      <trkpt lat="45.87157" lon="2.97603">
        <ele>822</ele>
        <time>2015-10-17T18:01:15Z</time>
      </trkpt>
      <trkpt lat="45.87198" lon="2.97631">
        <ele>820</ele>
        <time>2015-10-17T18:03:15Z</time>
      </trkpt>
      <trkpt lat="45.87265" lon="2.97672">
        <ele>818</ele>
        <time>2015-10-17T18:05:15Z</time>
      </trkpt>
      <trkpt lat="45.87289" lon="2.977">
        <ele>817</ele>
        <time>2015-10-17T18:07:15Z</time>
      </trkpt>
      <trkpt lat="45.87334" lon="2.97728">
        <ele>817</ele>
        <time>2015-10-17T18:09:15Z</time>
      </trkpt>
      <trkpt lat="45.87329" lon="2.97676">
        <ele>816</ele>
        <time>2015-10-17T18:11:15Z</time>
      </trkpt>
      <trkpt lat="45.87311" lon="2.97631">
        <ele>817</ele>
        <time>2015-10-17T18:13:15Z</time>
      </trkpt>
      <trkpt lat="45.87304" lon="2.9761">
        <ele>818</ele>
        <time>2015-10-17T18:15:15Z</time>
      </trkpt>
      <trkpt lat="45.87295" lon="2.97577">
        <ele>819</ele>
        <time>2015-10-17T18:17:15Z</time>
      </trkpt>
      <trkpt lat="45.87287" lon="2.9753">
        <ele>820</ele>
        <time>2015-10-17T18:19:15Z</time>
      </trkpt>
      <trkpt lat="45.87278" lon="2.97487">
        <ele>820</ele>
        <time>2015-10-17T18:21:15Z</time>
      </trkpt>
      <trkpt lat="45.87274" lon="2.97457">
        <ele>820</ele>
        <time>2015-10-17T18:23:15Z</time>
      </trkpt>
      <trkpt lat="45.87263" lon="2.97425">
        <ele>820</ele>
        <time>2015-10-17T18:25:15Z</time>
      </trkpt>
      <trkpt lat="45.87248" lon="2.97369">
        <ele>820</ele>
        <time>2015-10-17T18:27:15Z</time>
      </trkpt>
      <trkpt lat="45.87232" lon="2.97307">
        <ele>822</ele>
        <time>2015-10-17T18:29:15Z</time>
      </trkpt>
      <trkpt lat="45.8722" lon="2.97256">
        <ele>824</ele>
        <time>2015-10-17T18:31:15Z</time>
      </trkpt>
      <trkpt lat="45.87183" lon="2.97174">
        <ele>829</ele>
        <time>2015-10-17T18:33:15Z</time>
      </trkpt>
      <trkpt lat="45.87168" lon="2.9715">
        <ele>830</ele>
        <time>2015-10-17T18:35:15Z</time>
      </trkpt>
      <trkpt lat="45.87159" lon="2.97129">
        <ele>831</ele>
        <time>2015-10-17T18:37:15Z</time>
      </trkpt>
      <trkpt lat="45.87132" lon="2.97082">
        <ele>832</ele>
        <time>2015-10-17T18:39:15Z</time>
      </trkpt>
      <trkpt lat="45.87111" lon="2.97035">
        <ele>834</ele>
        <time>2015-10-17T18:41:15Z</time>
      </trkpt>
      <trkpt lat="45.87099" lon="2.9699">
        <ele>835</ele>
        <time>2015-10-17T18:43:15Z</time>
      </trkpt>
      <trkpt lat="45.87086" lon="2.96927">
        <ele>837</ele>
        <time>2015-10-17T18:45:15Z</time>
      </trkpt>
      <trkpt lat="45.87078" lon="2.96867">
        <ele>838</ele>
        <time>2015-10-17T18:47:15Z</time>
      </trkpt>
      <trkpt lat="45.87069" lon="2.96803">
        <ele>840</ele>
        <time>2015-10-17T18:49:15Z</time>
      </trkpt>
      <trkpt lat="45.87057" lon="2.96736">
        <ele>842</ele>
        <time>2015-10-17T18:51:15Z</time>
      </trkpt>
      <trkpt lat="45.87051" lon="2.96696">
        <ele>843</ele>
        <time>2015-10-17T18:53:15Z</time>
      </trkpt>
      <trkpt lat="45.87045" lon="2.96646">
        <ele>844</ele>
        <time>2015-10-17T18:55:15Z</time>
      </trkpt>
      <trkpt lat="45.87041" lon="2.96603">
        <ele>844</ele>
        <time>2015-10-17T18:57:15Z</time>
      </trkpt>
      <trkpt lat="45.87029" lon="2.96541">
        <ele>845</ele>
        <time>2015-10-17T18:59:15Z</time>
      </trkpt>
      <trkpt lat="45.87021" lon="2.96468">
        <ele>845</ele>
        <time>2015-10-17T19:01:15Z</time>
      </trkpt>
      <trkpt lat="45.87011" lon="2.96425">
        <ele>846</ele>
        <time>2015-10-17T19:03:15Z</time>
      </trkpt>
      <trkpt lat="45.87002" lon="2.9635">
        <ele>849</ele>
        <time>2015-10-17T19:05:15Z</time>
      </trkpt>
      <trkpt lat="45.86991" lon="2.9632">
        <ele>850</ele>
        <time>2015-10-17T19:07:15Z</time>
      </trkpt>
      <trkpt lat="45.86984" lon="2.96284">
        <ele>850</ele>
        <time>2015-10-17T19:09:15Z</time>
      </trkpt>
      <trkpt lat="45.86966" lon="2.96238">
        <ele>851</ele>
        <time>2015-10-17T19:11:15Z</time>
      </trkpt>
      <trkpt lat="45.86953" lon="2.96206">
        <ele>851</ele>
        <time>2015-10-17T19:13:15Z</time>
      </trkpt>
      <trkpt lat="45.86939" lon="2.96172">
        <ele>852</ele>
        <time>2015-10-17T19:15:15Z</time>
      </trkpt>
      <trkpt lat="45.86924" lon="2.96142">
        <ele>852</ele>
        <time>2015-10-17T19:17:15Z</time>
      </trkpt>
      <trkpt lat="45.86914" lon="2.9612">
        <ele>852</ele>
        <time>2015-10-17T19:19:15Z</time>
      </trkpt>
      <trkpt lat="45.869" lon="2.96095">
        <ele>852</ele>
        <time>2015-10-17T19:21:15Z</time>
      </trkpt>
      <trkpt lat="45.869" lon="2.96058">
        <ele>853</ele>
        <time>2015-10-17T19:23:15Z</time>
      </trkpt>
      <trkpt lat="45.86903" lon="2.96028">
        <ele>854</ele>
        <time>2015-10-17T19:25:15Z</time>
      </trkpt>
      <trkpt lat="45.8692" lon="2.95998">
        <ele>855</ele>
        <time>2015-10-17T19:27:15Z</time>
      </trkpt>
      <trkpt lat="45.86938" lon="2.95968">
        <ele>860</ele>
        <time>2015-10-17T19:29:15Z</time>
      </trkpt>
      <trkpt lat="45.87003" lon="2.95921">
        <ele>868</ele>
        <time>2015-10-17T19:31:15Z</time>
      </trkpt>
      <trkpt lat="45.87065" lon="2.95874">
        <ele>883</ele>
        <time>2015-10-17T19:33:15Z</time>
      </trkpt>
      <trkpt lat="45.87111" lon="2.95809">
        <ele>893</ele>
        <time>2015-10-17T19:35:15Z</time>
      </trkpt>
      <trkpt lat="45.87163" lon="2.95756">
        <ele>897</ele>
        <time>2015-10-17T19:37:15Z</time>
      </trkpt>
      <trkpt lat="45.87202" lon="2.95726">
        <ele>899</ele>
        <time>2015-10-17T19:39:15Z</time>
      </trkpt>
      <trkpt lat="45.87242" lon="2.95689">
        <ele>896</ele>
        <time>2015-10-17T19:41:15Z</time>
      </trkpt>
      <trkpt lat="45.87286" lon="2.95625">
        <ele>891</ele>
        <time>2015-10-17T19:43:15Z</time>
      </trkpt>
      <trkpt lat="45.87307" lon="2.95586">
        <ele>889</ele>
        <time>2015-10-17T19:45:15Z</time>
      </trkpt>
      <trkpt lat="45.8732" lon="2.95528">
        <ele>889</ele>
        <time>2015-10-17T19:47:15Z</time>
      </trkpt>
      <trkpt lat="45.87329" lon="2.95447">
        <ele>891</ele>
        <time>2015-10-17T19:49:15Z</time>
      </trkpt>
      <trkpt lat="45.87334" lon="2.95387">
        <ele>892</ele>
        <time>2015-10-17T19:51:15Z</time>
      </trkpt>
      <trkpt lat="45.87346" lon="2.95329">
        <ele>894</ele>
        <time>2015-10-17T19:53:15Z</time>
      </trkpt>
      <trkpt lat="45.8736" lon="2.95284">
        <ele>890</ele>
        <time>2015-10-17T19:55:15Z</time>
      </trkpt>
      <trkpt lat="45.87387" lon="2.95241">
        <ele>888</ele>
        <time>2015-10-17T19:57:15Z</time>
      </trkpt>
      <trkpt lat="45.87428" lon="2.952">
        <ele>887</ele>
        <time>2015-10-17T19:59:15Z</time>
      </trkpt>
      <trkpt lat="45.87495" lon="2.95166">
        <ele>887</ele>
        <time>2015-10-17T20:01:15Z</time>
      </trkpt>
      <trkpt lat="45.87511" lon="2.95125">
        <ele>884</ele>
        <time>2015-10-17T20:03:15Z</time>
      </trkpt>
      <trkpt lat="45.87544" lon="2.95088">
        <ele>880</ele>
        <time>2015-10-17T20:05:15Z</time>
      </trkpt>
      <trkpt lat="45.87583" lon="2.95084">
        <ele>877</ele>
        <time>2015-10-17T20:07:15Z</time>
      </trkpt>
      <trkpt lat="45.87611" lon="2.95121">
        <ele>876</ele>
        <time>2015-10-17T20:09:15Z</time>
      </trkpt>
      <trkpt lat="45.87652" lon="2.95166">
        <ele>877</ele>
        <time>2015-10-17T20:11:15Z</time>
      </trkpt>
      <trkpt lat="45.8765" lon="2.95112">
        <ele>870</ele>
        <time>2015-10-17T20:13:15Z</time>
      </trkpt>
      <trkpt lat="45.87683" lon="2.95073">
        <ele>864</ele>
        <time>2015-10-17T20:15:15Z</time>
      </trkpt>
      <trkpt lat="45.87709" lon="2.95035">
        <ele>866</ele>
        <time>2015-10-17T20:17:15Z</time>
      </trkpt>
      <trkpt lat="45.87712" lon="2.94998">
        <ele>866</ele>
        <time>2015-10-17T20:19:15Z</time>
      </trkpt>
      <trkpt lat="45.87707" lon="2.94945">
        <ele>866</ele>
        <time>2015-10-17T20:21:15Z</time>
      </trkpt>
      <trkpt lat="45.87698" lon="2.94902">
        <ele>865</ele>
        <time>2015-10-17T20:23:15Z</time>
      </trkpt>
      <trkpt lat="45.87689" lon="2.94829">
        <ele>858</ele>
        <time>2015-10-17T20:25:15Z</time>
      </trkpt>
      <trkpt lat="45.87691" lon="2.94788">
        <ele>854</ele>
        <time>2015-10-17T20:27:15Z</time>
      </trkpt>
      <trkpt lat="45.87683" lon="2.9476">
        <ele>852</ele>
        <time>2015-10-17T20:29:15Z</time>
      </trkpt>
      <trkpt lat="45.87723" lon="2.94719">
        <ele>841</ele>
        <time>2015-10-17T20:31:15Z</time>
      </trkpt>
      <trkpt lat="45.87801" lon="2.94659">
        <ele>836</ele>
        <time>2015-10-17T20:33:15Z</time>
      </trkpt>
      <trkpt lat="45.87852" lon="2.94636">
        <ele>835</ele>
        <time>2015-10-17T20:35:15Z</time>
      </trkpt>
      <trkpt lat="45.8791" lon="2.94616">
        <ele>834</ele>
        <time>2015-10-17T20:37:15Z</time>
      </trkpt>
      <trkpt lat="45.87954" lon="2.94578">
        <ele>831</ele>
        <time>2015-10-17T20:39:15Z</time>
      </trkpt>
      <trkpt lat="45.87988" lon="2.94541">
        <ele>830</ele>
        <time>2015-10-17T20:41:15Z</time>
      </trkpt>
      <trkpt lat="45.8804" lon="2.94485">
        <ele>828</ele>
        <time>2015-10-17T20:43:15Z</time>
      </trkpt>
      <trkpt lat="45.88049" lon="2.94436">
        <ele>827</ele>
        <time>2015-10-17T20:45:15Z</time>
      </trkpt>
      <trkpt lat="45.88018" lon="2.94393">
        <ele>830</ele>
        <time>2015-10-17T20:47:15Z</time>
      </trkpt>
      <trkpt lat="45.87991" lon="2.94363">
        <ele>832</ele>
        <time>2015-10-17T20:49:15Z</time>
      </trkpt>
      <trkpt lat="45.87971" lon="2.94339">
        <ele>834</ele>
        <time>2015-10-17T20:51:15Z</time>
      </trkpt>
      <trkpt lat="45.87945" lon="2.94303">
        <ele>834</ele>
        <time>2015-10-17T20:53:15Z</time>
      </trkpt>
      <trkpt lat="45.87907" lon="2.94292">
        <ele>835</ele>
        <time>2015-10-17T20:55:15Z</time>
      </trkpt>
      <trkpt lat="45.87909" lon="2.94254">
        <ele>833</ele>
        <time>2015-10-17T20:57:15Z</time>
      </trkpt>
      <trkpt lat="45.87922" lon="2.94221">
        <ele>834</ele>
        <time>2015-10-17T20:59:15Z</time>
      </trkpt>
      <trkpt lat="45.87894" lon="2.94151">
        <ele>834</ele>
        <time>2015-10-17T21:01:15Z</time>
      </trkpt>
      <trkpt lat="45.87889" lon="2.94103">
        <ele>836</ele>
        <time>2015-10-17T21:03:15Z</time>
      </trkpt>
      <trkpt lat="45.87882" lon="2.94052">
        <ele>838</ele>
        <time>2015-10-17T21:05:15Z</time>
      </trkpt>
      <trkpt lat="45.87815" lon="2.94011">
        <ele>837</ele>
        <time>2015-10-17T21:07:15Z</time>
      </trkpt>
      <trkpt lat="45.87782" lon="2.94003">
        <ele>838</ele>
        <time>2015-10-17T21:09:15Z</time>
      </trkpt>
      <trkpt lat="45.87725" lon="2.9396">
        <ele>844</ele>
        <time>2015-10-17T21:11:15Z</time>
      </trkpt>
      <trkpt lat="45.87692" lon="2.93949">
        <ele>847</ele>
        <time>2015-10-17T21:13:15Z</time>
      </trkpt>
      <trkpt lat="45.87649" lon="2.93943">
        <ele>848</ele>
        <time>2015-10-17T21:15:15Z</time>
      </trkpt>
      <trkpt lat="45.8761" lon="2.9393">
        <ele>848</ele>
        <time>2015-10-17T21:17:15Z</time>
      </trkpt>
      <trkpt lat="45.8758" lon="2.93915">
        <ele>849</ele>
        <time>2015-10-17T21:19:15Z</time>
      </trkpt>
      <trkpt lat="45.8755" lon="2.93981">
        <ele>847</ele>
        <time>2015-10-17T21:21:15Z</time>
      </trkpt>
      <trkpt lat="45.87544" lon="2.94028">
        <ele>848</ele>
        <time>2015-10-17T21:23:15Z</time>
      </trkpt>
      <trkpt lat="45.87549" lon="2.94101">
        <ele>849</ele>
        <time>2015-10-17T21:25:15Z</time>
      </trkpt>
      <trkpt lat="45.87567" lon="2.94185">
        <ele>850</ele>
        <time>2015-10-17T21:27:15Z</time>
      </trkpt>
      <trkpt lat="45.87556" lon="2.94236">
        <ele>851</ele>
        <time>2015-10-17T21:29:15Z</time>
      </trkpt>
      <trkpt lat="45.87541" lon="2.94288">
        <ele>852</ele>
        <time>2015-10-17T21:31:15Z</time>
      </trkpt>
      <trkpt lat="45.87532" lon="2.94329">
        <ele>852</ele>
        <time>2015-10-17T21:33:15Z</time>
      </trkpt>
      <trkpt lat="45.87501" lon="2.94378">
        <ele>855</ele>
        <time>2015-10-17T21:35:15Z</time>
      </trkpt>
      <trkpt lat="45.87489" lon="2.94404">
        <ele>856</ele>
        <time>2015-10-17T21:37:15Z</time>
      </trkpt>
      <trkpt lat="45.87453" lon="2.94468">
        <ele>860</ele>
        <time>2015-10-17T21:39:15Z</time>
      </trkpt>
      <trkpt lat="45.87434" lon="2.94488">
        <ele>862</ele>
        <time>2015-10-17T21:41:15Z</time>
      </trkpt>
      <trkpt lat="45.87411" lon="2.9453">
        <ele>866</ele>
        <time>2015-10-17T21:43:15Z</time>
      </trkpt>
      <trkpt lat="45.87395" lon="2.94556">
        <ele>869</ele>
        <time>2015-10-17T21:45:15Z</time>
      </trkpt>
      <trkpt lat="45.87354" lon="2.94623">
        <ele>876</ele>
        <time>2015-10-17T21:47:15Z</time>
      </trkpt>
      <trkpt lat="45.87337" lon="2.9467">
        <ele>879</ele>
        <time>2015-10-17T21:49:15Z</time>
      </trkpt>
      <trkpt lat="45.87323" lon="2.94711">
        <ele>879</ele>
        <time>2015-10-17T21:51:15Z</time>
      </trkpt>
      <trkpt lat="45.87322" lon="2.9476">
        <ele>879</ele>
        <time>2015-10-17T21:53:15Z</time>
      </trkpt>
      <trkpt lat="45.8731" lon="2.94807">
        <ele>879</ele>
        <time>2015-10-17T21:55:15Z</time>
      </trkpt>
      <trkpt lat="45.87299" lon="2.94852">
        <ele>879</ele>
        <time>2015-10-17T21:57:15Z</time>
      </trkpt>
      <trkpt lat="45.87286" lon="2.94893">
        <ele>881</ele>
        <time>2015-10-17T21:59:15Z</time>
      </trkpt>
      <trkpt lat="45.87256" lon="2.94955">
        <ele>883</ele>
        <time>2015-10-17T22:01:15Z</time>
      </trkpt>
      <trkpt lat="45.87226" lon="2.94983">
        <ele>884</ele>
        <time>2015-10-17T22:03:15Z</time>
      </trkpt>
      <trkpt lat="45.87205" lon="2.95009">
        <ele>886</ele>
        <time>2015-10-17T22:05:15Z</time>
      </trkpt>
      <trkpt lat="45.87159" lon="2.9506">
        <ele>890</ele>
        <time>2015-10-17T22:07:15Z</time>
      </trkpt>
      <trkpt lat="45.87129" lon="2.95084">
        <ele>893</ele>
        <time>2015-10-17T22:09:15Z</time>
      </trkpt>
      <trkpt lat="45.87089" lon="2.95106">
        <ele>897</ele>
        <time>2015-10-17T22:11:15Z</time>
      </trkpt>
      <trkpt lat="45.87027" lon="2.95108">
        <ele>899</ele>
        <time>2015-10-17T22:13:15Z</time>
      </trkpt>
      <trkpt lat="45.87002" lon="2.95103">
        <ele>899</ele>
        <time>2015-10-17T22:15:15Z</time>
      </trkpt>
      <trkpt lat="45.86976" lon="2.95123">
        <ele>900</ele>
        <time>2015-10-17T22:17:15Z</time>
      </trkpt>
      <trkpt lat="45.86926" lon="2.95161">
        <ele>900</ele>
        <time>2015-10-17T22:19:15Z</time>
      </trkpt>
      <trkpt lat="45.86902" lon="2.95168">
        <ele>900</ele>
        <time>2015-10-17T22:21:15Z</time>
      </trkpt>
      <trkpt lat="45.86879" lon="2.95181">
        <ele>900</ele>
        <time>2015-10-17T22:23:15Z</time>
      </trkpt>
      <trkpt lat="45.86867" lon="2.95196">
        <ele>901</ele>
        <time>2015-10-17T22:25:15Z</time>
      </trkpt>
      <trkpt lat="45.86858" lon="2.95215">
        <ele>901</ele>
        <time>2015-10-17T22:27:15Z</time>
      </trkpt>
      <trkpt lat="45.86841" lon="2.95256">
        <ele>902</ele>
        <time>2015-10-17T22:29:15Z</time>
      </trkpt>
      <trkpt lat="45.86812" lon="2.95284">
        <ele>904</ele>
        <time>2015-10-17T22:31:15Z</time>
      </trkpt>
      <trkpt lat="45.86797" lon="2.95305">
        <ele>906</ele>
        <time>2015-10-17T22:33:15Z</time>
      </trkpt>
      <trkpt lat="45.86764" lon="2.95314">
        <ele>910</ele>
        <time>2015-10-17T22:35:15Z</time>
      </trkpt>
      <trkpt lat="45.86761" lon="2.9526">
        <ele>908</ele>
        <time>2015-10-17T22:37:15Z</time>
      </trkpt>
      <trkpt lat="45.86752" lon="2.95176">
        <ele>908</ele>
        <time>2015-10-17T22:39:15Z</time>
      </trkpt>
      <trkpt lat="45.86766" lon="2.95106">
        <ele>904</ele>
        <time>2015-10-17T22:41:15Z</time>
      </trkpt>
      <trkpt lat="45.86767" lon="2.95069">
        <ele>903</ele>
        <time>2015-10-17T22:43:15Z</time>
      </trkpt>
      <trkpt lat="45.86772" lon="2.95022">
        <ele>900</ele>
        <time>2015-10-17T22:45:15Z</time>
      </trkpt>
      <trkpt lat="45.86779" lon="2.94975">
        <ele>897</ele>
        <time>2015-10-17T22:47:15Z</time>
      </trkpt>
      <trkpt lat="45.86787" lon="2.94936">
        <ele>894</ele>
        <time>2015-10-17T22:49:15Z</time>
      </trkpt>
      <trkpt lat="45.86814" lon="2.94844">
        <ele>889</ele>
        <time>2015-10-17T22:51:15Z</time>
      </trkpt>
      <trkpt lat="45.868" lon="2.94764">
        <ele>886</ele>
        <time>2015-10-17T22:53:15Z</time>
      </trkpt>
      <trkpt lat="45.86793" lon="2.94685">
        <ele>884</ele>
        <time>2015-10-17T22:55:15Z</time>
      </trkpt>
      <trkpt lat="45.86787" lon="2.94603">
        <ele>879</ele>
        <time>2015-10-17T22:57:15Z</time>
      </trkpt>
      <trkpt lat="45.86793" lon="2.94563">
        <ele>876</ele>
        <time>2015-10-17T22:59:15Z</time>
      </trkpt>
      <trkpt lat="45.86758" lon="2.94533">
        <ele>874</ele>
        <time>2015-10-17T23:01:15Z</time>
      </trkpt>
      <trkpt lat="45.86702" lon="2.94498">
        <ele>872</ele>
        <time>2015-10-17T23:03:15Z</time>
      </trkpt>
      <trkpt lat="45.86664" lon="2.94468">
        <ele>873</ele>
        <time>2015-10-17T23:05:15Z</time>
      </trkpt>
      <trkpt lat="45.86636" lon="2.94438">
        <ele>871</ele>
        <time>2015-10-17T23:07:15Z</time>
      </trkpt>
      <trkpt lat="45.86604" lon="2.94397">
        <ele>869</ele>
        <time>2015-10-17T23:09:15Z</time>
      </trkpt>
      <trkpt lat="45.86575" lon="2.94365">
        <ele>867</ele>
        <time>2015-10-17T23:11:15Z</time>
      </trkpt>
      <trkpt lat="45.8654" lon="2.94314">
        <ele>867</ele>
        <time>2015-10-17T23:13:15Z</time>
      </trkpt>
      <trkpt lat="45.86501" lon="2.94254">
        <ele>868</ele>
        <time>2015-10-17T23:15:15Z</time>
      </trkpt>
      <trkpt lat="45.86474" lon="2.94211">
        <ele>871</ele>
        <time>2015-10-17T23:17:15Z</time>
      </trkpt>
      <trkpt lat="45.86445" lon="2.94174">
        <ele>874</ele>
        <time>2015-10-17T23:19:15Z</time>
      </trkpt>
      <trkpt lat="45.86391" lon="2.94101">
        <ele>872</ele>
        <time>2015-10-17T23:21:15Z</time>
      </trkpt>
      <trkpt lat="45.86353" lon="2.94054">
        <ele>870</ele>
        <time>2015-10-17T23:23:15Z</time>
      </trkpt>
      <trkpt lat="45.863" lon="2.9399">
        <ele>867</ele>
        <time>2015-10-17T23:25:15Z</time>
      </trkpt>
      <trkpt lat="45.86283" lon="2.93947">
        <ele>865</ele>
        <time>2015-10-17T23:27:15Z</time>
      </trkpt>
      <trkpt lat="45.86279" lon="2.93919">
        <ele>864</ele>
        <time>2015-10-17T23:29:15Z</time>
      </trkpt>
      <trkpt lat="45.86286" lon="2.93846">
        <ele>861</ele>
        <time>2015-10-17T23:31:15Z</time>
      </trkpt>
      <trkpt lat="45.86301" lon="2.9379">
        <ele>861</ele>
        <time>2015-10-17T23:33:15Z</time>
      </trkpt>
      <trkpt lat="45.86321" lon="2.93706">
        <ele>860</ele>
        <time>2015-10-17T23:35:15Z</time>
      </trkpt>
      <trkpt lat="45.86334" lon="2.93649">
        <ele>860</ele>
        <time>2015-10-17T23:37:15Z</time>
      </trkpt>
      <trkpt lat="45.86343" lon="2.93591">
        <ele>861</ele>
        <time>2015-10-17T23:39:15Z</time>
      </trkpt>
      <trkpt lat="45.86356" lon="2.9352">
        <ele>865</ele>
        <time>2015-10-17T23:41:15Z</time>
      </trkpt>
      <trkpt lat="45.86341" lon="2.93434">
        <ele>868</ele>
        <time>2015-10-17T23:43:15Z</time>
      </trkpt>
      <trkpt lat="45.86321" lon="2.93361">
        <ele>866</ele>
        <time>2015-10-17T23:45:15Z</time>
      </trkpt>
      <trkpt lat="45.86301" lon="2.93264">
        <ele>864</ele>
        <time>2015-10-17T23:47:15Z</time>
      </trkpt>
      <trkpt lat="45.86279" lon="2.93204">
        <ele>864</ele>
        <time>2015-10-17T23:49:15Z</time>
      </trkpt>
      <trkpt lat="45.86253" lon="2.93183">
        <ele>864</ele>
        <time>2015-10-17T23:51:15Z</time>
      </trkpt>
      <trkpt lat="45.86201" lon="2.93179">
        <ele>868</ele>
        <time>2015-10-17T23:53:15Z</time>
      </trkpt>
      <trkpt lat="45.8618" lon="2.93198">
        <ele>872</ele>
        <time>2015-10-17T23:55:15Z</time>
      </trkpt>
      <trkpt lat="45.86159" lon="2.93215">
        <ele>875</ele>
        <time>2015-10-17T23:57:15Z</time>
      </trkpt>
      <trkpt lat="45.86129" lon="2.93217">
        <ele>875</ele>
        <time>2015-10-17T23:59:15Z</time>
      </trkpt>
      <trkpt lat="45.86089" lon="2.93232">
        <ele>878</ele>
        <time>2015-10-18T00:01:15Z</time>
      </trkpt>
      <trkpt lat="45.86044" lon="2.93222">
        <ele>878</ele>
        <time>2015-10-18T00:03:15Z</time>
      </trkpt>
      <trkpt lat="45.86019" lon="2.93202">
        <ele>877</ele>
        <time>2015-10-18T00:05:15Z</time>
      </trkpt>
      <trkpt lat="45.86005" lon="2.93093">
        <ele>877</ele>
        <time>2015-10-18T00:07:15Z</time>
      </trkpt>
      <trkpt lat="45.8602" lon="2.93024">
        <ele>877</ele>
        <time>2015-10-18T00:09:15Z</time>
      </trkpt>
      <trkpt lat="45.86031" lon="2.92975">
        <ele>878</ele>
        <time>2015-10-18T00:11:15Z</time>
      </trkpt>
      <trkpt lat="45.86037" lon="2.92923">
        <ele>879</ele>
        <time>2015-10-18T00:13:15Z</time>
      </trkpt>
      <trkpt lat="45.8604" lon="2.92893">
        <ele>880</ele>
        <time>2015-10-18T00:15:15Z</time>
      </trkpt>
      <trkpt lat="45.86037" lon="2.9285">
        <ele>882</ele>
        <time>2015-10-18T00:17:15Z</time>
      </trkpt>
      <trkpt lat="45.86043" lon="2.9278">
        <ele>881</ele>
        <time>2015-10-18T00:19:15Z</time>
      </trkpt>
      <trkpt lat="45.86025" lon="2.92717">
        <ele>882</ele>
        <time>2015-10-18T00:21:15Z</time>
      </trkpt>
      <trkpt lat="45.86017" lon="2.92649">
        <ele>881</ele>
        <time>2015-10-18T00:23:15Z</time>
      </trkpt>
      <trkpt lat="45.86017" lon="2.92531">
        <ele>878</ele>
        <time>2015-10-18T00:25:15Z</time>
      </trkpt>
      <trkpt lat="45.8602" lon="2.9246">
        <ele>878</ele>
        <time>2015-10-18T00:27:15Z</time>
      </trkpt>
      <trkpt lat="45.86007" lon="2.92415">
        <ele>879</ele>
        <time>2015-10-18T00:29:15Z</time>
      </trkpt>
      <trkpt lat="45.85981" lon="2.9238">
        <ele>880</ele>
        <time>2015-10-18T00:31:15Z</time>
      </trkpt>
      <trkpt lat="45.85969" lon="2.9234">
        <ele>880</ele>
        <time>2015-10-18T00:33:15Z</time>
      </trkpt>
      <trkpt lat="45.85963" lon="2.92271">
        <ele>879</ele>
        <time>2015-10-18T00:35:15Z</time>
      </trkpt>
      <trkpt lat="45.85968" lon="2.92207">
        <ele>878</ele>
        <time>2015-10-18T00:37:15Z</time>
      </trkpt>
      <trkpt lat="45.85956" lon="2.92179">
        <ele>879</ele>
        <time>2015-10-18T00:39:15Z</time>
      </trkpt>
      <trkpt lat="45.85945" lon="2.92131">
        <ele>879</ele>
        <time>2015-10-18T00:41:15Z</time>
      </trkpt>
      <trkpt lat="45.8594" lon="2.92106">
        <ele>879</ele>
        <time>2015-10-18T00:43:15Z</time>
      </trkpt>
      <trkpt lat="45.85916" lon="2.92116">
        <ele>879</ele>
        <time>2015-10-18T00:45:15Z</time>
      </trkpt>
    </trkseg>
  </trk>
  <trk>
    <name><![CDATA[--Volvic-- OR-5358190:ser-fr01-vtt-l3]]></name>
    <trkseg>
      <trkpt lat="45.8713" lon="3.02706">
        <ele>586</ele>
        <time>2015-10-17T12:37:47Z</time>
      </trkpt>
      <trkpt lat="45.8712" lon="3.02678">
        <ele>590</ele>
        <time>2015-10-17T12:39:47Z</time>
      </trkpt>
      <trkpt lat="45.87145" lon="3.02629">
        <ele>594</ele>
        <time>2015-10-17T12:41:47Z</time>
      </trkpt>
      <trkpt lat="45.87151" lon="3.02564">
        <ele>599</ele>
        <time>2015-10-17T12:43:47Z</time>
      </trkpt>
      <trkpt lat="45.87144" lon="3.02508">
        <ele>605</ele>
        <time>2015-10-17T12:45:47Z</time>
      </trkpt>
      <trkpt lat="45.87153" lon="3.02438">
        <ele>611</ele>
        <time>2015-10-17T12:47:47Z</time>
      </trkpt>
      <trkpt lat="45.87193" lon="3.02393">
        <ele>613</ele>
        <time>2015-10-17T12:49:47Z</time>
      </trkpt>
      <trkpt lat="45.87225" lon="3.02347">
        <ele>615</ele>
        <time>2015-10-17T12:51:47Z</time>
      </trkpt>
      <trkpt lat="45.87244" lon="3.023">
        <ele>617</ele>
        <time>2015-10-17T12:53:47Z</time>
      </trkpt>
      <trkpt lat="45.87236" lon="3.02242">
        <ele>620</ele>
        <time>2015-10-17T12:55:47Z</time>
      </trkpt>
      <trkpt lat="45.87235" lon="3.02197">
        <ele>620</ele>
        <time>2015-10-17T12:57:47Z</time>
      </trkpt>
      <trkpt lat="45.8723" lon="3.02144">
        <ele>620</ele>
        <time>2015-10-17T12:59:47Z</time>
      </trkpt>
      <trkpt lat="45.87225" lon="3.02092">
        <ele>621</ele>
        <time>2015-10-17T13:01:47Z</time>
      </trkpt>
      <trkpt lat="45.8722" lon="3.02043">
        <ele>622</ele>
        <time>2015-10-17T13:03:47Z</time>
      </trkpt>
      <trkpt lat="45.87217" lon="3.02">
        <ele>624</ele>
        <time>2015-10-17T13:05:47Z</time>
      </trkpt>
      <trkpt lat="45.87178" lon="3.02">
        <ele>625</ele>
        <time>2015-10-17T13:07:47Z</time>
      </trkpt>
      <trkpt lat="45.87153" lon="3.01957">
        <ele>629</ele>
        <time>2015-10-17T13:09:47Z</time>
      </trkpt>
      <trkpt lat="45.87138" lon="3.01916">
        <ele>632</ele>
        <time>2015-10-17T13:11:47Z</time>
      </trkpt>
      <trkpt lat="45.8712" lon="3.01901">
        <ele>635</ele>
        <time>2015-10-17T13:13:47Z</time>
      </trkpt>
      <trkpt lat="45.87115" lon="3.01848">
        <ele>638</ele>
        <time>2015-10-17T13:15:47Z</time>
      </trkpt>
      <trkpt lat="45.87121" lon="3.01805">
        <ele>640</ele>
        <time>2015-10-17T13:17:47Z</time>
      </trkpt>
      <trkpt lat="45.87126" lon="3.01753">
        <ele>644</ele>
        <time>2015-10-17T13:19:47Z</time>
      </trkpt>
      <trkpt lat="45.87142" lon="3.01719">
        <ele>648</ele>
        <time>2015-10-17T13:21:47Z</time>
      </trkpt>
      <trkpt lat="45.87166" lon="3.01751">
        <ele>646</ele>
        <time>2015-10-17T13:23:47Z</time>
      </trkpt>
      <trkpt lat="45.8718" lon="3.01794">
        <ele>645</ele>
        <time>2015-10-17T13:25:47Z</time>
      </trkpt>
      <trkpt lat="45.87195" lon="3.01839">
        <ele>643</ele>
        <time>2015-10-17T13:27:47Z</time>
      </trkpt>
      <trkpt lat="45.87213" lon="3.01873">
        <ele>640</ele>
        <time>2015-10-17T13:29:47Z</time>
      </trkpt>
      <trkpt lat="45.8726" lon="3.01899">
        <ele>641</ele>
        <time>2015-10-17T13:31:47Z</time>
      </trkpt>
      <trkpt lat="45.87305" lon="3.01933">
        <ele>641</ele>
        <time>2015-10-17T13:33:47Z</time>
      </trkpt>
      <trkpt lat="45.87341" lon="3.01946">
        <ele>643</ele>
        <time>2015-10-17T13:35:47Z</time>
      </trkpt>
      <trkpt lat="45.87386" lon="3.01972">
        <ele>637</ele>
        <time>2015-10-17T13:37:47Z</time>
      </trkpt>
      <trkpt lat="45.87443" lon="3.01985">
        <ele>633</ele>
        <time>2015-10-17T13:39:47Z</time>
      </trkpt>
      <trkpt lat="45.87487" lon="3.01968">
        <ele>634</ele>
        <time>2015-10-17T13:41:47Z</time>
      </trkpt>
      <trkpt lat="45.8754" lon="3.01936">
        <ele>631</ele>
        <time>2015-10-17T13:43:47Z</time>
      </trkpt>
      <trkpt lat="45.87574" lon="3.01901">
        <ele>628</ele>
        <time>2015-10-17T13:45:47Z</time>
      </trkpt>
      <trkpt lat="45.87617" lon="3.01873">
        <ele>626</ele>
        <time>2015-10-17T13:47:47Z</time>
      </trkpt>
      <trkpt lat="45.87655" lon="3.01869">
        <ele>621</ele>
        <time>2015-10-17T13:49:47Z</time>
      </trkpt>
      <trkpt lat="45.87688" lon="3.0192">
        <ele>620</ele>
        <time>2015-10-17T13:51:47Z</time>
      </trkpt>
      <trkpt lat="45.87689" lon="3.0188">
        <ele>625</ele>
        <time>2015-10-17T13:53:47Z</time>
      </trkpt>
      <trkpt lat="45.87694" lon="3.01835">
        <ele>631</ele>
        <time>2015-10-17T13:55:47Z</time>
      </trkpt>
      <trkpt lat="45.87706" lon="3.01787">
        <ele>639</ele>
        <time>2015-10-17T13:57:47Z</time>
      </trkpt>
      <trkpt lat="45.87718" lon="3.01745">
        <ele>644</ele>
        <time>2015-10-17T13:59:47Z</time>
      </trkpt>
      <trkpt lat="45.87735" lon="3.0171">
        <ele>645</ele>
        <time>2015-10-17T14:01:47Z</time>
      </trkpt>
      <trkpt lat="45.87764" lon="3.01678">
        <ele>647</ele>
        <time>2015-10-17T14:03:47Z</time>
      </trkpt>
      <trkpt lat="45.87782" lon="3.01642">
        <ele>650</ele>
        <time>2015-10-17T14:05:47Z</time>
      </trkpt>
      <trkpt lat="45.87797" lon="3.01603">
        <ele>652</ele>
        <time>2015-10-17T14:07:47Z</time>
      </trkpt>
      <trkpt lat="45.87843" lon="3.01592">
        <ele>661</ele>
        <time>2015-10-17T14:09:47Z</time>
      </trkpt>
      <trkpt lat="45.87889" lon="3.01616">
        <ele>667</ele>
        <time>2015-10-17T14:11:47Z</time>
      </trkpt>
      <trkpt lat="45.87945" lon="3.01624">
        <ele>671</ele>
        <time>2015-10-17T14:13:47Z</time>
      </trkpt>
      <trkpt lat="45.87974" lon="3.0162">
        <ele>673</ele>
        <time>2015-10-17T14:15:47Z</time>
      </trkpt>
      <trkpt lat="45.87973" lon="3.01584">
        <ele>678</ele>
        <time>2015-10-17T14:17:47Z</time>
      </trkpt>
      <trkpt lat="45.87958" lon="3.01558">
        <ele>680</ele>
        <time>2015-10-17T14:19:47Z</time>
      </trkpt>
      <trkpt lat="45.8794" lon="3.01543">
        <ele>679</ele>
        <time>2015-10-17T14:21:47Z</time>
      </trkpt>
      <trkpt lat="45.87924" lon="3.01521">
        <ele>679</ele>
        <time>2015-10-17T14:23:47Z</time>
      </trkpt>
      <trkpt lat="45.87928" lon="3.01472">
        <ele>686</ele>
        <time>2015-10-17T14:25:47Z</time>
      </trkpt>
      <trkpt lat="45.87922" lon="3.01448">
        <ele>688</ele>
        <time>2015-10-17T14:27:47Z</time>
      </trkpt>
      <trkpt lat="45.87922" lon="3.01416">
        <ele>692</ele>
        <time>2015-10-17T14:29:47Z</time>
      </trkpt>
      <trkpt lat="45.87927" lon="3.01358">
        <ele>699</ele>
        <time>2015-10-17T14:31:47Z</time>
      </trkpt>
      <trkpt lat="45.8793" lon="3.01311">
        <ele>703</ele>
        <time>2015-10-17T14:33:47Z</time>
      </trkpt>
      <trkpt lat="45.87952" lon="3.01262">
        <ele>707</ele>
        <time>2015-10-17T14:35:47Z</time>
      </trkpt>
      <trkpt lat="45.87919" lon="3.01219">
        <ele>708</ele>
        <time>2015-10-17T14:37:47Z</time>
      </trkpt>
      <trkpt lat="45.87879" lon="3.01234">
        <ele>704</ele>
        <time>2015-10-17T14:39:47Z</time>
      </trkpt>
      <trkpt lat="45.87853" lon="3.01219">
        <ele>704</ele>
        <time>2015-10-17T14:41:47Z</time>
      </trkpt>
      <trkpt lat="45.87825" lon="3.01184">
        <ele>704</ele>
        <time>2015-10-17T14:43:47Z</time>
      </trkpt>
      <trkpt lat="45.87809" lon="3.01167">
        <ele>703</ele>
        <time>2015-10-17T14:45:47Z</time>
      </trkpt>
      <trkpt lat="45.87792" lon="3.01131">
        <ele>702</ele>
        <time>2015-10-17T14:47:47Z</time>
      </trkpt>
      <trkpt lat="45.87764" lon="3.01094">
        <ele>700</ele>
        <time>2015-10-17T14:49:47Z</time>
      </trkpt>
      <trkpt lat="45.87743" lon="3.01062">
        <ele>698</ele>
        <time>2015-10-17T14:51:47Z</time>
      </trkpt>
      <trkpt lat="45.87713" lon="3.01028">
        <ele>697</ele>
        <time>2015-10-17T14:53:47Z</time>
      </trkpt>
      <trkpt lat="45.87698" lon="3.01">
        <ele>698</ele>
        <time>2015-10-17T14:55:47Z</time>
      </trkpt>
      <trkpt lat="45.8768" lon="3.00981">
        <ele>697</ele>
        <time>2015-10-17T14:57:47Z</time>
      </trkpt>
      <trkpt lat="45.87653" lon="3.00987">
        <ele>697</ele>
        <time>2015-10-17T14:59:47Z</time>
      </trkpt>
      <trkpt lat="45.87628" lon="3.00994">
        <ele>697</ele>
        <time>2015-10-17T15:01:47Z</time>
      </trkpt>
      <trkpt lat="45.87602" lon="3.01002">
        <ele>698</ele>
        <time>2015-10-17T15:03:47Z</time>
      </trkpt>
      <trkpt lat="45.87577" lon="3.01011">
        <ele>697</ele>
        <time>2015-10-17T15:05:47Z</time>
      </trkpt>
      <trkpt lat="45.87534" lon="3.01011">
        <ele>695</ele>
        <time>2015-10-17T15:07:47Z</time>
      </trkpt>
      <trkpt lat="45.8751" lon="3.01021">
        <ele>693</ele>
        <time>2015-10-17T15:09:47Z</time>
      </trkpt>
      <trkpt lat="45.87489" lon="3.01049">
        <ele>690</ele>
        <time>2015-10-17T15:11:47Z</time>
      </trkpt>
      <trkpt lat="45.87471" lon="3.01088">
        <ele>688</ele>
        <time>2015-10-17T15:13:47Z</time>
      </trkpt>
      <trkpt lat="45.87449" lon="3.01127">
        <ele>689</ele>
        <time>2015-10-17T15:15:47Z</time>
      </trkpt>
      <trkpt lat="45.87429" lon="3.01161">
        <ele>691</ele>
        <time>2015-10-17T15:17:47Z</time>
      </trkpt>
      <trkpt lat="45.87408" lon="3.01163">
        <ele>690</ele>
        <time>2015-10-17T15:19:47Z</time>
      </trkpt>
      <trkpt lat="45.8738" lon="3.01152">
        <ele>685</ele>
        <time>2015-10-17T15:21:47Z</time>
      </trkpt>
      <trkpt lat="45.8736" lon="3.01114">
        <ele>683</ele>
        <time>2015-10-17T15:23:47Z</time>
      </trkpt>
      <trkpt lat="45.87346" lon="3.01071">
        <ele>682</ele>
        <time>2015-10-17T15:25:47Z</time>
      </trkpt>
      <trkpt lat="45.87325" lon="3.01092">
        <ele>680</ele>
        <time>2015-10-17T15:27:47Z</time>
      </trkpt>
      <trkpt lat="45.87281" lon="3.01122">
        <ele>675</ele>
        <time>2015-10-17T15:29:47Z</time>
      </trkpt>
      <trkpt lat="45.87266" lon="3.01148">
        <ele>672</ele>
        <time>2015-10-17T15:31:47Z</time>
      </trkpt>
      <trkpt lat="45.87242" lon="3.01169">
        <ele>669</ele>
        <time>2015-10-17T15:33:47Z</time>
      </trkpt>
      <trkpt lat="45.87208" lon="3.01178">
        <ele>669</ele>
        <time>2015-10-17T15:35:47Z</time>
      </trkpt>
      <trkpt lat="45.87186" lon="3.01178">
        <ele>669</ele>
        <time>2015-10-17T15:37:47Z</time>
      </trkpt>
      <trkpt lat="45.87168" lon="3.01124">
        <ele>671</ele>
        <time>2015-10-17T15:39:47Z</time>
      </trkpt>
      <trkpt lat="45.87162" lon="3.01054">
        <ele>675</ele>
        <time>2015-10-17T15:41:47Z</time>
      </trkpt>
      <trkpt lat="45.87147" lon="3.00978">
        <ele>679</ele>
        <time>2015-10-17T15:43:47Z</time>
      </trkpt>
      <trkpt lat="45.87145" lon="3.0091">
        <ele>683</ele>
        <time>2015-10-17T15:45:47Z</time>
      </trkpt>
      <trkpt lat="45.8713" lon="3.00856">
        <ele>685</ele>
        <time>2015-10-17T15:47:47Z</time>
      </trkpt>
      <trkpt lat="45.8712" lon="3.00811">
        <ele>688</ele>
        <time>2015-10-17T15:49:47Z</time>
      </trkpt>
      <trkpt lat="45.87117" lon="3.00777">
        <ele>690</ele>
        <time>2015-10-17T15:51:47Z</time>
      </trkpt>
      <trkpt lat="45.87095" lon="3.0076">
        <ele>691</ele>
        <time>2015-10-17T15:53:47Z</time>
      </trkpt>
      <trkpt lat="45.87053" lon="3.00764">
        <ele>693</ele>
        <time>2015-10-17T15:55:47Z</time>
      </trkpt>
      <trkpt lat="45.87041" lon="3.00702">
        <ele>699</ele>
        <time>2015-10-17T15:57:47Z</time>
      </trkpt>
      <trkpt lat="45.87036" lon="3.00667">
        <ele>702</ele>
        <time>2015-10-17T15:59:47Z</time>
      </trkpt>
      <trkpt lat="45.87041" lon="3.00614">
        <ele>707</ele>
        <time>2015-10-17T16:01:47Z</time>
      </trkpt>
      <trkpt lat="45.87096" lon="3.00569">
        <ele>709</ele>
        <time>2015-10-17T16:03:47Z</time>
      </trkpt>
      <trkpt lat="45.87087" lon="3.00513">
        <ele>714</ele>
        <time>2015-10-17T16:05:47Z</time>
      </trkpt>
      <trkpt lat="45.87087" lon="3.00457">
        <ele>717</ele>
        <time>2015-10-17T16:07:47Z</time>
      </trkpt>
      <trkpt lat="45.87087" lon="3.00382">
        <ele>718</ele>
        <time>2015-10-17T16:09:47Z</time>
      </trkpt>
      <trkpt lat="45.87086" lon="3.0032">
        <ele>718</ele>
        <time>2015-10-17T16:11:47Z</time>
      </trkpt>
      <trkpt lat="45.87087" lon="3.00255">
        <ele>720</ele>
        <time>2015-10-17T16:13:47Z</time>
      </trkpt>
      <trkpt lat="45.8708" lon="3.002">
        <ele>723</ele>
        <time>2015-10-17T16:15:47Z</time>
      </trkpt>
      <trkpt lat="45.87084" lon="3.00163">
        <ele>724</ele>
        <time>2015-10-17T16:17:47Z</time>
      </trkpt>
      <trkpt lat="45.8708" lon="3.00077">
        <ele>727</ele>
        <time>2015-10-17T16:19:47Z</time>
      </trkpt>
      <trkpt lat="45.8708" lon="3">
        <ele>733</ele>
        <time>2015-10-17T16:21:47Z</time>
      </trkpt>
      <trkpt lat="45.8708" lon="2.99934">
        <ele>737</ele>
        <time>2015-10-17T16:23:47Z</time>
      </trkpt>
      <trkpt lat="45.8708" lon="2.99876">
        <ele>741</ele>
        <time>2015-10-17T16:25:47Z</time>
      </trkpt>
      <trkpt lat="45.87081" lon="2.99848">
        <ele>743</ele>
        <time>2015-10-17T16:27:47Z</time>
      </trkpt>
      <trkpt lat="45.86989" lon="2.99914">
        <ele>743</ele>
        <time>2015-10-17T16:29:47Z</time>
      </trkpt>
      <trkpt lat="45.86913" lon="2.99917">
        <ele>746</ele>
        <time>2015-10-17T16:31:47Z</time>
      </trkpt>
      <trkpt lat="45.8689" lon="2.99931">
        <ele>747</ele>
        <time>2015-10-17T16:33:47Z</time>
      </trkpt>
      <trkpt lat="45.86841" lon="3.00043">
        <ele>745</ele>
        <time>2015-10-17T16:35:47Z</time>
      </trkpt>
      <trkpt lat="45.86828" lon="3.00127">
        <ele>742</ele>
        <time>2015-10-17T16:37:47Z</time>
      </trkpt>
      <trkpt lat="45.86793" lon="3.00215">
        <ele>743</ele>
        <time>2015-10-17T16:39:47Z</time>
      </trkpt>
      <trkpt lat="45.86721" lon="3.00379">
        <ele>741</ele>
        <time>2015-10-17T16:41:47Z</time>
      </trkpt>
      <trkpt lat="45.8669" lon="3.00422">
        <ele>740</ele>
        <time>2015-10-17T16:43:47Z</time>
      </trkpt>
      <trkpt lat="45.86627" lon="3.00496">
        <ele>743</ele>
        <time>2015-10-17T16:45:47Z</time>
      </trkpt>
      <trkpt lat="45.86623" lon="3.00556">
        <ele>740</ele>
        <time>2015-10-17T16:47:47Z</time>
      </trkpt>
      <trkpt lat="45.86607" lon="3.00556">
        <ele>742</ele>
        <time>2015-10-17T16:49:47Z</time>
      </trkpt>
      <trkpt lat="45.86508" lon="3.00493">
        <ele>755</ele>
        <time>2015-10-17T16:51:47Z</time>
      </trkpt>
      <trkpt lat="45.86407" lon="3.00428">
        <ele>760</ele>
        <time>2015-10-17T16:53:47Z</time>
      </trkpt>
      <trkpt lat="45.86359" lon="3.00345">
        <ele>766</ele>
        <time>2015-10-17T16:55:47Z</time>
      </trkpt>
      <trkpt lat="45.86294" lon="3.0027">
        <ele>775</ele>
        <time>2015-10-17T16:57:47Z</time>
      </trkpt>
      <trkpt lat="45.86252" lon="3.00182">
        <ele>783</ele>
        <time>2015-10-17T16:59:47Z</time>
      </trkpt>
      <trkpt lat="45.86229" lon="3.0012">
        <ele>787</ele>
        <time>2015-10-17T17:01:47Z</time>
      </trkpt>
      <trkpt lat="45.86257" lon="3.00092">
        <ele>786</ele>
        <time>2015-10-17T17:03:47Z</time>
      </trkpt>
      <trkpt lat="45.86249" lon="3.0003">
        <ele>795</ele>
        <time>2015-10-17T17:05:47Z</time>
      </trkpt>
      <trkpt lat="45.86274" lon="2.99889">
        <ele>814</ele>
        <time>2015-10-17T17:07:47Z</time>
      </trkpt>
      <trkpt lat="45.86299" lon="2.99755">
        <ele>847</ele>
        <time>2015-10-17T17:09:47Z</time>
      </trkpt>
      <trkpt lat="45.86324" lon="2.9971">
        <ele>856</ele>
        <time>2015-10-17T17:11:47Z</time>
      </trkpt>
      <trkpt lat="45.86402" lon="2.99732">
        <ele>851</ele>
        <time>2015-10-17T17:13:47Z</time>
      </trkpt>
      <trkpt lat="45.86415" lon="2.99655">
        <ele>866</ele>
        <time>2015-10-17T17:15:47Z</time>
      </trkpt>
      <trkpt lat="45.86465" lon="2.99662">
        <ele>863</ele>
        <time>2015-10-17T17:17:47Z</time>
      </trkpt>
      <trkpt lat="45.86488" lon="2.99617">
        <ele>865</ele>
        <time>2015-10-17T17:19:47Z</time>
      </trkpt>
      <trkpt lat="45.86506" lon="2.99519">
        <ele>869</ele>
        <time>2015-10-17T17:21:47Z</time>
      </trkpt>
      <trkpt lat="45.86495" lon="2.99481">
        <ele>871</ele>
        <time>2015-10-17T17:23:47Z</time>
      </trkpt>
      <trkpt lat="45.86413" lon="2.99512">
        <ele>871</ele>
        <time>2015-10-17T17:25:47Z</time>
      </trkpt>
      <trkpt lat="45.86371" lon="2.99456">
        <ele>872</ele>
        <time>2015-10-17T17:27:47Z</time>
      </trkpt>
      <trkpt lat="45.86371" lon="2.99423">
        <ele>873</ele>
        <time>2015-10-17T17:29:47Z</time>
      </trkpt>
      <trkpt lat="45.86386" lon="2.99384">
        <ele>873</ele>
        <time>2015-10-17T17:31:47Z</time>
      </trkpt>
      <trkpt lat="45.86434" lon="2.99373">
        <ele>872</ele>
        <time>2015-10-17T17:33:47Z</time>
      </trkpt>
      <trkpt lat="45.86469" lon="2.99323">
        <ele>871</ele>
        <time>2015-10-17T17:35:47Z</time>
      </trkpt>
      <trkpt lat="45.86522" lon="2.99283">
        <ele>869</ele>
        <time>2015-10-17T17:37:47Z</time>
      </trkpt>
      <trkpt lat="45.86526" lon="2.99206">
        <ele>869</ele>
        <time>2015-10-17T17:39:47Z</time>
      </trkpt>
      <trkpt lat="45.86517" lon="2.9918">
        <ele>870</ele>
        <time>2015-10-17T17:41:47Z</time>
      </trkpt>
      <trkpt lat="45.8654" lon="2.99159">
        <ele>867</ele>
        <time>2015-10-17T17:43:47Z</time>
      </trkpt>
      <trkpt lat="45.8654" lon="2.99121">
        <ele>868</ele>
        <time>2015-10-17T17:45:47Z</time>
      </trkpt>
      <trkpt lat="45.8658" lon="2.99063">
        <ele>858</ele>
        <time>2015-10-17T17:47:47Z</time>
      </trkpt>
      <trkpt lat="45.86597" lon="2.99066">
        <ele>856</ele>
        <time>2015-10-17T17:49:47Z</time>
      </trkpt>
      <trkpt lat="45.86617" lon="2.98939">
        <ele>851</ele>
        <time>2015-10-17T17:51:47Z</time>
      </trkpt>
      <trkpt lat="45.86607" lon="2.98901">
        <ele>850</ele>
        <time>2015-10-17T17:53:47Z</time>
      </trkpt>
      <trkpt lat="45.86559" lon="2.98849">
        <ele>852</ele>
        <time>2015-10-17T17:55:47Z</time>
      </trkpt>
      <trkpt lat="45.86574" lon="2.98784">
        <ele>852</ele>
        <time>2015-10-17T17:57:47Z</time>
      </trkpt>
      <trkpt lat="45.86624" lon="2.98753">
        <ele>849</ele>
        <time>2015-10-17T17:59:47Z</time>
      </trkpt>
      <trkpt lat="45.8669" lon="2.98758">
        <ele>840</ele>
        <time>2015-10-17T18:01:47Z</time>
      </trkpt>
      <trkpt lat="45.86758" lon="2.9883">
        <ele>827</ele>
        <time>2015-10-17T18:03:47Z</time>
      </trkpt>
      <trkpt lat="45.86838" lon="2.98877">
        <ele>814</ele>
        <time>2015-10-17T18:05:47Z</time>
      </trkpt>
      <trkpt lat="45.86875" lon="2.98882">
        <ele>808</ele>
        <time>2015-10-17T18:07:47Z</time>
      </trkpt>
      <trkpt lat="45.86927" lon="2.98914">
        <ele>801</ele>
        <time>2015-10-17T18:09:47Z</time>
      </trkpt>
      <trkpt lat="45.86958" lon="2.98945">
        <ele>799</ele>
        <time>2015-10-17T18:11:47Z</time>
      </trkpt>
      <trkpt lat="45.87004" lon="2.99014">
        <ele>798</ele>
        <time>2015-10-17T18:13:47Z</time>
      </trkpt>
      <trkpt lat="45.8702" lon="2.99056">
        <ele>796</ele>
        <time>2015-10-17T18:15:47Z</time>
      </trkpt>
      <trkpt lat="45.87051" lon="2.99092">
        <ele>793</ele>
        <time>2015-10-17T18:17:47Z</time>
      </trkpt>
      <trkpt lat="45.87089" lon="2.99158">
        <ele>787</ele>
        <time>2015-10-17T18:19:47Z</time>
      </trkpt>
      <trkpt lat="45.87129" lon="2.9918">
        <ele>785</ele>
        <time>2015-10-17T18:21:47Z</time>
      </trkpt>
      <trkpt lat="45.87131" lon="2.99127">
        <ele>788</ele>
        <time>2015-10-17T18:23:47Z</time>
      </trkpt>
      <trkpt lat="45.8719" lon="2.99039">
        <ele>789</ele>
        <time>2015-10-17T18:25:47Z</time>
      </trkpt>
      <trkpt lat="45.8724" lon="2.99008">
        <ele>785</ele>
        <time>2015-10-17T18:27:47Z</time>
      </trkpt>
      <trkpt lat="45.8726" lon="2.99039">
        <ele>783</ele>
        <time>2015-10-17T18:29:47Z</time>
      </trkpt>
      <trkpt lat="45.87268" lon="2.99007">
        <ele>784</ele>
        <time>2015-10-17T18:31:47Z</time>
      </trkpt>
      <trkpt lat="45.87277" lon="2.98979">
        <ele>784</ele>
        <time>2015-10-17T18:33:47Z</time>
      </trkpt>
      <trkpt lat="45.87257" lon="2.98923">
        <ele>787</ele>
        <time>2015-10-17T18:35:47Z</time>
      </trkpt>
      <trkpt lat="45.87257" lon="2.98867">
        <ele>788</ele>
        <time>2015-10-17T18:37:47Z</time>
      </trkpt>
      <trkpt lat="45.87271" lon="2.98816">
        <ele>788</ele>
        <time>2015-10-17T18:39:47Z</time>
      </trkpt>
      <trkpt lat="45.87271" lon="2.98749">
        <ele>789</ele>
        <time>2015-10-17T18:41:47Z</time>
      </trkpt>
      <trkpt lat="45.87265" lon="2.98685">
        <ele>792</ele>
        <time>2015-10-17T18:43:47Z</time>
      </trkpt>
      <trkpt lat="45.87266" lon="2.98633">
        <ele>793</ele>
        <time>2015-10-17T18:45:47Z</time>
      </trkpt>
      <trkpt lat="45.87292" lon="2.98569">
        <ele>793</ele>
        <time>2015-10-17T18:47:47Z</time>
      </trkpt>
      <trkpt lat="45.87325" lon="2.98461">
        <ele>796</ele>
        <time>2015-10-17T18:49:47Z</time>
      </trkpt>
      <trkpt lat="45.87365" lon="2.98383">
        <ele>799</ele>
        <time>2015-10-17T18:51:47Z</time>
      </trkpt>
      <trkpt lat="45.87471" lon="2.98292">
        <ele>804</ele>
        <time>2015-10-17T18:53:47Z</time>
      </trkpt>
      <trkpt lat="45.87522" lon="2.98232">
        <ele>806</ele>
        <time>2015-10-17T18:55:47Z</time>
      </trkpt>
      <trkpt lat="45.87561" lon="2.98158">
        <ele>806</ele>
        <time>2015-10-17T18:57:47Z</time>
      </trkpt>
      <trkpt lat="45.87577" lon="2.98079">
        <ele>803</ele>
        <time>2015-10-17T18:59:47Z</time>
      </trkpt>
      <trkpt lat="45.87509" lon="2.97986">
        <ele>809</ele>
        <time>2015-10-17T19:01:47Z</time>
      </trkpt>
      <trkpt lat="45.87444" lon="2.97862">
        <ele>813</ele>
        <time>2015-10-17T19:03:47Z</time>
      </trkpt>
      <trkpt lat="45.87418" lon="2.97846">
        <ele>815</ele>
        <time>2015-10-17T19:05:47Z</time>
      </trkpt>
      <trkpt lat="45.87393" lon="2.97767">
        <ele>815</ele>
        <time>2015-10-17T19:07:47Z</time>
      </trkpt>
      <trkpt lat="45.87363" lon="2.97738">
        <ele>816</ele>
        <time>2015-10-17T19:09:47Z</time>
      </trkpt>
      <trkpt lat="45.87334" lon="2.97728">
        <ele>817</ele>
        <time>2015-10-17T19:11:47Z</time>
      </trkpt>
      <trkpt lat="45.87329" lon="2.97676">
        <ele>816</ele>
        <time>2015-10-17T19:13:47Z</time>
      </trkpt>
      <trkpt lat="45.87311" lon="2.97631">
        <ele>817</ele>
        <time>2015-10-17T19:15:47Z</time>
      </trkpt>
      <trkpt lat="45.87304" lon="2.9761">
        <ele>818</ele>
        <time>2015-10-17T19:17:47Z</time>
      </trkpt>
      <trkpt lat="45.87295" lon="2.97577">
        <ele>819</ele>
        <time>2015-10-17T19:19:47Z</time>
      </trkpt>
      <trkpt lat="45.87287" lon="2.9753">
        <ele>820</ele>
        <time>2015-10-17T19:21:47Z</time>
      </trkpt>
      <trkpt lat="45.87278" lon="2.97487">
        <ele>820</ele>
        <time>2015-10-17T19:23:47Z</time>
      </trkpt>
      <trkpt lat="45.87274" lon="2.97457">
        <ele>820</ele>
        <time>2015-10-17T19:25:47Z</time>
      </trkpt>
      <trkpt lat="45.87263" lon="2.97425">
        <ele>820</ele>
        <time>2015-10-17T19:27:47Z</time>
      </trkpt>
      <trkpt lat="45.87248" lon="2.97369">
        <ele>820</ele>
        <time>2015-10-17T19:29:47Z</time>
      </trkpt>
      <trkpt lat="45.87232" lon="2.97307">
        <ele>822</ele>
        <time>2015-10-17T19:31:47Z</time>
      </trkpt>
      <trkpt lat="45.8722" lon="2.97256">
        <ele>824</ele>
        <time>2015-10-17T19:33:47Z</time>
      </trkpt>
      <trkpt lat="45.87183" lon="2.97174">
        <ele>829</ele>
        <time>2015-10-17T19:35:47Z</time>
      </trkpt>
      <trkpt lat="45.87168" lon="2.9715">
        <ele>830</ele>
        <time>2015-10-17T19:37:47Z</time>
      </trkpt>
      <trkpt lat="45.87159" lon="2.97129">
        <ele>831</ele>
        <time>2015-10-17T19:39:47Z</time>
      </trkpt>
      <trkpt lat="45.87132" lon="2.97082">
        <ele>832</ele>
        <time>2015-10-17T19:41:47Z</time>
      </trkpt>
      <trkpt lat="45.87111" lon="2.97035">
        <ele>834</ele>
        <time>2015-10-17T19:43:47Z</time>
      </trkpt>
      <trkpt lat="45.87099" lon="2.9699">
        <ele>835</ele>
        <time>2015-10-17T19:45:47Z</time>
      </trkpt>
      <trkpt lat="45.87086" lon="2.96927">
        <ele>837</ele>
        <time>2015-10-17T19:47:47Z</time>
      </trkpt>
      <trkpt lat="45.87078" lon="2.96867">
        <ele>838</ele>
        <time>2015-10-17T19:49:47Z</time>
      </trkpt>
      <trkpt lat="45.87069" lon="2.96803">
        <ele>840</ele>
        <time>2015-10-17T19:51:47Z</time>
      </trkpt>
      <trkpt lat="45.87057" lon="2.96736">
        <ele>842</ele>
        <time>2015-10-17T19:53:47Z</time>
      </trkpt>
      <trkpt lat="45.87051" lon="2.96696">
        <ele>843</ele>
        <time>2015-10-17T19:55:47Z</time>
      </trkpt>
      <trkpt lat="45.87045" lon="2.96646">
        <ele>844</ele>
        <time>2015-10-17T19:57:47Z</time>
      </trkpt>
      <trkpt lat="45.87041" lon="2.96603">
        <ele>844</ele>
        <time>2015-10-17T19:59:47Z</time>
      </trkpt>
      <trkpt lat="45.87029" lon="2.96541">
        <ele>845</ele>
        <time>2015-10-17T20:01:47Z</time>
      </trkpt>
      <trkpt lat="45.87021" lon="2.96468">
        <ele>845</ele>
        <time>2015-10-17T20:03:47Z</time>
      </trkpt>
      <trkpt lat="45.87011" lon="2.96425">
        <ele>846</ele>
        <time>2015-10-17T20:05:47Z</time>
      </trkpt>
      <trkpt lat="45.87002" lon="2.9635">
        <ele>849</ele>
        <time>2015-10-17T20:07:47Z</time>
      </trkpt>
      <trkpt lat="45.86991" lon="2.9632">
        <ele>850</ele>
        <time>2015-10-17T20:09:47Z</time>
      </trkpt>
      <trkpt lat="45.86984" lon="2.96284">
        <ele>850</ele>
        <time>2015-10-17T20:11:47Z</time>
      </trkpt>
      <trkpt lat="45.86966" lon="2.96238">
        <ele>851</ele>
        <time>2015-10-17T20:13:47Z</time>
      </trkpt>
      <trkpt lat="45.86953" lon="2.96206">
        <ele>851</ele>
        <time>2015-10-17T20:15:47Z</time>
      </trkpt>
      <trkpt lat="45.86939" lon="2.96172">
        <ele>852</ele>
        <time>2015-10-17T20:17:47Z</time>
      </trkpt>
      <trkpt lat="45.86924" lon="2.96142">
        <ele>852</ele>
        <time>2015-10-17T20:19:47Z</time>
      </trkpt>
      <trkpt lat="45.86914" lon="2.9612">
        <ele>852</ele>
        <time>2015-10-17T20:21:47Z</time>
      </trkpt>
      <trkpt lat="45.869" lon="2.96095">
        <ele>852</ele>
        <time>2015-10-17T20:23:47Z</time>
      </trkpt>
      <trkpt lat="45.869" lon="2.96058">
        <ele>853</ele>
        <time>2015-10-17T20:25:47Z</time>
      </trkpt>
      <trkpt lat="45.86903" lon="2.96028">
        <ele>854</ele>
        <time>2015-10-17T20:27:47Z</time>
      </trkpt>
      <trkpt lat="45.8692" lon="2.95998">
        <ele>855</ele>
        <time>2015-10-17T20:29:47Z</time>
      </trkpt>
      <trkpt lat="45.86938" lon="2.95968">
        <ele>860</ele>
        <time>2015-10-17T20:31:47Z</time>
      </trkpt>
      <trkpt lat="45.87003" lon="2.95921">
        <ele>868</ele>
        <time>2015-10-17T20:33:47Z</time>
      </trkpt>
      <trkpt lat="45.87065" lon="2.95874">
        <ele>883</ele>
        <time>2015-10-17T20:35:47Z</time>
      </trkpt>
      <trkpt lat="45.87111" lon="2.95809">
        <ele>893</ele>
        <time>2015-10-17T20:37:47Z</time>
      </trkpt>
      <trkpt lat="45.87163" lon="2.95756">
        <ele>897</ele>
        <time>2015-10-17T20:39:47Z</time>
      </trkpt>
      <trkpt lat="45.87202" lon="2.95726">
        <ele>899</ele>
        <time>2015-10-17T20:41:47Z</time>
      </trkpt>
      <trkpt lat="45.87242" lon="2.95689">
        <ele>896</ele>
        <time>2015-10-17T20:43:47Z</time>
      </trkpt>
      <trkpt lat="45.87286" lon="2.95625">
        <ele>891</ele>
        <time>2015-10-17T20:45:47Z</time>
      </trkpt>
      <trkpt lat="45.87307" lon="2.95586">
        <ele>889</ele>
        <time>2015-10-17T20:47:47Z</time>
      </trkpt>
      <trkpt lat="45.8732" lon="2.95528">
        <ele>889</ele>
        <time>2015-10-17T20:49:47Z</time>
      </trkpt>
      <trkpt lat="45.87329" lon="2.95447">
        <ele>891</ele>
        <time>2015-10-17T20:51:47Z</time>
      </trkpt>
      <trkpt lat="45.87334" lon="2.95387">
        <ele>892</ele>
        <time>2015-10-17T20:53:47Z</time>
      </trkpt>
      <trkpt lat="45.87346" lon="2.95329">
        <ele>894</ele>
        <time>2015-10-17T20:55:47Z</time>
      </trkpt>
      <trkpt lat="45.8736" lon="2.95284">
        <ele>890</ele>
        <time>2015-10-17T20:57:47Z</time>
      </trkpt>
      <trkpt lat="45.87387" lon="2.95241">
        <ele>888</ele>
        <time>2015-10-17T20:59:47Z</time>
      </trkpt>
      <trkpt lat="45.87428" lon="2.952">
        <ele>887</ele>
        <time>2015-10-17T21:01:47Z</time>
      </trkpt>
      <trkpt lat="45.87495" lon="2.95166">
        <ele>887</ele>
        <time>2015-10-17T21:03:47Z</time>
      </trkpt>
      <trkpt lat="45.87511" lon="2.95125">
        <ele>884</ele>
        <time>2015-10-17T21:05:47Z</time>
      </trkpt>
      <trkpt lat="45.87544" lon="2.95088">
        <ele>880</ele>
        <time>2015-10-17T21:07:47Z</time>
      </trkpt>
      <trkpt lat="45.87583" lon="2.95084">
        <ele>877</ele>
        <time>2015-10-17T21:09:47Z</time>
      </trkpt>
      <trkpt lat="45.87611" lon="2.95121">
        <ele>876</ele>
        <time>2015-10-17T21:11:47Z</time>
      </trkpt>
      <trkpt lat="45.87652" lon="2.95166">
        <ele>877</ele>
        <time>2015-10-17T21:13:47Z</time>
      </trkpt>
      <trkpt lat="45.8765" lon="2.95112">
        <ele>870</ele>
        <time>2015-10-17T21:15:47Z</time>
      </trkpt>
      <trkpt lat="45.87683" lon="2.95073">
        <ele>864</ele>
        <time>2015-10-17T21:17:47Z</time>
      </trkpt>
      <trkpt lat="45.87709" lon="2.95035">
        <ele>866</ele>
        <time>2015-10-17T21:19:47Z</time>
      </trkpt>
      <trkpt lat="45.87712" lon="2.94998">
        <ele>866</ele>
        <time>2015-10-17T21:21:47Z</time>
      </trkpt>
      <trkpt lat="45.87707" lon="2.94945">
        <ele>866</ele>
        <time>2015-10-17T21:23:47Z</time>
      </trkpt>
      <trkpt lat="45.87698" lon="2.94902">
        <ele>865</ele>
        <time>2015-10-17T21:25:47Z</time>
      </trkpt>
      <trkpt lat="45.87689" lon="2.94829">
        <ele>858</ele>
        <time>2015-10-17T21:27:47Z</time>
      </trkpt>
      <trkpt lat="45.87691" lon="2.94788">
        <ele>854</ele>
        <time>2015-10-17T21:29:47Z</time>
      </trkpt>
      <trkpt lat="45.87683" lon="2.9476">
        <ele>852</ele>
        <time>2015-10-17T21:31:47Z</time>
      </trkpt>
      <trkpt lat="45.87723" lon="2.94719">
        <ele>841</ele>
        <time>2015-10-17T21:33:47Z</time>
      </trkpt>
      <trkpt lat="45.87801" lon="2.94659">
        <ele>836</ele>
        <time>2015-10-17T21:35:47Z</time>
      </trkpt>
      <trkpt lat="45.87852" lon="2.94636">
        <ele>835</ele>
        <time>2015-10-17T21:37:47Z</time>
      </trkpt>
      <trkpt lat="45.8791" lon="2.94616">
        <ele>834</ele>
        <time>2015-10-17T21:39:47Z</time>
      </trkpt>
      <trkpt lat="45.87954" lon="2.94578">
        <ele>831</ele>
        <time>2015-10-17T21:41:47Z</time>
      </trkpt>
      <trkpt lat="45.87988" lon="2.94541">
        <ele>830</ele>
        <time>2015-10-17T21:43:47Z</time>
      </trkpt>
      <trkpt lat="45.8804" lon="2.94485">
        <ele>828</ele>
        <time>2015-10-17T21:45:47Z</time>
      </trkpt>
      <trkpt lat="45.88049" lon="2.94436">
        <ele>827</ele>
        <time>2015-10-17T21:47:47Z</time>
      </trkpt>
      <trkpt lat="45.88018" lon="2.94393">
        <ele>830</ele>
        <time>2015-10-17T21:49:47Z</time>
      </trkpt>
      <trkpt lat="45.87991" lon="2.94363">
        <ele>832</ele>
        <time>2015-10-17T21:51:47Z</time>
      </trkpt>
      <trkpt lat="45.87971" lon="2.94339">
        <ele>834</ele>
        <time>2015-10-17T21:53:47Z</time>
      </trkpt>
      <trkpt lat="45.87945" lon="2.94303">
        <ele>834</ele>
        <time>2015-10-17T21:55:47Z</time>
      </trkpt>
      <trkpt lat="45.87907" lon="2.94292">
        <ele>835</ele>
        <time>2015-10-17T21:57:47Z</time>
      </trkpt>
      <trkpt lat="45.87909" lon="2.94254">
        <ele>833</ele>
        <time>2015-10-17T21:59:47Z</time>
      </trkpt>
      <trkpt lat="45.87922" lon="2.94221">
        <ele>834</ele>
        <time>2015-10-17T22:01:47Z</time>
      </trkpt>
      <trkpt lat="45.87894" lon="2.94151">
        <ele>834</ele>
        <time>2015-10-17T22:03:47Z</time>
      </trkpt>
      <trkpt lat="45.87889" lon="2.94103">
        <ele>836</ele>
        <time>2015-10-17T22:05:47Z</time>
      </trkpt>
      <trkpt lat="45.87882" lon="2.94052">
        <ele>838</ele>
        <time>2015-10-17T22:07:47Z</time>
      </trkpt>
      <trkpt lat="45.87815" lon="2.94011">
        <ele>837</ele>
        <time>2015-10-17T22:09:47Z</time>
      </trkpt>
      <trkpt lat="45.87782" lon="2.94003">
        <ele>838</ele>
        <time>2015-10-17T22:11:47Z</time>
      </trkpt>
      <trkpt lat="45.87725" lon="2.9396">
        <ele>844</ele>
        <time>2015-10-17T22:13:47Z</time>
      </trkpt>
      <trkpt lat="45.87692" lon="2.93949">
        <ele>847</ele>
        <time>2015-10-17T22:15:47Z</time>
      </trkpt>
      <trkpt lat="45.87649" lon="2.93943">
        <ele>848</ele>
        <time>2015-10-17T22:17:47Z</time>
      </trkpt>
      <trkpt lat="45.8761" lon="2.9393">
        <ele>848</ele>
        <time>2015-10-17T22:19:47Z</time>
      </trkpt>
      <trkpt lat="45.8758" lon="2.93915">
        <ele>849</ele>
        <time>2015-10-17T22:21:47Z</time>
      </trkpt>
      <trkpt lat="45.8755" lon="2.93981">
        <ele>847</ele>
        <time>2015-10-17T22:23:47Z</time>
      </trkpt>
      <trkpt lat="45.87544" lon="2.94028">
        <ele>848</ele>
        <time>2015-10-17T22:25:47Z</time>
      </trkpt>
      <trkpt lat="45.87549" lon="2.94101">
        <ele>849</ele>
        <time>2015-10-17T22:27:47Z</time>
      </trkpt>
      <trkpt lat="45.87567" lon="2.94185">
        <ele>850</ele>
        <time>2015-10-17T22:29:47Z</time>
      </trkpt>
      <trkpt lat="45.87556" lon="2.94236">
        <ele>851</ele>
        <time>2015-10-17T22:31:47Z</time>
      </trkpt>
      <trkpt lat="45.87541" lon="2.94288">
        <ele>852</ele>
        <time>2015-10-17T22:33:47Z</time>
      </trkpt>
      <trkpt lat="45.87532" lon="2.94329">
        <ele>852</ele>
        <time>2015-10-17T22:35:47Z</time>
      </trkpt>
      <trkpt lat="45.87501" lon="2.94378">
        <ele>855</ele>
        <time>2015-10-17T22:37:47Z</time>
      </trkpt>
      <trkpt lat="45.87489" lon="2.94404">
        <ele>856</ele>
        <time>2015-10-17T22:39:47Z</time>
      </trkpt>
      <trkpt lat="45.87453" lon="2.94468">
        <ele>860</ele>
        <time>2015-10-17T22:41:47Z</time>
      </trkpt>
      <trkpt lat="45.87434" lon="2.94488">
        <ele>862</ele>
        <time>2015-10-17T22:43:47Z</time>
      </trkpt>
      <trkpt lat="45.87411" lon="2.9453">
        <ele>866</ele>
        <time>2015-10-17T22:45:47Z</time>
      </trkpt>
      <trkpt lat="45.87395" lon="2.94556">
        <ele>869</ele>
        <time>2015-10-17T22:47:47Z</time>
      </trkpt>
      <trkpt lat="45.87354" lon="2.94623">
        <ele>876</ele>
        <time>2015-10-17T22:49:47Z</time>
      </trkpt>
      <trkpt lat="45.87337" lon="2.9467">
        <ele>879</ele>
        <time>2015-10-17T22:51:47Z</time>
      </trkpt>
      <trkpt lat="45.87323" lon="2.94711">
        <ele>879</ele>
        <time>2015-10-17T22:53:47Z</time>
      </trkpt>
      <trkpt lat="45.87322" lon="2.9476">
        <ele>879</ele>
        <time>2015-10-17T22:55:47Z</time>
      </trkpt>
      <trkpt lat="45.8731" lon="2.94807">
        <ele>879</ele>
        <time>2015-10-17T22:57:47Z</time>
      </trkpt>
      <trkpt lat="45.87299" lon="2.94852">
        <ele>879</ele>
        <time>2015-10-17T22:59:47Z</time>
      </trkpt>
      <trkpt lat="45.87286" lon="2.94893">
        <ele>881</ele>
        <time>2015-10-17T23:01:47Z</time>
      </trkpt>
      <trkpt lat="45.87256" lon="2.94955">
        <ele>883</ele>
        <time>2015-10-17T23:03:47Z</time>
      </trkpt>
      <trkpt lat="45.87226" lon="2.94983">
        <ele>884</ele>
        <time>2015-10-17T23:05:47Z</time>
      </trkpt>
      <trkpt lat="45.87205" lon="2.95009">
        <ele>886</ele>
        <time>2015-10-17T23:07:47Z</time>
      </trkpt>
      <trkpt lat="45.87159" lon="2.9506">
        <ele>890</ele>
        <time>2015-10-17T23:09:47Z</time>
      </trkpt>
      <trkpt lat="45.87129" lon="2.95084">
        <ele>893</ele>
        <time>2015-10-17T23:11:47Z</time>
      </trkpt>
      <trkpt lat="45.87089" lon="2.95106">
        <ele>897</ele>
        <time>2015-10-17T23:13:47Z</time>
      </trkpt>
      <trkpt lat="45.87027" lon="2.95108">
        <ele>899</ele>
        <time>2015-10-17T23:15:47Z</time>
      </trkpt>
      <trkpt lat="45.87002" lon="2.95103">
        <ele>899</ele>
        <time>2015-10-17T23:17:47Z</time>
      </trkpt>
      <trkpt lat="45.86976" lon="2.95123">
        <ele>900</ele>
        <time>2015-10-17T23:19:47Z</time>
      </trkpt>
      <trkpt lat="45.86926" lon="2.95161">
        <ele>900</ele>
        <time>2015-10-17T23:21:47Z</time>
      </trkpt>
      <trkpt lat="45.86902" lon="2.95168">
        <ele>900</ele>
        <time>2015-10-17T23:23:47Z</time>
      </trkpt>
      <trkpt lat="45.86879" lon="2.95181">
        <ele>900</ele>
        <time>2015-10-17T23:25:47Z</time>
      </trkpt>
      <trkpt lat="45.86867" lon="2.95196">
        <ele>901</ele>
        <time>2015-10-17T23:27:47Z</time>
      </trkpt>
      <trkpt lat="45.86858" lon="2.95215">
        <ele>901</ele>
        <time>2015-10-17T23:29:47Z</time>
      </trkpt>
      <trkpt lat="45.86841" lon="2.95256">
        <ele>902</ele>
        <time>2015-10-17T23:31:47Z</time>
      </trkpt>
      <trkpt lat="45.86812" lon="2.95284">
        <ele>904</ele>
        <time>2015-10-17T23:33:47Z</time>
      </trkpt>
      <trkpt lat="45.86797" lon="2.95305">
        <ele>906</ele>
        <time>2015-10-17T23:35:47Z</time>
      </trkpt>
      <trkpt lat="45.86764" lon="2.95314">
        <ele>910</ele>
        <time>2015-10-17T23:37:47Z</time>
      </trkpt>
      <trkpt lat="45.86761" lon="2.9526">
        <ele>908</ele>
        <time>2015-10-17T23:39:47Z</time>
      </trkpt>
      <trkpt lat="45.86752" lon="2.95176">
        <ele>908</ele>
        <time>2015-10-17T23:41:47Z</time>
      </trkpt>
      <trkpt lat="45.86766" lon="2.95106">
        <ele>904</ele>
        <time>2015-10-17T23:43:47Z</time>
      </trkpt>
      <trkpt lat="45.86767" lon="2.95069">
        <ele>903</ele>
        <time>2015-10-17T23:45:47Z</time>
      </trkpt>
      <trkpt lat="45.86772" lon="2.95022">
        <ele>900</ele>
        <time>2015-10-17T23:47:47Z</time>
      </trkpt>
      <trkpt lat="45.86779" lon="2.94975">
        <ele>897</ele>
        <time>2015-10-17T23:49:47Z</time>
      </trkpt>
      <trkpt lat="45.86787" lon="2.94936">
        <ele>894</ele>
        <time>2015-10-17T23:51:47Z</time>
      </trkpt>
      <trkpt lat="45.86814" lon="2.94844">
        <ele>889</ele>
        <time>2015-10-17T23:53:47Z</time>
      </trkpt>
      <trkpt lat="45.868" lon="2.94764">
        <ele>886</ele>
        <time>2015-10-17T23:55:47Z</time>
      </trkpt>
      <trkpt lat="45.86793" lon="2.94685">
        <ele>884</ele>
        <time>2015-10-17T23:57:47Z</time>
      </trkpt>
      <trkpt lat="45.86787" lon="2.94603">
        <ele>879</ele>
        <time>2015-10-17T23:59:47Z</time>
      </trkpt>
      <trkpt lat="45.86793" lon="2.94563">
        <ele>876</ele>
        <time>2015-10-18T00:01:47Z</time>
      </trkpt>
      <trkpt lat="45.86758" lon="2.94533">
        <ele>874</ele>
        <time>2015-10-18T00:03:47Z</time>
      </trkpt>
      <trkpt lat="45.86702" lon="2.94498">
        <ele>872</ele>
        <time>2015-10-18T00:05:47Z</time>
      </trkpt>
      <trkpt lat="45.86664" lon="2.94468">
        <ele>873</ele>
        <time>2015-10-18T00:07:47Z</time>
      </trkpt>
      <trkpt lat="45.86636" lon="2.94438">
        <ele>871</ele>
        <time>2015-10-18T00:09:47Z</time>
      </trkpt>
      <trkpt lat="45.86604" lon="2.94397">
        <ele>869</ele>
        <time>2015-10-18T00:11:47Z</time>
      </trkpt>
      <trkpt lat="45.86575" lon="2.94365">
        <ele>867</ele>
        <time>2015-10-18T00:13:47Z</time>
      </trkpt>
      <trkpt lat="45.8654" lon="2.94314">
        <ele>867</ele>
        <time>2015-10-18T00:15:47Z</time>
      </trkpt>
      <trkpt lat="45.86501" lon="2.94254">
        <ele>868</ele>
        <time>2015-10-18T00:17:47Z</time>
      </trkpt>
      <trkpt lat="45.86474" lon="2.94211">
        <ele>871</ele>
        <time>2015-10-18T00:19:47Z</time>
      </trkpt>
      <trkpt lat="45.86445" lon="2.94174">
        <ele>874</ele>
        <time>2015-10-18T00:21:47Z</time>
      </trkpt>
      <trkpt lat="45.86391" lon="2.94101">
        <ele>872</ele>
        <time>2015-10-18T00:23:47Z</time>
      </trkpt>
      <trkpt lat="45.86353" lon="2.94054">
        <ele>870</ele>
        <time>2015-10-18T00:25:47Z</time>
      </trkpt>
      <trkpt lat="45.863" lon="2.9399">
        <ele>867</ele>
        <time>2015-10-18T00:27:47Z</time>
      </trkpt>
      <trkpt lat="45.86283" lon="2.93947">
        <ele>865</ele>
        <time>2015-10-18T00:29:47Z</time>
      </trkpt>
      <trkpt lat="45.86279" lon="2.93919">
        <ele>864</ele>
        <time>2015-10-18T00:31:47Z</time>
      </trkpt>
      <trkpt lat="45.86286" lon="2.93846">
        <ele>861</ele>
        <time>2015-10-18T00:33:47Z</time>
      </trkpt>
      <trkpt lat="45.86301" lon="2.9379">
        <ele>861</ele>
        <time>2015-10-18T00:35:47Z</time>
      </trkpt>
      <trkpt lat="45.86321" lon="2.93706">
        <ele>860</ele>
        <time>2015-10-18T00:37:47Z</time>
      </trkpt>
      <trkpt lat="45.86334" lon="2.93649">
        <ele>860</ele>
        <time>2015-10-18T00:39:47Z</time>
      </trkpt>
      <trkpt lat="45.86343" lon="2.93591">
        <ele>861</ele>
        <time>2015-10-18T00:41:47Z</time>
      </trkpt>
      <trkpt lat="45.86356" lon="2.9352">
        <ele>865</ele>
        <time>2015-10-18T00:43:47Z</time>
      </trkpt>
      <trkpt lat="45.86341" lon="2.93434">
        <ele>868</ele>
        <time>2015-10-18T00:45:47Z</time>
      </trkpt>
      <trkpt lat="45.86321" lon="2.93361">
        <ele>866</ele>
        <time>2015-10-18T00:47:47Z</time>
      </trkpt>
      <trkpt lat="45.86301" lon="2.93264">
        <ele>864</ele>
        <time>2015-10-18T00:49:47Z</time>
      </trkpt>
      <trkpt lat="45.86279" lon="2.93204">
        <ele>864</ele>
        <time>2015-10-18T00:51:47Z</time>
      </trkpt>
      <trkpt lat="45.86253" lon="2.93183">
        <ele>864</ele>
        <time>2015-10-18T00:53:47Z</time>
      </trkpt>
      <trkpt lat="45.86201" lon="2.93179">
        <ele>868</ele>
        <time>2015-10-18T00:55:47Z</time>
      </trkpt>
      <trkpt lat="45.8618" lon="2.93198">
        <ele>872</ele>
        <time>2015-10-18T00:57:47Z</time>
      </trkpt>
      <trkpt lat="45.86159" lon="2.93215">
        <ele>875</ele>
        <time>2015-10-18T00:59:47Z</time>
      </trkpt>
      <trkpt lat="45.86129" lon="2.93217">
        <ele>875</ele>
        <time>2015-10-18T01:01:47Z</time>
      </trkpt>
      <trkpt lat="45.86089" lon="2.93232">
        <ele>878</ele>
        <time>2015-10-18T01:03:47Z</time>
      </trkpt>
      <trkpt lat="45.86044" lon="2.93222">
        <ele>878</ele>
        <time>2015-10-18T01:05:47Z</time>
      </trkpt>
      <trkpt lat="45.86019" lon="2.93202">
        <ele>877</ele>
        <time>2015-10-18T01:07:47Z</time>
      </trkpt>
      <trkpt lat="45.86005" lon="2.93093">
        <ele>877</ele>
        <time>2015-10-18T01:09:47Z</time>
      </trkpt>
      <trkpt lat="45.8602" lon="2.93024">
        <ele>877</ele>
        <time>2015-10-18T01:11:47Z</time>
      </trkpt>
      <trkpt lat="45.86031" lon="2.92975">
        <ele>878</ele>
        <time>2015-10-18T01:13:47Z</time>
      </trkpt>
      <trkpt lat="45.86037" lon="2.92923">
        <ele>879</ele>
        <time>2015-10-18T01:15:47Z</time>
      </trkpt>
      <trkpt lat="45.8604" lon="2.92893">
        <ele>880</ele>
        <time>2015-10-18T01:17:47Z</time>
      </trkpt>
      <trkpt lat="45.86037" lon="2.9285">
        <ele>882</ele>
        <time>2015-10-18T01:19:47Z</time>
      </trkpt>
      <trkpt lat="45.86043" lon="2.9278">
        <ele>881</ele>
        <time>2015-10-18T01:21:47Z</time>
      </trkpt>
      <trkpt lat="45.86025" lon="2.92717">
        <ele>882</ele>
        <time>2015-10-18T01:23:47Z</time>
      </trkpt>
      <trkpt lat="45.86017" lon="2.92649">
        <ele>881</ele>
        <time>2015-10-18T01:25:47Z</time>
      </trkpt>
      <trkpt lat="45.86017" lon="2.92531">
        <ele>878</ele>
        <time>2015-10-18T01:27:47Z</time>
      </trkpt>
      <trkpt lat="45.8602" lon="2.9246">
        <ele>878</ele>
        <time>2015-10-18T01:29:47Z</time>
      </trkpt>
      <trkpt lat="45.86007" lon="2.92415">
        <ele>879</ele>
        <time>2015-10-18T01:31:47Z</time>
      </trkpt>
      <trkpt lat="45.85981" lon="2.9238">
        <ele>880</ele>
        <time>2015-10-18T01:33:47Z</time>
      </trkpt>
      <trkpt lat="45.85969" lon="2.9234">
        <ele>880</ele>
        <time>2015-10-18T01:35:47Z</time>
      </trkpt>
      <trkpt lat="45.85963" lon="2.92271">
        <ele>879</ele>
        <time>2015-10-18T01:37:47Z</time>
      </trkpt>
      <trkpt lat="45.85968" lon="2.92207">
        <ele>878</ele>
        <time>2015-10-18T01:39:47Z</time>
      </trkpt>
      <trkpt lat="45.85956" lon="2.92179">
        <ele>879</ele>
        <time>2015-10-18T01:41:47Z</time>
      </trkpt>
      <trkpt lat="45.85945" lon="2.92131">
        <ele>879</ele>
        <time>2015-10-18T01:43:47Z</time>
      </trkpt>
      <trkpt lat="45.8594" lon="2.92106">
        <ele>879</ele>
        <time>2015-10-18T01:45:47Z</time>
      </trkpt>
      <trkpt lat="45.85916" lon="2.92116">
        <ele>879</ele>
        <time>2015-10-18T01:47:47Z</time>
      </trkpt>
      <trkpt lat="45.85869" lon="2.92116">
        <ele>884</ele>
        <time>2015-10-18T01:49:47Z</time>
      </trkpt>
      <trkpt lat="45.85856" lon="2.92142">
        <ele>885</ele>
        <time>2015-10-18T01:51:47Z</time>
      </trkpt>
      <trkpt lat="45.85823" lon="2.92171">
        <ele>889</ele>
        <time>2015-10-18T01:53:47Z</time>
      </trkpt>
      <trkpt lat="45.85801" lon="2.92188">
        <ele>890</ele>
        <time>2015-10-18T01:55:47Z</time>
      </trkpt>
      <trkpt lat="45.85771" lon="2.92211">
        <ele>891</ele>
        <time>2015-10-18T01:57:47Z</time>
      </trkpt>
      <trkpt lat="45.8574" lon="2.92226">
        <ele>892</ele>
        <time>2015-10-18T01:59:47Z</time>
      </trkpt>
      <trkpt lat="45.85687" lon="2.92247">
        <ele>893</ele>
        <time>2015-10-18T02:01:47Z</time>
      </trkpt>
      <trkpt lat="45.85658" lon="2.92202">
        <ele>894</ele>
        <time>2015-10-18T02:03:47Z</time>
      </trkpt>
      <trkpt lat="45.85638" lon="2.92176">
        <ele>894</ele>
        <time>2015-10-18T02:05:47Z</time>
      </trkpt>
      <trkpt lat="45.85622" lon="2.9213">
        <ele>895</ele>
        <time>2015-10-18T02:07:47Z</time>
      </trkpt>
      <trkpt lat="45.85598" lon="2.92099">
        <ele>894</ele>
        <time>2015-10-18T02:09:47Z</time>
      </trkpt>
      <trkpt lat="45.85579" lon="2.92054">
        <ele>894</ele>
        <time>2015-10-18T02:11:47Z</time>
      </trkpt>
      <trkpt lat="45.85564" lon="2.92028">
        <ele>894</ele>
        <time>2015-10-18T02:13:47Z</time>
      </trkpt>
      <trkpt lat="45.8555" lon="2.91987">
        <ele>893</ele>
        <time>2015-10-18T02:15:47Z</time>
      </trkpt>
      <trkpt lat="45.8553" lon="2.91971">
        <ele>892</ele>
        <time>2015-10-18T02:17:47Z</time>
      </trkpt>
      <trkpt lat="45.85504" lon="2.91947">
        <ele>891</ele>
        <time>2015-10-18T02:19:47Z</time>
      </trkpt>
      <trkpt lat="45.85481" lon="2.91916">
        <ele>891</ele>
        <time>2015-10-18T02:21:47Z</time>
      </trkpt>
      <trkpt lat="45.85453" lon="2.91859">
        <ele>891</ele>
        <time>2015-10-18T02:23:47Z</time>
      </trkpt>
      <trkpt lat="45.85438" lon="2.91837">
        <ele>890</ele>
        <time>2015-10-18T02:25:47Z</time>
      </trkpt>
      <trkpt lat="45.85426" lon="2.91802">
        <ele>891</ele>
        <time>2015-10-18T02:27:47Z</time>
      </trkpt>
      <trkpt lat="45.85406" lon="2.91771">
        <ele>891</ele>
        <time>2015-10-18T02:29:47Z</time>
      </trkpt>
      <trkpt lat="45.85395" lon="2.91717">
        <ele>889</ele>
        <time>2015-10-18T02:31:47Z</time>
      </trkpt>
      <trkpt lat="45.85386" lon="2.91648">
        <ele>886</ele>
        <time>2015-10-18T02:33:47Z</time>
      </trkpt>
      <trkpt lat="45.85388" lon="2.91605">
        <ele>886</ele>
        <time>2015-10-18T02:35:47Z</time>
      </trkpt>
      <trkpt lat="45.85351" lon="2.91583">
        <ele>886</ele>
        <time>2015-10-18T02:37:47Z</time>
      </trkpt>
      <trkpt lat="45.8532" lon="2.91531">
        <ele>886</ele>
        <time>2015-10-18T02:39:47Z</time>
      </trkpt>
      <trkpt lat="45.85275" lon="2.9144">
        <ele>884</ele>
        <time>2015-10-18T02:41:47Z</time>
      </trkpt>
      <trkpt lat="45.85252" lon="2.91407">
        <ele>883</ele>
        <time>2015-10-18T02:43:47Z</time>
      </trkpt>
      <trkpt lat="45.85253" lon="2.91347">
        <ele>881</ele>
        <time>2015-10-18T02:45:47Z</time>
      </trkpt>
      <trkpt lat="45.85238" lon="2.91321">
        <ele>880</ele>
        <time>2015-10-18T02:47:47Z</time>
      </trkpt>
      <trkpt lat="45.85214" lon="2.91333">
        <ele>880</ele>
        <time>2015-10-18T02:49:47Z</time>
      </trkpt>
      <trkpt lat="45.85172" lon="2.91371">
        <ele>880</ele>
        <time>2015-10-18T02:51:47Z</time>
      </trkpt>
      <trkpt lat="45.8515" lon="2.91407">
        <ele>881</ele>
        <time>2015-10-18T02:53:47Z</time>
      </trkpt>
      <trkpt lat="45.85129" lon="2.91438">
        <ele>881</ele>
        <time>2015-10-18T02:55:47Z</time>
      </trkpt>
      <trkpt lat="45.85057" lon="2.91486">
        <ele>880</ele>
        <time>2015-10-18T02:57:47Z</time>
      </trkpt>
      <trkpt lat="45.85028" lon="2.91517">
        <ele>879</ele>
        <time>2015-10-18T02:59:47Z</time>
      </trkpt>
      <trkpt lat="45.85019" lon="2.91605">
        <ele>880</ele>
        <time>2015-10-18T03:01:47Z</time>
      </trkpt>
      <trkpt lat="45.84998" lon="2.91664">
        <ele>881</ele>
        <time>2015-10-18T03:03:47Z</time>
      </trkpt>
      <trkpt lat="45.84968" lon="2.91706">
        <ele>882</ele>
        <time>2015-10-18T03:05:47Z</time>
      </trkpt>
      <trkpt lat="45.8493" lon="2.91734">
        <ele>882</ele>
        <time>2015-10-18T03:07:47Z</time>
      </trkpt>
      <trkpt lat="45.84904" lon="2.91792">
        <ele>882</ele>
        <time>2015-10-18T03:09:47Z</time>
      </trkpt>
      <trkpt lat="45.84879" lon="2.91873">
        <ele>880</ele>
        <time>2015-10-18T03:11:47Z</time>
      </trkpt>
      <trkpt lat="45.8487" lon="2.91932">
        <ele>881</ele>
        <time>2015-10-18T03:13:47Z</time>
      </trkpt>
      <trkpt lat="45.84856" lon="2.91987">
        <ele>882</ele>
        <time>2015-10-18T03:15:47Z</time>
      </trkpt>
      <trkpt lat="45.84816" lon="2.92018">
        <ele>883</ele>
        <time>2015-10-18T03:17:47Z</time>
      </trkpt>
      <trkpt lat="45.84786" lon="2.92044">
        <ele>884</ele>
        <time>2015-10-18T03:19:47Z</time>
      </trkpt>
      <trkpt lat="45.84748" lon="2.9208">
        <ele>885</ele>
        <time>2015-10-18T03:21:47Z</time>
      </trkpt>
      <trkpt lat="45.84719" lon="2.92113">
        <ele>885</ele>
        <time>2015-10-18T03:23:47Z</time>
      </trkpt>
      <trkpt lat="45.84696" lon="2.92152">
        <ele>886</ele>
        <time>2015-10-18T03:25:47Z</time>
      </trkpt>
      <trkpt lat="45.84663" lon="2.9219">
        <ele>886</ele>
        <time>2015-10-18T03:27:47Z</time>
      </trkpt>
      <trkpt lat="45.84631" lon="2.92249">
        <ele>887</ele>
        <time>2015-10-18T03:29:47Z</time>
      </trkpt>
      <trkpt lat="45.84604" lon="2.92304">
        <ele>887</ele>
        <time>2015-10-18T03:31:47Z</time>
      </trkpt>
      <trkpt lat="45.84563" lon="2.92371">
        <ele>885</ele>
        <time>2015-10-18T03:33:47Z</time>
      </trkpt>
      <trkpt lat="45.84528" lon="2.92418">
        <ele>882</ele>
        <time>2015-10-18T03:35:47Z</time>
      </trkpt>
      <trkpt lat="45.84496" lon="2.92471">
        <ele>880</ele>
        <time>2015-10-18T03:37:47Z</time>
      </trkpt>
      <trkpt lat="45.84457" lon="2.92516">
        <ele>878</ele>
        <time>2015-10-18T03:39:47Z</time>
      </trkpt>
      <trkpt lat="45.84413" lon="2.92542">
        <ele>876</ele>
        <time>2015-10-18T03:41:47Z</time>
      </trkpt>
      <trkpt lat="45.8438" lon="2.9253">
        <ele>876</ele>
        <time>2015-10-18T03:43:47Z</time>
      </trkpt>
      <trkpt lat="45.84335" lon="2.92514">
        <ele>876</ele>
        <time>2015-10-18T03:45:47Z</time>
      </trkpt>
      <trkpt lat="45.84304" lon="2.92509">
        <ele>877</ele>
        <time>2015-10-18T03:47:47Z</time>
      </trkpt>
      <trkpt lat="45.84279" lon="2.92545">
        <ele>877</ele>
        <time>2015-10-18T03:49:47Z</time>
      </trkpt>
      <trkpt lat="45.84259" lon="2.92576">
        <ele>876</ele>
        <time>2015-10-18T03:51:47Z</time>
      </trkpt>
      <trkpt lat="45.84227" lon="2.92647">
        <ele>877</ele>
        <time>2015-10-18T03:53:47Z</time>
      </trkpt>
      <trkpt lat="45.84196" lon="2.927">
        <ele>879</ele>
        <time>2015-10-18T03:55:47Z</time>
      </trkpt>
      <trkpt lat="45.84154" lon="2.92745">
        <ele>881</ele>
        <time>2015-10-18T03:57:47Z</time>
      </trkpt>
      <trkpt lat="45.84118" lon="2.92757">
        <ele>882</ele>
        <time>2015-10-18T03:59:47Z</time>
      </trkpt>
      <trkpt lat="45.84088" lon="2.92838">
        <ele>885</ele>
        <time>2015-10-18T04:01:47Z</time>
      </trkpt>
      <trkpt lat="45.84096" lon="2.92895">
        <ele>890</ele>
        <time>2015-10-18T04:03:47Z</time>
      </trkpt>
      <trkpt lat="45.84126" lon="2.92953">
        <ele>894</ele>
        <time>2015-10-18T04:05:47Z</time>
      </trkpt>
    </trkseg>
  </trk>
  <trk>
    <name><![CDATA[--Volvic-- OR-5358191:ser-fr01-vtt-l2]]></name>
    <trkseg>
      <trkpt lat="45.8713" lon="3.02706">
        <ele>586</ele>
        <time>2015-10-17T12:37:30Z</time>
      </trkpt>
      <trkpt lat="45.8712" lon="3.02678">
        <ele>590</ele>
        <time>2015-10-17T12:39:30Z</time>
      </trkpt>
      <trkpt lat="45.87145" lon="3.02629">
        <ele>594</ele>
        <time>2015-10-17T12:41:30Z</time>
      </trkpt>
      <trkpt lat="45.87151" lon="3.02564">
        <ele>599</ele>
        <time>2015-10-17T12:43:30Z</time>
      </trkpt>
      <trkpt lat="45.87144" lon="3.02508">
        <ele>605</ele>
        <time>2015-10-17T12:45:30Z</time>
      </trkpt>
      <trkpt lat="45.87153" lon="3.02438">
        <ele>611</ele>
        <time>2015-10-17T12:47:30Z</time>
      </trkpt>
      <trkpt lat="45.87193" lon="3.02393">
        <ele>613</ele>
        <time>2015-10-17T12:49:30Z</time>
      </trkpt>
      <trkpt lat="45.87225" lon="3.02347">
        <ele>615</ele>
        <time>2015-10-17T12:51:30Z</time>
      </trkpt>
      <trkpt lat="45.87244" lon="3.023">
        <ele>617</ele>
        <time>2015-10-17T12:53:30Z</time>
      </trkpt>
      <trkpt lat="45.87236" lon="3.02242">
        <ele>620</ele>
        <time>2015-10-17T12:55:30Z</time>
      </trkpt>
      <trkpt lat="45.87235" lon="3.02197">
        <ele>620</ele>
        <time>2015-10-17T12:57:30Z</time>
      </trkpt>
      <trkpt lat="45.8723" lon="3.02144">
        <ele>620</ele>
        <time>2015-10-17T12:59:30Z</time>
      </trkpt>
      <trkpt lat="45.87225" lon="3.02092">
        <ele>621</ele>
        <time>2015-10-17T13:01:30Z</time>
      </trkpt>
      <trkpt lat="45.8722" lon="3.02043">
        <ele>622</ele>
        <time>2015-10-17T13:03:30Z</time>
      </trkpt>
      <trkpt lat="45.87217" lon="3.02">
        <ele>624</ele>
        <time>2015-10-17T13:05:30Z</time>
      </trkpt>
      <trkpt lat="45.87178" lon="3.02">
        <ele>625</ele>
        <time>2015-10-17T13:07:30Z</time>
      </trkpt>
      <trkpt lat="45.87153" lon="3.01957">
        <ele>629</ele>
        <time>2015-10-17T13:09:30Z</time>
      </trkpt>
      <trkpt lat="45.87138" lon="3.01916">
        <ele>632</ele>
        <time>2015-10-17T13:11:30Z</time>
      </trkpt>
      <trkpt lat="45.8712" lon="3.01901">
        <ele>635</ele>
        <time>2015-10-17T13:13:30Z</time>
      </trkpt>
      <trkpt lat="45.87115" lon="3.01848">
        <ele>638</ele>
        <time>2015-10-17T13:15:30Z</time>
      </trkpt>
      <trkpt lat="45.87121" lon="3.01805">
        <ele>640</ele>
        <time>2015-10-17T13:17:30Z</time>
      </trkpt>
      <trkpt lat="45.87126" lon="3.01753">
        <ele>644</ele>
        <time>2015-10-17T13:19:30Z</time>
      </trkpt>
      <trkpt lat="45.87142" lon="3.01719">
        <ele>648</ele>
        <time>2015-10-17T13:21:30Z</time>
      </trkpt>
      <trkpt lat="45.87166" lon="3.01751">
        <ele>646</ele>
        <time>2015-10-17T13:23:30Z</time>
      </trkpt>
      <trkpt lat="45.8718" lon="3.01794">
        <ele>645</ele>
        <time>2015-10-17T13:25:30Z</time>
      </trkpt>
      <trkpt lat="45.87195" lon="3.01839">
        <ele>643</ele>
        <time>2015-10-17T13:27:30Z</time>
      </trkpt>
      <trkpt lat="45.87213" lon="3.01873">
        <ele>640</ele>
        <time>2015-10-17T13:29:30Z</time>
      </trkpt>
      <trkpt lat="45.8726" lon="3.01899">
        <ele>641</ele>
        <time>2015-10-17T13:31:30Z</time>
      </trkpt>
      <trkpt lat="45.87305" lon="3.01933">
        <ele>641</ele>
        <time>2015-10-17T13:33:30Z</time>
      </trkpt>
      <trkpt lat="45.87341" lon="3.01946">
        <ele>643</ele>
        <time>2015-10-17T13:35:30Z</time>
      </trkpt>
      <trkpt lat="45.87386" lon="3.01972">
        <ele>637</ele>
        <time>2015-10-17T13:37:30Z</time>
      </trkpt>
      <trkpt lat="45.87443" lon="3.01985">
        <ele>633</ele>
        <time>2015-10-17T13:39:30Z</time>
      </trkpt>
      <trkpt lat="45.87487" lon="3.01968">
        <ele>634</ele>
        <time>2015-10-17T13:41:30Z</time>
      </trkpt>
      <trkpt lat="45.8754" lon="3.01936">
        <ele>631</ele>
        <time>2015-10-17T13:43:30Z</time>
      </trkpt>
      <trkpt lat="45.87574" lon="3.01901">
        <ele>628</ele>
        <time>2015-10-17T13:45:30Z</time>
      </trkpt>
      <trkpt lat="45.87617" lon="3.01873">
        <ele>626</ele>
        <time>2015-10-17T13:47:30Z</time>
      </trkpt>
      <trkpt lat="45.87655" lon="3.01869">
        <ele>621</ele>
        <time>2015-10-17T13:49:30Z</time>
      </trkpt>
      <trkpt lat="45.87688" lon="3.0192">
        <ele>620</ele>
        <time>2015-10-17T13:51:30Z</time>
      </trkpt>
      <trkpt lat="45.87689" lon="3.0188">
        <ele>625</ele>
        <time>2015-10-17T13:53:30Z</time>
      </trkpt>
      <trkpt lat="45.87694" lon="3.01835">
        <ele>631</ele>
        <time>2015-10-17T13:55:30Z</time>
      </trkpt>
      <trkpt lat="45.87706" lon="3.01787">
        <ele>639</ele>
        <time>2015-10-17T13:57:30Z</time>
      </trkpt>
      <trkpt lat="45.87718" lon="3.01745">
        <ele>644</ele>
        <time>2015-10-17T13:59:30Z</time>
      </trkpt>
      <trkpt lat="45.87735" lon="3.0171">
        <ele>645</ele>
        <time>2015-10-17T14:01:30Z</time>
      </trkpt>
      <trkpt lat="45.87764" lon="3.01678">
        <ele>647</ele>
        <time>2015-10-17T14:03:30Z</time>
      </trkpt>
      <trkpt lat="45.87782" lon="3.01642">
        <ele>650</ele>
        <time>2015-10-17T14:05:30Z</time>
      </trkpt>
      <trkpt lat="45.87797" lon="3.01603">
        <ele>652</ele>
        <time>2015-10-17T14:07:30Z</time>
      </trkpt>
      <trkpt lat="45.87843" lon="3.01592">
        <ele>661</ele>
        <time>2015-10-17T14:09:30Z</time>
      </trkpt>
      <trkpt lat="45.87889" lon="3.01616">
        <ele>667</ele>
        <time>2015-10-17T14:11:30Z</time>
      </trkpt>
      <trkpt lat="45.87945" lon="3.01624">
        <ele>671</ele>
        <time>2015-10-17T14:13:30Z</time>
      </trkpt>
      <trkpt lat="45.87974" lon="3.0162">
        <ele>673</ele>
        <time>2015-10-17T14:15:30Z</time>
      </trkpt>
      <trkpt lat="45.87973" lon="3.01584">
        <ele>678</ele>
        <time>2015-10-17T14:17:30Z</time>
      </trkpt>
      <trkpt lat="45.87958" lon="3.01558">
        <ele>680</ele>
        <time>2015-10-17T14:19:30Z</time>
      </trkpt>
      <trkpt lat="45.8794" lon="3.01543">
        <ele>679</ele>
        <time>2015-10-17T14:21:30Z</time>
      </trkpt>
      <trkpt lat="45.87924" lon="3.01521">
        <ele>679</ele>
        <time>2015-10-17T14:23:30Z</time>
      </trkpt>
      <trkpt lat="45.87928" lon="3.01472">
        <ele>686</ele>
        <time>2015-10-17T14:25:30Z</time>
      </trkpt>
      <trkpt lat="45.87922" lon="3.01448">
        <ele>688</ele>
        <time>2015-10-17T14:27:30Z</time>
      </trkpt>
      <trkpt lat="45.87922" lon="3.01416">
        <ele>692</ele>
        <time>2015-10-17T14:29:30Z</time>
      </trkpt>
      <trkpt lat="45.87927" lon="3.01358">
        <ele>699</ele>
        <time>2015-10-17T14:31:30Z</time>
      </trkpt>
      <trkpt lat="45.8793" lon="3.01311">
        <ele>703</ele>
        <time>2015-10-17T14:33:30Z</time>
      </trkpt>
      <trkpt lat="45.87952" lon="3.01262">
        <ele>707</ele>
        <time>2015-10-17T14:35:30Z</time>
      </trkpt>
      <trkpt lat="45.87919" lon="3.01219">
        <ele>708</ele>
        <time>2015-10-17T14:37:30Z</time>
      </trkpt>
      <trkpt lat="45.87879" lon="3.01234">
        <ele>704</ele>
        <time>2015-10-17T14:39:30Z</time>
      </trkpt>
      <trkpt lat="45.87853" lon="3.01219">
        <ele>704</ele>
        <time>2015-10-17T14:41:30Z</time>
      </trkpt>
      <trkpt lat="45.87825" lon="3.01184">
        <ele>704</ele>
        <time>2015-10-17T14:43:30Z</time>
      </trkpt>
      <trkpt lat="45.87809" lon="3.01167">
        <ele>703</ele>
        <time>2015-10-17T14:45:30Z</time>
      </trkpt>
      <trkpt lat="45.87792" lon="3.01131">
        <ele>702</ele>
        <time>2015-10-17T14:47:30Z</time>
      </trkpt>
      <trkpt lat="45.87764" lon="3.01094">
        <ele>700</ele>
        <time>2015-10-17T14:49:30Z</time>
      </trkpt>
      <trkpt lat="45.87743" lon="3.01062">
        <ele>698</ele>
        <time>2015-10-17T14:51:30Z</time>
      </trkpt>
      <trkpt lat="45.87713" lon="3.01028">
        <ele>697</ele>
        <time>2015-10-17T14:53:30Z</time>
      </trkpt>
      <trkpt lat="45.87698" lon="3.01">
        <ele>698</ele>
        <time>2015-10-17T14:55:30Z</time>
      </trkpt>
      <trkpt lat="45.8768" lon="3.00981">
        <ele>697</ele>
        <time>2015-10-17T14:57:30Z</time>
      </trkpt>
      <trkpt lat="45.87653" lon="3.00987">
        <ele>697</ele>
        <time>2015-10-17T14:59:30Z</time>
      </trkpt>
      <trkpt lat="45.87628" lon="3.00994">
        <ele>697</ele>
        <time>2015-10-17T15:01:30Z</time>
      </trkpt>
      <trkpt lat="45.87602" lon="3.01002">
        <ele>698</ele>
        <time>2015-10-17T15:03:30Z</time>
      </trkpt>
      <trkpt lat="45.87577" lon="3.01011">
        <ele>697</ele>
        <time>2015-10-17T15:05:30Z</time>
      </trkpt>
      <trkpt lat="45.87534" lon="3.01011">
        <ele>695</ele>
        <time>2015-10-17T15:07:30Z</time>
      </trkpt>
      <trkpt lat="45.8751" lon="3.01021">
        <ele>693</ele>
        <time>2015-10-17T15:09:30Z</time>
      </trkpt>
      <trkpt lat="45.87489" lon="3.01049">
        <ele>690</ele>
        <time>2015-10-17T15:11:30Z</time>
      </trkpt>
      <trkpt lat="45.87471" lon="3.01088">
        <ele>688</ele>
        <time>2015-10-17T15:13:30Z</time>
      </trkpt>
      <trkpt lat="45.87449" lon="3.01127">
        <ele>689</ele>
        <time>2015-10-17T15:15:30Z</time>
      </trkpt>
      <trkpt lat="45.87429" lon="3.01161">
        <ele>691</ele>
        <time>2015-10-17T15:17:30Z</time>
      </trkpt>
      <trkpt lat="45.87408" lon="3.01163">
        <ele>690</ele>
        <time>2015-10-17T15:19:30Z</time>
      </trkpt>
      <trkpt lat="45.8738" lon="3.01152">
        <ele>685</ele>
        <time>2015-10-17T15:21:30Z</time>
      </trkpt>
      <trkpt lat="45.8736" lon="3.01114">
        <ele>683</ele>
        <time>2015-10-17T15:23:30Z</time>
      </trkpt>
      <trkpt lat="45.87346" lon="3.01071">
        <ele>682</ele>
        <time>2015-10-17T15:25:30Z</time>
      </trkpt>
      <trkpt lat="45.87325" lon="3.01092">
        <ele>680</ele>
        <time>2015-10-17T15:27:30Z</time>
      </trkpt>
      <trkpt lat="45.87281" lon="3.01122">
        <ele>675</ele>
        <time>2015-10-17T15:29:30Z</time>
      </trkpt>
      <trkpt lat="45.87266" lon="3.01148">
        <ele>672</ele>
        <time>2015-10-17T15:31:30Z</time>
      </trkpt>
      <trkpt lat="45.87242" lon="3.01169">
        <ele>669</ele>
        <time>2015-10-17T15:33:30Z</time>
      </trkpt>
      <trkpt lat="45.87208" lon="3.01178">
        <ele>669</ele>
        <time>2015-10-17T15:35:30Z</time>
      </trkpt>
      <trkpt lat="45.87186" lon="3.01178">
        <ele>669</ele>
        <time>2015-10-17T15:37:30Z</time>
      </trkpt>
      <trkpt lat="45.87168" lon="3.01124">
        <ele>671</ele>
        <time>2015-10-17T15:39:30Z</time>
      </trkpt>
      <trkpt lat="45.87162" lon="3.01054">
        <ele>675</ele>
        <time>2015-10-17T15:41:30Z</time>
      </trkpt>
      <trkpt lat="45.87147" lon="3.00978">
        <ele>679</ele>
        <time>2015-10-17T15:43:30Z</time>
      </trkpt>
      <trkpt lat="45.87145" lon="3.0091">
        <ele>683</ele>
        <time>2015-10-17T15:45:30Z</time>
      </trkpt>
      <trkpt lat="45.8713" lon="3.00856">
        <ele>685</ele>
        <time>2015-10-17T15:47:30Z</time>
      </trkpt>
      <trkpt lat="45.8712" lon="3.00811">
        <ele>688</ele>
        <time>2015-10-17T15:49:30Z</time>
      </trkpt>
      <trkpt lat="45.87117" lon="3.00777">
        <ele>690</ele>
        <time>2015-10-17T15:51:30Z</time>
      </trkpt>
      <trkpt lat="45.87095" lon="3.0076">
        <ele>691</ele>
        <time>2015-10-17T15:53:30Z</time>
      </trkpt>
      <trkpt lat="45.87053" lon="3.00764">
        <ele>693</ele>
        <time>2015-10-17T15:55:30Z</time>
      </trkpt>
      <trkpt lat="45.87041" lon="3.00702">
        <ele>699</ele>
        <time>2015-10-17T15:57:30Z</time>
      </trkpt>
      <trkpt lat="45.87036" lon="3.00667">
        <ele>702</ele>
        <time>2015-10-17T15:59:30Z</time>
      </trkpt>
      <trkpt lat="45.87041" lon="3.00614">
        <ele>707</ele>
        <time>2015-10-17T16:01:30Z</time>
      </trkpt>
      <trkpt lat="45.87096" lon="3.00569">
        <ele>709</ele>
        <time>2015-10-17T16:03:30Z</time>
      </trkpt>
      <trkpt lat="45.87087" lon="3.00513">
        <ele>714</ele>
        <time>2015-10-17T16:05:30Z</time>
      </trkpt>
      <trkpt lat="45.87087" lon="3.00457">
        <ele>717</ele>
        <time>2015-10-17T16:07:30Z</time>
      </trkpt>
      <trkpt lat="45.87087" lon="3.00382">
        <ele>718</ele>
        <time>2015-10-17T16:09:30Z</time>
      </trkpt>
      <trkpt lat="45.87086" lon="3.0032">
        <ele>718</ele>
        <time>2015-10-17T16:11:30Z</time>
      </trkpt>
      <trkpt lat="45.87087" lon="3.00255">
        <ele>720</ele>
        <time>2015-10-17T16:13:30Z</time>
      </trkpt>
      <trkpt lat="45.8708" lon="3.002">
        <ele>723</ele>
        <time>2015-10-17T16:15:30Z</time>
      </trkpt>
      <trkpt lat="45.87084" lon="3.00163">
        <ele>724</ele>
        <time>2015-10-17T16:17:30Z</time>
      </trkpt>
      <trkpt lat="45.8708" lon="3.00077">
        <ele>727</ele>
        <time>2015-10-17T16:19:30Z</time>
      </trkpt>
      <trkpt lat="45.8708" lon="3">
        <ele>733</ele>
        <time>2015-10-17T16:21:30Z</time>
      </trkpt>
      <trkpt lat="45.8708" lon="2.99934">
        <ele>737</ele>
        <time>2015-10-17T16:23:30Z</time>
      </trkpt>
      <trkpt lat="45.8708" lon="2.99876">
        <ele>741</ele>
        <time>2015-10-17T16:25:30Z</time>
      </trkpt>
      <trkpt lat="45.87081" lon="2.99837">
        <ele>744</ele>
        <time>2015-10-17T16:27:30Z</time>
      </trkpt>
      <trkpt lat="45.87075" lon="2.99764">
        <ele>748</ele>
        <time>2015-10-17T16:29:30Z</time>
      </trkpt>
      <trkpt lat="45.87072" lon="2.99712">
        <ele>750</ele>
        <time>2015-10-17T16:31:30Z</time>
      </trkpt>
      <trkpt lat="45.87086" lon="2.99663">
        <ele>752</ele>
        <time>2015-10-17T16:33:30Z</time>
      </trkpt>
      <trkpt lat="45.87084" lon="2.99642">
        <ele>754</ele>
        <time>2015-10-17T16:35:30Z</time>
      </trkpt>
      <trkpt lat="45.87077" lon="2.99582">
        <ele>757</ele>
        <time>2015-10-17T16:37:30Z</time>
      </trkpt>
      <trkpt lat="45.87084" lon="2.99543">
        <ele>760</ele>
        <time>2015-10-17T16:39:30Z</time>
      </trkpt>
      <trkpt lat="45.871" lon="2.99468">
        <ele>768</ele>
        <time>2015-10-17T16:41:30Z</time>
      </trkpt>
      <trkpt lat="45.87092" lon="2.99416">
        <ele>773</ele>
        <time>2015-10-17T16:43:30Z</time>
      </trkpt>
      <trkpt lat="45.87153" lon="2.99371">
        <ele>776</ele>
        <time>2015-10-17T16:45:30Z</time>
      </trkpt>
      <trkpt lat="45.87177" lon="2.99335">
        <ele>777</ele>
        <time>2015-10-17T16:47:30Z</time>
      </trkpt>
      <trkpt lat="45.87172" lon="2.99277">
        <ele>779</ele>
        <time>2015-10-17T16:49:30Z</time>
      </trkpt>
      <trkpt lat="45.87162" lon="2.99243">
        <ele>781</ele>
        <time>2015-10-17T16:51:30Z</time>
      </trkpt>
      <trkpt lat="45.87147" lon="2.99217">
        <ele>783</ele>
        <time>2015-10-17T16:53:30Z</time>
      </trkpt>
      <trkpt lat="45.8713" lon="2.99193">
        <ele>784</ele>
        <time>2015-10-17T16:55:30Z</time>
      </trkpt>
      <trkpt lat="45.87124" lon="2.99144">
        <ele>787</ele>
        <time>2015-10-17T16:57:30Z</time>
      </trkpt>
      <trkpt lat="45.87169" lon="2.99069">
        <ele>790</ele>
        <time>2015-10-17T16:59:30Z</time>
      </trkpt>
      <trkpt lat="45.87199" lon="2.9903">
        <ele>788</ele>
        <time>2015-10-17T17:01:30Z</time>
      </trkpt>
      <trkpt lat="45.87244" lon="2.99028">
        <ele>784</ele>
        <time>2015-10-17T17:03:30Z</time>
      </trkpt>
      <trkpt lat="45.87275" lon="2.98985">
        <ele>784</ele>
        <time>2015-10-17T17:05:30Z</time>
      </trkpt>
      <trkpt lat="45.87257" lon="2.98923">
        <ele>787</ele>
        <time>2015-10-17T17:07:30Z</time>
      </trkpt>
      <trkpt lat="45.87257" lon="2.98867">
        <ele>788</ele>
        <time>2015-10-17T17:09:30Z</time>
      </trkpt>
      <trkpt lat="45.87271" lon="2.98816">
        <ele>788</ele>
        <time>2015-10-17T17:11:30Z</time>
      </trkpt>
      <trkpt lat="45.87271" lon="2.98749">
        <ele>789</ele>
        <time>2015-10-17T17:13:30Z</time>
      </trkpt>
      <trkpt lat="45.87265" lon="2.98685">
        <ele>792</ele>
        <time>2015-10-17T17:15:30Z</time>
      </trkpt>
      <trkpt lat="45.87266" lon="2.98633">
        <ele>793</ele>
        <time>2015-10-17T17:17:30Z</time>
      </trkpt>
      <trkpt lat="45.87292" lon="2.98569">
        <ele>793</ele>
        <time>2015-10-17T17:19:30Z</time>
      </trkpt>
      <trkpt lat="45.87269" lon="2.98539">
        <ele>795</ele>
        <time>2015-10-17T17:21:30Z</time>
      </trkpt>
      <trkpt lat="45.87245" lon="2.98509">
        <ele>796</ele>
        <time>2015-10-17T17:23:30Z</time>
      </trkpt>
      <trkpt lat="45.87253" lon="2.98449">
        <ele>798</ele>
        <time>2015-10-17T17:25:30Z</time>
      </trkpt>
      <trkpt lat="45.87226" lon="2.9841">
        <ele>803</ele>
        <time>2015-10-17T17:27:30Z</time>
      </trkpt>
      <trkpt lat="45.87223" lon="2.98369">
        <ele>804</ele>
        <time>2015-10-17T17:29:30Z</time>
      </trkpt>
      <trkpt lat="45.87225" lon="2.98292">
        <ele>805</ele>
        <time>2015-10-17T17:31:30Z</time>
      </trkpt>
      <trkpt lat="45.87207" lon="2.98238">
        <ele>807</ele>
        <time>2015-10-17T17:33:30Z</time>
      </trkpt>
      <trkpt lat="45.8719" lon="2.98185">
        <ele>809</ele>
        <time>2015-10-17T17:35:30Z</time>
      </trkpt>
      <trkpt lat="45.87169" lon="2.98146">
        <ele>810</ele>
        <time>2015-10-17T17:37:30Z</time>
      </trkpt>
      <trkpt lat="45.87132" lon="2.98086">
        <ele>812</ele>
        <time>2015-10-17T17:39:30Z</time>
      </trkpt>
      <trkpt lat="45.87114" lon="2.98045">
        <ele>814</ele>
        <time>2015-10-17T17:41:30Z</time>
      </trkpt>
      <trkpt lat="45.87114" lon="2.97994">
        <ele>815</ele>
        <time>2015-10-17T17:43:30Z</time>
      </trkpt>
      <trkpt lat="45.87096" lon="2.97938">
        <ele>818</ele>
        <time>2015-10-17T17:45:30Z</time>
      </trkpt>
      <trkpt lat="45.87093" lon="2.97897">
        <ele>820</ele>
        <time>2015-10-17T17:47:30Z</time>
      </trkpt>
      <trkpt lat="45.87099" lon="2.9785">
        <ele>821</ele>
        <time>2015-10-17T17:49:30Z</time>
      </trkpt>
      <trkpt lat="45.87089" lon="2.97826">
        <ele>823</ele>
        <time>2015-10-17T17:51:30Z</time>
      </trkpt>
      <trkpt lat="45.8708" lon="2.97768">
        <ele>825</ele>
        <time>2015-10-17T17:53:30Z</time>
      </trkpt>
      <trkpt lat="45.87083" lon="2.9768">
        <ele>825</ele>
        <time>2015-10-17T17:55:30Z</time>
      </trkpt>
      <trkpt lat="45.87089" lon="2.97627">
        <ele>824</ele>
        <time>2015-10-17T17:57:30Z</time>
      </trkpt>
      <trkpt lat="45.87108" lon="2.97586">
        <ele>823</ele>
        <time>2015-10-17T17:59:30Z</time>
      </trkpt>
      <trkpt lat="45.87157" lon="2.97603">
        <ele>822</ele>
        <time>2015-10-17T18:01:30Z</time>
      </trkpt>
      <trkpt lat="45.87198" lon="2.97631">
        <ele>820</ele>
        <time>2015-10-17T18:03:30Z</time>
      </trkpt>
      <trkpt lat="45.87265" lon="2.97672">
        <ele>818</ele>
        <time>2015-10-17T18:05:30Z</time>
      </trkpt>
      <trkpt lat="45.87289" lon="2.977">
        <ele>817</ele>
        <time>2015-10-17T18:07:30Z</time>
      </trkpt>
      <trkpt lat="45.87334" lon="2.97728">
        <ele>817</ele>
        <time>2015-10-17T18:09:30Z</time>
      </trkpt>
      <trkpt lat="45.87329" lon="2.97676">
        <ele>816</ele>
        <time>2015-10-17T18:11:30Z</time>
      </trkpt>
      <trkpt lat="45.87311" lon="2.97631">
        <ele>817</ele>
        <time>2015-10-17T18:13:30Z</time>
      </trkpt>
      <trkpt lat="45.87304" lon="2.9761">
        <ele>818</ele>
        <time>2015-10-17T18:15:30Z</time>
      </trkpt>
      <trkpt lat="45.87295" lon="2.97577">
        <ele>819</ele>
        <time>2015-10-17T18:17:30Z</time>
      </trkpt>
      <trkpt lat="45.87287" lon="2.9753">
        <ele>820</ele>
        <time>2015-10-17T18:19:30Z</time>
      </trkpt>
      <trkpt lat="45.87278" lon="2.97487">
        <ele>820</ele>
        <time>2015-10-17T18:21:30Z</time>
      </trkpt>
      <trkpt lat="45.87274" lon="2.97457">
        <ele>820</ele>
        <time>2015-10-17T18:23:30Z</time>
      </trkpt>
      <trkpt lat="45.87263" lon="2.97425">
        <ele>820</ele>
        <time>2015-10-17T18:25:30Z</time>
      </trkpt>
      <trkpt lat="45.87248" lon="2.97369">
        <ele>820</ele>
        <time>2015-10-17T18:27:30Z</time>
      </trkpt>
      <trkpt lat="45.87232" lon="2.97307">
        <ele>822</ele>
        <time>2015-10-17T18:29:30Z</time>
      </trkpt>
      <trkpt lat="45.8722" lon="2.97256">
        <ele>824</ele>
        <time>2015-10-17T18:31:30Z</time>
      </trkpt>
      <trkpt lat="45.87183" lon="2.97174">
        <ele>829</ele>
        <time>2015-10-17T18:33:30Z</time>
      </trkpt>
      <trkpt lat="45.87168" lon="2.9715">
        <ele>830</ele>
        <time>2015-10-17T18:35:30Z</time>
      </trkpt>
      <trkpt lat="45.87159" lon="2.97129">
        <ele>831</ele>
        <time>2015-10-17T18:37:30Z</time>
      </trkpt>
      <trkpt lat="45.87132" lon="2.97082">
        <ele>832</ele>
        <time>2015-10-17T18:39:30Z</time>
      </trkpt>
      <trkpt lat="45.87111" lon="2.97035">
        <ele>834</ele>
        <time>2015-10-17T18:41:30Z</time>
      </trkpt>
      <trkpt lat="45.87099" lon="2.9699">
        <ele>835</ele>
        <time>2015-10-17T18:43:30Z</time>
      </trkpt>
      <trkpt lat="45.87086" lon="2.96927">
        <ele>837</ele>
        <time>2015-10-17T18:45:30Z</time>
      </trkpt>
      <trkpt lat="45.87078" lon="2.96867">
        <ele>838</ele>
        <time>2015-10-17T18:47:30Z</time>
      </trkpt>
      <trkpt lat="45.87069" lon="2.96803">
        <ele>840</ele>
        <time>2015-10-17T18:49:30Z</time>
      </trkpt>
      <trkpt lat="45.87057" lon="2.96736">
        <ele>842</ele>
        <time>2015-10-17T18:51:30Z</time>
      </trkpt>
      <trkpt lat="45.87051" lon="2.96696">
        <ele>843</ele>
        <time>2015-10-17T18:53:30Z</time>
      </trkpt>
      <trkpt lat="45.87045" lon="2.96646">
        <ele>844</ele>
        <time>2015-10-17T18:55:30Z</time>
      </trkpt>
      <trkpt lat="45.87041" lon="2.96603">
        <ele>844</ele>
        <time>2015-10-17T18:57:30Z</time>
      </trkpt>
      <trkpt lat="45.87029" lon="2.96541">
        <ele>845</ele>
        <time>2015-10-17T18:59:30Z</time>
      </trkpt>
      <trkpt lat="45.87021" lon="2.96468">
        <ele>845</ele>
        <time>2015-10-17T19:01:30Z</time>
      </trkpt>
      <trkpt lat="45.87011" lon="2.96425">
        <ele>846</ele>
        <time>2015-10-17T19:03:30Z</time>
      </trkpt>
      <trkpt lat="45.87002" lon="2.9635">
        <ele>849</ele>
        <time>2015-10-17T19:05:30Z</time>
      </trkpt>
      <trkpt lat="45.86991" lon="2.9632">
        <ele>850</ele>
        <time>2015-10-17T19:07:30Z</time>
      </trkpt>
      <trkpt lat="45.86984" lon="2.96284">
        <ele>850</ele>
        <time>2015-10-17T19:09:30Z</time>
      </trkpt>
      <trkpt lat="45.86966" lon="2.96238">
        <ele>851</ele>
        <time>2015-10-17T19:11:30Z</time>
      </trkpt>
      <trkpt lat="45.86953" lon="2.96206">
        <ele>851</ele>
        <time>2015-10-17T19:13:30Z</time>
      </trkpt>
      <trkpt lat="45.86939" lon="2.96172">
        <ele>852</ele>
        <time>2015-10-17T19:15:30Z</time>
      </trkpt>
      <trkpt lat="45.86924" lon="2.96142">
        <ele>852</ele>
        <time>2015-10-17T19:17:30Z</time>
      </trkpt>
      <trkpt lat="45.86914" lon="2.9612">
        <ele>852</ele>
        <time>2015-10-17T19:19:30Z</time>
      </trkpt>
      <trkpt lat="45.869" lon="2.96095">
        <ele>852</ele>
        <time>2015-10-17T19:21:30Z</time>
      </trkpt>
      <trkpt lat="45.869" lon="2.96058">
        <ele>853</ele>
        <time>2015-10-17T19:23:30Z</time>
      </trkpt>
      <trkpt lat="45.86903" lon="2.96028">
        <ele>854</ele>
        <time>2015-10-17T19:25:30Z</time>
      </trkpt>
      <trkpt lat="45.8692" lon="2.95998">
        <ele>855</ele>
        <time>2015-10-17T19:27:30Z</time>
      </trkpt>
      <trkpt lat="45.86938" lon="2.95968">
        <ele>860</ele>
        <time>2015-10-17T19:29:30Z</time>
      </trkpt>
      <trkpt lat="45.87003" lon="2.95921">
        <ele>868</ele>
        <time>2015-10-17T19:31:30Z</time>
      </trkpt>
      <trkpt lat="45.87065" lon="2.95874">
        <ele>883</ele>
        <time>2015-10-17T19:33:30Z</time>
      </trkpt>
      <trkpt lat="45.87111" lon="2.95809">
        <ele>893</ele>
        <time>2015-10-17T19:35:30Z</time>
      </trkpt>
      <trkpt lat="45.87163" lon="2.95756">
        <ele>897</ele>
        <time>2015-10-17T19:37:30Z</time>
      </trkpt>
      <trkpt lat="45.87202" lon="2.95726">
        <ele>899</ele>
        <time>2015-10-17T19:39:30Z</time>
      </trkpt>
      <trkpt lat="45.87242" lon="2.95689">
        <ele>896</ele>
        <time>2015-10-17T19:41:30Z</time>
      </trkpt>
      <trkpt lat="45.87286" lon="2.95625">
        <ele>891</ele>
        <time>2015-10-17T19:43:30Z</time>
      </trkpt>
      <trkpt lat="45.87307" lon="2.95586">
        <ele>889</ele>
        <time>2015-10-17T19:45:30Z</time>
      </trkpt>
      <trkpt lat="45.8732" lon="2.95528">
        <ele>889</ele>
        <time>2015-10-17T19:47:30Z</time>
      </trkpt>
      <trkpt lat="45.87329" lon="2.95447">
        <ele>891</ele>
        <time>2015-10-17T19:49:30Z</time>
      </trkpt>
      <trkpt lat="45.87334" lon="2.95387">
        <ele>892</ele>
        <time>2015-10-17T19:51:30Z</time>
      </trkpt>
      <trkpt lat="45.87346" lon="2.95329">
        <ele>894</ele>
        <time>2015-10-17T19:53:30Z</time>
      </trkpt>
      <trkpt lat="45.8736" lon="2.95284">
        <ele>890</ele>
        <time>2015-10-17T19:55:30Z</time>
      </trkpt>
      <trkpt lat="45.87387" lon="2.95241">
        <ele>888</ele>
        <time>2015-10-17T19:57:30Z</time>
      </trkpt>
      <trkpt lat="45.87428" lon="2.952">
        <ele>887</ele>
        <time>2015-10-17T19:59:30Z</time>
      </trkpt>
      <trkpt lat="45.87495" lon="2.95166">
        <ele>887</ele>
        <time>2015-10-17T20:01:30Z</time>
      </trkpt>
      <trkpt lat="45.87511" lon="2.95125">
        <ele>884</ele>
        <time>2015-10-17T20:03:30Z</time>
      </trkpt>
      <trkpt lat="45.87544" lon="2.95088">
        <ele>880</ele>
        <time>2015-10-17T20:05:30Z</time>
      </trkpt>
      <trkpt lat="45.87583" lon="2.95084">
        <ele>877</ele>
        <time>2015-10-17T20:07:30Z</time>
      </trkpt>
      <trkpt lat="45.87611" lon="2.95121">
        <ele>876</ele>
        <time>2015-10-17T20:09:30Z</time>
      </trkpt>
      <trkpt lat="45.87652" lon="2.95166">
        <ele>877</ele>
        <time>2015-10-17T20:11:30Z</time>
      </trkpt>
      <trkpt lat="45.8765" lon="2.95112">
        <ele>870</ele>
        <time>2015-10-17T20:13:30Z</time>
      </trkpt>
      <trkpt lat="45.87683" lon="2.95073">
        <ele>864</ele>
        <time>2015-10-17T20:15:30Z</time>
      </trkpt>
      <trkpt lat="45.87709" lon="2.95035">
        <ele>866</ele>
        <time>2015-10-17T20:17:30Z</time>
      </trkpt>
      <trkpt lat="45.87712" lon="2.94998">
        <ele>866</ele>
        <time>2015-10-17T20:19:30Z</time>
      </trkpt>
      <trkpt lat="45.87707" lon="2.94945">
        <ele>866</ele>
        <time>2015-10-17T20:21:30Z</time>
      </trkpt>
      <trkpt lat="45.87698" lon="2.94902">
        <ele>865</ele>
        <time>2015-10-17T20:23:30Z</time>
      </trkpt>
      <trkpt lat="45.87689" lon="2.94829">
        <ele>858</ele>
        <time>2015-10-17T20:25:30Z</time>
      </trkpt>
      <trkpt lat="45.87691" lon="2.94788">
        <ele>854</ele>
        <time>2015-10-17T20:27:30Z</time>
      </trkpt>
      <trkpt lat="45.87683" lon="2.9476">
        <ele>852</ele>
        <time>2015-10-17T20:29:30Z</time>
      </trkpt>
      <trkpt lat="45.87723" lon="2.94719">
        <ele>841</ele>
        <time>2015-10-17T20:31:30Z</time>
      </trkpt>
      <trkpt lat="45.87801" lon="2.94659">
        <ele>836</ele>
        <time>2015-10-17T20:33:30Z</time>
      </trkpt>
      <trkpt lat="45.87852" lon="2.94636">
        <ele>835</ele>
        <time>2015-10-17T20:35:30Z</time>
      </trkpt>
      <trkpt lat="45.8791" lon="2.94616">
        <ele>834</ele>
        <time>2015-10-17T20:37:30Z</time>
      </trkpt>
      <trkpt lat="45.87954" lon="2.94578">
        <ele>831</ele>
        <time>2015-10-17T20:39:30Z</time>
      </trkpt>
      <trkpt lat="45.87988" lon="2.94541">
        <ele>830</ele>
        <time>2015-10-17T20:41:30Z</time>
      </trkpt>
      <trkpt lat="45.8804" lon="2.94485">
        <ele>828</ele>
        <time>2015-10-17T20:43:30Z</time>
      </trkpt>
      <trkpt lat="45.88049" lon="2.94436">
        <ele>827</ele>
        <time>2015-10-17T20:45:30Z</time>
      </trkpt>
      <trkpt lat="45.88018" lon="2.94393">
        <ele>830</ele>
        <time>2015-10-17T20:47:30Z</time>
      </trkpt>
      <trkpt lat="45.87991" lon="2.94363">
        <ele>832</ele>
        <time>2015-10-17T20:49:30Z</time>
      </trkpt>
      <trkpt lat="45.87971" lon="2.94339">
        <ele>834</ele>
        <time>2015-10-17T20:51:30Z</time>
      </trkpt>
      <trkpt lat="45.87945" lon="2.94303">
        <ele>834</ele>
        <time>2015-10-17T20:53:30Z</time>
      </trkpt>
      <trkpt lat="45.87907" lon="2.94292">
        <ele>835</ele>
        <time>2015-10-17T20:55:30Z</time>
      </trkpt>
      <trkpt lat="45.87909" lon="2.94254">
        <ele>833</ele>
        <time>2015-10-17T20:57:30Z</time>
      </trkpt>
      <trkpt lat="45.87922" lon="2.94221">
        <ele>834</ele>
        <time>2015-10-17T20:59:30Z</time>
      </trkpt>
      <trkpt lat="45.87894" lon="2.94151">
        <ele>834</ele>
        <time>2015-10-17T21:01:30Z</time>
      </trkpt>
      <trkpt lat="45.87889" lon="2.94103">
        <ele>836</ele>
        <time>2015-10-17T21:03:30Z</time>
      </trkpt>
      <trkpt lat="45.87882" lon="2.94052">
        <ele>838</ele>
        <time>2015-10-17T21:05:30Z</time>
      </trkpt>
      <trkpt lat="45.87815" lon="2.94011">
        <ele>837</ele>
        <time>2015-10-17T21:07:30Z</time>
      </trkpt>
      <trkpt lat="45.87782" lon="2.94003">
        <ele>838</ele>
        <time>2015-10-17T21:09:30Z</time>
      </trkpt>
      <trkpt lat="45.87725" lon="2.9396">
        <ele>844</ele>
        <time>2015-10-17T21:11:30Z</time>
      </trkpt>
      <trkpt lat="45.87692" lon="2.93949">
        <ele>847</ele>
        <time>2015-10-17T21:13:30Z</time>
      </trkpt>
      <trkpt lat="45.87649" lon="2.93943">
        <ele>848</ele>
        <time>2015-10-17T21:15:30Z</time>
      </trkpt>
      <trkpt lat="45.8761" lon="2.9393">
        <ele>848</ele>
        <time>2015-10-17T21:17:30Z</time>
      </trkpt>
      <trkpt lat="45.8758" lon="2.93915">
        <ele>849</ele>
        <time>2015-10-17T21:19:30Z</time>
      </trkpt>
      <trkpt lat="45.8755" lon="2.93981">
        <ele>847</ele>
        <time>2015-10-17T21:21:30Z</time>
      </trkpt>
      <trkpt lat="45.87544" lon="2.94028">
        <ele>848</ele>
        <time>2015-10-17T21:23:30Z</time>
      </trkpt>
      <trkpt lat="45.87549" lon="2.94101">
        <ele>849</ele>
        <time>2015-10-17T21:25:30Z</time>
      </trkpt>
      <trkpt lat="45.87567" lon="2.94185">
        <ele>850</ele>
        <time>2015-10-17T21:27:30Z</time>
      </trkpt>
      <trkpt lat="45.87556" lon="2.94236">
        <ele>851</ele>
        <time>2015-10-17T21:29:30Z</time>
      </trkpt>
      <trkpt lat="45.87541" lon="2.94288">
        <ele>852</ele>
        <time>2015-10-17T21:31:30Z</time>
      </trkpt>
      <trkpt lat="45.87532" lon="2.94329">
        <ele>852</ele>
        <time>2015-10-17T21:33:30Z</time>
      </trkpt>
      <trkpt lat="45.87501" lon="2.94378">
        <ele>855</ele>
        <time>2015-10-17T21:35:30Z</time>
      </trkpt>
      <trkpt lat="45.87489" lon="2.94404">
        <ele>856</ele>
        <time>2015-10-17T21:37:30Z</time>
      </trkpt>
      <trkpt lat="45.87453" lon="2.94468">
        <ele>860</ele>
        <time>2015-10-17T21:39:30Z</time>
      </trkpt>
      <trkpt lat="45.87434" lon="2.94488">
        <ele>862</ele>
        <time>2015-10-17T21:41:30Z</time>
      </trkpt>
      <trkpt lat="45.87411" lon="2.9453">
        <ele>866</ele>
        <time>2015-10-17T21:43:30Z</time>
      </trkpt>
      <trkpt lat="45.87395" lon="2.94556">
        <ele>869</ele>
        <time>2015-10-17T21:45:30Z</time>
      </trkpt>
      <trkpt lat="45.87354" lon="2.94623">
        <ele>876</ele>
        <time>2015-10-17T21:47:30Z</time>
      </trkpt>
      <trkpt lat="45.87337" lon="2.9467">
        <ele>879</ele>
        <time>2015-10-17T21:49:30Z</time>
      </trkpt>
      <trkpt lat="45.87323" lon="2.94711">
        <ele>879</ele>
        <time>2015-10-17T21:51:30Z</time>
      </trkpt>
      <trkpt lat="45.87322" lon="2.9476">
        <ele>879</ele>
        <time>2015-10-17T21:53:30Z</time>
      </trkpt>
      <trkpt lat="45.8731" lon="2.94807">
        <ele>879</ele>
        <time>2015-10-17T21:55:30Z</time>
      </trkpt>
      <trkpt lat="45.87299" lon="2.94852">
        <ele>879</ele>
        <time>2015-10-17T21:57:30Z</time>
      </trkpt>
      <trkpt lat="45.87286" lon="2.94893">
        <ele>881</ele>
        <time>2015-10-17T21:59:30Z</time>
      </trkpt>
      <trkpt lat="45.87256" lon="2.94955">
        <ele>883</ele>
        <time>2015-10-17T22:01:30Z</time>
      </trkpt>
      <trkpt lat="45.87226" lon="2.94983">
        <ele>884</ele>
        <time>2015-10-17T22:03:30Z</time>
      </trkpt>
      <trkpt lat="45.87205" lon="2.95009">
        <ele>886</ele>
        <time>2015-10-17T22:05:30Z</time>
      </trkpt>
      <trkpt lat="45.87159" lon="2.9506">
        <ele>890</ele>
        <time>2015-10-17T22:07:30Z</time>
      </trkpt>
      <trkpt lat="45.87129" lon="2.95084">
        <ele>893</ele>
        <time>2015-10-17T22:09:30Z</time>
      </trkpt>
      <trkpt lat="45.87089" lon="2.95106">
        <ele>897</ele>
        <time>2015-10-17T22:11:30Z</time>
      </trkpt>
      <trkpt lat="45.87027" lon="2.95108">
        <ele>899</ele>
        <time>2015-10-17T22:13:30Z</time>
      </trkpt>
      <trkpt lat="45.87002" lon="2.95103">
        <ele>899</ele>
        <time>2015-10-17T22:15:30Z</time>
      </trkpt>
      <trkpt lat="45.86976" lon="2.95123">
        <ele>900</ele>
        <time>2015-10-17T22:17:30Z</time>
      </trkpt>
      <trkpt lat="45.86926" lon="2.95161">
        <ele>900</ele>
        <time>2015-10-17T22:19:30Z</time>
      </trkpt>
      <trkpt lat="45.86902" lon="2.95168">
        <ele>900</ele>
        <time>2015-10-17T22:21:30Z</time>
      </trkpt>
      <trkpt lat="45.86879" lon="2.95181">
        <ele>900</ele>
        <time>2015-10-17T22:23:30Z</time>
      </trkpt>
      <trkpt lat="45.86867" lon="2.95196">
        <ele>901</ele>
        <time>2015-10-17T22:25:30Z</time>
      </trkpt>
      <trkpt lat="45.86858" lon="2.95215">
        <ele>901</ele>
        <time>2015-10-17T22:27:30Z</time>
      </trkpt>
      <trkpt lat="45.86841" lon="2.95256">
        <ele>902</ele>
        <time>2015-10-17T22:29:30Z</time>
      </trkpt>
      <trkpt lat="45.86812" lon="2.95284">
        <ele>904</ele>
        <time>2015-10-17T22:31:30Z</time>
      </trkpt>
      <trkpt lat="45.86797" lon="2.95305">
        <ele>906</ele>
        <time>2015-10-17T22:33:30Z</time>
      </trkpt>
      <trkpt lat="45.86764" lon="2.95314">
        <ele>910</ele>
        <time>2015-10-17T22:35:30Z</time>
      </trkpt>
      <trkpt lat="45.86761" lon="2.9526">
        <ele>908</ele>
        <time>2015-10-17T22:37:30Z</time>
      </trkpt>
      <trkpt lat="45.86752" lon="2.95176">
        <ele>908</ele>
        <time>2015-10-17T22:39:30Z</time>
      </trkpt>
      <trkpt lat="45.86766" lon="2.95106">
        <ele>904</ele>
        <time>2015-10-17T22:41:30Z</time>
      </trkpt>
      <trkpt lat="45.86767" lon="2.95069">
        <ele>903</ele>
        <time>2015-10-17T22:43:30Z</time>
      </trkpt>
      <trkpt lat="45.86772" lon="2.95022">
        <ele>900</ele>
        <time>2015-10-17T22:45:30Z</time>
      </trkpt>
      <trkpt lat="45.86779" lon="2.94975">
        <ele>897</ele>
        <time>2015-10-17T22:47:30Z</time>
      </trkpt>
      <trkpt lat="45.86787" lon="2.94936">
        <ele>894</ele>
        <time>2015-10-17T22:49:30Z</time>
      </trkpt>
      <trkpt lat="45.86814" lon="2.94844">
        <ele>889</ele>
        <time>2015-10-17T22:51:30Z</time>
      </trkpt>
      <trkpt lat="45.868" lon="2.94764">
        <ele>886</ele>
        <time>2015-10-17T22:53:30Z</time>
      </trkpt>
      <trkpt lat="45.86793" lon="2.94685">
        <ele>884</ele>
        <time>2015-10-17T22:55:30Z</time>
      </trkpt>
      <trkpt lat="45.86787" lon="2.94603">
        <ele>879</ele>
        <time>2015-10-17T22:57:30Z</time>
      </trkpt>
      <trkpt lat="45.86793" lon="2.94563">
        <ele>876</ele>
        <time>2015-10-17T22:59:30Z</time>
      </trkpt>
      <trkpt lat="45.86758" lon="2.94533">
        <ele>874</ele>
        <time>2015-10-17T23:01:30Z</time>
      </trkpt>
      <trkpt lat="45.86702" lon="2.94498">
        <ele>872</ele>
        <time>2015-10-17T23:03:30Z</time>
      </trkpt>
      <trkpt lat="45.86664" lon="2.94468">
        <ele>873</ele>
        <time>2015-10-17T23:05:30Z</time>
      </trkpt>
      <trkpt lat="45.86636" lon="2.94438">
        <ele>871</ele>
        <time>2015-10-17T23:07:30Z</time>
      </trkpt>
      <trkpt lat="45.86604" lon="2.94397">
        <ele>869</ele>
        <time>2015-10-17T23:09:30Z</time>
      </trkpt>
      <trkpt lat="45.86575" lon="2.94365">
        <ele>867</ele>
        <time>2015-10-17T23:11:30Z</time>
      </trkpt>
      <trkpt lat="45.8654" lon="2.94314">
        <ele>867</ele>
        <time>2015-10-17T23:13:30Z</time>
      </trkpt>
      <trkpt lat="45.86501" lon="2.94254">
        <ele>868</ele>
        <time>2015-10-17T23:15:30Z</time>
      </trkpt>
      <trkpt lat="45.86474" lon="2.94211">
        <ele>871</ele>
        <time>2015-10-17T23:17:30Z</time>
      </trkpt>
      <trkpt lat="45.86445" lon="2.94174">
        <ele>874</ele>
        <time>2015-10-17T23:19:30Z</time>
      </trkpt>
      <trkpt lat="45.86391" lon="2.94101">
        <ele>872</ele>
        <time>2015-10-17T23:21:30Z</time>
      </trkpt>
      <trkpt lat="45.86353" lon="2.94054">
        <ele>870</ele>
        <time>2015-10-17T23:23:30Z</time>
      </trkpt>
      <trkpt lat="45.863" lon="2.9399">
        <ele>867</ele>
        <time>2015-10-17T23:25:30Z</time>
      </trkpt>
      <trkpt lat="45.86283" lon="2.93947">
        <ele>865</ele>
        <time>2015-10-17T23:27:30Z</time>
      </trkpt>
      <trkpt lat="45.86279" lon="2.93919">
        <ele>864</ele>
        <time>2015-10-17T23:29:30Z</time>
      </trkpt>
      <trkpt lat="45.86286" lon="2.93846">
        <ele>861</ele>
        <time>2015-10-17T23:31:30Z</time>
      </trkpt>
      <trkpt lat="45.86301" lon="2.9379">
        <ele>861</ele>
        <time>2015-10-17T23:33:30Z</time>
      </trkpt>
      <trkpt lat="45.86321" lon="2.93706">
        <ele>860</ele>
        <time>2015-10-17T23:35:30Z</time>
      </trkpt>
      <trkpt lat="45.86334" lon="2.93649">
        <ele>860</ele>
        <time>2015-10-17T23:37:30Z</time>
      </trkpt>
      <trkpt lat="45.86343" lon="2.93591">
        <ele>861</ele>
        <time>2015-10-17T23:39:30Z</time>
      </trkpt>
      <trkpt lat="45.86356" lon="2.9352">
        <ele>865</ele>
        <time>2015-10-17T23:41:30Z</time>
      </trkpt>
      <trkpt lat="45.86341" lon="2.93434">
        <ele>868</ele>
        <time>2015-10-17T23:43:30Z</time>
      </trkpt>
      <trkpt lat="45.86321" lon="2.93361">
        <ele>866</ele>
        <time>2015-10-17T23:45:30Z</time>
      </trkpt>
      <trkpt lat="45.86301" lon="2.93264">
        <ele>864</ele>
        <time>2015-10-17T23:47:30Z</time>
      </trkpt>
      <trkpt lat="45.86279" lon="2.93204">
        <ele>864</ele>
        <time>2015-10-17T23:49:30Z</time>
      </trkpt>
      <trkpt lat="45.86253" lon="2.93183">
        <ele>864</ele>
        <time>2015-10-17T23:51:30Z</time>
      </trkpt>
      <trkpt lat="45.86201" lon="2.93179">
        <ele>868</ele>
        <time>2015-10-17T23:53:30Z</time>
      </trkpt>
      <trkpt lat="45.8618" lon="2.93198">
        <ele>872</ele>
        <time>2015-10-17T23:55:30Z</time>
      </trkpt>
      <trkpt lat="45.86159" lon="2.93215">
        <ele>875</ele>
        <time>2015-10-17T23:57:30Z</time>
      </trkpt>
      <trkpt lat="45.86129" lon="2.93217">
        <ele>875</ele>
        <time>2015-10-17T23:59:30Z</time>
      </trkpt>
      <trkpt lat="45.86089" lon="2.93232">
        <ele>878</ele>
        <time>2015-10-18T00:01:30Z</time>
      </trkpt>
      <trkpt lat="45.86044" lon="2.93222">
        <ele>878</ele>
        <time>2015-10-18T00:03:30Z</time>
      </trkpt>
      <trkpt lat="45.86019" lon="2.93202">
        <ele>877</ele>
        <time>2015-10-18T00:05:30Z</time>
      </trkpt>
      <trkpt lat="45.86005" lon="2.93093">
        <ele>877</ele>
        <time>2015-10-18T00:07:30Z</time>
      </trkpt>
      <trkpt lat="45.8602" lon="2.93024">
        <ele>877</ele>
        <time>2015-10-18T00:09:30Z</time>
      </trkpt>
      <trkpt lat="45.86031" lon="2.92975">
        <ele>878</ele>
        <time>2015-10-18T00:11:30Z</time>
      </trkpt>
      <trkpt lat="45.86037" lon="2.92923">
        <ele>879</ele>
        <time>2015-10-18T00:13:30Z</time>
      </trkpt>
      <trkpt lat="45.8604" lon="2.92893">
        <ele>880</ele>
        <time>2015-10-18T00:15:30Z</time>
      </trkpt>
      <trkpt lat="45.86037" lon="2.9285">
        <ele>882</ele>
        <time>2015-10-18T00:17:30Z</time>
      </trkpt>
      <trkpt lat="45.86043" lon="2.9278">
        <ele>881</ele>
        <time>2015-10-18T00:19:30Z</time>
      </trkpt>
      <trkpt lat="45.86025" lon="2.92717">
        <ele>882</ele>
        <time>2015-10-18T00:21:30Z</time>
      </trkpt>
      <trkpt lat="45.86017" lon="2.92649">
        <ele>881</ele>
        <time>2015-10-18T00:23:30Z</time>
      </trkpt>
      <trkpt lat="45.86017" lon="2.92531">
        <ele>878</ele>
        <time>2015-10-18T00:25:30Z</time>
      </trkpt>
      <trkpt lat="45.8602" lon="2.9246">
        <ele>878</ele>
        <time>2015-10-18T00:27:30Z</time>
      </trkpt>
      <trkpt lat="45.86007" lon="2.92415">
        <ele>879</ele>
        <time>2015-10-18T00:29:30Z</time>
      </trkpt>
      <trkpt lat="45.85981" lon="2.9238">
        <ele>880</ele>
        <time>2015-10-18T00:31:30Z</time>
      </trkpt>
      <trkpt lat="45.85969" lon="2.9234">
        <ele>880</ele>
        <time>2015-10-18T00:33:30Z</time>
      </trkpt>
      <trkpt lat="45.85963" lon="2.92271">
        <ele>879</ele>
        <time>2015-10-18T00:35:30Z</time>
      </trkpt>
      <trkpt lat="45.85968" lon="2.92207">
        <ele>878</ele>
        <time>2015-10-18T00:37:30Z</time>
      </trkpt>
      <trkpt lat="45.85956" lon="2.92179">
        <ele>879</ele>
        <time>2015-10-18T00:39:30Z</time>
      </trkpt>
      <trkpt lat="45.85945" lon="2.92131">
        <ele>879</ele>
        <time>2015-10-18T00:41:30Z</time>
      </trkpt>
      <trkpt lat="45.8594" lon="2.92106">
        <ele>879</ele>
        <time>2015-10-18T00:43:30Z</time>
      </trkpt>
      <trkpt lat="45.85916" lon="2.92116">
        <ele>879</ele>
        <time>2015-10-18T00:45:30Z</time>
      </trkpt>
      <trkpt lat="45.85869" lon="2.92116">
        <ele>884</ele>
        <time>2015-10-18T00:47:30Z</time>
      </trkpt>
      <trkpt lat="45.85856" lon="2.92142">
        <ele>885</ele>
        <time>2015-10-18T00:49:30Z</time>
      </trkpt>
      <trkpt lat="45.85823" lon="2.92171">
        <ele>889</ele>
        <time>2015-10-18T00:51:30Z</time>
      </trkpt>
      <trkpt lat="45.85801" lon="2.92188">
        <ele>890</ele>
        <time>2015-10-18T00:53:30Z</time>
      </trkpt>
      <trkpt lat="45.85771" lon="2.92211">
        <ele>891</ele>
        <time>2015-10-18T00:55:30Z</time>
      </trkpt>
      <trkpt lat="45.8574" lon="2.92226">
        <ele>892</ele>
        <time>2015-10-18T00:57:30Z</time>
      </trkpt>
      <trkpt lat="45.85687" lon="2.92247">
        <ele>893</ele>
        <time>2015-10-18T00:59:30Z</time>
      </trkpt>
      <trkpt lat="45.85658" lon="2.92202">
        <ele>894</ele>
        <time>2015-10-18T01:01:30Z</time>
      </trkpt>
      <trkpt lat="45.85638" lon="2.92176">
        <ele>894</ele>
        <time>2015-10-18T01:03:30Z</time>
      </trkpt>
      <trkpt lat="45.85622" lon="2.9213">
        <ele>895</ele>
        <time>2015-10-18T01:05:30Z</time>
      </trkpt>
      <trkpt lat="45.85598" lon="2.92099">
        <ele>894</ele>
        <time>2015-10-18T01:07:30Z</time>
      </trkpt>
      <trkpt lat="45.85579" lon="2.92054">
        <ele>894</ele>
        <time>2015-10-18T01:09:30Z</time>
      </trkpt>
      <trkpt lat="45.85564" lon="2.92028">
        <ele>894</ele>
        <time>2015-10-18T01:11:30Z</time>
      </trkpt>
      <trkpt lat="45.8555" lon="2.91987">
        <ele>893</ele>
        <time>2015-10-18T01:13:30Z</time>
      </trkpt>
      <trkpt lat="45.8553" lon="2.91971">
        <ele>892</ele>
        <time>2015-10-18T01:15:30Z</time>
      </trkpt>
      <trkpt lat="45.85504" lon="2.91947">
        <ele>891</ele>
        <time>2015-10-18T01:17:30Z</time>
      </trkpt>
      <trkpt lat="45.85481" lon="2.91916">
        <ele>891</ele>
        <time>2015-10-18T01:19:30Z</time>
      </trkpt>
      <trkpt lat="45.85453" lon="2.91859">
        <ele>891</ele>
        <time>2015-10-18T01:21:30Z</time>
      </trkpt>
      <trkpt lat="45.85438" lon="2.91837">
        <ele>890</ele>
        <time>2015-10-18T01:23:30Z</time>
      </trkpt>
      <trkpt lat="45.85426" lon="2.91802">
        <ele>891</ele>
        <time>2015-10-18T01:25:30Z</time>
      </trkpt>
      <trkpt lat="45.85406" lon="2.91771">
        <ele>891</ele>
        <time>2015-10-18T01:27:30Z</time>
      </trkpt>
      <trkpt lat="45.85395" lon="2.91717">
        <ele>889</ele>
        <time>2015-10-18T01:29:30Z</time>
      </trkpt>
      <trkpt lat="45.85386" lon="2.91648">
        <ele>886</ele>
        <time>2015-10-18T01:31:30Z</time>
      </trkpt>
      <trkpt lat="45.85388" lon="2.91605">
        <ele>886</ele>
        <time>2015-10-18T01:33:30Z</time>
      </trkpt>
      <trkpt lat="45.85351" lon="2.91583">
        <ele>886</ele>
        <time>2015-10-18T01:35:30Z</time>
      </trkpt>
      <trkpt lat="45.8532" lon="2.91531">
        <ele>886</ele>
        <time>2015-10-18T01:37:30Z</time>
      </trkpt>
      <trkpt lat="45.85275" lon="2.9144">
        <ele>884</ele>
        <time>2015-10-18T01:39:30Z</time>
      </trkpt>
      <trkpt lat="45.85252" lon="2.91407">
        <ele>883</ele>
        <time>2015-10-18T01:41:30Z</time>
      </trkpt>
      <trkpt lat="45.85253" lon="2.91347">
        <ele>881</ele>
        <time>2015-10-18T01:43:30Z</time>
      </trkpt>
      <trkpt lat="45.85238" lon="2.91321">
        <ele>880</ele>
        <time>2015-10-18T01:45:30Z</time>
      </trkpt>
      <trkpt lat="45.85214" lon="2.91333">
        <ele>880</ele>
        <time>2015-10-18T01:47:30Z</time>
      </trkpt>
      <trkpt lat="45.85172" lon="2.91371">
        <ele>880</ele>
        <time>2015-10-18T01:49:30Z</time>
      </trkpt>
      <trkpt lat="45.8515" lon="2.91407">
        <ele>881</ele>
        <time>2015-10-18T01:51:30Z</time>
      </trkpt>
      <trkpt lat="45.85129" lon="2.91438">
        <ele>881</ele>
        <time>2015-10-18T01:53:30Z</time>
      </trkpt>
      <trkpt lat="45.85057" lon="2.91486">
        <ele>880</ele>
        <time>2015-10-18T01:55:30Z</time>
      </trkpt>
      <trkpt lat="45.85028" lon="2.91517">
        <ele>879</ele>
        <time>2015-10-18T01:57:30Z</time>
      </trkpt>
      <trkpt lat="45.85019" lon="2.91605">
        <ele>880</ele>
        <time>2015-10-18T01:59:30Z</time>
      </trkpt>
      <trkpt lat="45.84998" lon="2.91664">
        <ele>881</ele>
        <time>2015-10-18T02:01:30Z</time>
      </trkpt>
      <trkpt lat="45.84968" lon="2.91706">
        <ele>882</ele>
        <time>2015-10-18T02:03:30Z</time>
      </trkpt>
      <trkpt lat="45.8493" lon="2.91734">
        <ele>882</ele>
        <time>2015-10-18T02:05:30Z</time>
      </trkpt>
      <trkpt lat="45.84904" lon="2.91792">
        <ele>882</ele>
        <time>2015-10-18T02:07:30Z</time>
      </trkpt>
      <trkpt lat="45.84879" lon="2.91873">
        <ele>880</ele>
        <time>2015-10-18T02:09:30Z</time>
      </trkpt>
      <trkpt lat="45.8487" lon="2.91932">
        <ele>881</ele>
        <time>2015-10-18T02:11:30Z</time>
      </trkpt>
      <trkpt lat="45.84856" lon="2.91987">
        <ele>882</ele>
        <time>2015-10-18T02:13:30Z</time>
      </trkpt>
      <trkpt lat="45.84816" lon="2.92018">
        <ele>883</ele>
        <time>2015-10-18T02:15:30Z</time>
      </trkpt>
      <trkpt lat="45.84786" lon="2.92044">
        <ele>884</ele>
        <time>2015-10-18T02:17:30Z</time>
      </trkpt>
      <trkpt lat="45.84748" lon="2.9208">
        <ele>885</ele>
        <time>2015-10-18T02:19:30Z</time>
      </trkpt>
      <trkpt lat="45.84719" lon="2.92113">
        <ele>885</ele>
        <time>2015-10-18T02:21:30Z</time>
      </trkpt>
      <trkpt lat="45.84696" lon="2.92152">
        <ele>886</ele>
        <time>2015-10-18T02:23:30Z</time>
      </trkpt>
      <trkpt lat="45.84663" lon="2.9219">
        <ele>886</ele>
        <time>2015-10-18T02:25:30Z</time>
      </trkpt>
      <trkpt lat="45.84631" lon="2.92249">
        <ele>887</ele>
        <time>2015-10-18T02:27:30Z</time>
      </trkpt>
      <trkpt lat="45.84604" lon="2.92304">
        <ele>887</ele>
        <time>2015-10-18T02:29:30Z</time>
      </trkpt>
      <trkpt lat="45.84563" lon="2.92371">
        <ele>885</ele>
        <time>2015-10-18T02:31:30Z</time>
      </trkpt>
      <trkpt lat="45.84528" lon="2.92418">
        <ele>882</ele>
        <time>2015-10-18T02:33:30Z</time>
      </trkpt>
      <trkpt lat="45.84496" lon="2.92471">
        <ele>880</ele>
        <time>2015-10-18T02:35:30Z</time>
      </trkpt>
      <trkpt lat="45.84457" lon="2.92516">
        <ele>878</ele>
        <time>2015-10-18T02:37:30Z</time>
      </trkpt>
      <trkpt lat="45.84413" lon="2.92542">
        <ele>876</ele>
        <time>2015-10-18T02:39:30Z</time>
      </trkpt>
      <trkpt lat="45.8438" lon="2.9253">
        <ele>876</ele>
        <time>2015-10-18T02:41:30Z</time>
      </trkpt>
      <trkpt lat="45.84335" lon="2.92514">
        <ele>876</ele>
        <time>2015-10-18T02:43:30Z</time>
      </trkpt>
      <trkpt lat="45.84304" lon="2.92509">
        <ele>877</ele>
        <time>2015-10-18T02:45:30Z</time>
      </trkpt>
      <trkpt lat="45.84279" lon="2.92545">
        <ele>877</ele>
        <time>2015-10-18T02:47:30Z</time>
      </trkpt>
      <trkpt lat="45.84259" lon="2.92576">
        <ele>876</ele>
        <time>2015-10-18T02:49:30Z</time>
      </trkpt>
      <trkpt lat="45.84227" lon="2.92647">
        <ele>877</ele>
        <time>2015-10-18T02:51:30Z</time>
      </trkpt>
      <trkpt lat="45.84196" lon="2.927">
        <ele>879</ele>
        <time>2015-10-18T02:53:30Z</time>
      </trkpt>
      <trkpt lat="45.84154" lon="2.92745">
        <ele>881</ele>
        <time>2015-10-18T02:55:30Z</time>
      </trkpt>
      <trkpt lat="45.84118" lon="2.92757">
        <ele>882</ele>
        <time>2015-10-18T02:57:30Z</time>
      </trkpt>
      <trkpt lat="45.84088" lon="2.92838">
        <ele>885</ele>
        <time>2015-10-18T02:59:30Z</time>
      </trkpt>
      <trkpt lat="45.84096" lon="2.92895">
        <ele>890</ele>
        <time>2015-10-18T03:01:30Z</time>
      </trkpt>
      <trkpt lat="45.84126" lon="2.92953">
        <ele>894</ele>
        <time>2015-10-18T03:03:30Z</time>
      </trkpt>
    </trkseg>
  </trk>
  <trk>
    <name><![CDATA[--Volvic-- OR-5370344:ser-fr02-b]]></name>
    <trkseg>
      <trkpt lat="45.87259" lon="2.99019">
        <ele>784</ele>
        <time>2015-10-17T14:41:24Z</time>
      </trkpt>
      <trkpt lat="45.8727" lon="2.98987">
        <ele>784</ele>
        <time>2015-10-17T14:43:24Z</time>
      </trkpt>
      <trkpt lat="45.87256" lon="2.98942">
        <ele>786</ele>
        <time>2015-10-17T14:45:24Z</time>
      </trkpt>
      <trkpt lat="45.87259" lon="2.98888">
        <ele>788</ele>
        <time>2015-10-17T14:47:24Z</time>
      </trkpt>
      <trkpt lat="45.87273" lon="2.98821">
        <ele>787</ele>
        <time>2015-10-17T14:49:24Z</time>
      </trkpt>
      <trkpt lat="45.87268" lon="2.98759">
        <ele>789</ele>
        <time>2015-10-17T14:51:24Z</time>
      </trkpt>
      <trkpt lat="45.87261" lon="2.98684">
        <ele>792</ele>
        <time>2015-10-17T14:53:24Z</time>
      </trkpt>
      <trkpt lat="45.87268" lon="2.98641">
        <ele>793</ele>
        <time>2015-10-17T14:55:24Z</time>
      </trkpt>
      <trkpt lat="45.87294" lon="2.9856">
        <ele>793</ele>
        <time>2015-10-17T14:57:24Z</time>
      </trkpt>
      <trkpt lat="45.87267" lon="2.9854">
        <ele>795</ele>
        <time>2015-10-17T14:59:24Z</time>
      </trkpt>
      <trkpt lat="45.87241" lon="2.9851">
        <ele>797</ele>
        <time>2015-10-17T15:01:24Z</time>
      </trkpt>
      <trkpt lat="45.87253" lon="2.98442">
        <ele>799</ele>
        <time>2015-10-17T15:03:24Z</time>
      </trkpt>
      <trkpt lat="45.87226" lon="2.98382">
        <ele>803</ele>
        <time>2015-10-17T15:05:24Z</time>
      </trkpt>
      <trkpt lat="45.87226" lon="2.98313">
        <ele>805</ele>
        <time>2015-10-17T15:07:24Z</time>
      </trkpt>
      <trkpt lat="45.87203" lon="2.98229">
        <ele>808</ele>
        <time>2015-10-17T15:09:24Z</time>
      </trkpt>
      <trkpt lat="45.87176" lon="2.98148">
        <ele>810</ele>
        <time>2015-10-17T15:11:24Z</time>
      </trkpt>
      <trkpt lat="45.87149" lon="2.98107">
        <ele>811</ele>
        <time>2015-10-17T15:13:24Z</time>
      </trkpt>
      <trkpt lat="45.87132" lon="2.98088">
        <ele>812</ele>
        <time>2015-10-17T15:15:24Z</time>
      </trkpt>
      <trkpt lat="45.87126" lon="2.98137">
        <ele>813</ele>
        <time>2015-10-17T15:17:24Z</time>
      </trkpt>
      <trkpt lat="45.87086" lon="2.98154">
        <ele>816</ele>
        <time>2015-10-17T15:19:24Z</time>
      </trkpt>
      <trkpt lat="45.8705" lon="2.98163">
        <ele>816</ele>
        <time>2015-10-17T15:21:24Z</time>
      </trkpt>
      <trkpt lat="45.87017" lon="2.98182">
        <ele>816</ele>
        <time>2015-10-17T15:23:24Z</time>
      </trkpt>
      <trkpt lat="45.86977" lon="2.98195">
        <ele>816</ele>
        <time>2015-10-17T15:25:24Z</time>
      </trkpt>
      <trkpt lat="45.86946" lon="2.9821">
        <ele>815</ele>
        <time>2015-10-17T15:27:24Z</time>
      </trkpt>
      <trkpt lat="45.86917" lon="2.98236">
        <ele>815</ele>
        <time>2015-10-17T15:29:24Z</time>
      </trkpt>
      <trkpt lat="45.86887" lon="2.9827">
        <ele>816</ele>
        <time>2015-10-17T15:31:24Z</time>
      </trkpt>
      <trkpt lat="45.86872" lon="2.98289">
        <ele>816</ele>
        <time>2015-10-17T15:33:24Z</time>
      </trkpt>
      <trkpt lat="45.86847" lon="2.98315">
        <ele>817</ele>
        <time>2015-10-17T15:35:24Z</time>
      </trkpt>
      <trkpt lat="45.86819" lon="2.98341">
        <ele>819</ele>
        <time>2015-10-17T15:37:24Z</time>
      </trkpt>
      <trkpt lat="45.86792" lon="2.98369">
        <ele>822</ele>
        <time>2015-10-17T15:39:24Z</time>
      </trkpt>
      <trkpt lat="45.86762" lon="2.98403">
        <ele>825</ele>
        <time>2015-10-17T15:41:24Z</time>
      </trkpt>
      <trkpt lat="45.86753" lon="2.98452">
        <ele>825</ele>
        <time>2015-10-17T15:43:24Z</time>
      </trkpt>
      <trkpt lat="45.86742" lon="2.98495">
        <ele>826</ele>
        <time>2015-10-17T15:45:24Z</time>
      </trkpt>
      <trkpt lat="45.8672" lon="2.98532">
        <ele>830</ele>
        <time>2015-10-17T15:47:24Z</time>
      </trkpt>
      <trkpt lat="45.86699" lon="2.98551">
        <ele>833</ele>
        <time>2015-10-17T15:49:24Z</time>
      </trkpt>
      <trkpt lat="45.86678" lon="2.9857">
        <ele>837</ele>
        <time>2015-10-17T15:51:24Z</time>
      </trkpt>
      <trkpt lat="45.86659" lon="2.98592">
        <ele>842</ele>
        <time>2015-10-17T15:53:24Z</time>
      </trkpt>
      <trkpt lat="45.86639" lon="2.98635">
        <ele>847</ele>
        <time>2015-10-17T15:55:24Z</time>
      </trkpt>
      <trkpt lat="45.86626" lon="2.98658">
        <ele>850</ele>
        <time>2015-10-17T15:57:24Z</time>
      </trkpt>
      <trkpt lat="45.8659" lon="2.9868">
        <ele>856</ele>
        <time>2015-10-17T15:59:24Z</time>
      </trkpt>
      <trkpt lat="45.86548" lon="2.98658">
        <ele>864</ele>
        <time>2015-10-17T16:01:24Z</time>
      </trkpt>
      <trkpt lat="45.86502" lon="2.98641">
        <ele>873</ele>
        <time>2015-10-17T16:03:24Z</time>
      </trkpt>
      <trkpt lat="45.86476" lon="2.98635">
        <ele>877</ele>
        <time>2015-10-17T16:05:24Z</time>
      </trkpt>
      <trkpt lat="45.86448" lon="2.9863">
        <ele>881</ele>
        <time>2015-10-17T16:07:24Z</time>
      </trkpt>
      <trkpt lat="45.86424" lon="2.98628">
        <ele>884</ele>
        <time>2015-10-17T16:09:24Z</time>
      </trkpt>
      <trkpt lat="45.86412" lon="2.98635">
        <ele>885</ele>
        <time>2015-10-17T16:11:24Z</time>
      </trkpt>
      <trkpt lat="45.86391" lon="2.9863">
        <ele>891</ele>
        <time>2015-10-17T16:13:24Z</time>
      </trkpt>
      <trkpt lat="45.86367" lon="2.9863">
        <ele>897</ele>
        <time>2015-10-17T16:15:24Z</time>
      </trkpt>
      <trkpt lat="45.86343" lon="2.98658">
        <ele>897</ele>
        <time>2015-10-17T16:17:24Z</time>
      </trkpt>
      <trkpt lat="45.86332" lon="2.98678">
        <ele>897</ele>
        <time>2015-10-17T16:19:24Z</time>
      </trkpt>
      <trkpt lat="45.86302" lon="2.98678">
        <ele>909</ele>
        <time>2015-10-17T16:21:24Z</time>
      </trkpt>
      <trkpt lat="45.8627" lon="2.9866">
        <ele>924</ele>
        <time>2015-10-17T16:23:24Z</time>
      </trkpt>
      <trkpt lat="45.86242" lon="2.98658">
        <ele>933</ele>
        <time>2015-10-17T16:25:24Z</time>
      </trkpt>
      <trkpt lat="45.86213" lon="2.98643">
        <ele>937</ele>
        <time>2015-10-17T16:27:24Z</time>
      </trkpt>
      <trkpt lat="45.86187" lon="2.9862">
        <ele>939</ele>
        <time>2015-10-17T16:29:24Z</time>
      </trkpt>
      <trkpt lat="45.86157" lon="2.98583">
        <ele>934</ele>
        <time>2015-10-17T16:31:24Z</time>
      </trkpt>
      <trkpt lat="45.86145" lon="2.98562">
        <ele>936</ele>
        <time>2015-10-17T16:33:24Z</time>
      </trkpt>
      <trkpt lat="45.86122" lon="2.98557">
        <ele>934</ele>
        <time>2015-10-17T16:35:24Z</time>
      </trkpt>
      <trkpt lat="45.86101" lon="2.98551">
        <ele>932</ele>
        <time>2015-10-17T16:37:24Z</time>
      </trkpt>
      <trkpt lat="45.86074" lon="2.98549">
        <ele>932</ele>
        <time>2015-10-17T16:39:24Z</time>
      </trkpt>
      <trkpt lat="45.86055" lon="2.98549">
        <ele>934</ele>
        <time>2015-10-17T16:41:24Z</time>
      </trkpt>
      <trkpt lat="45.86018" lon="2.98575">
        <ele>935</ele>
        <time>2015-10-17T16:43:24Z</time>
      </trkpt>
      <trkpt lat="45.86001" lon="2.9862">
        <ele>939</ele>
        <time>2015-10-17T16:45:24Z</time>
      </trkpt>
      <trkpt lat="45.85985" lon="2.98648">
        <ele>944</ele>
        <time>2015-10-17T16:47:24Z</time>
      </trkpt>
      <trkpt lat="45.85973" lon="2.98652">
        <ele>946</ele>
        <time>2015-10-17T16:49:24Z</time>
      </trkpt>
      <trkpt lat="45.85968" lon="2.98684">
        <ele>948</ele>
        <time>2015-10-17T16:51:24Z</time>
      </trkpt>
      <trkpt lat="45.85952" lon="2.98697">
        <ele>951</ele>
        <time>2015-10-17T16:53:24Z</time>
      </trkpt>
      <trkpt lat="45.85937" lon="2.9869">
        <ele>952</ele>
        <time>2015-10-17T16:55:24Z</time>
      </trkpt>
      <trkpt lat="45.85922" lon="2.98665">
        <ele>953</ele>
        <time>2015-10-17T16:57:24Z</time>
      </trkpt>
      <trkpt lat="45.85918" lon="2.98611">
        <ele>956</ele>
        <time>2015-10-17T16:59:24Z</time>
      </trkpt>
      <trkpt lat="45.85909" lon="2.9859">
        <ele>956</ele>
        <time>2015-10-17T17:01:24Z</time>
      </trkpt>
      <trkpt lat="45.85901" lon="2.98564">
        <ele>957</ele>
        <time>2015-10-17T17:03:24Z</time>
      </trkpt>
      <trkpt lat="45.85901" lon="2.98525">
        <ele>962</ele>
        <time>2015-10-17T17:05:24Z</time>
      </trkpt>
      <trkpt lat="45.85891" lon="2.98497">
        <ele>963</ele>
        <time>2015-10-17T17:07:24Z</time>
      </trkpt>
      <trkpt lat="45.85885" lon="2.98472">
        <ele>963</ele>
        <time>2015-10-17T17:09:24Z</time>
      </trkpt>
      <trkpt lat="45.85882" lon="2.98444">
        <ele>964</ele>
        <time>2015-10-17T17:11:24Z</time>
      </trkpt>
      <trkpt lat="45.85868" lon="2.98416">
        <ele>961</ele>
        <time>2015-10-17T17:13:24Z</time>
      </trkpt>
      <trkpt lat="45.85843" lon="2.98394">
        <ele>953</ele>
        <time>2015-10-17T17:15:24Z</time>
      </trkpt>
      <trkpt lat="45.85835" lon="2.98371">
        <ele>950</ele>
        <time>2015-10-17T17:17:24Z</time>
      </trkpt>
      <trkpt lat="45.85819" lon="2.98351">
        <ele>944</ele>
        <time>2015-10-17T17:19:24Z</time>
      </trkpt>
      <trkpt lat="45.85804" lon="2.98321">
        <ele>938</ele>
        <time>2015-10-17T17:21:24Z</time>
      </trkpt>
      <trkpt lat="45.85801" lon="2.98283">
        <ele>934</ele>
        <time>2015-10-17T17:23:24Z</time>
      </trkpt>
      <trkpt lat="45.85801" lon="2.98255">
        <ele>932</ele>
        <time>2015-10-17T17:25:24Z</time>
      </trkpt>
      <trkpt lat="45.858" lon="2.98223">
        <ele>929</ele>
        <time>2015-10-17T17:27:24Z</time>
      </trkpt>
      <trkpt lat="45.85829" lon="2.98184">
        <ele>933</ele>
        <time>2015-10-17T17:29:24Z</time>
      </trkpt>
      <trkpt lat="45.85871" lon="2.98128">
        <ele>926</ele>
        <time>2015-10-17T17:31:24Z</time>
      </trkpt>
      <trkpt lat="45.85861" lon="2.9809">
        <ele>918</ele>
        <time>2015-10-17T17:33:24Z</time>
      </trkpt>
      <trkpt lat="45.85844" lon="2.9806">
        <ele>910</ele>
        <time>2015-10-17T17:35:24Z</time>
      </trkpt>
      <trkpt lat="45.85826" lon="2.98049">
        <ele>906</ele>
        <time>2015-10-17T17:37:24Z</time>
      </trkpt>
      <trkpt lat="45.85789" lon="2.98021">
        <ele>897</ele>
        <time>2015-10-17T17:39:24Z</time>
      </trkpt>
      <trkpt lat="45.8577" lon="2.98038">
        <ele>898</ele>
        <time>2015-10-17T17:41:24Z</time>
      </trkpt>
      <trkpt lat="45.85755" lon="2.98023">
        <ele>895</ele>
        <time>2015-10-17T17:43:24Z</time>
      </trkpt>
      <trkpt lat="45.85734" lon="2.9803">
        <ele>894</ele>
        <time>2015-10-17T17:45:24Z</time>
      </trkpt>
      <trkpt lat="45.85719" lon="2.98053">
        <ele>894</ele>
        <time>2015-10-17T17:47:24Z</time>
      </trkpt>
      <trkpt lat="45.85708" lon="2.9807">
        <ele>893</ele>
        <time>2015-10-17T17:49:24Z</time>
      </trkpt>
      <trkpt lat="45.85689" lon="2.9809">
        <ele>891</ele>
        <time>2015-10-17T17:51:24Z</time>
      </trkpt>
      <trkpt lat="45.8567" lon="2.981">
        <ele>888</ele>
        <time>2015-10-17T17:53:24Z</time>
      </trkpt>
      <trkpt lat="45.85656" lon="2.98042">
        <ele>889</ele>
        <time>2015-10-17T17:55:24Z</time>
      </trkpt>
      <trkpt lat="45.85641" lon="2.98006">
        <ele>891</ele>
        <time>2015-10-17T17:57:24Z</time>
      </trkpt>
      <trkpt lat="45.85631" lon="2.9797">
        <ele>892</ele>
        <time>2015-10-17T17:59:24Z</time>
      </trkpt>
      <trkpt lat="45.85625" lon="2.97952">
        <ele>893</ele>
        <time>2015-10-17T18:01:24Z</time>
      </trkpt>
      <trkpt lat="45.85608" lon="2.97948">
        <ele>895</ele>
        <time>2015-10-17T18:03:24Z</time>
      </trkpt>
      <trkpt lat="45.85589" lon="2.97927">
        <ele>898</ele>
        <time>2015-10-17T18:05:24Z</time>
      </trkpt>
      <trkpt lat="45.85575" lon="2.97901">
        <ele>900</ele>
        <time>2015-10-17T18:07:24Z</time>
      </trkpt>
      <trkpt lat="45.85553" lon="2.97886">
        <ele>904</ele>
        <time>2015-10-17T18:09:24Z</time>
      </trkpt>
      <trkpt lat="45.85522" lon="2.97869">
        <ele>908</ele>
        <time>2015-10-17T18:11:24Z</time>
      </trkpt>
      <trkpt lat="45.85496" lon="2.97847">
        <ele>910</ele>
        <time>2015-10-17T18:13:24Z</time>
      </trkpt>
      <trkpt lat="45.85469" lon="2.97834">
        <ele>912</ele>
        <time>2015-10-17T18:15:24Z</time>
      </trkpt>
      <trkpt lat="45.85456" lon="2.97839">
        <ele>914</ele>
        <time>2015-10-17T18:17:24Z</time>
      </trkpt>
      <trkpt lat="45.85427" lon="2.97809">
        <ele>918</ele>
        <time>2015-10-17T18:19:24Z</time>
      </trkpt>
      <trkpt lat="45.85404" lon="2.97809">
        <ele>919</ele>
        <time>2015-10-17T18:21:24Z</time>
      </trkpt>
      <trkpt lat="45.85375" lon="2.978">
        <ele>920</ele>
        <time>2015-10-17T18:23:24Z</time>
      </trkpt>
      <trkpt lat="45.85354" lon="2.9777">
        <ele>922</ele>
        <time>2015-10-17T18:25:24Z</time>
      </trkpt>
      <trkpt lat="45.85339" lon="2.97736">
        <ele>926</ele>
        <time>2015-10-17T18:27:24Z</time>
      </trkpt>
      <trkpt lat="45.85317" lon="2.97695">
        <ele>931</ele>
        <time>2015-10-17T18:29:24Z</time>
      </trkpt>
      <trkpt lat="45.8529" lon="2.97661">
        <ele>934</ele>
        <time>2015-10-17T18:31:24Z</time>
      </trkpt>
      <trkpt lat="45.8527" lon="2.97635">
        <ele>936</ele>
        <time>2015-10-17T18:33:24Z</time>
      </trkpt>
      <trkpt lat="45.85256" lon="2.97613">
        <ele>938</ele>
        <time>2015-10-17T18:35:24Z</time>
      </trkpt>
      <trkpt lat="45.85236" lon="2.9757">
        <ele>944</ele>
        <time>2015-10-17T18:37:24Z</time>
      </trkpt>
      <trkpt lat="45.85217" lon="2.97538">
        <ele>950</ele>
        <time>2015-10-17T18:39:24Z</time>
      </trkpt>
      <trkpt lat="45.85206" lon="2.97506">
        <ele>957</ele>
        <time>2015-10-17T18:41:24Z</time>
      </trkpt>
      <trkpt lat="45.85187" lon="2.9748">
        <ele>962</ele>
        <time>2015-10-17T18:43:24Z</time>
      </trkpt>
      <trkpt lat="45.85169" lon="2.97459">
        <ele>966</ele>
        <time>2015-10-17T18:45:24Z</time>
      </trkpt>
      <trkpt lat="45.85154" lon="2.97437">
        <ele>970</ele>
        <time>2015-10-17T18:47:24Z</time>
      </trkpt>
      <trkpt lat="45.85142" lon="2.97401">
        <ele>978</ele>
        <time>2015-10-17T18:49:24Z</time>
      </trkpt>
      <trkpt lat="45.85129" lon="2.97379">
        <ele>982</ele>
        <time>2015-10-17T18:51:24Z</time>
      </trkpt>
      <trkpt lat="45.85105" lon="2.97371">
        <ele>983</ele>
        <time>2015-10-17T18:53:24Z</time>
      </trkpt>
      <trkpt lat="45.85081" lon="2.97364">
        <ele>984</ele>
        <time>2015-10-17T18:55:24Z</time>
      </trkpt>
      <trkpt lat="45.85102" lon="2.97313">
        <ele>994</ele>
        <time>2015-10-17T18:57:24Z</time>
      </trkpt>
      <trkpt lat="45.85127" lon="2.97268">
        <ele>1000</ele>
        <time>2015-10-17T18:59:24Z</time>
      </trkpt>
      <trkpt lat="45.85167" lon="2.9724">
        <ele>1002</ele>
        <time>2015-10-17T19:01:24Z</time>
      </trkpt>
      <trkpt lat="45.85157" lon="2.97229">
        <ele>1003</ele>
        <time>2015-10-17T19:03:24Z</time>
      </trkpt>
      <trkpt lat="45.85193" lon="2.97171">
        <ele>1005</ele>
        <time>2015-10-17T19:05:24Z</time>
      </trkpt>
      <trkpt lat="45.85209" lon="2.97141">
        <ele>1006</ele>
        <time>2015-10-17T19:07:24Z</time>
      </trkpt>
      <trkpt lat="45.85217" lon="2.97111">
        <ele>1007</ele>
        <time>2015-10-17T19:09:24Z</time>
      </trkpt>
      <trkpt lat="45.85215" lon="2.97081">
        <ele>1007</ele>
        <time>2015-10-17T19:11:24Z</time>
      </trkpt>
      <trkpt lat="45.85245" lon="2.97013">
        <ele>1010</ele>
        <time>2015-10-17T19:13:24Z</time>
      </trkpt>
      <trkpt lat="45.8525" lon="2.96937">
        <ele>1014</ele>
        <time>2015-10-17T19:15:24Z</time>
      </trkpt>
      <trkpt lat="45.85241" lon="2.96879">
        <ele>1017</ele>
        <time>2015-10-17T19:17:24Z</time>
      </trkpt>
      <trkpt lat="45.8523" lon="2.96849">
        <ele>1019</ele>
        <time>2015-10-17T19:19:24Z</time>
      </trkpt>
      <trkpt lat="45.85241" lon="2.96819">
        <ele>1019</ele>
        <time>2015-10-17T19:21:24Z</time>
      </trkpt>
      <trkpt lat="45.85251" lon="2.96774">
        <ele>1019</ele>
        <time>2015-10-17T19:23:24Z</time>
      </trkpt>
      <trkpt lat="45.85288" lon="2.9671">
        <ele>1016</ele>
        <time>2015-10-17T19:25:24Z</time>
      </trkpt>
      <trkpt lat="45.85291" lon="2.96669">
        <ele>1017</ele>
        <time>2015-10-17T19:27:24Z</time>
      </trkpt>
      <trkpt lat="45.85282" lon="2.96624">
        <ele>1019</ele>
        <time>2015-10-17T19:29:24Z</time>
      </trkpt>
      <trkpt lat="45.85265" lon="2.96611">
        <ele>1022</ele>
        <time>2015-10-17T19:31:24Z</time>
      </trkpt>
      <trkpt lat="45.85254" lon="2.96564">
        <ele>1025</ele>
        <time>2015-10-17T19:33:24Z</time>
      </trkpt>
      <trkpt lat="45.85238" lon="2.96528">
        <ele>1030</ele>
        <time>2015-10-17T19:35:24Z</time>
      </trkpt>
      <trkpt lat="45.85209" lon="2.96459">
        <ele>1036</ele>
        <time>2015-10-17T19:37:24Z</time>
      </trkpt>
      <trkpt lat="45.85187" lon="2.96433">
        <ele>1038</ele>
        <time>2015-10-17T19:39:24Z</time>
      </trkpt>
      <trkpt lat="45.85173" lon="2.96412">
        <ele>1037</ele>
        <time>2015-10-17T19:41:24Z</time>
      </trkpt>
      <trkpt lat="45.85157" lon="2.96395">
        <ele>1039</ele>
        <time>2015-10-17T19:43:24Z</time>
      </trkpt>
      <trkpt lat="45.85136" lon="2.96364">
        <ele>1039</ele>
        <time>2015-10-17T19:45:24Z</time>
      </trkpt>
      <trkpt lat="45.85116" lon="2.96345">
        <ele>1039</ele>
        <time>2015-10-17T19:47:24Z</time>
      </trkpt>
      <trkpt lat="45.85103" lon="2.9633">
        <ele>1037</ele>
        <time>2015-10-17T19:49:24Z</time>
      </trkpt>
      <trkpt lat="45.85089" lon="2.96311">
        <ele>1035</ele>
        <time>2015-10-17T19:51:24Z</time>
      </trkpt>
      <trkpt lat="45.85071" lon="2.96281">
        <ele>1032</ele>
        <time>2015-10-17T19:53:24Z</time>
      </trkpt>
      <trkpt lat="45.8506" lon="2.96246">
        <ele>1028</ele>
        <time>2015-10-17T19:55:24Z</time>
      </trkpt>
      <trkpt lat="45.85049" lon="2.9621">
        <ele>1024</ele>
        <time>2015-10-17T19:57:24Z</time>
      </trkpt>
      <trkpt lat="45.85036" lon="2.96191">
        <ele>1021</ele>
        <time>2015-10-17T19:59:24Z</time>
      </trkpt>
      <trkpt lat="45.85018" lon="2.9618">
        <ele>1018</ele>
        <time>2015-10-17T20:01:24Z</time>
      </trkpt>
      <trkpt lat="45.84968" lon="2.96133">
        <ele>1013</ele>
        <time>2015-10-17T20:03:24Z</time>
      </trkpt>
      <trkpt lat="45.84944" lon="2.96109">
        <ele>1011</ele>
        <time>2015-10-17T20:05:24Z</time>
      </trkpt>
      <trkpt lat="45.84913" lon="2.96073">
        <ele>1006</ele>
        <time>2015-10-17T20:07:24Z</time>
      </trkpt>
      <trkpt lat="45.84897" lon="2.96036">
        <ele>1004</ele>
        <time>2015-10-17T20:09:24Z</time>
      </trkpt>
      <trkpt lat="45.84886" lon="2.9601">
        <ele>1002</ele>
        <time>2015-10-17T20:11:24Z</time>
      </trkpt>
      <trkpt lat="45.84879" lon="2.95963">
        <ele>1001</ele>
        <time>2015-10-17T20:13:24Z</time>
      </trkpt>
      <trkpt lat="45.84867" lon="2.95914">
        <ele>999</ele>
        <time>2015-10-17T20:15:24Z</time>
      </trkpt>
      <trkpt lat="45.84855" lon="2.95867">
        <ele>996</ele>
        <time>2015-10-17T20:17:24Z</time>
      </trkpt>
      <trkpt lat="45.84846" lon="2.95817">
        <ele>993</ele>
        <time>2015-10-17T20:19:24Z</time>
      </trkpt>
      <trkpt lat="45.84829" lon="2.95749">
        <ele>990</ele>
        <time>2015-10-17T20:21:24Z</time>
      </trkpt>
      <trkpt lat="45.84822" lon="2.95716">
        <ele>990</ele>
        <time>2015-10-17T20:23:24Z</time>
      </trkpt>
      <trkpt lat="45.84807" lon="2.95637">
        <ele>990</ele>
        <time>2015-10-17T20:25:24Z</time>
      </trkpt>
      <trkpt lat="45.84801" lon="2.95601">
        <ele>989</ele>
        <time>2015-10-17T20:27:24Z</time>
      </trkpt>
      <trkpt lat="45.84795" lon="2.95571">
        <ele>989</ele>
        <time>2015-10-17T20:29:24Z</time>
      </trkpt>
      <trkpt lat="45.84774" lon="2.95541">
        <ele>989</ele>
        <time>2015-10-17T20:31:24Z</time>
      </trkpt>
      <trkpt lat="45.84755" lon="2.95498">
        <ele>988</ele>
        <time>2015-10-17T20:33:24Z</time>
      </trkpt>
      <trkpt lat="45.84732" lon="2.95442">
        <ele>990</ele>
        <time>2015-10-17T20:35:24Z</time>
      </trkpt>
      <trkpt lat="45.8471" lon="2.95392">
        <ele>990</ele>
        <time>2015-10-17T20:37:24Z</time>
      </trkpt>
      <trkpt lat="45.8468" lon="2.95341">
        <ele>988</ele>
        <time>2015-10-17T20:39:24Z</time>
      </trkpt>
      <trkpt lat="45.84669" lon="2.95317">
        <ele>988</ele>
        <time>2015-10-17T20:41:24Z</time>
      </trkpt>
      <trkpt lat="45.84653" lon="2.95287">
        <ele>988</ele>
        <time>2015-10-17T20:43:24Z</time>
      </trkpt>
      <trkpt lat="45.84637" lon="2.95249">
        <ele>988</ele>
        <time>2015-10-17T20:45:24Z</time>
      </trkpt>
      <trkpt lat="45.84623" lon="2.95189">
        <ele>986</ele>
        <time>2015-10-17T20:47:24Z</time>
      </trkpt>
      <trkpt lat="45.84613" lon="2.95131">
        <ele>983</ele>
        <time>2015-10-17T20:49:24Z</time>
      </trkpt>
      <trkpt lat="45.84611" lon="2.95086">
        <ele>980</ele>
        <time>2015-10-17T20:51:24Z</time>
      </trkpt>
      <trkpt lat="45.84602" lon="2.95049">
        <ele>977</ele>
        <time>2015-10-17T20:53:24Z</time>
      </trkpt>
      <trkpt lat="45.84569" lon="2.94965">
        <ele>973</ele>
        <time>2015-10-17T20:55:24Z</time>
      </trkpt>
      <trkpt lat="45.84563" lon="2.94935">
        <ele>973</ele>
        <time>2015-10-17T20:57:24Z</time>
      </trkpt>
      <trkpt lat="45.84553" lon="2.94914">
        <ele>972</ele>
        <time>2015-10-17T20:59:24Z</time>
      </trkpt>
      <trkpt lat="45.84544" lon="2.94892">
        <ele>970</ele>
        <time>2015-10-17T21:01:24Z</time>
      </trkpt>
      <trkpt lat="45.84526" lon="2.94865">
        <ele>968</ele>
        <time>2015-10-17T21:03:24Z</time>
      </trkpt>
      <trkpt lat="45.84518" lon="2.94843">
        <ele>966</ele>
        <time>2015-10-17T21:05:24Z</time>
      </trkpt>
      <trkpt lat="45.84508" lon="2.94815">
        <ele>963</ele>
        <time>2015-10-17T21:07:24Z</time>
      </trkpt>
      <trkpt lat="45.84496" lon="2.94777">
        <ele>961</ele>
        <time>2015-10-17T21:09:24Z</time>
      </trkpt>
      <trkpt lat="45.84503" lon="2.94727">
        <ele>959</ele>
        <time>2015-10-17T21:11:24Z</time>
      </trkpt>
      <trkpt lat="45.84499" lon="2.94689">
        <ele>958</ele>
        <time>2015-10-17T21:13:24Z</time>
      </trkpt>
      <trkpt lat="45.84499" lon="2.94652">
        <ele>957</ele>
        <time>2015-10-17T21:15:24Z</time>
      </trkpt>
      <trkpt lat="45.84496" lon="2.94624">
        <ele>957</ele>
        <time>2015-10-17T21:17:24Z</time>
      </trkpt>
      <trkpt lat="45.84492" lon="2.94575">
        <ele>957</ele>
        <time>2015-10-17T21:19:24Z</time>
      </trkpt>
      <trkpt lat="45.84489" lon="2.94504">
        <ele>957</ele>
        <time>2015-10-17T21:21:24Z</time>
      </trkpt>
      <trkpt lat="45.8448" lon="2.94453">
        <ele>956</ele>
        <time>2015-10-17T21:23:24Z</time>
      </trkpt>
      <trkpt lat="45.84475" lon="2.94427">
        <ele>955</ele>
        <time>2015-10-17T21:25:24Z</time>
      </trkpt>
      <trkpt lat="45.8448" lon="2.94375">
        <ele>954</ele>
        <time>2015-10-17T21:27:24Z</time>
      </trkpt>
      <trkpt lat="45.84472" lon="2.94313">
        <ele>953</ele>
        <time>2015-10-17T21:29:24Z</time>
      </trkpt>
      <trkpt lat="45.84463" lon="2.94285">
        <ele>952</ele>
        <time>2015-10-17T21:31:24Z</time>
      </trkpt>
      <trkpt lat="45.84456" lon="2.94247">
        <ele>950</ele>
        <time>2015-10-17T21:33:24Z</time>
      </trkpt>
      <trkpt lat="45.84448" lon="2.94195">
        <ele>949</ele>
        <time>2015-10-17T21:35:24Z</time>
      </trkpt>
      <trkpt lat="45.84442" lon="2.94172">
        <ele>949</ele>
        <time>2015-10-17T21:37:24Z</time>
      </trkpt>
      <trkpt lat="45.8443" lon="2.94094">
        <ele>948</ele>
        <time>2015-10-17T21:39:24Z</time>
      </trkpt>
      <trkpt lat="45.84414" lon="2.94034">
        <ele>948</ele>
        <time>2015-10-17T21:41:24Z</time>
      </trkpt>
      <trkpt lat="45.84462" lon="2.94062">
        <ele>949</ele>
        <time>2015-10-17T21:43:24Z</time>
      </trkpt>
      <trkpt lat="45.84518" lon="2.94094">
        <ele>951</ele>
        <time>2015-10-17T21:45:24Z</time>
      </trkpt>
      <trkpt lat="45.84559" lon="2.94133">
        <ele>954</ele>
        <time>2015-10-17T21:47:24Z</time>
      </trkpt>
      <trkpt lat="45.84608" lon="2.94154">
        <ele>959</ele>
        <time>2015-10-17T21:49:24Z</time>
      </trkpt>
      <trkpt lat="45.84662" lon="2.94148">
        <ele>965</ele>
        <time>2015-10-17T21:51:24Z</time>
      </trkpt>
      <trkpt lat="45.84702" lon="2.94178">
        <ele>972</ele>
        <time>2015-10-17T21:53:24Z</time>
      </trkpt>
      <trkpt lat="45.8477" lon="2.94229">
        <ele>986</ele>
        <time>2015-10-17T21:55:24Z</time>
      </trkpt>
      <trkpt lat="45.84801" lon="2.94189">
        <ele>984</ele>
        <time>2015-10-17T21:57:24Z</time>
      </trkpt>
      <trkpt lat="45.84826" lon="2.94178">
        <ele>985</ele>
        <time>2015-10-17T21:59:24Z</time>
      </trkpt>
      <trkpt lat="45.84832" lon="2.94229">
        <ele>994</ele>
        <time>2015-10-17T22:01:24Z</time>
      </trkpt>
      <trkpt lat="45.84865" lon="2.94225">
        <ele>997</ele>
        <time>2015-10-17T22:03:24Z</time>
      </trkpt>
      <trkpt lat="45.84888" lon="2.94232">
        <ele>1001</ele>
        <time>2015-10-17T22:05:24Z</time>
      </trkpt>
      <trkpt lat="45.84903" lon="2.94275">
        <ele>1012</ele>
        <time>2015-10-17T22:07:24Z</time>
      </trkpt>
      <trkpt lat="45.84949" lon="2.9429">
        <ele>1018</ele>
        <time>2015-10-17T22:09:24Z</time>
      </trkpt>
      <trkpt lat="45.85" lon="2.94309">
        <ele>1022</ele>
        <time>2015-10-17T22:11:24Z</time>
      </trkpt>
      <trkpt lat="45.8504" lon="2.94386">
        <ele>1039</ele>
        <time>2015-10-17T22:13:24Z</time>
      </trkpt>
      <trkpt lat="45.8507" lon="2.94425">
        <ele>1045</ele>
        <time>2015-10-17T22:15:24Z</time>
      </trkpt>
      <trkpt lat="45.85045" lon="2.94442">
        <ele>1049</ele>
        <time>2015-10-17T22:17:24Z</time>
      </trkpt>
      <trkpt lat="45.85024" lon="2.94474">
        <ele>1057</ele>
        <time>2015-10-17T22:19:24Z</time>
      </trkpt>
      <trkpt lat="45.85001" lon="2.94508">
        <ele>1064</ele>
        <time>2015-10-17T22:21:24Z</time>
      </trkpt>
      <trkpt lat="45.84982" lon="2.94536">
        <ele>1066</ele>
        <time>2015-10-17T22:23:24Z</time>
      </trkpt>
      <trkpt lat="45.84979" lon="2.94564">
        <ele>1069</ele>
        <time>2015-10-17T22:25:24Z</time>
      </trkpt>
      <trkpt lat="45.84977" lon="2.94618">
        <ele>1074</ele>
        <time>2015-10-17T22:27:24Z</time>
      </trkpt>
      <trkpt lat="45.84992" lon="2.94652">
        <ele>1077</ele>
        <time>2015-10-17T22:29:24Z</time>
      </trkpt>
      <trkpt lat="45.85006" lon="2.94702">
        <ele>1081</ele>
        <time>2015-10-17T22:31:24Z</time>
      </trkpt>
      <trkpt lat="45.85013" lon="2.9474">
        <ele>1084</ele>
        <time>2015-10-17T22:33:24Z</time>
      </trkpt>
      <trkpt lat="45.85031" lon="2.94798">
        <ele>1090</ele>
        <time>2015-10-17T22:35:24Z</time>
      </trkpt>
      <trkpt lat="45.85019" lon="2.94845">
        <ele>1098</ele>
        <time>2015-10-17T22:37:24Z</time>
      </trkpt>
      <trkpt lat="45.85028" lon="2.94888">
        <ele>1106</ele>
        <time>2015-10-17T22:39:24Z</time>
      </trkpt>
      <trkpt lat="45.85016" lon="2.9492">
        <ele>1111</ele>
        <time>2015-10-17T22:41:24Z</time>
      </trkpt>
      <trkpt lat="45.85015" lon="2.94948">
        <ele>1111</ele>
        <time>2015-10-17T22:43:24Z</time>
      </trkpt>
      <trkpt lat="45.85024" lon="2.94998">
        <ele>1115</ele>
        <time>2015-10-17T22:45:24Z</time>
      </trkpt>
      <trkpt lat="45.85043" lon="2.95038">
        <ele>1119</ele>
        <time>2015-10-17T22:47:24Z</time>
      </trkpt>
      <trkpt lat="45.85092" lon="2.95081">
        <ele>1140</ele>
        <time>2015-10-17T22:49:24Z</time>
      </trkpt>
      <trkpt lat="45.85137" lon="2.95105">
        <ele>1153</ele>
        <time>2015-10-17T22:51:24Z</time>
      </trkpt>
      <trkpt lat="45.85188" lon="2.95126">
        <ele>1168</ele>
        <time>2015-10-17T22:53:24Z</time>
      </trkpt>
      <trkpt lat="45.85242" lon="2.9512">
        <ele>1181</ele>
        <time>2015-10-17T22:55:24Z</time>
      </trkpt>
      <trkpt lat="45.85279" lon="2.95094">
        <ele>1183</ele>
        <time>2015-10-17T22:57:24Z</time>
      </trkpt>
      <trkpt lat="45.85337" lon="2.95006">
        <ele>1178</ele>
        <time>2015-10-17T22:59:24Z</time>
      </trkpt>
      <trkpt lat="45.85364" lon="2.9494">
        <ele>1164</ele>
        <time>2015-10-17T23:01:24Z</time>
      </trkpt>
      <trkpt lat="45.85373" lon="2.94869">
        <ele>1155</ele>
        <time>2015-10-17T23:03:24Z</time>
      </trkpt>
      <trkpt lat="45.85382" lon="2.94826">
        <ele>1149</ele>
        <time>2015-10-17T23:05:24Z</time>
      </trkpt>
      <trkpt lat="45.85397" lon="2.94815">
        <ele>1149</ele>
        <time>2015-10-17T23:07:24Z</time>
      </trkpt>
      <trkpt lat="45.85412" lon="2.94858">
        <ele>1155</ele>
        <time>2015-10-17T23:09:24Z</time>
      </trkpt>
      <trkpt lat="45.85429" lon="2.9489">
        <ele>1150</ele>
        <time>2015-10-17T23:11:24Z</time>
      </trkpt>
      <trkpt lat="45.85444" lon="2.94854">
        <ele>1139</ele>
        <time>2015-10-17T23:13:24Z</time>
      </trkpt>
      <trkpt lat="45.85438" lon="2.9482">
        <ele>1139</ele>
        <time>2015-10-17T23:15:24Z</time>
      </trkpt>
      <trkpt lat="45.85426" lon="2.94774">
        <ele>1139</ele>
        <time>2015-10-17T23:17:24Z</time>
      </trkpt>
      <trkpt lat="45.85424" lon="2.94742">
        <ele>1134</ele>
        <time>2015-10-17T23:19:24Z</time>
      </trkpt>
      <trkpt lat="45.85412" lon="2.94719">
        <ele>1131</ele>
        <time>2015-10-17T23:21:24Z</time>
      </trkpt>
      <trkpt lat="45.85396" lon="2.94684">
        <ele>1124</ele>
        <time>2015-10-17T23:23:24Z</time>
      </trkpt>
      <trkpt lat="45.85385" lon="2.94663">
        <ele>1121</ele>
        <time>2015-10-17T23:25:24Z</time>
      </trkpt>
      <trkpt lat="45.85357" lon="2.9462">
        <ele>1120</ele>
        <time>2015-10-17T23:27:24Z</time>
      </trkpt>
      <trkpt lat="45.85343" lon="2.94592">
        <ele>1120</ele>
        <time>2015-10-17T23:29:24Z</time>
      </trkpt>
      <trkpt lat="45.85324" lon="2.9456">
        <ele>1115</ele>
        <time>2015-10-17T23:31:24Z</time>
      </trkpt>
      <trkpt lat="45.85373" lon="2.94581">
        <ele>1106</ele>
        <time>2015-10-17T23:33:24Z</time>
      </trkpt>
      <trkpt lat="45.85397" lon="2.94609">
        <ele>1104</ele>
        <time>2015-10-17T23:35:24Z</time>
      </trkpt>
      <trkpt lat="45.85421" lon="2.94646">
        <ele>1107</ele>
        <time>2015-10-17T23:37:24Z</time>
      </trkpt>
      <trkpt lat="45.85444" lon="2.94682">
        <ele>1106</ele>
        <time>2015-10-17T23:39:24Z</time>
      </trkpt>
      <trkpt lat="45.85472" lon="2.94719">
        <ele>1102</ele>
        <time>2015-10-17T23:41:24Z</time>
      </trkpt>
      <trkpt lat="45.85494" lon="2.9477">
        <ele>1101</ele>
        <time>2015-10-17T23:43:24Z</time>
      </trkpt>
      <trkpt lat="45.85508" lon="2.94811">
        <ele>1098</ele>
        <time>2015-10-17T23:45:24Z</time>
      </trkpt>
      <trkpt lat="45.85521" lon="2.94854">
        <ele>1094</ele>
        <time>2015-10-17T23:47:24Z</time>
      </trkpt>
      <trkpt lat="45.8553" lon="2.94899">
        <ele>1091</ele>
        <time>2015-10-17T23:49:24Z</time>
      </trkpt>
      <trkpt lat="45.85538" lon="2.94929">
        <ele>1087</ele>
        <time>2015-10-17T23:51:24Z</time>
      </trkpt>
      <trkpt lat="45.85541" lon="2.94882">
        <ele>1083</ele>
        <time>2015-10-17T23:53:24Z</time>
      </trkpt>
      <trkpt lat="45.85538" lon="2.94839">
        <ele>1082</ele>
        <time>2015-10-17T23:55:24Z</time>
      </trkpt>
      <trkpt lat="45.85535" lon="2.94787">
        <ele>1077</ele>
        <time>2015-10-17T23:57:24Z</time>
      </trkpt>
      <trkpt lat="45.85532" lon="2.94738">
        <ele>1072</ele>
        <time>2015-10-17T23:59:24Z</time>
      </trkpt>
      <trkpt lat="45.85523" lon="2.94708">
        <ele>1071</ele>
        <time>2015-10-18T00:01:24Z</time>
      </trkpt>
      <trkpt lat="45.85518" lon="2.94682">
        <ele>1067</ele>
        <time>2015-10-18T00:03:24Z</time>
      </trkpt>
      <trkpt lat="45.85511" lon="2.94654">
        <ele>1065</ele>
        <time>2015-10-18T00:05:24Z</time>
      </trkpt>
      <trkpt lat="45.85502" lon="2.94622">
        <ele>1061</ele>
        <time>2015-10-18T00:07:24Z</time>
      </trkpt>
      <trkpt lat="45.85482" lon="2.94549">
        <ele>1051</ele>
        <time>2015-10-18T00:09:24Z</time>
      </trkpt>
      <trkpt lat="45.85463" lon="2.94496">
        <ele>1046</ele>
        <time>2015-10-18T00:11:24Z</time>
      </trkpt>
      <trkpt lat="45.85505" lon="2.94549">
        <ele>1040</ele>
        <time>2015-10-18T00:13:24Z</time>
      </trkpt>
      <trkpt lat="45.85529" lon="2.94594">
        <ele>1040</ele>
        <time>2015-10-18T00:15:24Z</time>
      </trkpt>
      <trkpt lat="45.85554" lon="2.94629">
        <ele>1035</ele>
        <time>2015-10-18T00:17:24Z</time>
      </trkpt>
      <trkpt lat="45.85569" lon="2.94669">
        <ele>1036</ele>
        <time>2015-10-18T00:19:24Z</time>
      </trkpt>
      <trkpt lat="45.85595" lon="2.94717">
        <ele>1029</ele>
        <time>2015-10-18T00:21:24Z</time>
      </trkpt>
      <trkpt lat="45.85615" lon="2.94757">
        <ele>1023</ele>
        <time>2015-10-18T00:23:24Z</time>
      </trkpt>
      <trkpt lat="45.85632" lon="2.94798">
        <ele>1018</ele>
        <time>2015-10-18T00:25:24Z</time>
      </trkpt>
      <trkpt lat="45.85645" lon="2.94835">
        <ele>1015</ele>
        <time>2015-10-18T00:27:24Z</time>
      </trkpt>
      <trkpt lat="45.85654" lon="2.94858">
        <ele>1012</ele>
        <time>2015-10-18T00:29:24Z</time>
      </trkpt>
      <trkpt lat="45.85674" lon="2.94905">
        <ele>1007</ele>
        <time>2015-10-18T00:31:24Z</time>
      </trkpt>
      <trkpt lat="45.85672" lon="2.9485">
        <ele>1001</ele>
        <time>2015-10-18T00:33:24Z</time>
      </trkpt>
      <trkpt lat="45.85665" lon="2.94785">
        <ele>995</ele>
        <time>2015-10-18T00:35:24Z</time>
      </trkpt>
      <trkpt lat="45.85662" lon="2.94757">
        <ele>993</ele>
        <time>2015-10-18T00:37:24Z</time>
      </trkpt>
      <trkpt lat="45.85656" lon="2.94736">
        <ele>994</ele>
        <time>2015-10-18T00:39:24Z</time>
      </trkpt>
      <trkpt lat="45.85656" lon="2.94671">
        <ele>983</ele>
        <time>2015-10-18T00:41:24Z</time>
      </trkpt>
      <trkpt lat="45.8565" lon="2.94635">
        <ele>982</ele>
        <time>2015-10-18T00:43:24Z</time>
      </trkpt>
      <trkpt lat="45.85644" lon="2.94614">
        <ele>983</ele>
        <time>2015-10-18T00:45:24Z</time>
      </trkpt>
      <trkpt lat="45.85635" lon="2.94573">
        <ele>981</ele>
        <time>2015-10-18T00:47:24Z</time>
      </trkpt>
      <trkpt lat="45.85626" lon="2.94532">
        <ele>978</ele>
        <time>2015-10-18T00:49:24Z</time>
      </trkpt>
      <trkpt lat="45.85648" lon="2.94532">
        <ele>968</ele>
        <time>2015-10-18T00:51:24Z</time>
      </trkpt>
      <trkpt lat="45.85677" lon="2.94577">
        <ele>963</ele>
        <time>2015-10-18T00:53:24Z</time>
      </trkpt>
      <trkpt lat="45.85708" lon="2.94605">
        <ele>956</ele>
        <time>2015-10-18T00:55:24Z</time>
      </trkpt>
      <trkpt lat="45.85745" lon="2.94639">
        <ele>945</ele>
        <time>2015-10-18T00:57:24Z</time>
      </trkpt>
      <trkpt lat="45.85778" lon="2.94674">
        <ele>941</ele>
        <time>2015-10-18T00:59:24Z</time>
      </trkpt>
      <trkpt lat="45.85816" lon="2.9471">
        <ele>937</ele>
        <time>2015-10-18T01:01:24Z</time>
      </trkpt>
      <trkpt lat="45.85843" lon="2.94751">
        <ele>933</ele>
        <time>2015-10-18T01:03:24Z</time>
      </trkpt>
      <trkpt lat="45.85861" lon="2.94802">
        <ele>931</ele>
        <time>2015-10-18T01:05:24Z</time>
      </trkpt>
      <trkpt lat="45.85873" lon="2.94883">
        <ele>934</ele>
        <time>2015-10-18T01:07:24Z</time>
      </trkpt>
      <trkpt lat="45.85891" lon="2.94965">
        <ele>935</ele>
        <time>2015-10-18T01:09:24Z</time>
      </trkpt>
      <trkpt lat="45.85923" lon="2.95064">
        <ele>933</ele>
        <time>2015-10-18T01:11:24Z</time>
      </trkpt>
      <trkpt lat="45.85941" lon="2.9497">
        <ele>935</ele>
        <time>2015-10-18T01:13:24Z</time>
      </trkpt>
      <trkpt lat="45.85963" lon="2.9488">
        <ele>932</ele>
        <time>2015-10-18T01:15:24Z</time>
      </trkpt>
      <trkpt lat="45.86016" lon="2.94781">
        <ele>921</ele>
        <time>2015-10-18T01:17:24Z</time>
      </trkpt>
      <trkpt lat="45.86055" lon="2.94719">
        <ele>916</ele>
        <time>2015-10-18T01:19:24Z</time>
      </trkpt>
      <trkpt lat="45.86111" lon="2.94618">
        <ele>905</ele>
        <time>2015-10-18T01:21:24Z</time>
      </trkpt>
      <trkpt lat="45.86156" lon="2.94568">
        <ele>899</ele>
        <time>2015-10-18T01:23:24Z</time>
      </trkpt>
      <trkpt lat="45.86203" lon="2.94508">
        <ele>894</ele>
        <time>2015-10-18T01:25:24Z</time>
      </trkpt>
      <trkpt lat="45.86229" lon="2.9445">
        <ele>888</ele>
        <time>2015-10-18T01:27:24Z</time>
      </trkpt>
      <trkpt lat="45.86252" lon="2.94395">
        <ele>883</ele>
        <time>2015-10-18T01:29:24Z</time>
      </trkpt>
      <trkpt lat="45.86267" lon="2.94335">
        <ele>880</ele>
        <time>2015-10-18T01:31:24Z</time>
      </trkpt>
      <trkpt lat="45.8627" lon="2.94268">
        <ele>876</ele>
        <time>2015-10-18T01:33:24Z</time>
      </trkpt>
      <trkpt lat="45.8627" lon="2.94197">
        <ele>872</ele>
        <time>2015-10-18T01:35:24Z</time>
      </trkpt>
      <trkpt lat="45.86279" lon="2.94144">
        <ele>871</ele>
        <time>2015-10-18T01:37:24Z</time>
      </trkpt>
      <trkpt lat="45.86285" lon="2.94038">
        <ele>868</ele>
        <time>2015-10-18T01:39:24Z</time>
      </trkpt>
      <trkpt lat="45.86295" lon="2.93946">
        <ele>865</ele>
        <time>2015-10-18T01:41:24Z</time>
      </trkpt>
      <trkpt lat="45.86315" lon="2.93993">
        <ele>868</ele>
        <time>2015-10-18T01:43:24Z</time>
      </trkpt>
      <trkpt lat="45.86352" lon="2.94043">
        <ele>870</ele>
        <time>2015-10-18T01:45:24Z</time>
      </trkpt>
      <trkpt lat="45.86386" lon="2.94096">
        <ele>872</ele>
        <time>2015-10-18T01:47:24Z</time>
      </trkpt>
      <trkpt lat="45.86416" lon="2.94141">
        <ele>874</ele>
        <time>2015-10-18T01:49:24Z</time>
      </trkpt>
      <trkpt lat="45.86468" lon="2.94195">
        <ele>872</ele>
        <time>2015-10-18T01:51:24Z</time>
      </trkpt>
      <trkpt lat="45.8651" lon="2.94257">
        <ele>868</ele>
        <time>2015-10-18T01:53:24Z</time>
      </trkpt>
      <trkpt lat="45.86536" lon="2.94315">
        <ele>867</ele>
        <time>2015-10-18T01:55:24Z</time>
      </trkpt>
      <trkpt lat="45.86579" lon="2.94367">
        <ele>867</ele>
        <time>2015-10-18T01:57:24Z</time>
      </trkpt>
      <trkpt lat="45.86648" lon="2.94453">
        <ele>872</ele>
        <time>2015-10-18T01:59:24Z</time>
      </trkpt>
      <trkpt lat="45.86696" lon="2.94498">
        <ele>872</ele>
        <time>2015-10-18T02:01:24Z</time>
      </trkpt>
      <trkpt lat="45.86739" lon="2.94521">
        <ele>873</ele>
        <time>2015-10-18T02:03:24Z</time>
      </trkpt>
      <trkpt lat="45.86787" lon="2.94556">
        <ele>876</ele>
        <time>2015-10-18T02:05:24Z</time>
      </trkpt>
      <trkpt lat="45.8679" lon="2.94674">
        <ele>883</ele>
        <time>2015-10-18T02:07:24Z</time>
      </trkpt>
      <trkpt lat="45.86799" lon="2.94755">
        <ele>886</ele>
        <time>2015-10-18T02:09:24Z</time>
      </trkpt>
      <trkpt lat="45.86806" lon="2.94815">
        <ele>888</ele>
        <time>2015-10-18T02:11:24Z</time>
      </trkpt>
      <trkpt lat="45.86815" lon="2.94858">
        <ele>889</ele>
        <time>2015-10-18T02:13:24Z</time>
      </trkpt>
      <trkpt lat="45.86802" lon="2.9489">
        <ele>890</ele>
        <time>2015-10-18T02:15:24Z</time>
      </trkpt>
      <trkpt lat="45.86791" lon="2.9491">
        <ele>892</ele>
        <time>2015-10-18T02:17:24Z</time>
      </trkpt>
      <trkpt lat="45.86784" lon="2.94946">
        <ele>895</ele>
        <time>2015-10-18T02:19:24Z</time>
      </trkpt>
      <trkpt lat="45.86767" lon="2.95068">
        <ele>903</ele>
        <time>2015-10-18T02:21:24Z</time>
      </trkpt>
      <trkpt lat="45.86755" lon="2.95184">
        <ele>907</ele>
        <time>2015-10-18T02:23:24Z</time>
      </trkpt>
      <trkpt lat="45.8677" lon="2.95311">
        <ele>909</ele>
        <time>2015-10-18T02:25:24Z</time>
      </trkpt>
      <trkpt lat="45.86814" lon="2.95283">
        <ele>904</ele>
        <time>2015-10-18T02:27:24Z</time>
      </trkpt>
      <trkpt lat="45.86835" lon="2.95253">
        <ele>901</ele>
        <time>2015-10-18T02:29:24Z</time>
      </trkpt>
      <trkpt lat="45.86864" lon="2.95197">
        <ele>901</ele>
        <time>2015-10-18T02:31:24Z</time>
      </trkpt>
      <trkpt lat="45.86941" lon="2.9515">
        <ele>900</ele>
        <time>2015-10-18T02:33:24Z</time>
      </trkpt>
      <trkpt lat="45.86994" lon="2.95103">
        <ele>899</ele>
        <time>2015-10-18T02:35:24Z</time>
      </trkpt>
      <trkpt lat="45.87038" lon="2.95107">
        <ele>899</ele>
        <time>2015-10-18T02:37:24Z</time>
      </trkpt>
      <trkpt lat="45.87098" lon="2.95098">
        <ele>896</ele>
        <time>2015-10-18T02:39:24Z</time>
      </trkpt>
      <trkpt lat="45.8713" lon="2.95068">
        <ele>892</ele>
        <time>2015-10-18T02:41:24Z</time>
      </trkpt>
      <trkpt lat="45.87181" lon="2.95032">
        <ele>888</ele>
        <time>2015-10-18T02:43:24Z</time>
      </trkpt>
      <trkpt lat="45.8723" lon="2.94974">
        <ele>884</ele>
        <time>2015-10-18T02:45:24Z</time>
      </trkpt>
      <trkpt lat="45.87242" lon="2.95019">
        <ele>883</ele>
        <time>2015-10-18T02:47:24Z</time>
      </trkpt>
      <trkpt lat="45.87272" lon="2.95073">
        <ele>881</ele>
        <time>2015-10-18T02:49:24Z</time>
      </trkpt>
      <trkpt lat="45.87305" lon="2.95109">
        <ele>881</ele>
        <time>2015-10-18T02:51:24Z</time>
      </trkpt>
      <trkpt lat="45.87317" lon="2.95148">
        <ele>881</ele>
        <time>2015-10-18T02:53:24Z</time>
      </trkpt>
      <trkpt lat="45.87311" lon="2.95204">
        <ele>883</ele>
        <time>2015-10-18T02:55:24Z</time>
      </trkpt>
      <trkpt lat="45.87304" lon="2.9524">
        <ele>885</ele>
        <time>2015-10-18T02:57:24Z</time>
      </trkpt>
      <trkpt lat="45.87305" lon="2.95292">
        <ele>889</ele>
        <time>2015-10-18T02:59:24Z</time>
      </trkpt>
      <trkpt lat="45.87308" lon="2.95343">
        <ele>893</ele>
        <time>2015-10-18T03:01:24Z</time>
      </trkpt>
      <trkpt lat="45.87313" lon="2.95386">
        <ele>893</ele>
        <time>2015-10-18T03:03:24Z</time>
      </trkpt>
      <trkpt lat="45.87329" lon="2.9544">
        <ele>892</ele>
        <time>2015-10-18T03:05:24Z</time>
      </trkpt>
      <trkpt lat="45.87323" lon="2.95493">
        <ele>890</ele>
        <time>2015-10-18T03:07:24Z</time>
      </trkpt>
      <trkpt lat="45.8732" lon="2.95547">
        <ele>889</ele>
        <time>2015-10-18T03:09:24Z</time>
      </trkpt>
      <trkpt lat="45.87305" lon="2.9559">
        <ele>889</ele>
        <time>2015-10-18T03:11:24Z</time>
      </trkpt>
      <trkpt lat="45.87292" lon="2.95609">
        <ele>890</ele>
        <time>2015-10-18T03:13:24Z</time>
      </trkpt>
      <trkpt lat="45.87272" lon="2.95659">
        <ele>892</ele>
        <time>2015-10-18T03:15:24Z</time>
      </trkpt>
      <trkpt lat="45.87238" lon="2.95706">
        <ele>897</ele>
        <time>2015-10-18T03:17:24Z</time>
      </trkpt>
      <trkpt lat="45.87204" lon="2.95725">
        <ele>899</ele>
        <time>2015-10-18T03:19:24Z</time>
      </trkpt>
      <trkpt lat="45.87159" lon="2.95772">
        <ele>897</ele>
        <time>2015-10-18T03:21:24Z</time>
      </trkpt>
      <trkpt lat="45.87124" lon="2.958">
        <ele>895</ele>
        <time>2015-10-18T03:23:24Z</time>
      </trkpt>
      <trkpt lat="45.87096" lon="2.95837">
        <ele>889</ele>
        <time>2015-10-18T03:25:24Z</time>
      </trkpt>
      <trkpt lat="45.87077" lon="2.95858">
        <ele>885</ele>
        <time>2015-10-18T03:27:24Z</time>
      </trkpt>
      <trkpt lat="45.87056" lon="2.95882">
        <ele>881</ele>
        <time>2015-10-18T03:29:24Z</time>
      </trkpt>
      <trkpt lat="45.87035" lon="2.95901">
        <ele>876</ele>
        <time>2015-10-18T03:31:24Z</time>
      </trkpt>
      <trkpt lat="45.87011" lon="2.9592">
        <ele>869</ele>
        <time>2015-10-18T03:33:24Z</time>
      </trkpt>
      <trkpt lat="45.86991" lon="2.95935">
        <ele>866</ele>
        <time>2015-10-18T03:35:24Z</time>
      </trkpt>
      <trkpt lat="45.86959" lon="2.95965">
        <ele>862</ele>
        <time>2015-10-18T03:37:24Z</time>
      </trkpt>
      <trkpt lat="45.8693" lon="2.95985">
        <ele>858</ele>
        <time>2015-10-18T03:39:24Z</time>
      </trkpt>
      <trkpt lat="45.86902" lon="2.9604">
        <ele>853</ele>
        <time>2015-10-18T03:41:24Z</time>
      </trkpt>
      <trkpt lat="45.86897" lon="2.96077">
        <ele>852</ele>
        <time>2015-10-18T03:43:24Z</time>
      </trkpt>
      <trkpt lat="45.86913" lon="2.96113">
        <ele>852</ele>
        <time>2015-10-18T03:45:24Z</time>
      </trkpt>
      <trkpt lat="45.86938" lon="2.96163">
        <ele>852</ele>
        <time>2015-10-18T03:47:24Z</time>
      </trkpt>
      <trkpt lat="45.86954" lon="2.96206">
        <ele>851</ele>
        <time>2015-10-18T03:49:24Z</time>
      </trkpt>
      <trkpt lat="45.86965" lon="2.96236">
        <ele>851</ele>
        <time>2015-10-18T03:51:24Z</time>
      </trkpt>
      <trkpt lat="45.86983" lon="2.96296">
        <ele>850</ele>
        <time>2015-10-18T03:53:24Z</time>
      </trkpt>
      <trkpt lat="45.86998" lon="2.9636">
        <ele>849</ele>
        <time>2015-10-18T03:55:24Z</time>
      </trkpt>
      <trkpt lat="45.8701" lon="2.96433">
        <ele>846</ele>
        <time>2015-10-18T03:57:24Z</time>
      </trkpt>
      <trkpt lat="45.87029" lon="2.96553">
        <ele>845</ele>
        <time>2015-10-18T03:59:24Z</time>
      </trkpt>
      <trkpt lat="45.87046" lon="2.96686">
        <ele>843</ele>
        <time>2015-10-18T04:01:24Z</time>
      </trkpt>
      <trkpt lat="45.87058" lon="2.96744">
        <ele>842</ele>
        <time>2015-10-18T04:03:24Z</time>
      </trkpt>
      <trkpt lat="45.87074" lon="2.96867">
        <ele>839</ele>
        <time>2015-10-18T04:05:24Z</time>
      </trkpt>
      <trkpt lat="45.87086" lon="2.96916">
        <ele>837</ele>
        <time>2015-10-18T04:07:24Z</time>
      </trkpt>
      <trkpt lat="45.87092" lon="2.96967">
        <ele>836</ele>
        <time>2015-10-18T04:09:24Z</time>
      </trkpt>
      <trkpt lat="45.87102" lon="2.97015">
        <ele>835</ele>
        <time>2015-10-18T04:11:24Z</time>
      </trkpt>
      <trkpt lat="45.87128" lon="2.97062">
        <ele>833</ele>
        <time>2015-10-18T04:13:24Z</time>
      </trkpt>
      <trkpt lat="45.87149" lon="2.97107">
        <ele>831</ele>
        <time>2015-10-18T04:15:24Z</time>
      </trkpt>
      <trkpt lat="45.87167" lon="2.97152">
        <ele>830</ele>
        <time>2015-10-18T04:17:24Z</time>
      </trkpt>
      <trkpt lat="45.87207" lon="2.97234">
        <ele>826</ele>
        <time>2015-10-18T04:19:24Z</time>
      </trkpt>
      <trkpt lat="45.87217" lon="2.97281">
        <ele>823</ele>
        <time>2015-10-18T04:21:24Z</time>
      </trkpt>
      <trkpt lat="45.87235" lon="2.9733">
        <ele>821</ele>
        <time>2015-10-18T04:23:24Z</time>
      </trkpt>
      <trkpt lat="45.87256" lon="2.97397">
        <ele>820</ele>
        <time>2015-10-18T04:25:24Z</time>
      </trkpt>
      <trkpt lat="45.87285" lon="2.97508">
        <ele>820</ele>
        <time>2015-10-18T04:27:24Z</time>
      </trkpt>
      <trkpt lat="45.873" lon="2.976">
        <ele>819</ele>
        <time>2015-10-18T04:29:24Z</time>
      </trkpt>
      <trkpt lat="45.8732" lon="2.97671">
        <ele>816</ele>
        <time>2015-10-18T04:31:24Z</time>
      </trkpt>
      <trkpt lat="45.87334" lon="2.97708">
        <ele>816</ele>
        <time>2015-10-18T04:33:24Z</time>
      </trkpt>
      <trkpt lat="45.87362" lon="2.97746">
        <ele>816</ele>
        <time>2015-10-18T04:35:24Z</time>
      </trkpt>
      <trkpt lat="45.87404" lon="2.97809">
        <ele>815</ele>
        <time>2015-10-18T04:37:24Z</time>
      </trkpt>
      <trkpt lat="45.87418" lon="2.97843">
        <ele>815</ele>
        <time>2015-10-18T04:39:24Z</time>
      </trkpt>
      <trkpt lat="45.87455" lon="2.9789">
        <ele>813</ele>
        <time>2015-10-18T04:41:24Z</time>
      </trkpt>
      <trkpt lat="45.87479" lon="2.97939">
        <ele>812</ele>
        <time>2015-10-18T04:43:24Z</time>
      </trkpt>
      <trkpt lat="45.87501" lon="2.97978">
        <ele>810</ele>
        <time>2015-10-18T04:45:24Z</time>
      </trkpt>
      <trkpt lat="45.87542" lon="2.98027">
        <ele>806</ele>
        <time>2015-10-18T04:47:24Z</time>
      </trkpt>
      <trkpt lat="45.87568" lon="2.98068">
        <ele>803</ele>
        <time>2015-10-18T04:49:24Z</time>
      </trkpt>
      <trkpt lat="45.8757" lon="2.98118">
        <ele>804</ele>
        <time>2015-10-18T04:51:24Z</time>
      </trkpt>
      <trkpt lat="45.87564" lon="2.98156">
        <ele>805</ele>
        <time>2015-10-18T04:53:24Z</time>
      </trkpt>
      <trkpt lat="45.87554" lon="2.9818">
        <ele>806</ele>
        <time>2015-10-18T04:55:24Z</time>
      </trkpt>
      <trkpt lat="45.87524" lon="2.98227">
        <ele>807</ele>
        <time>2015-10-18T04:57:24Z</time>
      </trkpt>
      <trkpt lat="45.87485" lon="2.98274">
        <ele>805</ele>
        <time>2015-10-18T04:59:24Z</time>
      </trkpt>
      <trkpt lat="45.87467" lon="2.98291">
        <ele>804</ele>
        <time>2015-10-18T05:01:24Z</time>
      </trkpt>
      <trkpt lat="45.87413" lon="2.98328">
        <ele>803</ele>
        <time>2015-10-18T05:03:24Z</time>
      </trkpt>
      <trkpt lat="45.87389" lon="2.98354">
        <ele>801</ele>
        <time>2015-10-18T05:05:24Z</time>
      </trkpt>
      <trkpt lat="45.8737" lon="2.98375">
        <ele>800</ele>
        <time>2015-10-18T05:07:24Z</time>
      </trkpt>
      <trkpt lat="45.87332" lon="2.98433">
        <ele>798</ele>
        <time>2015-10-18T05:09:24Z</time>
      </trkpt>
      <trkpt lat="45.87301" lon="2.98525">
        <ele>793</ele>
        <time>2015-10-18T05:11:24Z</time>
      </trkpt>
      <trkpt lat="45.87279" lon="2.9859">
        <ele>793</ele>
        <time>2015-10-18T05:13:24Z</time>
      </trkpt>
      <trkpt lat="45.87261" lon="2.98667">
        <ele>793</ele>
        <time>2015-10-18T05:15:24Z</time>
      </trkpt>
      <trkpt lat="45.87265" lon="2.98718">
        <ele>791</ele>
        <time>2015-10-18T05:17:24Z</time>
      </trkpt>
      <trkpt lat="45.8727" lon="2.98789">
        <ele>788</ele>
        <time>2015-10-18T05:19:24Z</time>
      </trkpt>
      <trkpt lat="45.87268" lon="2.98854">
        <ele>787</ele>
        <time>2015-10-18T05:21:24Z</time>
      </trkpt>
      <trkpt lat="45.87261" lon="2.98909">
        <ele>787</ele>
        <time>2015-10-18T05:23:24Z</time>
      </trkpt>
      <trkpt lat="45.87267" lon="2.98963">
        <ele>785</ele>
        <time>2015-10-18T05:25:24Z</time>
      </trkpt>
    </trkseg>
  </trk>
</gpx>